ftp/pub/mcmurdo/arrivalheights/2019/03182019.txt

Download

		Temp	Hi	Low	Wind	Wind	Wind	Hi	Wind		Heat	Cool	In 	In	Arc.
Date	Time	Out	Temp	Temp	Speed	Dir	Run	Speed	Chill	Bar  	D-D 	D-D 	Temp	Hum	Int.
03/17/19	12:01 a	-26.6	-26.6	-26.6	47.0	ESE	0.78	50.4	-48.0	712.1	0.031	0.000	15.4	94	1
03/17/19	12:02 a	-26.6	-26.6	-26.6	42.6	ESE	0.71	47.8	-47.3	712.7	0.031	0.000	15.4	95	1
03/17/19	12:03 a	-26.6	-26.6	-26.6	44.3	ESE	0.74	50.4	-47.6	712.1	0.031	0.000	15.4	96	1
03/17/19	12:04 a	-26.6	-26.6	-26.6	47.0	ESE	0.78	50.4	-48.0	712.4	0.031	0.000	15.4	97	1
03/17/19	12:05 a	-26.6	-26.6	-26.6	41.7	ESE	0.70	46.1	-47.3	712.4	0.031	0.000	15.4	97	1
03/17/19	12:06 a	-26.6	-26.6	-26.6	44.3	ESE	0.74	48.7	-47.6	712.1	0.031	0.000	15.4	97	1
03/17/19	12:07 a	-26.6	-26.6	-26.6	47.0	ESE	0.78	51.3	-48.0	712.1	0.031	0.000	15.4	97	1
03/17/19	12:08 a	-26.6	-26.6	-26.6	46.1	ESE	0.77	52.2	-47.9	712.3	0.031	0.000	15.3	97	1
03/17/19	12:09 a	-26.6	-26.6	-26.6	45.2	ESE	0.75	49.6	-47.8	712.1	0.031	0.000	15.3	97	1
03/17/19	12:10 a	-26.6	-26.6	-26.6	46.1	ESE	0.77	49.6	-47.9	712.4	0.031	0.000	15.3	96	1
03/17/19	12:11 a	-26.6	-26.6	-26.6	44.3	ESE	0.74	48.7	-47.6	712.1	0.031	0.000	15.3	94	1
03/17/19	12:12 a	-26.6	-26.6	-26.6	47.0	ESE	0.78	51.3	-48.0	712.4	0.031	0.000	15.3	93	1
03/17/19	12:13 a	-26.6	-26.6	-26.6	43.5	ESE	0.72	47.0	-47.5	712.0	0.031	0.000	15.3	94	1
03/17/19	12:14 a	-26.6	-26.6	-26.6	45.2	ESE	0.75	49.6	-47.8	712.2	0.031	0.000	15.3	97	1
03/17/19	12:15 a	-26.6	-26.6	-26.6	42.6	ESE	0.71	49.6	-47.3	712.6	0.031	0.000	15.3	97	1
03/17/19	12:16 a	-26.6	-26.5	-26.6	41.7	ESE	0.70	47.0	-47.2	712.0	0.031	0.000	15.3	97	1
03/17/19	12:17 a	-26.6	-26.5	-26.6	47.8	ESE	0.80	52.2	-48.2	712.2	0.031	0.000	15.3	97	1
03/17/19	12:18 a	-26.6	-26.5	-26.6	41.7	ESE	0.70	46.1	-47.2	712.3	0.031	0.000	15.3	97	1
03/17/19	12:19 a	-26.6	-26.6	-26.6	46.1	ESE	0.77	50.4	-47.9	712.4	0.031	0.000	15.3	97	1
03/17/19	12:20 a	-26.6	-26.5	-26.6	42.6	ESE	0.71	46.1	-47.3	712.5	0.031	0.000	15.3	97	1
03/17/19	12:21 a	-26.6	-26.5	-26.6	45.2	ESE	0.75	50.4	-47.8	712.1	0.031	0.000	15.3	97	1
03/17/19	12:22 a	-26.6	-26.5	-26.6	46.1	ESE	0.77	49.6	-47.9	712.4	0.031	0.000	15.3	97	1
03/17/19	12:23 a	-26.6	-26.5	-26.6	41.7	ESE	0.70	47.0	-47.2	712.2	0.031	0.000	15.2	97	1
03/17/19	12:24 a	-26.5	-26.5	-26.6	46.1	ESE	0.77	48.7	-47.8	712.1	0.031	0.000	15.2	97	1
03/17/19	12:25 a	-26.5	-26.5	-26.6	46.1	ESE	0.77	50.4	-47.8	712.6	0.031	0.000	15.2	96	1
03/17/19	12:26 a	-26.5	-26.5	-26.6	39.1	ESE	0.65	42.6	-46.7	712.5	0.031	0.000	15.2	86	1
03/17/19	12:27 a	-26.5	-26.5	-26.5	46.1	ESE	0.77	51.3	-47.8	712.1	0.031	0.000	15.2	88	1
03/17/19	12:28 a	-26.5	-26.5	-26.6	44.3	ESE	0.74	47.8	-47.6	712.5	0.031	0.000	15.2	91	1
03/17/19	12:29 a	-26.5	-26.5	-26.6	40.9	ESE	0.68	47.8	-46.9	712.3	0.031	0.000	15.2	93	1
03/17/19	12:30 a	-26.5	-26.5	-26.5	46.1	ESE	0.77	51.3	-47.8	712.0	0.031	0.000	15.2	93	1
03/17/19	12:31 a	-26.5	-26.5	-26.5	46.1	ESE	0.77	52.2	-47.8	712.0	0.031	0.000	15.2	87	1
03/17/19	12:32 a	-26.5	-26.5	-26.5	47.8	ESE	0.80	52.2	-48.1	712.3	0.031	0.000	15.2	93	1
03/17/19	12:33 a	-26.5	-26.5	-26.5	43.5	ESE	0.72	49.6	-47.4	712.2	0.031	0.000	15.2	93	1
03/17/19	12:34 a	-26.5	-26.5	-26.5	48.7	ESE	0.81	52.2	-48.2	712.0	0.031	0.000	15.2	89	1
03/17/19	12:35 a	-26.5	-26.4	-26.5	43.5	ESE	0.72	49.6	-47.4	712.4	0.031	0.000	15.2	68	1
03/17/19	12:36 a	-26.5	-26.5	-26.5	45.2	ESE	0.75	48.7	-47.7	712.0	0.031	0.000	15.2	54	1
03/17/19	12:37 a	-26.5	-26.4	-26.5	47.0	ESE	0.78	52.2	-47.9	712.4	0.031	0.000	15.2	53	1
03/17/19	12:38 a	-26.5	-26.5	-26.5	41.7	ESE	0.70	46.1	-47.1	712.1	0.031	0.000	15.2	54	1
03/17/19	12:39 a	-26.4	-26.4	-26.5	47.0	ESE	0.78	50.4	-47.9	712.2	0.031	0.000	15.2	55	1
03/17/19	12:40 a	-26.5	-26.4	-26.5	44.3	ESE	0.74	47.8	-47.6	712.2	0.031	0.000	15.2	59	1
03/17/19	12:41 a	-26.5	-26.4	-26.5	48.7	ESE	0.81	53.0	-48.2	711.9	0.031	0.000	15.1	58	1
03/17/19	12:42 a	-26.4	-26.4	-26.4	45.2	ESE	0.75	51.3	-47.6	712.2	0.031	0.000	15.2	26	1
03/17/19	12:43 a	-26.4	-26.4	-26.5	45.2	ESE	0.75	53.0	-47.6	711.7	0.031	0.000	15.1	27	1
03/17/19	12:44 a	-26.4	-26.4	-26.5	46.1	ESE	0.77	53.9	-47.7	712.4	0.031	0.000	15.1	21	1
03/17/19	12:45 a	-26.4	-26.4	-26.4	43.5	ESE	0.72	49.6	-47.3	712.0	0.031	0.000	15.1	20	1
03/17/19	12:46 a	-26.4	-26.4	-26.4	47.8	ESE	0.80	49.6	-48.0	712.2	0.031	0.000	15.1	20	1
03/17/19	12:47 a	-26.4	-26.4	-26.4	47.0	ESE	0.78	49.6	-47.9	712.2	0.031	0.000	15.1	20	1
03/17/19	12:48 a	-26.4	-26.4	-26.4	43.5	ESE	0.72	50.4	-47.3	712.2	0.031	0.000	15.1	22	1
03/17/19	12:49 a	-26.4	-26.4	-26.4	45.2	ESE	0.75	49.6	-47.6	712.1	0.031	0.000	15.1	24	1
03/17/19	12:50 a	-26.4	-26.4	-26.4	45.2	ESE	0.75	49.6	-47.6	712.1	0.031	0.000	15.1	22	1
03/17/19	12:51 a	-26.4	-26.4	-26.4	45.2	ESE	0.75	49.6	-47.6	712.1	0.031	0.000	15.1	22	1
03/17/19	12:52 a	-26.4	-26.4	-26.4	43.5	ESE	0.72	47.8	-47.3	712.2	0.031	0.000	15.1	21	1
03/17/19	12:53 a	-26.4	-26.4	-26.4	46.1	ESE	0.77	51.3	-47.7	712.1	0.031	0.000	15.1	19	1
03/17/19	12:54 a	-26.4	-26.4	-26.4	43.5	ESE	0.72	47.8	-47.3	712.5	0.031	0.000	15.1	20	1
03/17/19	12:55 a	-26.4	-26.4	-26.4	40.9	ESE	0.68	44.3	-46.8	712.4	0.031	0.000	15.1	20	1
03/17/19	12:56 a	-26.4	-26.4	-26.4	46.1	ESE	0.77	50.4	-47.7	712.1	0.031	0.000	15.1	21	1
03/17/19	12:57 a	-26.4	-26.4	-26.4	43.5	ESE	0.72	47.8	-47.2	712.2	0.031	0.000	15.1	20	1
03/17/19	12:58 a	-26.4	-26.4	-26.4	43.5	ESE	0.72	47.0	-47.2	712.3	0.031	0.000	15.1	19	1
03/17/19	12:59 a	-26.4	-26.4	-26.4	44.3	ESE	0.74	47.8	-47.4	712.2	0.031	0.000	15.1	19	1
03/17/19	1:00 a	-26.4	-26.3	-26.4	46.1	ESE	0.77	50.4	-47.7	712.0	0.031	0.000	15.1	19	1
03/17/19	1:01 a	-26.4	-26.4	-26.4	44.3	ESE	0.74	47.8	-47.4	712.1	0.031	0.000	15.0	19	1
03/17/19	1:02 a	-26.4	-26.4	-26.4	44.3	ESE	0.74	49.6	-47.4	712.0	0.031	0.000	15.0	19	1
03/17/19	1:03 a	-26.4	-26.3	-26.4	44.3	ESE	0.74	48.7	-47.4	712.1	0.031	0.000	15.0	19	1
03/17/19	1:04 a	-26.4	-26.3	-26.4	45.2	ESE	0.75	48.7	-47.5	712.0	0.031	0.000	15.0	19	1
03/17/19	1:05 a	-26.4	-26.3	-26.4	47.0	ESE	0.78	50.4	-47.8	712.3	0.031	0.000	15.0	19	1
03/17/19	1:06 a	-26.3	-26.3	-26.4	40.9	ESE	0.68	46.1	-46.7	712.5	0.031	0.000	15.0	19	1
03/17/19	1:07 a	-26.4	-26.3	-26.4	43.5	ESE	0.72	48.7	-47.2	712.1	0.031	0.000	15.0	19	1
03/17/19	1:08 a	-26.4	-26.3	-26.4	45.2	ESE	0.75	49.6	-47.5	712.2	0.031	0.000	15.0	19	1
03/17/19	1:09 a	-26.3	-26.3	-26.4	43.5	ESE	0.72	47.0	-47.2	712.4	0.031	0.000	15.0	19	1
03/17/19	1:10 a	-26.3	-26.3	-26.3	44.3	ESE	0.74	49.6	-47.3	712.3	0.031	0.000	15.0	19	1
03/17/19	1:11 a	-26.3	-26.3	-26.3	42.6	ESE	0.71	47.0	-47.0	712.5	0.031	0.000	15.0	19	1
03/17/19	1:12 a	-26.3	-26.3	-26.3	41.7	ESE	0.70	47.0	-46.9	712.4	0.031	0.000	14.9	19	1
03/17/19	1:13 a	-26.3	-26.3	-26.3	40.9	ESE	0.68	46.1	-46.7	712.3	0.031	0.000	14.9	19	1
03/17/19	1:14 a	-26.3	-26.3	-26.3	45.2	ESE	0.75	48.7	-47.4	712.2	0.031	0.000	14.9	18	1
03/17/19	1:15 a	-26.3	-26.3	-26.3	41.7	ESE	0.70	45.2	-46.9	712.5	0.031	0.000	14.9	18	1
03/17/19	1:16 a	-26.3	-26.3	-26.3	42.6	ESE	0.71	47.0	-47.0	712.3	0.031	0.000	14.9	18	1
03/17/19	1:17 a	-26.3	-26.3	-26.3	43.5	ESE	0.72	49.6	-47.2	712.3	0.031	0.000	14.9	19	1
03/17/19	1:18 a	-26.3	-26.3	-26.3	42.6	ESE	0.71	46.1	-46.9	712.4	0.031	0.000	14.9	18	1
03/17/19	1:19 a	-26.3	-26.3	-26.3	41.7	ESE	0.70	47.0	-46.8	712.4	0.031	0.000	14.9	18	1
03/17/19	1:20 a	-26.3	-26.3	-26.3	42.6	ESE	0.71	46.1	-46.9	712.3	0.031	0.000	14.9	18	1
03/17/19	1:21 a	-26.3	-26.3	-26.3	41.7	ESE	0.70	46.1	-46.8	712.7	0.031	0.000	14.9	18	1
03/17/19	1:22 a	-26.3	-26.3	-26.3	40.0	ESE	0.67	43.5	-46.5	712.5	0.031	0.000	14.9	18	1
03/17/19	1:23 a	-26.3	-26.3	-26.3	42.6	ESE	0.71	47.0	-46.9	712.6	0.031	0.000	14.9	18	1
03/17/19	1:24 a	-26.3	-26.3	-26.3	42.6	ESE	0.71	45.2	-46.9	712.5	0.031	0.000	14.9	18	1
03/17/19	1:25 a	-26.3	-26.3	-26.3	43.5	ESE	0.72	46.1	-47.1	712.4	0.031	0.000	14.9	18	1
03/17/19	1:26 a	-26.3	-26.2	-26.3	40.9	ESE	0.68	46.1	-46.7	712.6	0.031	0.000	14.9	18	1
03/17/19	1:27 a	-26.3	-26.2	-26.3	43.5	ESE	0.72	46.1	-47.1	712.3	0.031	0.000	14.9	18	1
03/17/19	1:28 a	-26.2	-26.2	-26.3	43.5	ESE	0.72	48.7	-47.0	712.3	0.031	0.000	14.9	19	1
03/17/19	1:29 a	-26.2	-26.2	-26.3	43.5	ESE	0.72	47.8	-47.0	712.5	0.031	0.000	14.9	19	1
03/17/19	1:30 a	-26.2	-26.2	-26.2	41.7	ESE	0.70	46.1	-46.7	712.2	0.031	0.000	14.9	19	1
03/17/19	1:31 a	-26.2	-26.2	-26.2	44.3	ESE	0.74	47.8	-47.2	712.3	0.031	0.000	14.9	19	1
03/17/19	1:32 a	-26.2	-26.2	-26.2	42.6	ESE	0.71	47.0	-46.9	712.3	0.031	0.000	14.8	22	1
03/17/19	1:33 a	-26.2	-26.2	-26.2	42.6	ESE	0.71	47.8	-46.9	712.4	0.031	0.000	14.8	45	1
03/17/19	1:34 a	-26.2	-26.2	-26.2	40.0	ESE	0.67	44.3	-46.3	712.4	0.031	0.000	14.8	72	1
03/17/19	1:35 a	-26.2	-26.2	-26.2	42.6	ESE	0.71	46.1	-46.8	712.3	0.031	0.000	14.8	94	1
03/17/19	1:36 a	-26.2	-26.2	-26.2	43.5	ESE	0.72	47.8	-46.9	712.2	0.031	0.000	14.8	95	1
03/17/19	1:37 a	-26.2	-26.2	-26.2	44.3	ESE	0.74	46.1	-47.1	712.3	0.031	0.000	14.8	96	1
03/17/19	1:38 a	-26.2	-26.2	-26.2	45.2	ESE	0.75	47.8	-47.2	712.1	0.031	0.000	14.8	96	1
03/17/19	1:39 a	-26.2	-26.1	-26.2	44.3	ESE	0.74	49.6	-47.1	712.1	0.031	0.000	14.8	96	1
03/17/19	1:40 a	-26.1	-26.1	-26.2	44.3	ESE	0.74	48.7	-47.0	712.0	0.031	0.000	14.8	96	1
03/17/19	1:41 a	-26.1	-26.1	-26.2	43.5	ESE	0.72	50.4	-46.8	712.3	0.031	0.000	14.8	97	1
03/17/19	1:42 a	-26.1	-26.1	-26.2	40.9	ESE	0.68	44.3	-46.4	712.1	0.031	0.000	14.8	97	1
03/17/19	1:43 a	-26.1	-26.1	-26.1	45.2	ESE	0.75	48.7	-47.1	712.2	0.031	0.000	14.8	97	1
03/17/19	1:44 a	-26.1	-26.1	-26.1	41.7	ESE	0.70	46.1	-46.6	712.3	0.031	0.000	14.8	97	1
03/17/19	1:45 a	-26.1	-26.1	-26.1	44.3	ESE	0.74	48.7	-47.0	712.4	0.031	0.000	14.8	97	1
03/17/19	1:46 a	-26.1	-26.1	-26.1	44.3	ESE	0.74	47.8	-47.0	712.2	0.031	0.000	14.8	97	1
03/17/19	1:47 a	-26.1	-26.1	-26.1	41.7	ESE	0.70	45.2	-46.6	712.2	0.031	0.000	14.8	97	1
03/17/19	1:48 a	-26.1	-26.1	-26.1	45.2	ESE	0.75	49.6	-47.1	712.1	0.031	0.000	14.8	97	1
03/17/19	1:49 a	-26.1	-26.1	-26.1	44.3	ESE	0.74	46.1	-46.9	712.2	0.031	0.000	14.8	97	1
03/17/19	1:50 a	-26.1	-26.1	-26.1	44.3	ESE	0.74	49.6	-46.9	712.2	0.031	0.000	14.8	97	1
03/17/19	1:51 a	-26.1	-26.1	-26.1	43.5	ESE	0.72	47.8	-46.8	712.3	0.031	0.000	14.8	97	1
03/17/19	1:52 a	-26.1	-26.1	-26.1	42.6	ESE	0.71	47.8	-46.6	712.2	0.031	0.000	14.7	97	1
03/17/19	1:53 a	-26.1	-26.0	-26.1	45.2	ESE	0.75	50.4	-47.1	712.2	0.031	0.000	14.7	96	1
03/17/19	1:54 a	-26.1	-26.1	-26.1	45.2	ESE	0.75	50.4	-47.1	712.2	0.031	0.000	14.7	97	1
03/17/19	1:55 a	-26.1	-26.0	-26.1	41.7	ESE	0.70	47.0	-46.5	712.4	0.031	0.000	14.7	97	1
03/17/19	1:56 a	-26.0	-26.0	-26.0	42.6	ESE	0.71	47.8	-46.6	712.2	0.031	0.000	14.7	97	1
03/17/19	1:57 a	-26.0	-26.0	-26.1	40.9	ESE	0.68	47.0	-46.3	712.5	0.031	0.000	14.7	97	1
03/17/19	1:58 a	-26.0	-26.0	-26.0	41.7	ESE	0.70	47.0	-46.4	712.3	0.031	0.000	14.7	97	1
03/17/19	1:59 a	-26.0	-25.9	-26.0	40.0	ESE	0.67	44.3	-46.1	712.5	0.031	0.000	14.7	97	1
03/17/19	2:00 a	-26.0	-25.9	-26.0	44.3	ESE	0.74	47.8	-46.8	712.3	0.031	0.000	14.7	97	1
03/17/19	2:01 a	-26.0	-25.9	-26.0	40.9	ESE	0.68	42.6	-46.3	712.7	0.031	0.000	14.7	97	1
03/17/19	2:02 a	-26.0	-25.9	-26.0	41.7	ESE	0.70	47.0	-46.4	712.4	0.031	0.000	14.7	97	1
03/17/19	2:03 a	-25.9	-25.9	-26.0	43.5	ESE	0.72	47.8	-46.6	712.4	0.031	0.000	14.7	97	1
03/17/19	2:04 a	-25.9	-25.9	-25.9	44.3	ESE	0.74	47.8	-46.7	712.3	0.031	0.000	14.7	97	1
03/17/19	2:05 a	-25.9	-25.9	-25.9	40.9	ESE	0.68	44.3	-46.2	712.7	0.031	0.000	14.7	98	1
03/17/19	2:06 a	-25.9	-25.9	-25.9	42.6	ESE	0.71	46.1	-46.4	712.5	0.031	0.000	14.7	98	1
03/17/19	2:07 a	-25.9	-25.9	-25.9	43.5	ESE	0.72	47.0	-46.6	712.4	0.031	0.000	14.7	98	1
03/17/19	2:08 a	-25.9	-25.9	-25.9	40.9	ESE	0.68	46.1	-46.2	712.6	0.031	0.000	14.7	98	1
03/17/19	2:09 a	-25.9	-25.9	-25.9	44.3	ESE	0.74	48.7	-46.7	712.4	0.031	0.000	14.7	98	1
03/17/19	2:10 a	-25.9	-25.9	-25.9	44.3	ESE	0.74	49.6	-46.7	712.4	0.031	0.000	14.7	98	1
03/17/19	2:11 a	-25.9	-25.9	-25.9	41.7	ESE	0.70	47.8	-46.3	712.5	0.031	0.000	14.7	98	1
03/17/19	2:12 a	-25.9	-25.9	-25.9	42.6	ESE	0.71	46.1	-46.4	712.6	0.031	0.000	14.7	98	1
03/17/19	2:13 a	-25.9	-25.9	-25.9	40.9	ESE	0.68	44.3	-46.2	712.6	0.031	0.000	14.7	98	1
03/17/19	2:14 a	-25.9	-25.9	-25.9	41.7	ESE	0.70	47.0	-46.3	712.4	0.031	0.000	14.7	98	1
03/17/19	2:15 a	-25.9	-25.9	-25.9	42.6	ESE	0.71	47.8	-46.4	712.4	0.031	0.000	14.7	98	1
03/17/19	2:16 a	-25.9	-25.9	-25.9	41.7	ESE	0.70	47.0	-46.3	712.4	0.031	0.000	14.7	98	1
03/17/19	2:17 a	-25.9	-25.9	-25.9	40.9	ESE	0.68	45.2	-46.2	712.4	0.031	0.000	14.7	98	1
03/17/19	2:18 a	-25.9	-25.9	-25.9	42.6	ESE	0.71	47.8	-46.4	712.2	0.031	0.000	14.7	98	1
03/17/19	2:19 a	-25.9	-25.9	-25.9	44.3	ESE	0.74	47.0	-46.7	712.5	0.031	0.000	14.7	98	1
03/17/19	2:20 a	-25.9	-25.9	-25.9	41.7	ESE	0.70	46.1	-46.3	712.4	0.031	0.000	14.7	97	1
03/17/19	2:21 a	-25.9	-25.9	-25.9	44.3	ESE	0.74	48.7	-46.7	712.4	0.031	0.000	14.7	98	1
03/17/19	2:22 a	-25.9	-25.9	-25.9	40.9	ESE	0.68	45.2	-46.2	712.5	0.031	0.000	14.7	98	1
03/17/19	2:23 a	-25.9	-25.9	-25.9	44.3	ESE	0.74	50.4	-46.7	712.3	0.031	0.000	14.7	98	1
03/17/19	2:24 a	-25.9	-25.9	-25.9	44.3	ESE	0.74	49.6	-46.7	712.5	0.031	0.000	14.7	98	1
03/17/19	2:25 a	-25.9	-25.9	-25.9	39.1	ESE	0.65	43.5	-45.9	712.6	0.031	0.000	14.7	98	1
03/17/19	2:26 a	-25.9	-25.9	-25.9	42.6	ESE	0.71	47.0	-46.4	712.3	0.031	0.000	14.6	98	1
03/17/19	2:27 a	-25.9	-25.9	-25.9	43.5	ESE	0.72	47.8	-46.6	712.5	0.031	0.000	14.6	98	1
03/17/19	2:28 a	-25.9	-25.9	-25.9	40.0	ESE	0.67	44.3	-45.9	712.5	0.031	0.000	14.6	98	1
03/17/19	2:29 a	-25.9	-25.9	-25.9	40.9	ESE	0.68	49.6	-46.1	712.1	0.031	0.000	14.6	98	1
03/17/19	2:30 a	-25.9	-25.9	-25.9	46.1	ESE	0.77	50.4	-46.9	712.6	0.031	0.000	14.6	98	1
03/17/19	2:31 a	-25.9	-25.9	-25.9	40.9	ESE	0.68	47.0	-46.1	712.4	0.031	0.000	14.6	98	1
03/17/19	2:32 a	-25.9	-25.9	-25.9	42.6	ESE	0.71	45.2	-46.4	712.4	0.031	0.000	14.6	98	1
03/17/19	2:33 a	-25.9	-25.9	-25.9	42.6	ESE	0.71	45.2	-46.4	712.5	0.031	0.000	14.6	98	1
03/17/19	2:34 a	-25.9	-25.8	-25.9	44.3	ESE	0.74	47.0	-46.7	712.3	0.031	0.000	14.6	97	1
03/17/19	2:35 a	-25.9	-25.8	-25.9	42.6	ESE	0.71	47.8	-46.4	712.4	0.031	0.000	14.6	97	1
03/17/19	2:36 a	-25.9	-25.8	-25.9	41.7	ESE	0.70	46.1	-46.2	712.5	0.031	0.000	14.6	97	1
03/17/19	2:37 a	-25.8	-25.8	-25.9	44.3	ESE	0.74	48.7	-46.6	712.3	0.031	0.000	14.6	97	1
03/17/19	2:38 a	-25.8	-25.8	-25.8	45.2	ESE	0.75	49.6	-46.7	712.3	0.031	0.000	14.6	96	1
03/17/19	2:39 a	-25.8	-25.8	-25.9	42.6	ESE	0.71	47.8	-46.3	712.4	0.031	0.000	14.6	96	1
03/17/19	2:40 a	-25.8	-25.8	-25.8	41.7	ESE	0.70	47.0	-46.2	712.4	0.031	0.000	14.6	95	1
03/17/19	2:41 a	-25.8	-25.8	-25.8	42.6	ESE	0.71	47.0	-46.3	712.3	0.031	0.000	14.6	92	1
03/17/19	2:42 a	-25.8	-25.8	-25.8	42.6	ESE	0.71	47.8	-46.3	712.3	0.031	0.000	14.6	91	1
03/17/19	2:43 a	-25.8	-25.8	-25.8	44.3	ESE	0.74	49.6	-46.6	712.2	0.031	0.000	14.6	84	1
03/17/19	2:44 a	-25.8	-25.8	-25.8	41.7	ESE	0.70	47.8	-46.2	712.5	0.031	0.000	14.6	71	1
03/17/19	2:45 a	-25.8	-25.8	-25.8	40.9	ESE	0.68	43.5	-46.0	712.3	0.031	0.000	14.6	86	1
03/17/19	2:46 a	-25.8	-25.8	-25.8	44.3	ESE	0.74	47.8	-46.6	712.5	0.031	0.000	14.6	82	1
03/17/19	2:47 a	-25.8	-25.8	-25.8	40.9	ESE	0.68	46.1	-46.0	712.5	0.031	0.000	14.6	84	1
03/17/19	2:48 a	-25.8	-25.8	-25.8	42.6	ESE	0.71	46.1	-46.2	712.3	0.031	0.000	14.6	85	1
03/17/19	2:49 a	-25.8	-25.8	-25.8	44.3	ESE	0.74	47.8	-46.5	712.6	0.031	0.000	14.6	85	1
03/17/19	2:50 a	-25.8	-25.8	-25.8	40.9	ESE	0.68	45.2	-45.9	712.4	0.031	0.000	14.6	84	1
03/17/19	2:51 a	-25.8	-25.8	-25.8	44.3	ESE	0.74	47.8	-46.5	712.3	0.031	0.000	14.6	84	1
03/17/19	2:52 a	-25.8	-25.8	-25.8	44.3	ESE	0.74	48.7	-46.5	712.4	0.031	0.000	14.6	85	1
03/17/19	2:53 a	-25.8	-25.7	-25.8	43.5	ESE	0.72	47.8	-46.4	712.7	0.031	0.000	14.6	86	1
03/17/19	2:54 a	-25.7	-25.7	-25.8	40.0	ESE	0.67	45.2	-45.7	712.2	0.031	0.000	14.6	86	1
03/17/19	2:55 a	-25.7	-25.7	-25.7	47.0	ESE	0.78	49.6	-46.8	712.4	0.031	0.000	14.6	85	1
03/17/19	2:56 a	-25.7	-25.7	-25.8	40.0	ESE	0.67	46.1	-45.7	712.6	0.031	0.000	14.6	83	1
03/17/19	2:57 a	-25.7	-25.7	-25.8	44.3	ESE	0.74	47.0	-46.4	712.5	0.031	0.000	14.6	82	1
03/17/19	2:58 a	-25.7	-25.7	-25.7	44.3	ESE	0.74	47.0	-46.4	712.5	0.031	0.000	14.6	78	1
03/17/19	2:59 a	-25.7	-25.7	-25.7	40.9	ESE	0.68	46.1	-45.9	712.8	0.031	0.000	14.6	77	1
03/17/19	3:00 a	-25.7	-25.7	-25.7	41.7	ESE	0.70	45.2	-46.0	712.5	0.031	0.000	14.5	69	1
03/17/19	3:01 a	-25.7	-25.7	-25.7	42.6	ESE	0.71	46.1	-46.2	712.6	0.031	0.000	14.6	69	1
03/17/19	3:02 a	-25.7	-25.7	-25.7	45.2	ESE	0.75	48.7	-46.6	712.2	0.031	0.000	14.6	61	1
03/17/19	3:03 a	-25.7	-25.7	-25.7	43.5	ESE	0.72	47.8	-46.3	712.6	0.031	0.000	14.6	61	1
03/17/19	3:04 a	-25.7	-25.7	-25.7	42.6	ESE	0.71	47.0	-46.2	712.5	0.031	0.000	14.5	63	1
03/17/19	3:05 a	-25.7	-25.7	-25.7	41.7	ESE	0.70	44.3	-46.0	712.6	0.031	0.000	14.5	61	1
03/17/19	3:06 a	-25.7	-25.7	-25.7	42.6	ESE	0.71	48.7	-46.2	712.7	0.031	0.000	14.5	61	1
03/17/19	3:07 a	-25.7	-25.7	-25.7	45.2	ESE	0.75	47.8	-46.6	712.4	0.031	0.000	14.5	61	1
03/17/19	3:08 a	-25.7	-25.7	-25.7	44.3	ESE	0.74	49.6	-46.4	712.4	0.031	0.000	14.5	59	1
03/17/19	3:09 a	-25.7	-25.7	-25.7	40.9	ESE	0.68	44.3	-45.9	712.4	0.031	0.000	14.5	59	1
03/17/19	3:10 a	-25.7	-25.7	-25.7	44.3	ESE	0.74	49.6	-46.4	712.4	0.031	0.000	14.5	59	1
03/17/19	3:11 a	-25.7	-25.7	-25.7	47.8	ESE	0.80	52.2	-46.9	712.5	0.031	0.000	14.5	59	1
03/17/19	3:12 a	-25.7	-25.7	-25.7	41.7	ESE	0.70	47.0	-46.0	712.5	0.031	0.000	14.5	60	1
03/17/19	3:13 a	-25.7	-25.7	-25.7	46.1	ESE	0.77	51.3	-46.7	712.3	0.031	0.000	14.5	60	1
03/17/19	3:14 a	-25.7	-25.7	-25.7	43.5	ESE	0.72	48.7	-46.3	712.7	0.031	0.000	14.5	59	1
03/17/19	3:15 a	-25.7	-25.7	-25.7	40.9	ESE	0.68	46.1	-45.9	712.4	0.031	0.000	14.5	59	1
03/17/19	3:16 a	-25.7	-25.7	-25.7	46.1	ESE	0.77	51.3	-46.7	712.2	0.031	0.000	14.5	59	1
03/17/19	3:17 a	-25.7	-25.7	-25.7	43.5	ESE	0.72	47.0	-46.3	712.6	0.031	0.000	14.5	59	1
03/17/19	3:18 a	-25.7	-25.7	-25.7	42.6	ESE	0.71	46.1	-46.2	712.5	0.031	0.000	14.5	59	1
03/17/19	3:19 a	-25.7	-25.7	-25.7	46.1	ESE	0.77	49.6	-46.7	712.4	0.031	0.000	14.4	59	1
03/17/19	3:20 a	-25.7	-25.7	-25.7	44.3	ESE	0.74	50.4	-46.4	712.2	0.031	0.000	14.5	59	1
03/17/19	3:21 a	-25.7	-25.7	-25.7	46.1	ESE	0.77	49.6	-46.7	712.2	0.031	0.000	14.5	59	1
03/17/19	3:22 a	-25.7	-25.7	-25.8	46.1	ESE	0.77	51.3	-46.7	712.4	0.031	0.000	14.5	59	1
03/17/19	3:23 a	-25.7	-25.7	-25.8	47.0	ESE	0.78	51.3	-46.8	712.2	0.031	0.000	14.5	59	1
03/17/19	3:24 a	-25.8	-25.7	-25.8	45.2	ESE	0.75	49.6	-46.7	712.2	0.031	0.000	14.5	59	1
03/17/19	3:25 a	-25.8	-25.8	-25.8	47.0	ESE	0.78	50.4	-46.9	712.1	0.031	0.000	14.4	59	1
03/17/19	3:26 a	-25.8	-25.8	-25.8	46.1	ESE	0.77	49.6	-46.8	712.3	0.031	0.000	14.4	59	1
03/17/19	3:27 a	-25.8	-25.8	-25.8	42.6	ESE	0.71	46.1	-46.2	712.5	0.031	0.000	14.4	59	1
03/17/19	3:28 a	-25.8	-25.8	-25.8	46.1	ESE	0.77	52.2	-46.8	712.2	0.031	0.000	14.4	59	1
03/17/19	3:29 a	-25.8	-25.8	-25.8	45.2	ESE	0.75	49.6	-46.7	712.6	0.031	0.000	14.4	59	1
03/17/19	3:30 a	-25.8	-25.8	-25.8	45.2	ESE	0.75	49.6	-46.7	712.2	0.031	0.000	14.4	59	1
03/17/19	3:31 a	-25.8	-25.8	-25.8	45.2	ESE	0.75	52.2	-46.7	712.4	0.031	0.000	14.4	59	1
03/17/19	3:32 a	-25.8	-25.8	-25.8	42.6	ESE	0.71	48.7	-46.3	712.3	0.031	0.000	14.4	59	1
03/17/19	3:33 a	-25.8	-25.8	-25.8	45.2	ESE	0.75	48.7	-46.7	712.3	0.031	0.000	14.4	59	1
03/17/19	3:34 a	-25.8	-25.8	-25.9	47.0	ESE	0.78	52.2	-47.0	712.1	0.031	0.000	14.4	59	1
03/17/19	3:35 a	-25.8	-25.8	-25.8	46.1	ESE	0.77	50.4	-46.8	712.4	0.031	0.000	14.4	59	1
03/17/19	3:36 a	-25.8	-25.8	-25.9	42.6	ESE	0.71	45.2	-46.3	712.6	0.031	0.000	14.4	59	1
03/17/19	3:37 a	-25.9	-25.9	-25.9	43.5	ESE	0.72	47.0	-46.6	712.6	0.031	0.000	14.4	59	1
03/17/19	3:38 a	-25.9	-25.9	-25.9	40.0	ESE	0.67	44.3	-45.9	712.5	0.031	0.000	14.4	59	1
03/17/19	3:39 a	-25.9	-25.9	-25.9	44.3	ESE	0.74	50.4	-46.7	712.3	0.031	0.000	14.4	59	1
03/17/19	3:40 a	-25.9	-25.9	-25.9	44.3	ESE	0.74	49.6	-46.7	712.3	0.031	0.000	14.4	59	1
03/17/19	3:41 a	-25.9	-25.9	-25.9	44.3	ESE	0.74	50.4	-46.7	712.5	0.031	0.000	14.4	59	1
03/17/19	3:42 a	-25.9	-25.9	-25.9	42.6	ESE	0.71	46.1	-46.4	712.6	0.031	0.000	14.4	59	1
03/17/19	3:43 a	-25.9	-25.9	-25.9	39.1	ESE	0.65	45.2	-45.8	712.5	0.031	0.000	14.4	59	1
03/17/19	3:44 a	-25.9	-25.9	-25.9	43.5	ESE	0.72	48.7	-46.6	712.3	0.031	0.000	14.4	59	1
03/17/19	3:45 a	-25.9	-25.9	-25.9	43.5	ESE	0.72	47.8	-46.6	712.2	0.031	0.000	14.4	59	1
03/17/19	3:46 a	-25.9	-25.9	-25.9	47.8	ESE	0.80	53.9	-47.2	712.1	0.031	0.000	14.4	59	1
03/17/19	3:47 a	-25.9	-25.9	-25.9	45.2	ESE	0.75	50.4	-46.8	712.6	0.031	0.000	14.4	59	1
03/17/19	3:48 a	-25.9	-25.9	-25.9	38.3	ESE	0.64	44.3	-45.7	712.5	0.031	0.000	14.4	59	1
03/17/19	3:49 a	-25.9	-25.9	-25.9	43.5	ESE	0.72	49.6	-46.6	712.2	0.031	0.000	14.4	59	1
03/17/19	3:50 a	-25.9	-25.9	-25.9	44.3	ESE	0.74	48.7	-46.7	712.2	0.031	0.000	14.4	59	1
03/17/19	3:51 a	-25.9	-25.9	-25.9	45.2	ESE	0.75	49.6	-46.9	712.3	0.031	0.000	14.4	59	1
03/17/19	3:52 a	-25.9	-25.9	-25.9	40.0	ESE	0.67	46.1	-46.1	712.5	0.031	0.000	14.3	59	1
03/17/19	3:53 a	-25.9	-25.9	-25.9	40.0	ESE	0.67	45.2	-46.1	712.4	0.031	0.000	14.3	59	1
03/17/19	3:54 a	-25.9	-25.9	-25.9	43.5	ESE	0.72	50.4	-46.6	712.2	0.031	0.000	14.3	59	1
03/17/19	3:55 a	-25.9	-25.9	-25.9	45.2	ESE	0.75	51.3	-46.9	712.5	0.031	0.000	14.3	59	1
03/17/19	3:56 a	-25.9	-25.9	-25.9	41.7	ESE	0.70	44.3	-46.3	712.7	0.031	0.000	14.3	59	1
03/17/19	3:57 a	-25.9	-25.9	-25.9	41.7	ESE	0.70	45.2	-46.3	712.6	0.031	0.000	14.3	59	1
03/17/19	3:58 a	-25.9	-25.9	-25.9	39.1	ESE	0.65	42.6	-45.9	712.5	0.031	0.000	14.3	60	1
03/17/19	3:59 a	-25.9	-25.9	-25.9	41.7	ESE	0.70	45.2	-46.3	712.5	0.031	0.000	14.3	60	1
03/17/19	4:00 a	-25.9	-25.9	-26.0	44.3	ESE	0.74	47.8	-46.7	712.3	0.031	0.000	14.3	60	1
03/17/19	4:01 a	-25.9	-25.9	-25.9	43.5	ESE	0.72	47.0	-46.6	712.4	0.031	0.000	14.3	60	1
03/17/19	4:02 a	-25.9	-25.9	-25.9	41.7	ESE	0.70	45.2	-46.3	712.6	0.031	0.000	14.3	62	1
03/17/19	4:03 a	-25.9	-25.9	-25.9	39.1	ESE	0.65	44.3	-45.9	712.6	0.031	0.000	14.3	63	1
03/17/19	4:04 a	-25.9	-25.9	-25.9	40.0	ESE	0.67	43.5	-46.1	712.6	0.031	0.000	14.3	65	1
03/17/19	4:05 a	-25.9	-25.9	-26.0	44.3	ESE	0.74	49.6	-46.7	712.4	0.031	0.000	14.3	71	1
03/17/19	4:06 a	-25.9	-25.9	-25.9	40.9	ESE	0.68	45.2	-46.2	712.6	0.031	0.000	14.3	72	1
03/17/19	4:07 a	-25.9	-25.9	-25.9	41.7	ESE	0.70	45.2	-46.3	712.5	0.031	0.000	14.3	73	1
03/17/19	4:08 a	-25.9	-25.9	-26.0	44.3	ESE	0.74	47.8	-46.7	712.4	0.031	0.000	14.3	74	1
03/17/19	4:09 a	-26.0	-25.9	-26.0	46.1	ESE	0.77	48.7	-47.1	712.2	0.031	0.000	14.3	73	1
03/17/19	4:10 a	-25.9	-25.9	-26.0	44.3	ESE	0.74	47.8	-46.7	712.4	0.031	0.000	14.3	73	1
03/17/19	4:11 a	-25.9	-25.9	-26.0	40.0	ESE	0.67	43.5	-46.1	712.6	0.031	0.000	14.3	73	1
03/17/19	4:12 a	-26.0	-25.9	-26.0	42.6	ESE	0.71	47.8	-46.6	712.2	0.031	0.000	14.3	73	1
03/17/19	4:13 a	-26.0	-26.0	-26.0	43.5	ESE	0.72	47.8	-46.7	712.3	0.031	0.000	14.3	75	1
03/17/19	4:14 a	-26.0	-25.9	-26.0	45.2	ESE	0.75	49.6	-46.9	712.2	0.031	0.000	14.3	74	1
03/17/19	4:15 a	-26.0	-26.0	-26.0	41.7	ESE	0.70	47.0	-46.4	712.6	0.031	0.000	14.3	72	1
03/17/19	4:16 a	-26.0	-26.0	-26.0	40.9	ESE	0.68	45.2	-46.3	712.5	0.031	0.000	14.3	71	1
03/17/19	4:17 a	-26.0	-26.0	-26.0	43.5	ESE	0.72	48.7	-46.7	712.3	0.031	0.000	14.3	71	1
03/17/19	4:18 a	-26.0	-26.0	-26.0	43.5	ESE	0.72	46.1	-46.7	712.5	0.031	0.000	14.3	67	1
03/17/19	4:19 a	-26.0	-26.0	-26.0	42.6	ESE	0.71	47.8	-46.6	712.3	0.031	0.000	14.3	66	1
03/17/19	4:20 a	-26.0	-26.0	-26.0	40.0	ESE	0.67	46.1	-46.1	712.7	0.031	0.000	14.3	65	1
03/17/19	4:21 a	-26.0	-26.0	-26.0	40.9	ESE	0.68	43.5	-46.3	712.7	0.031	0.000	14.3	64	1
03/17/19	4:22 a	-26.0	-26.0	-26.0	41.7	ESE	0.70	47.0	-46.4	712.3	0.031	0.000	14.3	63	1
03/17/19	4:23 a	-26.0	-26.0	-26.0	43.5	ESE	0.72	47.8	-46.7	712.5	0.031	0.000	14.3	62	1
03/17/19	4:24 a	-26.0	-26.0	-26.1	41.7	ESE	0.70	44.3	-46.4	712.7	0.031	0.000	14.3	62	1
03/17/19	4:25 a	-26.0	-26.0	-26.1	41.7	ESE	0.70	45.2	-46.4	712.6	0.031	0.000	14.2	61	1
03/17/19	4:26 a	-26.0	-26.0	-26.0	39.1	ESE	0.65	43.5	-45.9	712.8	0.031	0.000	14.2	62	1
03/17/19	4:27 a	-26.0	-26.0	-26.0	40.9	ESE	0.68	44.3	-46.3	712.6	0.031	0.000	14.2	60	1
03/17/19	4:28 a	-26.0	-26.0	-26.1	41.7	ESE	0.70	47.0	-46.4	712.5	0.031	0.000	14.2	60	1
03/17/19	4:29 a	-26.0	-26.0	-26.1	44.3	ESE	0.74	49.6	-46.8	712.6	0.031	0.000	14.2	59	1
03/17/19	4:30 a	-26.1	-26.0	-26.1	40.9	ESE	0.68	46.1	-46.3	712.8	0.031	0.000	14.2	59	1
03/17/19	4:31 a	-26.1	-26.0	-26.1	38.3	ESE	0.64	43.5	-45.9	712.6	0.031	0.000	14.2	59	1
03/17/19	4:32 a	-26.1	-26.1	-26.1	44.3	ESE	0.74	51.3	-46.9	712.2	0.031	0.000	14.2	60	1
03/17/19	4:33 a	-26.1	-26.1	-26.1	46.1	ESE	0.77	52.2	-47.2	712.5	0.031	0.000	14.2	60	1
03/17/19	4:34 a	-26.1	-26.1	-26.1	42.6	ESE	0.71	46.1	-46.6	712.5	0.031	0.000	14.2	60	1
03/17/19	4:35 a	-26.1	-26.1	-26.1	42.6	ESE	0.71	47.8	-46.6	712.7	0.031	0.000	14.2	59	1
03/17/19	4:36 a	-26.1	-26.1	-26.1	40.0	ESE	0.67	42.6	-46.2	712.8	0.031	0.000	14.2	59	1
03/17/19	4:37 a	-26.1	-26.1	-26.1	40.9	ESE	0.68	45.2	-46.3	712.4	0.031	0.000	14.2	60	1
03/17/19	4:38 a	-26.1	-26.1	-26.1	43.5	ESE	0.72	48.7	-46.8	712.5	0.031	0.000	14.2	60	1
03/17/19	4:39 a	-26.1	-26.1	-26.1	45.2	ESE	0.75	48.7	-47.1	712.2	0.031	0.000	14.2	60	1
03/17/19	4:40 a	-26.1	-26.1	-26.1	42.6	ESE	0.71	46.1	-46.6	712.6	0.031	0.000	14.2	59	1
03/17/19	4:41 a	-26.1	-26.1	-26.1	43.5	ESE	0.72	46.1	-46.8	712.7	0.031	0.000	14.2	59	1
03/17/19	4:42 a	-26.1	-26.1	-26.1	41.7	ESE	0.70	44.3	-46.6	712.7	0.031	0.000	14.2	59	1
03/17/19	4:43 a	-26.1	-26.1	-26.1	40.0	ESE	0.67	45.2	-46.3	712.6	0.031	0.000	14.2	59	1
03/17/19	4:44 a	-26.1	-26.1	-26.1	41.7	ESE	0.70	46.1	-46.5	712.7	0.031	0.000	14.2	59	1
03/17/19	4:45 a	-26.1	-26.1	-26.1	38.3	ESE	0.64	43.5	-45.9	712.8	0.031	0.000	14.2	59	1
03/17/19	4:46 a	-26.1	-26.1	-26.1	41.7	ESE	0.70	45.2	-46.6	712.7	0.031	0.000	14.2	59	1
03/17/19	4:47 a	-26.1	-26.1	-26.1	39.1	ESE	0.65	41.7	-46.1	712.9	0.031	0.000	14.2	59	1
03/17/19	4:48 a	-26.1	-26.1	-26.1	39.1	ESE	0.65	42.6	-46.1	712.8	0.031	0.000	14.2	59	1
03/17/19	4:49 a	-26.1	-26.1	-26.1	38.3	ESE	0.64	42.6	-45.9	712.9	0.031	0.000	14.2	59	1
03/17/19	4:50 a	-26.1	-26.1	-26.1	38.3	ESE	0.64	42.6	-45.9	712.8	0.031	0.000	14.2	59	1
03/17/19	4:51 a	-26.1	-26.1	-26.1	40.9	ESE	0.68	43.5	-46.4	712.8	0.031	0.000	14.2	59	1
03/17/19	4:52 a	-26.1	-26.1	-26.1	40.0	ESE	0.67	43.5	-46.3	712.9	0.031	0.000	14.2	59	1
03/17/19	4:53 a	-26.1	-26.1	-26.1	38.3	ESE	0.64	42.6	-45.9	713.0	0.031	0.000	14.2	59	1
03/17/19	4:54 a	-26.1	-26.1	-26.1	39.1	ESE	0.65	42.6	-46.1	712.9	0.031	0.000	14.2	59	1
03/17/19	4:55 a	-26.1	-26.1	-26.1	40.0	ESE	0.67	42.6	-46.3	713.0	0.031	0.000	14.2	59	1
03/17/19	4:56 a	-26.1	-26.1	-26.1	39.1	ESE	0.65	46.1	-46.1	713.0	0.031	0.000	14.2	60	1
03/17/19	4:57 a	-26.1	-26.1	-26.1	39.1	ESE	0.65	42.6	-46.1	712.9	0.031	0.000	14.2	60	1
03/17/19	4:58 a	-26.1	-26.1	-26.2	38.3	ESE	0.64	42.6	-45.9	712.8	0.031	0.000	14.2	60	1
03/17/19	4:59 a	-26.1	-26.1	-26.2	42.6	ESE	0.71	46.1	-46.7	712.8	0.031	0.000	14.2	60	1
03/17/19	5:00 a	-26.1	-26.1	-26.2	40.0	ESE	0.67	44.3	-46.3	713.1	0.031	0.000	14.2	61	1
03/17/19	5:01 a	-26.1	-26.1	-26.2	36.5	ESE	0.61	40.0	-45.7	713.2	0.031	0.000	14.2	60	1
03/17/19	5:02 a	-26.2	-26.1	-26.2	35.7	ESE	0.59	42.6	-45.6	713.0	0.031	0.000	14.2	61	1
03/17/19	5:03 a	-26.2	-26.2	-26.2	37.4	ESE	0.62	42.6	-45.9	712.9	0.031	0.000	14.2	60	1
03/17/19	5:04 a	-26.2	-26.2	-26.2	40.9	ESE	0.68	43.5	-46.5	712.9	0.031	0.000	14.2	61	1
03/17/19	5:05 a	-26.2	-26.2	-26.2	37.4	ESE	0.62	42.6	-45.9	713.1	0.031	0.000	14.2	60	1
03/17/19	5:06 a	-26.2	-26.2	-26.2	36.5	ESE	0.61	40.9	-45.7	713.1	0.031	0.000	14.2	61	1
03/17/19	5:07 a	-26.2	-26.2	-26.2	38.3	ESE	0.64	40.9	-46.1	712.9	0.031	0.000	14.2	60	1
03/17/19	5:08 a	-26.2	-26.2	-26.2	37.4	ESE	0.62	40.9	-45.9	712.9	0.031	0.000	14.2	60	1
03/17/19	5:09 a	-26.2	-26.2	-26.2	39.1	ESE	0.65	43.5	-46.3	712.7	0.031	0.000	14.2	60	1
03/17/19	5:10 a	-26.2	-26.2	-26.2	40.9	ESE	0.68	45.2	-46.6	712.7	0.031	0.000	14.2	60	1
03/17/19	5:11 a	-26.2	-26.2	-26.3	41.7	ESE	0.70	43.5	-46.7	712.9	0.031	0.000	14.2	60	1
03/17/19	5:12 a	-26.3	-26.3	-26.3	40.0	ESE	0.67	44.3	-46.5	712.7	0.031	0.000	14.2	60	1
03/17/19	5:13 a	-26.3	-26.2	-26.3	42.6	ESE	0.71	47.0	-46.9	712.7	0.031	0.000	14.2	60	1
03/17/19	5:14 a	-26.3	-26.3	-26.3	40.9	ESE	0.68	46.1	-46.7	712.9	0.031	0.000	14.2	60	1
03/17/19	5:15 a	-26.3	-26.3	-26.3	40.9	ESE	0.68	43.5	-46.7	712.8	0.031	0.000	14.2	60	1
03/17/19	5:16 a	-26.3	-26.3	-26.3	40.9	ESE	0.68	45.2	-46.7	712.6	0.031	0.000	14.2	60	1
03/17/19	5:17 a	-26.3	-26.3	-26.3	45.2	ESE	0.75	48.7	-47.3	712.6	0.031	0.000	14.2	60	1
03/17/19	5:18 a	-26.3	-26.3	-26.3	43.5	ESE	0.72	47.8	-47.1	712.7	0.031	0.000	14.2	60	1
03/17/19	5:19 a	-26.3	-26.3	-26.3	43.5	ESE	0.72	47.0	-47.1	712.6	0.031	0.000	14.2	60	1
03/17/19	5:20 a	-26.3	-26.3	-26.3	41.7	ESE	0.70	47.0	-46.8	712.7	0.031	0.000	14.2	60	1
03/17/19	5:21 a	-26.3	-26.3	-26.3	41.7	ESE	0.70	45.2	-46.8	712.5	0.031	0.000	14.2	60	1
03/17/19	5:22 a	-26.3	-26.3	-26.3	43.5	ESE	0.72	46.1	-47.1	712.5	0.031	0.000	14.2	60	1
03/17/19	5:23 a	-26.3	-26.3	-26.3	42.6	ESE	0.71	46.1	-46.9	712.5	0.031	0.000	14.2	60	1
03/17/19	5:24 a	-26.3	-26.3	-26.3	40.9	ESE	0.68	47.0	-46.7	712.5	0.031	0.000	14.2	60	1
03/17/19	5:25 a	-26.3	-26.3	-26.3	41.7	ESE	0.70	44.3	-46.8	712.6	0.031	0.000	14.2	60	1
03/17/19	5:26 a	-26.3	-26.3	-26.3	42.6	ESE	0.71	47.0	-46.9	712.4	0.031	0.000	14.2	60	1
03/17/19	5:27 a	-26.3	-26.3	-26.3	43.5	ESE	0.72	47.0	-47.1	712.5	0.031	0.000	14.2	59	1
03/17/19	5:28 a	-26.3	-26.3	-26.3	40.9	ESE	0.68	45.2	-46.7	712.8	0.031	0.000	14.2	60	1
03/17/19	5:29 a	-26.3	-26.3	-26.3	39.1	ESE	0.65	42.6	-46.3	712.7	0.031	0.000	14.2	60	1
03/17/19	5:30 a	-26.3	-26.3	-26.3	41.7	ESE	0.70	47.0	-46.8	712.4	0.031	0.000	14.2	60	1
03/17/19	5:31 a	-26.3	-26.3	-26.3	42.6	ESE	0.71	47.8	-46.9	712.8	0.031	0.000	14.2	60	1
03/17/19	5:32 a	-26.3	-26.3	-26.3	39.1	ESE	0.65	42.6	-46.3	712.9	0.031	0.000	14.2	60	1
03/17/19	5:33 a	-26.3	-26.3	-26.3	39.1	ESE	0.65	41.7	-46.3	712.7	0.031	0.000	14.2	60	1
03/17/19	5:34 a	-26.3	-26.3	-26.3	43.5	ESE	0.72	47.0	-47.1	712.5	0.031	0.000	14.2	59	1
03/17/19	5:35 a	-26.3	-26.3	-26.3	41.7	ESE	0.70	46.1	-46.8	712.7	0.031	0.000	14.2	60	1
03/17/19	5:36 a	-26.3	-26.3	-26.3	38.3	ESE	0.64	42.6	-46.2	712.9	0.031	0.000	14.2	60	1
03/17/19	5:37 a	-26.3	-26.3	-26.3	42.6	ESE	0.71	46.1	-46.9	712.6	0.031	0.000	14.2	60	1
03/17/19	5:38 a	-26.3	-26.3	-26.3	42.6	ESE	0.71	46.1	-46.9	712.6	0.031	0.000	14.2	59	1
03/17/19	5:39 a	-26.3	-26.3	-26.3	39.1	ESE	0.65	43.5	-46.3	712.9	0.031	0.000	14.2	59	1
03/17/19	5:40 a	-26.3	-26.3	-26.3	37.4	ESE	0.62	42.6	-46.1	712.7	0.031	0.000	14.2	59	1
03/17/19	5:41 a	-26.3	-26.3	-26.3	41.7	ESE	0.70	45.2	-46.8	712.7	0.031	0.000	14.2	59	1
03/17/19	5:42 a	-26.3	-26.3	-26.3	41.7	ESE	0.70	44.3	-46.8	712.8	0.031	0.000	14.2	60	1
03/17/19	5:43 a	-26.3	-26.3	-26.3	39.1	ESE	0.65	42.6	-46.3	712.7	0.031	0.000	14.2	59	1
03/17/19	5:44 a	-26.3	-26.3	-26.3	41.7	ESE	0.70	47.0	-46.8	712.5	0.031	0.000	14.2	59	1
03/17/19	5:45 a	-26.3	-26.3	-26.3	41.7	ESE	0.70	46.1	-46.8	712.8	0.031	0.000	14.2	59	1
03/17/19	5:46 a	-26.3	-26.3	-26.3	40.0	ESE	0.67	43.5	-46.5	712.7	0.031	0.000	14.2	59	1
03/17/19	5:47 a	-26.3	-26.3	-26.3	40.9	ESE	0.68	45.2	-46.7	712.7	0.031	0.000	14.2	59	1
03/17/19	5:48 a	-26.3	-26.3	-26.3	40.0	ESE	0.67	43.5	-46.6	712.8	0.031	0.000	14.2	59	1
03/17/19	5:49 a	-26.3	-26.3	-26.3	40.9	ESE	0.68	45.2	-46.7	712.7	0.031	0.000	14.2	59	1
03/17/19	5:50 a	-26.3	-26.3	-26.3	40.9	ESE	0.68	45.2	-46.7	712.5	0.031	0.000	14.2	59	1
03/17/19	5:51 a	-26.3	-26.3	-26.3	40.0	ESE	0.67	44.3	-46.6	712.7	0.031	0.000	14.2	59	1
03/17/19	5:52 a	-26.3	-26.3	-26.3	40.9	ESE	0.68	45.2	-46.7	712.5	0.031	0.000	14.2	59	1
03/17/19	5:53 a	-26.3	-26.3	-26.3	40.0	ESE	0.67	43.5	-46.6	712.6	0.031	0.000	14.2	59	1
03/17/19	5:54 a	-26.3	-26.3	-26.3	42.6	ESE	0.71	46.1	-47.0	712.7	0.031	0.000	14.2	60	1
03/17/19	5:55 a	-26.3	-26.3	-26.3	39.1	ESE	0.65	41.7	-46.4	712.9	0.031	0.000	14.2	60	1
03/17/19	5:56 a	-26.3	-26.3	-26.3	39.1	ESE	0.65	44.3	-46.4	712.6	0.031	0.000	14.2	59	1
03/17/19	5:57 a	-26.3	-26.3	-26.3	40.0	ESE	0.67	48.7	-46.6	712.4	0.031	0.000	14.2	59	1
03/17/19	5:58 a	-26.3	-26.3	-26.3	43.5	ESE	0.72	47.8	-47.2	712.5	0.031	0.000	14.2	59	1
03/17/19	5:59 a	-26.3	-26.3	-26.3	40.0	ESE	0.67	44.3	-46.6	712.8	0.031	0.000	14.2	59	1
03/17/19	6:00 a	-26.3	-26.3	-26.3	39.1	ESE	0.65	44.3	-46.4	712.5	0.031	0.000	14.2	59	1
03/17/19	6:01 a	-26.3	-26.3	-26.3	43.5	ESE	0.72	47.8	-47.2	712.3	0.031	0.000	14.2	59	1
03/17/19	6:02 a	-26.3	-26.3	-26.3	40.9	ESE	0.68	47.8	-46.7	713.0	0.031	0.000	14.2	59	1
03/17/19	6:03 a	-26.3	-26.3	-26.3	34.8	ESE	0.58	38.3	-45.6	712.9	0.031	0.000	14.2	59	1
03/17/19	6:04 a	-26.3	-26.3	-26.3	42.6	ESE	0.71	47.0	-47.0	712.5	0.031	0.000	14.2	59	1
03/17/19	6:05 a	-26.3	-26.3	-26.3	40.0	ESE	0.67	44.3	-46.6	712.6	0.031	0.000	14.2	59	1
03/17/19	6:06 a	-26.3	-26.3	-26.3	41.7	ESE	0.70	45.2	-46.8	712.5	0.031	0.000	14.2	59	1
03/17/19	6:07 a	-26.3	-26.3	-26.3	40.0	ESE	0.67	42.6	-46.6	712.8	0.031	0.000	14.2	59	1
03/17/19	6:08 a	-26.3	-26.3	-26.3	37.4	ESE	0.62	43.5	-46.1	712.8	0.031	0.000	14.2	59	1
03/17/19	6:09 a	-26.3	-26.3	-26.3	39.1	ESE	0.65	43.5	-46.3	712.7	0.031	0.000	14.2	59	1
03/17/19	6:10 a	-26.3	-26.3	-26.3	41.7	ESE	0.70	44.3	-46.8	712.6	0.031	0.000	14.2	59	1
03/17/19	6:11 a	-26.3	-26.3	-26.3	38.3	ESE	0.64	41.7	-46.2	712.9	0.031	0.000	14.2	59	1
03/17/19	6:12 a	-26.3	-26.3	-26.3	36.5	ESE	0.61	40.9	-45.9	712.7	0.031	0.000	14.2	59	1
03/17/19	6:13 a	-26.3	-26.3	-26.3	42.6	ESE	0.71	46.1	-46.9	712.8	0.031	0.000	14.2	59	1
03/17/19	6:14 a	-26.3	-26.2	-26.3	39.1	ESE	0.65	45.2	-46.3	713.0	0.031	0.000	14.2	59	1
03/17/19	6:15 a	-26.3	-26.3	-26.3	35.7	ESE	0.59	37.4	-45.7	712.9	0.031	0.000	14.2	59	1
03/17/19	6:16 a	-26.3	-26.3	-26.3	39.1	ESE	0.65	43.5	-46.3	712.7	0.031	0.000	14.1	59	1
03/17/19	6:17 a	-26.3	-26.3	-26.3	39.1	ESE	0.65	42.6	-46.3	712.9	0.031	0.000	14.1	59	1
03/17/19	6:18 a	-26.3	-26.3	-26.3	38.3	ESE	0.64	42.6	-46.2	712.9	0.031	0.000	14.1	59	1
03/17/19	6:19 a	-26.3	-26.3	-26.3	39.1	ESE	0.65	43.5	-46.3	713.1	0.031	0.000	14.1	58	1
03/17/19	6:20 a	-26.3	-26.3	-26.3	34.8	ESE	0.58	38.3	-45.6	713.0	0.031	0.000	14.1	59	1
03/17/19	6:21 a	-26.3	-26.3	-26.3	40.0	ESE	0.67	47.0	-46.5	712.6	0.031	0.000	14.1	59	1
03/17/19	6:22 a	-26.3	-26.2	-26.3	41.7	ESE	0.70	45.2	-46.8	712.9	0.031	0.000	14.1	59	1
03/17/19	6:23 a	-26.3	-26.3	-26.3	36.5	ESE	0.61	40.9	-45.9	713.1	0.031	0.000	14.1	59	1
03/17/19	6:24 a	-26.3	-26.3	-26.3	33.0	ESE	0.55	36.5	-45.2	713.0	0.031	0.000	14.1	58	1
03/17/19	6:25 a	-26.3	-26.3	-26.3	40.9	ESE	0.68	45.2	-46.7	712.6	0.031	0.000	14.1	58	1
03/17/19	6:26 a	-26.3	-26.3	-26.3	36.5	ESE	0.61	41.7	-45.9	713.1	0.031	0.000	14.2	59	1
03/17/19	6:27 a	-26.3	-26.3	-26.3	39.1	ESE	0.65	46.1	-46.3	712.6	0.031	0.000	14.2	59	1
03/17/19	6:28 a	-26.3	-26.3	-26.3	44.3	ESE	0.74	47.8	-47.2	713.0	0.031	0.000	14.2	59	1
03/17/19	6:29 a	-26.3	-26.3	-26.3	36.5	ESE	0.61	40.0	-45.9	713.2	0.031	0.000	14.2	59	1
03/17/19	6:30 a	-26.3	-26.3	-26.3	35.7	ESE	0.59	40.0	-45.7	712.9	0.031	0.000	14.2	59	1
03/17/19	6:31 a	-26.3	-26.3	-26.3	44.3	ESE	0.74	49.6	-47.2	712.6	0.031	0.000	14.2	59	1
03/17/19	6:32 a	-26.3	-26.3	-26.3	41.7	ESE	0.70	46.1	-46.8	712.9	0.031	0.000	14.2	59	1
03/17/19	6:33 a	-26.3	-26.3	-26.3	34.8	ESE	0.58	40.9	-45.6	713.3	0.031	0.000	14.2	59	1
03/17/19	6:34 a	-26.3	-26.3	-26.3	34.8	ESE	0.58	40.9	-45.6	713.0	0.031	0.000	14.2	59	1
03/17/19	6:35 a	-26.3	-26.3	-26.3	40.0	ESE	0.67	45.2	-46.5	712.7	0.031	0.000	14.2	58	1
03/17/19	6:36 a	-26.3	-26.3	-26.3	40.0	ESE	0.67	42.6	-46.6	712.9	0.031	0.000	14.2	59	1
03/17/19	6:37 a	-26.3	-26.3	-26.3	37.4	ESE	0.62	40.9	-46.1	713.1	0.031	0.000	14.2	59	1
03/17/19	6:38 a	-26.3	-26.3	-26.3	36.5	ESE	0.61	41.7	-45.9	713.0	0.031	0.000	14.2	59	1
03/17/19	6:39 a	-26.3	-26.3	-26.3	35.7	ESE	0.59	38.3	-45.8	713.0	0.031	0.000	14.2	59	1
03/17/19	6:40 a	-26.3	-26.3	-26.3	36.5	ESE	0.61	39.1	-45.9	712.9	0.031	0.000	14.2	59	1
03/17/19	6:41 a	-26.3	-26.3	-26.3	39.1	ESE	0.65	42.6	-46.4	712.7	0.031	0.000	14.2	59	1
03/17/19	6:42 a	-26.3	-26.3	-26.3	40.9	ESE	0.68	44.3	-46.7	712.7	0.031	0.000	14.2	59	1
03/17/19	6:43 a	-26.3	-26.3	-26.3	40.0	ESE	0.67	43.5	-46.6	712.9	0.031	0.000	14.2	59	1
03/17/19	6:44 a	-26.3	-26.3	-26.3	36.5	ESE	0.61	40.0	-45.9	713.1	0.031	0.000	14.2	58	1
03/17/19	6:45 a	-26.3	-26.3	-26.4	37.4	ESE	0.62	40.0	-46.1	713.0	0.031	0.000	14.2	59	1
03/17/19	6:46 a	-26.3	-26.3	-26.4	36.5	ESE	0.61	40.0	-45.9	713.2	0.031	0.000	14.2	59	1
03/17/19	6:47 a	-26.4	-26.3	-26.4	36.5	ESE	0.61	41.7	-46.1	712.7	0.031	0.000	14.2	59	1
03/17/19	6:48 a	-26.4	-26.3	-26.4	43.5	ESE	0.72	47.8	-47.2	712.6	0.031	0.000	14.2	59	1
03/17/19	6:49 a	-26.4	-26.4	-26.4	38.3	ESE	0.64	42.6	-46.3	713.1	0.031	0.000	14.2	59	1
03/17/19	6:50 a	-26.4	-26.4	-26.4	33.9	ESE	0.57	37.4	-45.5	713.1	0.031	0.000	14.2	59	1
03/17/19	6:51 a	-26.4	-26.4	-26.4	39.1	ESE	0.65	42.6	-46.5	712.8	0.031	0.000	14.2	59	1
03/17/19	6:52 a	-26.4	-26.4	-26.4	40.9	ESE	0.68	43.5	-46.8	712.7	0.031	0.000	14.2	59	1
03/17/19	6:53 a	-26.4	-26.4	-26.4	36.5	ESE	0.61	40.9	-46.1	713.1	0.031	0.000	14.2	59	1
03/17/19	6:54 a	-26.4	-26.4	-26.4	34.8	ESE	0.58	38.3	-45.8	712.9	0.031	0.000	14.2	59	1
03/17/19	6:55 a	-26.4	-26.4	-26.4	37.4	ESE	0.62	43.5	-46.3	712.7	0.031	0.000	14.2	59	1
03/17/19	6:56 a	-26.4	-26.4	-26.4	40.9	ESE	0.68	45.2	-46.9	712.8	0.031	0.000	14.2	59	1
03/17/19	6:57 a	-26.4	-26.4	-26.4	35.7	ESE	0.59	39.1	-45.9	713.0	0.031	0.000	14.2	59	1
03/17/19	6:58 a	-26.4	-26.4	-26.4	38.3	ESE	0.64	41.7	-46.4	712.9	0.031	0.000	14.2	59	1
03/17/19	6:59 a	-26.4	-26.4	-26.4	36.5	ESE	0.61	41.7	-46.1	713.0	0.031	0.000	14.2	59	1
03/17/19	7:00 a	-26.4	-26.4	-26.4	40.0	ESE	0.67	43.5	-46.7	712.8	0.031	0.000	14.2	59	1
03/17/19	7:01 a	-26.4	-26.4	-26.4	35.7	ESE	0.59	40.0	-45.9	713.1	0.031	0.000	14.2	59	1
03/17/19	7:02 a	-26.4	-26.4	-26.4	33.9	ESE	0.57	36.5	-45.6	712.9	0.031	0.000	14.2	59	1
03/17/19	7:03 a	-26.4	-26.4	-26.4	39.1	ESE	0.65	42.6	-46.6	712.7	0.031	0.000	14.2	59	1
03/17/19	7:04 a	-26.4	-26.4	-26.5	37.4	ESE	0.62	40.9	-46.3	713.0	0.031	0.000	14.2	59	1
03/17/19	7:05 a	-26.5	-26.4	-26.5	33.9	ESE	0.57	36.5	-45.7	713.0	0.031	0.000	14.2	59	1
03/17/19	7:06 a	-26.5	-26.4	-26.5	37.4	ESE	0.62	41.7	-46.3	712.9	0.031	0.000	14.2	59	1
03/17/19	7:07 a	-26.5	-26.4	-26.5	37.4	ESE	0.62	40.9	-46.3	712.9	0.031	0.000	14.2	59	1
03/17/19	7:08 a	-26.5	-26.5	-26.5	33.0	ESE	0.55	36.5	-45.5	713.1	0.031	0.000	14.2	58	1
03/17/19	7:09 a	-26.5	-26.5	-26.5	36.5	ESE	0.61	42.6	-46.2	713.0	0.031	0.000	14.2	59	1
03/17/19	7:10 a	-26.5	-26.5	-26.5	37.4	ESE	0.62	41.7	-46.3	712.9	0.031	0.000	14.1	59	1
03/17/19	7:11 a	-26.5	-26.5	-26.5	33.9	ESE	0.57	39.1	-45.7	713.3	0.031	0.000	14.1	59	1
03/17/19	7:12 a	-26.5	-26.5	-26.5	34.8	ESE	0.58	38.3	-45.8	713.0	0.031	0.000	14.1	59	1
03/17/19	7:13 a	-26.5	-26.5	-26.5	36.5	ESE	0.61	41.7	-46.2	713.1	0.031	0.000	14.1	59	1
03/17/19	7:14 a	-26.5	-26.5	-26.5	33.9	ESE	0.57	36.5	-45.7	713.2	0.031	0.000	14.1	59	1
03/17/19	7:15 a	-26.4	-26.4	-26.5	34.8	ESE	0.58	39.1	-45.8	713.1	0.031	0.000	14.1	59	1
03/17/19	7:16 a	-26.5	-26.5	-26.5	37.4	ESE	0.62	40.0	-46.3	712.9	0.031	0.000	14.1	59	1
03/17/19	7:17 a	-26.5	-26.5	-26.5	36.5	ESE	0.61	40.0	-46.2	713.2	0.031	0.000	14.1	58	1
03/17/19	7:18 a	-26.5	-26.5	-26.5	33.0	ESE	0.55	36.5	-45.5	713.1	0.031	0.000	14.1	59	1
03/17/19	7:19 a	-26.5	-26.5	-26.5	38.3	ESE	0.64	40.9	-46.5	712.9	0.031	0.000	14.1	59	1
03/17/19	7:20 a	-26.5	-26.4	-26.5	35.7	ESE	0.59	39.1	-46.0	713.2	0.031	0.000	14.1	58	1
03/17/19	7:21 a	-26.5	-26.5	-26.5	33.9	ESE	0.57	37.4	-45.7	713.2	0.031	0.000	14.1	59	1
03/17/19	7:22 a	-26.5	-26.4	-26.5	36.5	ESE	0.61	40.0	-46.2	713.0	0.031	0.000	14.1	58	1
03/17/19	7:23 a	-26.5	-26.5	-26.5	35.7	ESE	0.59	40.0	-46.0	713.0	0.031	0.000	14.1	58	1
03/17/19	7:24 a	-26.5	-26.4	-26.5	39.1	ESE	0.65	41.7	-46.7	712.9	0.031	0.000	14.1	58	1
03/17/19	7:25 a	-26.4	-26.4	-26.4	39.1	ESE	0.65	41.7	-46.6	712.9	0.031	0.000	14.1	59	1
03/17/19	7:26 a	-26.4	-26.4	-26.4	36.5	ESE	0.61	39.1	-46.1	713.1	0.031	0.000	14.1	58	1
03/17/19	7:27 a	-26.4	-26.4	-26.4	34.8	ESE	0.58	37.4	-45.8	713.2	0.031	0.000	14.1	58	1
03/17/19	7:28 a	-26.4	-26.4	-26.4	35.7	ESE	0.59	44.3	-45.9	712.7	0.031	0.000	14.1	58	1
03/17/19	7:29 a	-26.4	-26.4	-26.4	39.1	ESE	0.65	41.7	-46.6	713.0	0.031	0.000	14.1	58	1
03/17/19	7:30 a	-26.4	-26.4	-26.4	33.9	ESE	0.57	37.4	-45.6	713.1	0.031	0.000	14.1	58	1
03/17/19	7:31 a	-26.4	-26.4	-26.4	36.5	ESE	0.61	40.9	-46.1	713.1	0.031	0.000	14.1	58	1
03/17/19	7:32 a	-26.4	-26.4	-26.4	35.7	ESE	0.59	40.9	-45.9	713.0	0.031	0.000	14.1	58	1
03/17/19	7:33 a	-26.4	-26.4	-26.4	39.1	ESE	0.65	44.3	-46.6	713.2	0.031	0.000	14.1	58	1
03/17/19	7:34 a	-26.4	-26.4	-26.4	33.0	ESE	0.55	35.7	-45.4	713.2	0.031	0.000	14.1	58	1
03/17/19	7:35 a	-26.4	-26.4	-26.4	38.3	ESE	0.64	42.6	-46.4	712.6	0.031	0.000	14.1	58	1
03/17/19	7:36 a	-26.4	-26.4	-26.4	40.9	ESE	0.68	45.2	-46.9	713.0	0.031	0.000	14.1	58	1
03/17/19	7:37 a	-26.4	-26.4	-26.4	36.5	ESE	0.61	40.0	-46.1	713.3	0.031	0.000	14.1	58	1
03/17/19	7:38 a	-26.4	-26.4	-26.4	31.3	ESE	0.52	34.8	-45.0	713.2	0.031	0.000	14.2	58	1
03/17/19	7:39 a	-26.4	-26.4	-26.4	38.3	ESE	0.64	44.3	-46.3	712.7	0.031	0.000	14.2	58	1
03/17/19	7:40 a	-26.4	-26.4	-26.4	40.9	ESE	0.68	44.3	-46.8	712.9	0.031	0.000	14.2	58	1
03/17/19	7:41 a	-26.4	-26.3	-26.4	37.4	ESE	0.62	40.0	-46.2	713.1	0.031	0.000	14.2	58	1
03/17/19	7:42 a	-26.4	-26.4	-26.4	33.0	ESE	0.55	36.5	-45.3	713.1	0.031	0.000	14.2	58	1
03/17/19	7:43 a	-26.4	-26.3	-26.4	40.0	ESE	0.67	46.1	-46.7	712.5	0.031	0.000	14.2	58	1
03/17/19	7:44 a	-26.4	-26.3	-26.4	42.6	ESE	0.71	47.0	-47.1	712.5	0.031	0.000	14.2	58	1
03/17/19	7:45 a	-26.3	-26.3	-26.3	37.4	ESE	0.62	40.9	-46.1	712.8	0.031	0.000	14.2	58	1
03/17/19	7:46 a	-26.3	-26.3	-26.4	38.3	ESE	0.64	43.5	-46.3	712.5	0.031	0.000	14.2	58	1
03/17/19	7:47 a	-26.3	-26.3	-26.3	45.2	ESE	0.75	47.8	-47.4	712.5	0.031	0.000	14.2	58	1
03/17/19	7:48 a	-26.3	-26.3	-26.3	40.0	ESE	0.67	45.2	-46.6	712.9	0.031	0.000	14.2	58	1
03/17/19	7:49 a	-26.3	-26.3	-26.3	36.5	ESE	0.61	40.9	-45.9	713.0	0.031	0.000	14.2	58	1
03/17/19	7:50 a	-26.3	-26.3	-26.3	36.5	ESE	0.61	40.0	-45.9	712.7	0.031	0.000	14.2	58	1
03/17/19	7:51 a	-26.3	-26.3	-26.3	41.7	ESE	0.70	47.0	-46.9	712.6	0.031	0.000	14.2	58	1
03/17/19	7:52 a	-26.3	-26.3	-26.3	40.0	ESE	0.67	43.5	-46.6	713.0	0.031	0.000	14.2	58	1
03/17/19	7:53 a	-26.3	-26.3	-26.3	35.7	ESE	0.59	40.0	-45.7	712.9	0.031	0.000	14.1	58	1
03/17/19	7:54 a	-26.3	-26.3	-26.3	39.1	ESE	0.65	43.5	-46.3	712.7	0.031	0.000	14.1	58	1
03/17/19	7:55 a	-26.3	-26.3	-26.3	39.1	ESE	0.65	45.2	-46.3	712.5	0.031	0.000	14.1	58	1
03/17/19	7:56 a	-26.3	-26.3	-26.3	41.7	ESE	0.70	45.2	-46.8	712.7	0.031	0.000	14.1	58	1
03/17/19	7:57 a	-26.3	-26.3	-26.3	38.3	ESE	0.64	44.3	-46.2	713.0	0.031	0.000	14.1	58	1
03/17/19	7:58 a	-26.3	-26.3	-26.3	36.5	ESE	0.61	39.1	-45.9	712.9	0.031	0.000	14.1	58	1
03/17/19	7:59 a	-26.3	-26.3	-26.3	39.1	ESE	0.65	43.5	-46.3	712.7	0.031	0.000	14.1	58	1
03/17/19	8:00 a	-26.2	-26.2	-26.3	40.9	ESE	0.68	44.3	-46.6	712.8	0.031	0.000	14.1	58	1
03/17/19	8:01 a	-26.2	-26.2	-26.3	39.1	ESE	0.65	42.6	-46.3	712.9	0.031	0.000	14.1	58	1
03/17/19	8:02 a	-26.2	-26.2	-26.3	38.3	ESE	0.64	40.9	-46.1	713.1	0.031	0.000	14.1	58	1
03/17/19	8:03 a	-26.2	-26.2	-26.2	33.9	ESE	0.57	36.5	-45.3	713.0	0.031	0.000	14.1	58	1
03/17/19	8:04 a	-26.2	-26.2	-26.2	40.0	ESE	0.67	45.2	-46.4	712.6	0.031	0.000	14.1	58	1
03/17/19	8:05 a	-26.2	-26.2	-26.2	37.4	ESE	0.62	41.7	-45.9	712.9	0.031	0.000	14.1	58	1
03/17/19	8:06 a	-26.2	-26.2	-26.2	38.3	ESE	0.64	41.7	-46.1	712.7	0.031	0.000	14.1	58	1
03/17/19	8:07 a	-26.2	-26.2	-26.2	39.1	ESE	0.65	41.7	-46.3	712.9	0.031	0.000	14.1	58	1
03/17/19	8:08 a	-26.2	-26.2	-26.2	35.7	ESE	0.59	39.1	-45.6	713.1	0.031	0.000	14.1	58	1
03/17/19	8:09 a	-26.2	-26.2	-26.2	34.8	ESE	0.58	38.3	-45.4	713.0	0.031	0.000	14.1	58	1
03/17/19	8:10 a	-26.2	-26.2	-26.2	36.5	ESE	0.61	42.6	-45.8	712.7	0.031	0.000	14.1	58	1
03/17/19	8:11 a	-26.2	-26.2	-26.2	40.0	ESE	0.67	45.2	-46.3	713.0	0.031	0.000	14.1	58	1
03/17/19	8:12 a	-26.2	-26.2	-26.2	34.8	ESE	0.58	40.0	-45.4	713.1	0.031	0.000	14.1	58	1
03/17/19	8:13 a	-26.2	-26.1	-26.2	36.5	ESE	0.61	40.9	-45.7	713.0	0.031	0.000	14.1	58	1
03/17/19	8:14 a	-26.2	-26.1	-26.2	38.3	ESE	0.64	40.9	-46.1	712.9	0.031	0.000	14.1	58	1
03/17/19	8:15 a	-26.2	-26.1	-26.2	35.7	ESE	0.59	41.7	-45.6	713.1	0.031	0.000	14.1	58	1
03/17/19	8:16 a	-26.2	-26.1	-26.2	33.9	ESE	0.57	38.3	-45.2	713.0	0.031	0.000	14.1	58	1
03/17/19	8:17 a	-26.2	-26.1	-26.2	38.3	ESE	0.64	43.5	-46.1	712.7	0.031	0.000	14.1	58	1
03/17/19	8:18 a	-26.1	-26.1	-26.2	40.0	ESE	0.67	45.2	-46.3	713.0	0.031	0.000	14.1	58	1
03/17/19	8:19 a	-26.1	-26.1	-26.1	37.4	ESE	0.62	41.7	-45.8	713.0	0.031	0.000	14.1	58	1
03/17/19	8:20 a	-26.1	-26.1	-26.1	36.5	ESE	0.61	40.9	-45.7	713.4	0.031	0.000	14.1	58	1
03/17/19	8:21 a	-26.1	-26.1	-26.1	35.7	ESE	0.59	38.3	-45.5	713.2	0.031	0.000	14.1	58	1
03/17/19	8:22 a	-26.1	-26.1	-26.1	36.5	ESE	0.61	39.1	-45.7	712.9	0.031	0.000	14.1	58	1
03/17/19	8:23 a	-26.1	-26.1	-26.1	40.9	ESE	0.68	44.3	-46.3	713.0	0.031	0.000	14.1	58	1
03/17/19	8:24 a	-26.1	-26.1	-26.1	39.1	ESE	0.65	41.7	-46.1	713.2	0.031	0.000	14.1	58	1
03/17/19	8:25 a	-26.0	-26.0	-26.1	32.2	ESE	0.54	37.4	-44.6	713.6	0.031	0.000	14.1	58	1
03/17/19	8:26 a	-26.1	-26.0	-26.1	29.6	ESE	0.49	35.7	-44.2	713.3	0.031	0.000	14.1	58	1
03/17/19	8:27 a	-26.1	-26.1	-26.1	36.5	ESE	0.61	40.9	-45.6	712.7	0.031	0.000	14.1	58	1
03/17/19	8:28 a	-26.0	-26.0	-26.1	42.6	ESE	0.71	46.1	-46.6	713.1	0.031	0.000	14.1	58	1
03/17/19	8:29 a	-26.0	-26.0	-26.0	38.3	ESE	0.64	41.7	-45.8	713.5	0.031	0.000	14.1	58	1
03/17/19	8:30 a	-26.0	-25.9	-26.0	33.0	ESE	0.55	34.8	-44.8	713.5	0.031	0.000	14.1	58	1
03/17/19	8:31 a	-25.9	-25.9	-25.9	31.3	ESE	0.52	33.9	-44.4	713.5	0.031	0.000	14.1	58	1
03/17/19	8:32 a	-25.9	-25.9	-25.9	33.9	ESE	0.57	40.9	-44.9	713.2	0.031	0.000	14.1	58	1
03/17/19	8:33 a	-25.9	-25.9	-25.9	39.1	ESE	0.65	43.5	-45.9	712.8	0.031	0.000	14.1	58	1
03/17/19	8:34 a	-25.9	-25.9	-25.9	39.1	ESE	0.65	43.5	-45.8	713.1	0.031	0.000	14.1	58	1
03/17/19	8:35 a	-25.9	-25.9	-25.9	33.9	ESE	0.57	38.3	-44.8	713.4	0.031	0.000	14.1	58	1
03/17/19	8:36 a	-25.9	-25.8	-25.9	33.0	ESE	0.55	37.4	-44.7	713.2	0.031	0.000	14.1	58	1
03/17/19	8:37 a	-25.9	-25.8	-25.9	35.7	ESE	0.59	40.0	-45.2	713.0	0.031	0.000	14.1	58	1
03/17/19	8:38 a	-25.8	-25.8	-25.8	38.3	ESE	0.64	42.6	-45.6	713.1	0.031	0.000	14.1	58	1
03/17/19	8:39 a	-25.8	-25.8	-25.8	35.7	ESE	0.59	39.1	-45.1	713.3	0.031	0.000	14.1	58	1
03/17/19	8:40 a	-25.8	-25.8	-25.8	35.7	ESE	0.59	40.0	-45.0	713.1	0.031	0.000	14.1	58	1
03/17/19	8:41 a	-25.8	-25.7	-25.8	36.5	ESE	0.61	40.9	-45.2	713.2	0.031	0.000	14.1	58	1
03/17/19	8:42 a	-25.8	-25.7	-25.8	36.5	ESE	0.61	40.0	-45.2	713.2	0.031	0.000	14.1	58	1
03/17/19	8:43 a	-25.7	-25.7	-25.8	36.5	ESE	0.61	40.0	-45.1	713.4	0.031	0.000	14.1	58	1
03/17/19	8:44 a	-25.7	-25.7	-25.7	33.9	ESE	0.57	37.4	-44.6	713.6	0.031	0.000	14.1	58	1
03/17/19	8:45 a	-25.7	-25.7	-25.7	31.3	ESE	0.52	33.9	-44.1	713.6	0.031	0.000	14.1	58	1
03/17/19	8:46 a	-25.7	-25.7	-25.7	33.0	ESE	0.55	36.5	-44.3	713.3	0.031	0.000	14.1	58	1
03/17/19	8:47 a	-25.7	-25.7	-25.7	38.3	ESE	0.64	40.9	-45.3	713.1	0.031	0.000	14.1	58	1
03/17/19	8:48 a	-25.7	-25.6	-25.7	37.4	ESE	0.62	41.7	-45.2	713.3	0.031	0.000	14.1	58	1
03/17/19	8:49 a	-25.6	-25.6	-25.6	36.5	ESE	0.61	39.1	-44.9	713.4	0.031	0.000	14.1	58	1
03/17/19	8:50 a	-25.6	-25.6	-25.6	33.9	ESE	0.57	37.4	-44.4	713.4	0.031	0.000	14.1	58	1
03/17/19	8:51 a	-25.6	-25.6	-25.6	33.9	ESE	0.57	37.4	-44.4	713.3	0.031	0.000	14.1	58	1
03/17/19	8:52 a	-25.6	-25.6	-25.6	40.0	ESE	0.67	42.6	-45.6	713.0	0.031	0.000	14.1	58	1
03/17/19	8:53 a	-25.6	-25.6	-25.6	39.1	ESE	0.65	42.6	-45.3	713.4	0.030	0.000	14.1	58	1
03/17/19	8:54 a	-25.6	-25.6	-25.6	29.6	ESE	0.49	35.7	-43.4	713.9	0.030	0.000	14.1	58	1
03/17/19	8:55 a	-25.6	-25.6	-25.6	30.4	ESE	0.51	35.7	-43.7	713.6	0.030	0.000	14.1	58	1
03/17/19	8:56 a	-25.6	-25.5	-25.6	37.4	ESE	0.62	41.7	-45.0	713.2	0.030	0.000	14.1	58	1
03/17/19	8:57 a	-25.6	-25.5	-25.6	36.5	ESE	0.61	39.1	-44.9	713.4	0.030	0.000	14.1	58	1
03/17/19	8:58 a	-25.6	-25.5	-25.6	32.2	ESE	0.54	34.8	-44.0	713.6	0.030	0.000	14.1	58	1
03/17/19	8:59 a	-25.5	-25.5	-25.5	33.9	ESE	0.57	38.3	-44.3	713.3	0.030	0.000	14.1	58	1
03/17/19	9:00 a	-25.5	-25.4	-25.5	40.0	ESE	0.67	42.6	-45.4	713.1	0.030	0.000	14.1	58	1
03/17/19	9:01 a	-25.5	-25.4	-25.5	37.4	ESE	0.62	40.9	-44.9	713.6	0.030	0.000	14.1	58	1
03/17/19	9:02 a	-25.4	-25.4	-25.4	32.2	ESE	0.54	33.9	-43.9	713.8	0.030	0.000	14.1	58	1
03/17/19	9:03 a	-25.4	-25.4	-25.4	29.6	ESE	0.49	33.9	-43.3	713.5	0.030	0.000	14.1	58	1
03/17/19	9:04 a	-25.4	-25.4	-25.4	33.9	ESE	0.57	40.0	-44.2	713.1	0.030	0.000	14.1	58	1
03/17/19	9:05 a	-25.4	-25.4	-25.4	39.1	ESE	0.65	42.6	-45.2	713.3	0.030	0.000	14.1	58	1
03/17/19	9:06 a	-25.4	-25.4	-25.4	33.0	ESE	0.55	38.3	-44.1	713.6	0.030	0.000	14.1	58	1
03/17/19	9:07 a	-25.4	-25.4	-25.4	33.9	ESE	0.57	37.4	-44.2	713.5	0.030	0.000	14.1	58	1
03/17/19	9:08 a	-25.4	-25.4	-25.4	34.8	ESE	0.58	36.5	-44.3	713.4	0.030	0.000	14.1	58	1
03/17/19	9:09 a	-25.4	-25.4	-25.4	31.3	ESE	0.52	35.7	-43.6	713.6	0.030	0.000	14.1	58	1
03/17/19	9:10 a	-25.4	-25.4	-25.4	34.8	ESE	0.58	38.3	-44.3	713.2	0.030	0.000	14.1	58	1
03/17/19	9:11 a	-25.4	-25.4	-25.4	37.4	ESE	0.62	40.0	-44.8	713.1	0.030	0.000	14.1	58	1
03/17/19	9:12 a	-25.4	-25.3	-25.4	37.4	ESE	0.62	40.0	-44.8	713.3	0.030	0.000	14.1	58	1
03/17/19	9:13 a	-25.4	-25.3	-25.4	34.8	ESE	0.58	38.3	-44.3	713.3	0.030	0.000	14.1	58	1
03/17/19	9:14 a	-25.4	-25.3	-25.4	37.4	ESE	0.62	41.7	-44.8	713.0	0.030	0.000	14.1	58	1
03/17/19	9:15 a	-25.3	-25.3	-25.4	38.3	ESE	0.64	40.9	-44.9	713.1	0.030	0.000	14.1	58	1
03/17/19	9:16 a	-25.3	-25.3	-25.4	35.7	ESE	0.59	38.3	-44.4	713.4	0.030	0.000	14.1	58	1
03/17/19	9:17 a	-25.3	-25.3	-25.3	34.8	ESE	0.58	37.4	-44.2	713.3	0.030	0.000	14.1	58	1
03/17/19	9:18 a	-25.3	-25.3	-25.3	33.9	ESE	0.57	38.3	-44.1	713.3	0.030	0.000	14.1	58	1
03/17/19	9:19 a	-25.3	-25.3	-25.3	36.5	ESE	0.61	41.7	-44.6	713.1	0.030	0.000	14.1	58	1
03/17/19	9:20 a	-25.3	-25.3	-25.3	37.4	ESE	0.62	42.6	-44.6	713.1	0.030	0.000	14.1	58	1
03/17/19	9:21 a	-25.3	-25.3	-25.3	35.7	ESE	0.59	39.1	-44.3	713.3	0.030	0.000	14.1	58	1
03/17/19	9:22 a	-25.3	-25.3	-25.3	33.0	ESE	0.55	37.4	-43.8	713.4	0.030	0.000	14.1	58	1
03/17/19	9:23 a	-25.3	-25.3	-25.3	33.9	ESE	0.57	37.4	-44.0	713.3	0.030	0.000	14.1	58	1
03/17/19	9:24 a	-25.3	-25.3	-25.3	37.4	ESE	0.62	39.1	-44.6	713.2	0.030	0.000	14.1	58	1
03/17/19	9:25 a	-25.3	-25.3	-25.3	36.5	ESE	0.61	40.0	-44.5	713.3	0.030	0.000	14.1	58	1
03/17/19	9:26 a	-25.3	-25.3	-25.3	34.8	ESE	0.58	38.3	-44.2	713.4	0.030	0.000	14.1	58	1
03/17/19	9:27 a	-25.3	-25.2	-25.3	33.0	ESE	0.55	36.5	-43.8	713.4	0.030	0.000	14.1	58	1
03/17/19	9:28 a	-25.2	-25.2	-25.3	33.9	ESE	0.57	37.4	-43.9	713.3	0.030	0.000	14.1	58	1
03/17/19	9:29 a	-25.2	-25.2	-25.3	35.7	ESE	0.59	39.1	-44.2	713.3	0.030	0.000	14.1	58	1
03/17/19	9:30 a	-25.2	-25.2	-25.3	35.7	ESE	0.59	38.3	-44.2	713.2	0.030	0.000	14.1	58	1
03/17/19	9:31 a	-25.2	-25.2	-25.2	35.7	ESE	0.59	40.9	-44.2	713.3	0.030	0.000	14.1	58	1
03/17/19	9:32 a	-25.2	-25.2	-25.2	36.5	ESE	0.61	40.9	-44.4	713.4	0.030	0.000	14.1	58	1
03/17/19	9:33 a	-25.2	-25.2	-25.3	34.8	ESE	0.58	39.1	-44.1	713.2	0.030	0.000	14.1	58	1
03/17/19	9:34 a	-25.2	-25.2	-25.2	38.3	ESE	0.64	40.9	-44.7	713.2	0.030	0.000	14.1	58	1
03/17/19	9:35 a	-25.2	-25.2	-25.2	36.5	ESE	0.61	40.0	-44.4	713.5	0.030	0.000	14.1	58	1
03/17/19	9:36 a	-25.2	-25.2	-25.2	33.0	ESE	0.55	35.7	-43.7	713.6	0.030	0.000	14.1	58	1
03/17/19	9:37 a	-25.2	-25.2	-25.2	33.0	ESE	0.55	36.5	-43.7	713.4	0.030	0.000	14.1	58	1
03/17/19	9:38 a	-25.2	-25.2	-25.2	36.5	ESE	0.61	39.1	-44.4	713.4	0.030	0.000	14.1	58	1
03/17/19	9:39 a	-25.2	-25.2	-25.2	36.5	ESE	0.61	39.1	-44.3	713.4	0.030	0.000	14.1	58	1
03/17/19	9:40 a	-25.2	-25.2	-25.2	34.8	ESE	0.58	39.1	-44.0	713.6	0.030	0.000	14.1	58	1
03/17/19	9:41 a	-25.2	-25.2	-25.2	33.9	ESE	0.57	36.5	-43.8	713.5	0.030	0.000	14.1	58	1
03/17/19	9:42 a	-25.2	-25.2	-25.2	36.5	ESE	0.61	38.3	-44.3	713.4	0.030	0.000	14.1	58	1
03/17/19	9:43 a	-25.2	-25.2	-25.2	35.7	ESE	0.59	37.4	-44.2	713.6	0.030	0.000	14.1	58	1
03/17/19	9:44 a	-25.2	-25.2	-25.2	33.9	ESE	0.57	36.5	-43.8	713.6	0.030	0.000	14.1	58	1
03/17/19	9:45 a	-25.2	-25.2	-25.2	33.9	ESE	0.57	36.5	-43.8	713.5	0.030	0.000	14.1	58	1
03/17/19	9:46 a	-25.2	-25.2	-25.2	33.9	ESE	0.57	37.4	-43.8	713.4	0.030	0.000	14.1	58	1
03/17/19	9:47 a	-25.2	-25.2	-25.2	35.7	ESE	0.59	39.1	-44.2	713.3	0.030	0.000	14.1	58	1
03/17/19	9:48 a	-25.2	-25.1	-25.2	36.5	ESE	0.61	40.9	-44.3	713.5	0.030	0.000	14.1	58	1
03/17/19	9:49 a	-25.1	-25.1	-25.1	33.0	ESE	0.55	35.7	-43.6	713.6	0.030	0.000	14.1	58	1
03/17/19	9:50 a	-25.1	-25.1	-25.2	33.9	ESE	0.57	36.5	-43.8	713.5	0.030	0.000	14.1	58	1
03/17/19	9:51 a	-25.1	-25.1	-25.1	33.9	ESE	0.57	37.4	-43.8	713.4	0.030	0.000	14.1	58	1
03/17/19	9:52 a	-25.1	-25.1	-25.2	33.9	ESE	0.57	38.3	-43.8	713.3	0.030	0.000	14.1	58	1
03/17/19	9:53 a	-25.1	-25.1	-25.1	34.8	ESE	0.58	38.3	-43.9	713.5	0.030	0.000	14.1	58	1
03/17/19	9:54 a	-25.1	-25.1	-25.1	33.9	ESE	0.57	37.4	-43.8	713.5	0.030	0.000	14.1	58	1
03/17/19	9:55 a	-25.1	-25.1	-25.1	33.0	ESE	0.55	37.4	-43.6	713.6	0.030	0.000	14.1	58	1
03/17/19	9:56 a	-25.1	-25.1	-25.1	34.8	ESE	0.58	38.3	-43.9	713.4	0.030	0.000	14.1	58	1
03/17/19	9:57 a	-25.1	-25.1	-25.1	34.8	ESE	0.58	39.1	-43.9	713.5	0.030	0.000	14.1	58	1
03/17/19	9:58 a	-25.1	-25.1	-25.1	35.7	ESE	0.59	39.1	-44.0	713.5	0.030	0.000	14.1	58	1
03/17/19	9:59 a	-25.1	-25.1	-25.1	34.8	ESE	0.58	39.1	-43.8	713.4	0.030	0.000	14.1	58	1
03/17/19	10:00 a	-25.1	-25.1	-25.1	38.3	ESE	0.64	40.9	-44.5	713.2	0.030	0.000	14.1	58	1
03/17/19	10:01 a	-25.1	-25.1	-25.1	37.4	ESE	0.62	40.9	-44.3	713.6	0.030	0.000	14.1	58	1
03/17/19	10:02 a	-25.1	-25.1	-25.1	32.2	ESE	0.54	34.8	-43.3	713.8	0.030	0.000	14.1	58	1
03/17/19	10:03 a	-25.1	-25.1	-25.1	32.2	ESE	0.54	37.4	-43.3	713.5	0.030	0.000	14.1	58	1
03/17/19	10:04 a	-25.1	-25.1	-25.1	36.5	ESE	0.61	40.9	-44.2	713.3	0.030	0.000	14.1	58	1
03/17/19	10:05 a	-25.1	-25.1	-25.1	36.5	ESE	0.61	40.9	-44.2	713.3	0.030	0.000	14.1	58	1
03/17/19	10:06 a	-25.1	-25.0	-25.1	35.7	ESE	0.59	40.0	-44.0	713.5	0.030	0.000	14.2	58	1
03/17/19	10:07 a	-25.1	-25.1	-25.1	33.9	ESE	0.57	36.5	-43.7	713.7	0.030	0.000	14.1	58	1
03/17/19	10:08 a	-25.1	-25.1	-25.1	31.3	ESE	0.52	34.8	-43.2	713.7	0.030	0.000	14.2	58	1
03/17/19	10:09 a	-25.1	-25.0	-25.1	33.0	ESE	0.55	34.8	-43.5	713.6	0.030	0.000	14.2	58	1
03/17/19	10:10 a	-25.1	-25.0	-25.1	34.8	ESE	0.58	37.4	-43.8	713.6	0.030	0.000	14.2	58	1
03/17/19	10:11 a	-25.0	-25.0	-25.1	33.9	ESE	0.57	37.4	-43.6	713.6	0.030	0.000	14.2	58	1
03/17/19	10:12 a	-25.1	-25.0	-25.1	33.9	ESE	0.57	36.5	-43.7	713.6	0.030	0.000	14.2	58	1
03/17/19	10:13 a	-25.0	-25.0	-25.0	33.9	ESE	0.57	36.5	-43.6	713.6	0.030	0.000	14.2	58	1
03/17/19	10:14 a	-25.0	-25.0	-25.0	33.9	ESE	0.57	36.5	-43.6	713.6	0.030	0.000	14.2	58	1
03/17/19	10:15 a	-25.0	-25.0	-25.0	33.9	ESE	0.57	36.5	-43.6	713.6	0.030	0.000	14.2	58	1
03/17/19	10:16 a	-25.0	-25.0	-25.0	33.9	ESE	0.57	36.5	-43.6	713.6	0.030	0.000	14.2	58	1
03/17/19	10:17 a	-25.0	-25.0	-25.0	35.7	ESE	0.59	37.4	-43.9	713.6	0.030	0.000	14.2	58	1
03/17/19	10:18 a	-25.0	-24.9	-25.0	36.5	ESE	0.61	40.0	-44.1	713.5	0.030	0.000	14.2	58	1
03/17/19	10:19 a	-25.0	-24.9	-25.0	36.5	ESE	0.61	39.1	-44.1	713.7	0.030	0.000	14.2	58	1
03/17/19	10:20 a	-25.0	-25.0	-25.0	33.0	ESE	0.55	35.7	-43.4	713.7	0.030	0.000	14.1	58	1
03/17/19	10:21 a	-25.0	-24.9	-25.0	33.9	ESE	0.57	36.5	-43.6	713.6	0.030	0.000	14.1	58	1
03/17/19	10:22 a	-24.9	-24.9	-25.0	35.7	ESE	0.59	39.1	-43.8	713.4	0.030	0.000	14.1	58	1
03/17/19	10:23 a	-25.0	-25.0	-25.0	36.5	ESE	0.61	40.0	-44.1	713.3	0.030	0.000	14.1	58	1
03/17/19	10:24 a	-25.0	-24.9	-25.0	36.5	ESE	0.61	40.0	-44.1	713.5	0.030	0.000	14.1	58	1
03/17/19	10:25 a	-24.9	-24.9	-25.0	35.7	ESE	0.59	38.3	-43.8	713.5	0.030	0.000	14.1	58	1
03/17/19	10:26 a	-24.9	-24.9	-24.9	36.5	ESE	0.61	39.1	-44.0	713.4	0.030	0.000	14.1	58	1
03/17/19	10:27 a	-24.9	-24.9	-24.9	34.8	ESE	0.58	37.4	-43.7	713.6	0.030	0.000	14.1	58	1
03/17/19	10:28 a	-24.9	-24.9	-25.0	32.2	ESE	0.54	35.7	-43.2	713.7	0.030	0.000	14.1	58	1
03/17/19	10:29 a	-24.9	-24.9	-24.9	33.9	ESE	0.57	35.7	-43.5	713.6	0.030	0.000	14.1	58	1
03/17/19	10:30 a	-24.9	-24.9	-25.0	36.5	ESE	0.61	40.9	-44.0	713.3	0.030	0.000	14.1	58	1
03/17/19	10:31 a	-24.9	-24.9	-24.9	39.1	ESE	0.65	41.7	-44.5	713.3	0.030	0.000	14.1	58	1
03/17/19	10:32 a	-24.9	-24.9	-24.9	35.7	ESE	0.59	39.1	-43.8	713.6	0.030	0.000	14.1	58	1
03/17/19	10:33 a	-24.9	-24.9	-24.9	31.3	ESE	0.52	34.8	-43.0	713.7	0.030	0.000	14.1	58	1
03/17/19	10:34 a	-24.9	-24.9	-24.9	31.3	ESE	0.52	35.7	-43.0	713.6	0.030	0.000	14.1	58	1
03/17/19	10:35 a	-24.9	-24.9	-24.9	34.8	ESE	0.58	39.1	-43.7	713.4	0.030	0.000	14.1	58	1
03/17/19	10:36 a	-24.9	-24.9	-24.9	36.5	ESE	0.61	39.1	-44.0	713.5	0.030	0.000	14.1	58	1
03/17/19	10:37 a	-24.9	-24.9	-24.9	34.8	ESE	0.58	37.4	-43.7	713.6	0.030	0.000	14.1	58	1
03/17/19	10:38 a	-24.9	-24.9	-24.9	32.2	ESE	0.54	34.8	-43.2	713.6	0.030	0.000	14.1	58	1
03/17/19	10:39 a	-24.9	-24.9	-24.9	32.2	ESE	0.54	36.5	-43.2	713.4	0.030	0.000	14.1	58	1
03/17/19	10:40 a	-24.9	-24.9	-24.9	37.4	ESE	0.62	39.1	-44.2	713.3	0.030	0.000	14.1	58	1
03/17/19	10:41 a	-24.9	-24.9	-24.9	35.7	ESE	0.59	40.0	-43.8	713.3	0.030	0.000	14.2	58	1
03/17/19	10:42 a	-24.9	-24.9	-24.9	34.8	ESE	0.58	38.3	-43.7	713.4	0.030	0.000	14.2	58	1
03/17/19	10:43 a	-24.9	-24.9	-24.9	33.0	ESE	0.55	36.5	-43.3	713.5	0.030	0.000	14.2	58	1
03/17/19	10:44 a	-24.9	-24.9	-24.9	31.3	ESE	0.52	34.8	-43.0	713.5	0.030	0.000	14.2	58	1
03/17/19	10:45 a	-24.9	-24.9	-24.9	34.8	ESE	0.58	40.0	-43.6	713.3	0.030	0.000	14.2	58	1
03/17/19	10:46 a	-24.9	-24.9	-24.9	36.5	ESE	0.61	39.1	-43.9	713.4	0.030	0.000	14.2	58	1
03/17/19	10:47 a	-24.9	-24.9	-24.9	34.8	ESE	0.58	37.4	-43.6	713.5	0.030	0.000	14.2	58	1
03/17/19	10:48 a	-24.9	-24.9	-24.9	33.9	ESE	0.57	36.5	-43.4	713.4	0.030	0.000	14.2	58	1
03/17/19	10:49 a	-24.9	-24.9	-24.9	37.4	ESE	0.62	40.9	-44.1	713.3	0.030	0.000	14.2	58	1
03/17/19	10:50 a	-24.9	-24.9	-24.9	36.5	ESE	0.61	39.1	-43.9	713.5	0.030	0.000	14.2	58	1
03/17/19	10:51 a	-24.9	-24.9	-24.9	31.3	ESE	0.52	34.8	-42.9	713.6	0.030	0.000	14.2	58	1
03/17/19	10:52 a	-24.8	-24.8	-24.9	32.2	ESE	0.54	36.5	-43.0	713.5	0.030	0.000	14.2	58	1
03/17/19	10:53 a	-24.9	-24.8	-24.9	37.4	ESE	0.62	40.9	-44.1	713.4	0.030	0.000	14.2	58	1
03/17/19	10:54 a	-24.8	-24.8	-24.8	33.0	ESE	0.55	35.7	-43.2	713.6	0.030	0.000	14.2	58	1
03/17/19	10:55 a	-24.8	-24.8	-24.8	33.0	ESE	0.55	37.4	-43.2	713.4	0.030	0.000	14.2	58	1
03/17/19	10:56 a	-24.8	-24.8	-24.8	33.9	ESE	0.57	37.4	-43.4	713.5	0.030	0.000	14.2	58	1
03/17/19	10:57 a	-24.8	-24.8	-24.8	33.0	ESE	0.55	36.5	-43.2	713.6	0.030	0.000	14.2	58	1
03/17/19	10:58 a	-24.8	-24.8	-24.8	34.8	ESE	0.58	37.4	-43.6	713.5	0.030	0.000	14.2	58	1
03/17/19	10:59 a	-24.8	-24.8	-24.8	33.0	ESE	0.55	38.3	-43.2	713.7	0.030	0.000	14.2	58	1
03/17/19	11:00 a	-24.8	-24.8	-24.8	29.6	ESE	0.49	33.0	-42.4	713.7	0.030	0.000	14.2	58	1
03/17/19	11:01 a	-24.8	-24.8	-24.8	34.8	ESE	0.58	39.1	-43.6	713.4	0.030	0.000	14.2	58	1
03/17/19	11:02 a	-24.8	-24.8	-24.8	36.5	ESE	0.61	39.1	-43.8	713.5	0.030	0.000	14.2	58	1
03/17/19	11:03 a	-24.8	-24.8	-24.8	36.5	ESE	0.61	40.0	-43.8	713.5	0.030	0.000	14.2	58	1
03/17/19	11:04 a	-24.8	-24.8	-24.8	34.8	ESE	0.58	38.3	-43.4	713.7	0.030	0.000	14.2	58	1
03/17/19	11:05 a	-24.8	-24.8	-24.8	31.3	ESE	0.52	35.7	-42.8	713.8	0.030	0.000	14.2	58	1
03/17/19	11:06 a	-24.8	-24.8	-24.8	32.2	ESE	0.54	35.7	-42.9	713.6	0.030	0.000	14.2	58	1
03/17/19	11:07 a	-24.8	-24.8	-24.8	34.8	ESE	0.58	37.4	-43.4	713.5	0.030	0.000	14.2	58	1
03/17/19	11:08 a	-24.8	-24.8	-24.8	33.9	ESE	0.57	36.5	-43.3	713.6	0.030	0.000	14.2	58	1
03/17/19	11:09 a	-24.8	-24.8	-24.8	34.8	ESE	0.58	36.5	-43.4	713.6	0.030	0.000	14.2	58	1
03/17/19	11:10 a	-24.8	-24.8	-24.8	30.4	ESE	0.51	33.0	-42.6	713.8	0.030	0.000	14.2	58	1
03/17/19	11:11 a	-24.7	-24.7	-24.8	32.2	ESE	0.54	36.5	-42.9	713.7	0.030	0.000	14.2	58	1
03/17/19	11:12 a	-24.7	-24.7	-24.8	33.9	ESE	0.57	37.4	-43.2	713.6	0.030	0.000	14.2	58	1
03/17/19	11:13 a	-24.7	-24.7	-24.8	33.0	ESE	0.55	38.3	-43.1	713.8	0.030	0.000	14.2	58	1
03/17/19	11:14 a	-24.7	-24.7	-24.8	33.0	ESE	0.55	35.7	-43.1	713.7	0.030	0.000	14.2	58	1
03/17/19	11:15 a	-24.7	-24.7	-24.8	32.2	ESE	0.54	35.7	-42.9	713.7	0.030	0.000	14.2	58	1
03/17/19	11:16 a	-24.7	-24.7	-24.7	33.9	ESE	0.57	36.5	-43.2	713.6	0.030	0.000	14.2	58	1
03/17/19	11:17 a	-24.7	-24.7	-24.7	32.2	ESE	0.54	34.8	-42.9	713.7	0.030	0.000	14.2	58	1
03/17/19	11:18 a	-24.7	-24.7	-24.7	32.2	ESE	0.54	34.8	-42.9	713.7	0.030	0.000	14.2	58	1
03/17/19	11:19 a	-24.7	-24.7	-24.7	32.2	ESE	0.54	34.8	-42.9	713.7	0.030	0.000	14.2	58	1
03/17/19	11:20 a	-24.7	-24.7	-24.7	32.2	ESE	0.54	34.8	-42.8	713.6	0.030	0.000	14.2	58	1
03/17/19	11:21 a	-24.7	-24.6	-24.7	31.3	ESE	0.52	33.9	-42.6	713.7	0.030	0.000	14.2	58	1
03/17/19	11:22 a	-24.7	-24.6	-24.7	31.3	ESE	0.52	33.0	-42.6	713.8	0.030	0.000	14.2	58	1
03/17/19	11:23 a	-24.7	-24.7	-24.7	31.3	ESE	0.52	34.8	-42.6	713.8	0.030	0.000	14.2	58	1
03/17/19	11:24 a	-24.6	-24.6	-24.7	29.6	ESE	0.49	33.0	-42.2	713.8	0.030	0.000	14.2	58	1
03/17/19	11:25 a	-24.6	-24.6	-24.7	31.3	ESE	0.52	33.9	-42.6	713.7	0.030	0.000	14.2	58	1
03/17/19	11:26 a	-24.6	-24.6	-24.6	29.6	ESE	0.49	33.0	-42.2	713.7	0.030	0.000	14.2	58	1
03/17/19	11:27 a	-24.6	-24.6	-24.7	32.2	ESE	0.54	35.7	-42.7	713.7	0.030	0.000	14.2	58	1
03/17/19	11:28 a	-24.6	-24.6	-24.6	33.9	ESE	0.57	37.4	-43.1	713.7	0.030	0.000	14.2	58	1
03/17/19	11:29 a	-24.6	-24.6	-24.6	31.3	ESE	0.52	34.8	-42.6	713.7	0.030	0.000	14.2	58	1
03/17/19	11:30 a	-24.6	-24.6	-24.6	30.4	ESE	0.51	33.9	-42.3	713.7	0.030	0.000	14.2	58	1
03/17/19	11:31 a	-24.6	-24.6	-24.6	31.3	ESE	0.52	36.5	-42.6	713.6	0.030	0.000	14.2	58	1
03/17/19	11:32 a	-24.6	-24.6	-24.6	33.0	ESE	0.55	35.7	-42.9	713.6	0.030	0.000	14.2	57	1
03/17/19	11:33 a	-24.6	-24.6	-24.6	29.6	ESE	0.49	33.9	-42.1	713.8	0.030	0.000	14.2	58	1
03/17/19	11:34 a	-24.6	-24.6	-24.6	30.4	ESE	0.51	34.8	-42.3	713.7	0.030	0.000	14.2	58	1
03/17/19	11:35 a	-24.6	-24.6	-24.6	31.3	ESE	0.52	33.9	-42.4	713.7	0.030	0.000	14.2	57	1
03/17/19	11:36 a	-24.6	-24.6	-24.6	31.3	ESE	0.52	35.7	-42.4	713.7	0.030	0.000	14.2	58	1
03/17/19	11:37 a	-24.6	-24.6	-24.6	32.2	ESE	0.54	34.8	-42.6	713.7	0.030	0.000	14.2	58	1
03/17/19	11:38 a	-24.6	-24.6	-24.6	31.3	ESE	0.52	34.8	-42.4	713.7	0.030	0.000	14.2	58	1
03/17/19	11:39 a	-24.6	-24.6	-24.6	33.9	ESE	0.57	35.7	-43.0	713.6	0.030	0.000	14.2	58	1
03/17/19	11:40 a	-24.6	-24.5	-24.6	32.2	ESE	0.54	35.7	-42.6	713.8	0.030	0.000	14.2	58	1
03/17/19	11:41 a	-24.5	-24.5	-24.6	30.4	ESE	0.51	34.8	-42.2	713.8	0.030	0.000	14.2	58	1
03/17/19	11:42 a	-24.5	-24.5	-24.5	32.2	ESE	0.54	34.8	-42.6	713.8	0.030	0.000	14.2	58	1
03/17/19	11:43 a	-24.5	-24.5	-24.5	31.3	ESE	0.52	35.7	-42.4	713.6	0.030	0.000	14.2	58	1
03/17/19	11:44 a	-24.5	-24.5	-24.5	33.9	ESE	0.57	37.4	-42.9	713.6	0.030	0.000	14.2	58	1
03/17/19	11:45 a	-24.5	-24.4	-24.5	33.0	ESE	0.55	37.4	-42.7	713.7	0.030	0.000	14.2	58	1
03/17/19	11:46 a	-24.5	-24.5	-24.5	31.3	ESE	0.52	35.7	-42.4	713.9	0.030	0.000	14.2	58	1
03/17/19	11:47 a	-24.5	-24.4	-24.5	31.3	ESE	0.52	33.9	-42.4	713.8	0.030	0.000	14.2	58	1
03/17/19	11:48 a	-24.4	-24.4	-24.5	31.3	ESE	0.52	34.8	-42.3	713.8	0.030	0.000	14.2	58	1
03/17/19	11:49 a	-24.4	-24.4	-24.4	33.0	ESE	0.55	36.5	-42.7	713.8	0.030	0.000	14.2	58	1
03/17/19	11:50 a	-24.4	-24.4	-24.5	33.9	ESE	0.57	35.7	-42.8	713.9	0.030	0.000	14.2	58	1
03/17/19	11:51 a	-24.4	-24.4	-24.4	30.4	ESE	0.51	32.2	-42.1	713.8	0.030	0.000	14.2	58	1
03/17/19	11:52 a	-24.4	-24.4	-24.4	31.3	ESE	0.52	33.9	-42.3	713.8	0.030	0.000	14.2	58	1
03/17/19	11:53 a	-24.4	-24.4	-24.4	33.0	ESE	0.55	35.7	-42.7	713.7	0.030	0.000	14.2	58	1
03/17/19	11:54 a	-24.4	-24.4	-24.4	33.0	ESE	0.55	35.7	-42.7	713.7	0.030	0.000	14.2	58	1
03/17/19	11:55 a	-24.4	-24.4	-24.4	32.2	ESE	0.54	35.7	-42.5	713.8	0.030	0.000	14.2	58	1
03/17/19	11:56 a	-24.4	-24.4	-24.4	31.3	ESE	0.52	33.9	-42.3	713.8	0.030	0.000	14.2	58	1
03/17/19	11:57 a	-24.4	-24.4	-24.4	32.2	ESE	0.54	35.7	-42.5	713.7	0.030	0.000	14.3	58	1
03/17/19	11:58 a	-24.4	-24.4	-24.4	33.0	ESE	0.55	36.5	-42.6	713.7	0.030	0.000	14.3	58	1
03/17/19	11:59 a	-24.4	-24.4	-24.4	33.9	ESE	0.57	36.5	-42.7	713.8	0.030	0.000	14.3	58	1
03/17/19	12:00 p	-24.4	-24.4	-24.4	33.0	ESE	0.55	35.7	-42.6	713.8	0.030	0.000	14.3	58	1
03/17/19	12:01 p	-24.4	-24.4	-24.4	32.2	ESE	0.54	34.8	-42.4	713.7	0.030	0.000	14.3	58	1
03/17/19	12:02 p	-24.4	-24.4	-24.4	33.9	ESE	0.57	35.7	-42.7	713.7	0.030	0.000	14.3	58	1
03/17/19	12:03 p	-24.4	-24.4	-24.4	32.2	ESE	0.54	35.7	-42.4	713.7	0.030	0.000	14.3	58	1
03/17/19	12:04 p	-24.4	-24.4	-24.4	33.0	ESE	0.55	36.5	-42.6	713.7	0.030	0.000	14.3	58	1
03/17/19	12:05 p	-24.4	-24.4	-24.4	33.0	ESE	0.55	36.5	-42.6	713.7	0.030	0.000	14.3	58	1
03/17/19	12:06 p	-24.4	-24.4	-24.4	32.2	ESE	0.54	35.7	-42.4	713.8	0.030	0.000	14.3	58	1
03/17/19	12:07 p	-24.4	-24.4	-24.4	33.0	ESE	0.55	36.5	-42.6	713.6	0.030	0.000	14.3	58	1
03/17/19	12:08 p	-24.4	-24.4	-24.4	32.2	ESE	0.54	33.9	-42.4	713.6	0.030	0.000	14.3	58	1
03/17/19	12:09 p	-24.4	-24.4	-24.4	33.0	ESE	0.55	36.5	-42.6	713.7	0.030	0.000	14.3	57	1
03/17/19	12:10 p	-24.4	-24.4	-24.4	31.3	ESE	0.52	33.9	-42.2	713.7	0.030	0.000	14.3	58	1
03/17/19	12:11 p	-24.4	-24.4	-24.4	33.9	ESE	0.57	38.3	-42.7	713.6	0.030	0.000	14.3	58	1
03/17/19	12:12 p	-24.4	-24.4	-24.4	34.8	ESE	0.58	36.5	-42.9	713.6	0.030	0.000	14.3	58	1
03/17/19	12:13 p	-24.4	-24.4	-24.4	33.0	ESE	0.55	35.7	-42.6	713.8	0.030	0.000	14.3	58	1
03/17/19	12:14 p	-24.4	-24.4	-24.4	33.0	ESE	0.55	36.5	-42.6	713.7	0.030	0.000	14.3	58	1
03/17/19	12:15 p	-24.4	-24.4	-24.4	33.0	ESE	0.55	36.5	-42.6	713.9	0.030	0.000	14.3	57	1
03/17/19	12:16 p	-24.4	-24.4	-24.4	31.3	ESE	0.52	34.8	-42.2	713.8	0.030	0.000	14.3	58	1
03/17/19	12:17 p	-24.4	-24.4	-24.4	32.2	ESE	0.54	35.7	-42.4	713.6	0.030	0.000	14.3	57	1
03/17/19	12:18 p	-24.4	-24.4	-24.4	31.3	ESE	0.52	35.7	-42.2	713.7	0.030	0.000	14.3	58	1
03/17/19	12:19 p	-24.4	-24.4	-24.4	32.2	ESE	0.54	34.8	-42.4	713.7	0.030	0.000	14.3	57	1
03/17/19	12:20 p	-24.4	-24.4	-24.4	31.3	ESE	0.52	34.8	-42.2	713.7	0.030	0.000	14.3	57	1
03/17/19	12:21 p	-24.4	-24.4	-24.4	33.0	ESE	0.55	36.5	-42.6	713.8	0.030	0.000	14.3	58	1
03/17/19	12:22 p	-24.4	-24.4	-24.4	30.4	ESE	0.51	33.9	-42.1	713.8	0.030	0.000	14.3	57	1
03/17/19	12:23 p	-24.4	-24.4	-24.4	32.2	ESE	0.54	33.9	-42.4	713.7	0.030	0.000	14.3	57	1
03/17/19	12:24 p	-24.4	-24.4	-24.4	32.2	ESE	0.54	35.7	-42.4	713.7	0.030	0.000	14.3	58	1
03/17/19	12:25 p	-24.4	-24.4	-24.4	33.9	ESE	0.57	36.5	-42.7	713.7	0.030	0.000	14.3	57	1
03/17/19	12:26 p	-24.4	-24.3	-24.4	32.2	ESE	0.54	35.7	-42.4	713.8	0.030	0.000	14.3	58	1
03/17/19	12:27 p	-24.4	-24.4	-24.4	30.4	ESE	0.51	33.9	-42.1	713.7	0.030	0.000	14.3	57	1
03/17/19	12:28 p	-24.4	-24.4	-24.4	32.2	ESE	0.54	34.8	-42.4	713.7	0.030	0.000	14.3	57	1
03/17/19	12:29 p	-24.4	-24.3	-24.4	31.3	ESE	0.52	34.8	-42.2	713.8	0.030	0.000	14.3	58	1
03/17/19	12:30 p	-24.4	-24.3	-24.4	32.2	ESE	0.54	33.9	-42.4	713.7	0.030	0.000	14.3	57	1
03/17/19	12:31 p	-24.4	-24.3	-24.4	31.3	ESE	0.52	35.7	-42.2	713.7	0.030	0.000	14.3	58	1
03/17/19	12:32 p	-24.4	-24.4	-24.4	32.2	ESE	0.54	35.7	-42.4	713.8	0.030	0.000	14.3	57	1
03/17/19	12:33 p	-24.4	-24.4	-24.4	31.3	ESE	0.52	32.2	-42.2	713.8	0.030	0.000	14.3	57	1
03/17/19	12:34 p	-24.4	-24.3	-24.4	30.4	ESE	0.51	33.0	-42.1	713.8	0.030	0.000	14.3	58	1
03/17/19	12:35 p	-24.4	-24.3	-24.4	32.2	ESE	0.54	34.8	-42.4	713.7	0.030	0.000	14.3	57	1
03/17/19	12:36 p	-24.4	-24.3	-24.4	31.3	ESE	0.52	35.7	-42.2	713.8	0.030	0.000	14.3	58	1
03/17/19	12:37 p	-24.4	-24.3	-24.4	30.4	ESE	0.51	33.0	-42.1	713.9	0.030	0.000	14.3	57	1
03/17/19	12:38 p	-24.4	-24.3	-24.4	30.4	ESE	0.51	32.2	-42.1	713.8	0.030	0.000	14.3	58	1
03/17/19	12:39 p	-24.4	-24.4	-24.4	31.3	ESE	0.52	33.9	-42.2	713.7	0.030	0.000	14.3	58	1
03/17/19	12:40 p	-24.4	-24.3	-24.4	31.3	ESE	0.52	33.9	-42.2	713.7	0.030	0.000	14.4	57	1
03/17/19	12:41 p	-24.4	-24.4	-24.4	31.3	ESE	0.52	34.8	-42.2	713.8	0.030	0.000	14.4	57	1
03/17/19	12:42 p	-24.4	-24.4	-24.4	29.6	ESE	0.49	32.2	-41.9	713.9	0.030	0.000	14.4	57	1
03/17/19	12:43 p	-24.4	-24.4	-24.4	30.4	ESE	0.51	33.0	-42.1	713.8	0.030	0.000	14.4	57	1
03/17/19	12:44 p	-24.4	-24.4	-24.4	30.4	ESE	0.51	34.8	-42.1	713.7	0.030	0.000	14.4	57	1
03/17/19	12:45 p	-24.4	-24.3	-24.4	33.0	ESE	0.55	34.8	-42.6	713.7	0.030	0.000	14.4	58	1
03/17/19	12:46 p	-24.4	-24.4	-24.4	29.6	ESE	0.49	32.2	-41.9	713.9	0.030	0.000	14.3	57	1
03/17/19	12:47 p	-24.4	-24.4	-24.4	27.0	ESE	0.45	30.4	-41.3	714.0	0.030	0.000	14.4	57	1
03/17/19	12:48 p	-24.4	-24.4	-24.4	27.8	ESE	0.46	30.4	-41.5	713.9	0.030	0.000	14.4	57	1
03/17/19	12:49 p	-24.4	-24.4	-24.4	31.3	ESE	0.52	34.8	-42.2	713.8	0.030	0.000	14.4	57	1
03/17/19	12:50 p	-24.4	-24.4	-24.4	32.2	ESE	0.54	34.8	-42.4	713.9	0.030	0.000	14.4	58	1
03/17/19	12:51 p	-24.4	-24.4	-24.4	30.4	ESE	0.51	34.8	-42.1	714.0	0.030	0.000	14.4	57	1
03/17/19	12:52 p	-24.4	-24.4	-24.4	28.7	ESE	0.48	31.3	-41.7	714.1	0.030	0.000	14.4	58	1
03/17/19	12:53 p	-24.4	-24.4	-24.4	27.8	ESE	0.46	31.3	-41.5	714.0	0.030	0.000	14.4	57	1
03/17/19	12:54 p	-24.4	-24.4	-24.4	30.4	ESE	0.51	33.0	-42.1	713.8	0.030	0.000	14.4	57	1
03/17/19	12:55 p	-24.4	-24.4	-24.4	31.3	ESE	0.52	34.8	-42.3	713.9	0.030	0.000	14.4	58	1
03/17/19	12:56 p	-24.4	-24.4	-24.4	28.7	ESE	0.48	33.0	-41.7	714.0	0.030	0.000	14.4	58	1
03/17/19	12:57 p	-24.4	-24.4	-24.4	27.8	ESE	0.46	29.6	-41.6	714.0	0.030	0.000	14.4	57	1
03/17/19	12:58 p	-24.4	-24.4	-24.4	27.8	ESE	0.46	30.4	-41.6	714.0	0.030	0.000	14.4	58	1
03/17/19	12:59 p	-24.4	-24.4	-24.5	28.7	ESE	0.48	31.3	-41.7	713.9	0.030	0.000	14.4	57	1
03/17/19	1:00 p	-24.5	-24.4	-24.5	28.7	ESE	0.48	30.4	-41.8	714.0	0.030	0.000	14.4	58	1
03/17/19	1:01 p	-24.5	-24.5	-24.5	28.7	ESE	0.48	30.4	-41.8	714.1	0.030	0.000	14.4	57	1
03/17/19	1:02 p	-24.5	-24.5	-24.6	25.2	ESE	0.42	27.8	-41.0	714.2	0.030	0.000	14.4	57	1
03/17/19	1:03 p	-24.5	-24.5	-24.6	27.0	ESE	0.45	29.6	-41.4	714.0	0.030	0.000	14.4	57	1
03/17/19	1:04 p	-24.6	-24.6	-24.6	29.6	ESE	0.49	32.2	-42.1	714.0	0.030	0.000	14.4	58	1
03/17/19	1:05 p	-24.6	-24.6	-24.6	28.7	ESE	0.48	30.4	-41.9	714.0	0.030	0.000	14.4	57	1
03/17/19	1:06 p	-24.6	-24.6	-24.6	27.0	ESE	0.45	30.4	-41.6	714.2	0.030	0.000	14.4	57	1
03/17/19	1:07 p	-24.6	-24.6	-24.6	26.1	ESE	0.43	28.7	-41.4	714.1	0.030	0.000	14.4	58	1
03/17/19	1:08 p	-24.6	-24.6	-24.7	27.8	ESE	0.46	30.4	-41.8	714.0	0.030	0.000	14.4	57	1
03/17/19	1:09 p	-24.7	-24.7	-24.7	27.8	ESE	0.46	30.4	-41.8	714.0	0.030	0.000	14.4	57	1
03/17/19	1:10 p	-24.7	-24.7	-24.7	27.0	ESE	0.45	28.7	-41.7	714.2	0.030	0.000	14.4	57	1
03/17/19	1:11 p	-24.7	-24.7	-24.7	26.1	ESE	0.43	27.8	-41.5	714.1	0.030	0.000	14.4	57	1
03/17/19	1:12 p	-24.7	-24.7	-24.8	27.8	ESE	0.46	29.6	-41.9	714.1	0.030	0.000	14.4	57	1
03/17/19	1:13 p	-24.8	-24.8	-24.8	29.6	ESE	0.49	31.3	-42.4	714.1	0.030	0.000	14.4	57	1
03/17/19	1:14 p	-24.8	-24.8	-24.8	28.7	ESE	0.48	32.2	-42.2	714.2	0.030	0.000	14.4	58	1
03/17/19	1:15 p	-24.8	-24.8	-24.8	26.1	ESE	0.43	28.7	-41.7	714.1	0.030	0.000	14.5	57	1
03/17/19	1:16 p	-24.8	-24.8	-24.9	27.8	ESE	0.46	32.2	-42.1	714.0	0.030	0.000	14.5	57	1
03/17/19	1:17 p	-24.9	-24.8	-24.9	28.7	ESE	0.48	30.4	-42.3	714.0	0.030	0.000	14.5	58	1
03/17/19	1:18 p	-24.9	-24.9	-24.9	27.8	ESE	0.46	31.3	-42.2	714.1	0.030	0.000	14.5	57	1
03/17/19	1:19 p	-24.9	-24.9	-24.9	27.0	ESE	0.45	29.6	-42.1	714.2	0.030	0.000	14.5	57	1
03/17/19	1:20 p	-24.9	-24.9	-25.0	27.0	ESE	0.45	29.6	-42.1	714.0	0.030	0.000	14.5	57	1
03/17/19	1:21 p	-24.9	-24.9	-25.0	28.7	ESE	0.48	32.2	-42.4	714.0	0.030	0.000	14.5	57	1
03/17/19	1:22 p	-25.0	-25.0	-25.0	27.8	ESE	0.46	31.3	-42.3	714.1	0.030	0.000	14.6	57	1
03/17/19	1:23 p	-25.0	-25.0	-25.0	27.8	ESE	0.46	28.7	-42.3	714.2	0.030	0.000	14.6	57	1
03/17/19	1:24 p	-25.0	-25.0	-25.1	27.0	ESE	0.45	30.4	-42.1	714.1	0.030	0.000	14.6	57	1
03/17/19	1:25 p	-25.1	-25.1	-25.1	28.7	ESE	0.48	30.4	-42.6	714.0	0.030	0.000	14.6	57	1
03/17/19	1:26 p	-25.1	-25.1	-25.1	29.6	ESE	0.49	32.2	-42.8	714.1	0.030	0.000	14.6	57	1
03/17/19	1:27 p	-25.1	-25.1	-25.1	27.0	ESE	0.45	29.6	-42.2	714.1	0.030	0.000	14.6	57	1
03/17/19	1:28 p	-25.1	-25.1	-25.1	27.8	ESE	0.46	29.6	-42.4	714.1	0.030	0.000	14.6	57	1
03/17/19	1:29 p	-25.1	-25.1	-25.1	27.8	ESE	0.46	29.6	-42.4	714.0	0.030	0.000	14.6	57	1
03/17/19	1:30 p	-25.1	-25.1	-25.2	28.7	ESE	0.48	30.4	-42.7	714.2	0.030	0.000	14.6	57	1
03/17/19	1:31 p	-25.2	-25.2	-25.2	27.0	ESE	0.45	28.7	-42.3	714.2	0.030	0.000	14.6	57	1
03/17/19	1:32 p	-25.2	-25.2	-25.2	25.2	ESE	0.42	27.8	-41.9	714.1	0.030	0.000	14.6	57	1
03/17/19	1:33 p	-25.2	-25.2	-25.2	26.1	ESE	0.43	28.7	-42.1	714.1	0.030	0.000	14.6	57	1
03/17/19	1:34 p	-25.2	-25.2	-25.2	27.8	ESE	0.46	30.4	-42.6	714.0	0.030	0.000	14.7	57	1
03/17/19	1:35 p	-25.2	-25.2	-25.2	28.7	ESE	0.48	32.2	-42.8	714.2	0.030	0.000	14.7	57	1
03/17/19	1:36 p	-25.2	-25.2	-25.2	26.1	ESE	0.43	28.7	-42.2	714.3	0.030	0.000	14.7	58	1
03/17/19	1:37 p	-25.2	-25.2	-25.3	24.3	ESE	0.41	27.0	-41.8	714.1	0.030	0.000	14.7	57	1
03/17/19	1:38 p	-25.3	-25.2	-25.3	26.1	ESE	0.43	28.7	-42.3	714.1	0.030	0.000	14.7	57	1
03/17/19	1:39 p	-25.3	-25.3	-25.3	27.8	ESE	0.46	30.4	-42.7	714.0	0.030	0.000	14.7	57	1
03/17/19	1:40 p	-25.3	-25.3	-25.3	27.8	ESE	0.46	29.6	-42.7	714.1	0.030	0.000	14.7	57	1
03/17/19	1:41 p	-25.3	-25.3	-25.3	27.0	ESE	0.45	28.7	-42.6	714.2	0.030	0.000	14.7	57	1
03/17/19	1:42 p	-25.3	-25.3	-25.3	24.3	ESE	0.41	27.8	-41.9	714.1	0.030	0.000	14.7	57	1
03/17/19	1:43 p	-25.3	-25.3	-25.3	27.0	ESE	0.45	29.6	-42.6	714.1	0.030	0.000	14.7	57	1
03/17/19	1:44 p	-25.3	-25.3	-25.4	27.0	ESE	0.45	29.6	-42.6	714.1	0.030	0.000	14.7	57	1
03/17/19	1:45 p	-25.3	-25.3	-25.4	27.0	ESE	0.45	30.4	-42.6	714.1	0.030	0.000	14.7	57	1
03/17/19	1:46 p	-25.4	-25.4	-25.4	27.8	ESE	0.46	28.7	-42.8	714.1	0.030	0.000	14.7	57	1
03/17/19	1:47 p	-25.4	-25.4	-25.4	27.0	ESE	0.45	28.7	-42.6	714.1	0.030	0.000	14.7	57	1
03/17/19	1:48 p	-25.4	-25.4	-25.4	25.2	ESE	0.42	28.7	-42.2	714.1	0.030	0.000	14.7	58	1
03/17/19	1:49 p	-25.4	-25.4	-25.4	26.1	ESE	0.43	28.7	-42.4	714.1	0.030	0.000	14.6	57	1
03/17/19	1:50 p	-25.4	-25.4	-25.4	27.8	ESE	0.46	29.6	-42.8	714.1	0.030	0.000	14.6	57	1
03/17/19	1:51 p	-25.4	-25.4	-25.4	26.1	ESE	0.43	28.7	-42.4	714.1	0.030	0.000	14.6	57	1
03/17/19	1:52 p	-25.4	-25.4	-25.4	26.1	ESE	0.43	29.6	-42.4	714.1	0.030	0.000	14.6	57	1
03/17/19	1:53 p	-25.4	-25.4	-25.4	24.3	ESE	0.41	27.8	-42.1	714.2	0.030	0.000	14.6	57	1
03/17/19	1:54 p	-25.4	-25.4	-25.4	27.8	ESE	0.46	29.6	-42.9	714.1	0.030	0.000	14.6	57	1
03/17/19	1:55 p	-25.4	-25.4	-25.4	27.0	ESE	0.45	30.4	-42.7	714.2	0.030	0.000	14.6	57	1
03/17/19	1:56 p	-25.4	-25.4	-25.4	25.2	ESE	0.42	27.8	-42.3	714.1	0.030	0.000	14.7	57	1
03/17/19	1:57 p	-25.4	-25.4	-25.4	27.0	ESE	0.45	28.7	-42.7	714.2	0.030	0.000	14.7	57	1
03/17/19	1:58 p	-25.4	-25.4	-25.4	27.0	ESE	0.45	28.7	-42.7	714.1	0.030	0.000	14.7	57	1
03/17/19	1:59 p	-25.4	-25.4	-25.4	27.0	ESE	0.45	28.7	-42.7	714.2	0.030	0.000	14.6	57	1
03/17/19	2:00 p	-25.4	-25.4	-25.5	26.1	ESE	0.43	38.3	-42.5	714.3	0.030	0.000	14.6	57	1
03/17/19	2:01 p	-25.5	-25.4	-25.5	26.1	ESE	0.43	28.7	-42.6	714.3	0.030	0.000	14.7	57	1
03/17/19	2:02 p	-25.5	-25.4	-25.5	27.0	ESE	0.45	27.8	-42.8	714.2	0.030	0.000	14.6	57	1
03/17/19	2:03 p	-25.5	-25.4	-25.5	26.1	ESE	0.43	28.7	-42.6	714.2	0.030	0.000	14.6	57	1
03/17/19	2:04 p	-25.5	-25.5	-25.5	25.2	ESE	0.42	27.8	-42.4	714.2	0.030	0.000	14.6	57	1
03/17/19	2:05 p	-25.5	-25.5	-25.5	25.2	ESE	0.42	26.1	-42.4	714.3	0.030	0.000	14.7	57	1
03/17/19	2:06 p	-25.5	-25.4	-25.5	24.3	ESE	0.41	27.0	-42.2	714.2	0.030	0.000	14.7	57	1
03/17/19	2:07 p	-25.5	-25.5	-25.5	25.2	ESE	0.42	27.8	-42.4	714.2	0.030	0.000	14.7	57	1
03/17/19	2:08 p	-25.5	-25.5	-25.5	25.2	ESE	0.42	28.7	-42.4	714.2	0.030	0.000	14.7	57	1
03/17/19	2:09 p	-25.5	-25.5	-25.5	27.0	ESE	0.45	28.7	-42.8	714.3	0.030	0.000	14.7	57	1
03/17/19	2:10 p	-25.5	-25.5	-25.6	24.3	ESE	0.41	27.0	-42.2	714.2	0.030	0.000	14.7	57	1
03/17/19	2:11 p	-25.5	-25.5	-25.6	24.3	ESE	0.41	27.0	-42.2	714.2	0.030	0.000	14.7	57	1
03/17/19	2:12 p	-25.5	-25.5	-25.6	25.2	ESE	0.42	27.8	-42.4	714.2	0.030	0.000	14.7	57	1
03/17/19	2:13 p	-25.6	-25.5	-25.6	27.8	ESE	0.46	28.7	-43.1	714.1	0.030	0.000	14.7	57	1
03/17/19	2:14 p	-25.6	-25.6	-25.6	27.0	ESE	0.45	29.6	-42.9	714.2	0.030	0.000	14.7	57	1
03/17/19	2:15 p	-25.6	-25.6	-25.6	25.2	ESE	0.42	27.8	-42.4	714.3	0.030	0.000	14.7	57	1
03/17/19	2:16 p	-25.6	-25.6	-25.6	25.2	ESE	0.42	27.0	-42.4	714.2	0.030	0.000	14.7	58	1
03/17/19	2:17 p	-25.6	-25.6	-25.6	26.1	SE	0.43	28.7	-42.7	714.2	0.030	0.000	14.7	58	1
03/17/19	2:18 p	-25.6	-25.6	-25.6	27.0	ESE	0.45	29.6	-42.9	714.2	0.030	0.000	14.7	57	1
03/17/19	2:19 p	-25.6	-25.6	-25.6	27.0	ESE	0.45	29.6	-42.9	714.2	0.031	0.000	14.7	57	1
03/17/19	2:20 p	-25.6	-25.6	-25.6	26.1	ESE	0.43	27.8	-42.7	714.2	0.031	0.000	14.7	57	1
03/17/19	2:21 p	-25.6	-25.6	-25.6	26.1	ESE	0.43	27.8	-42.7	714.2	0.031	0.000	14.7	57	1
03/17/19	2:22 p	-25.6	-25.6	-25.6	25.2	ESE	0.42	27.8	-42.5	714.2	0.031	0.000	14.7	57	1
03/17/19	2:23 p	-25.6	-25.6	-25.6	26.1	ESE	0.43	27.8	-42.7	714.3	0.031	0.000	14.7	57	1
03/17/19	2:24 p	-25.6	-25.6	-25.7	26.1	ESE	0.43	27.8	-42.7	714.2	0.031	0.000	14.7	57	1
03/17/19	2:25 p	-25.7	-25.6	-25.7	26.1	ESE	0.43	27.8	-42.8	714.2	0.031	0.000	14.7	57	1
03/17/19	2:26 p	-25.7	-25.6	-25.7	25.2	ESE	0.42	27.8	-42.6	714.3	0.031	0.000	14.7	57	1
03/17/19	2:27 p	-25.7	-25.7	-25.7	26.1	ESE	0.43	27.0	-42.8	714.2	0.031	0.000	14.7	57	1
03/17/19	2:28 p	-25.7	-25.7	-25.7	25.2	ESE	0.42	27.0	-42.6	714.3	0.031	0.000	14.7	57	1
03/17/19	2:29 p	-25.7	-25.7	-25.7	24.3	ESE	0.41	26.1	-42.4	714.4	0.031	0.000	14.7	57	1
03/17/19	2:30 p	-25.7	-25.7	-25.7	24.3	ESE	0.41	26.1	-42.4	714.3	0.031	0.000	14.7	57	1
03/17/19	2:31 p	-25.7	-25.7	-25.7	22.6	ESE	0.38	26.1	-41.9	714.4	0.031	0.000	14.7	57	1
03/17/19	2:32 p	-25.7	-25.7	-25.7	24.3	ESE	0.41	26.1	-42.4	714.4	0.031	0.000	14.7	57	1
03/17/19	2:33 p	-25.7	-25.7	-25.7	23.5	ESE	0.39	26.1	-42.2	714.4	0.031	0.000	14.7	57	1
03/17/19	2:34 p	-25.7	-25.7	-25.7	24.3	ESE	0.41	25.2	-42.4	714.4	0.031	0.000	14.7	57	1
03/17/19	2:35 p	-25.7	-25.7	-25.7	23.5	ESE	0.39	25.2	-42.2	714.4	0.031	0.000	14.7	57	1
03/17/19	2:36 p	-25.7	-25.7	-25.8	23.5	ESE	0.39	25.2	-42.2	714.4	0.031	0.000	14.7	57	1
03/17/19	2:37 p	-25.7	-25.7	-25.8	22.6	ESE	0.38	25.2	-42.0	714.4	0.031	0.000	14.7	57	1
03/17/19	2:38 p	-25.7	-25.7	-25.8	22.6	ESE	0.38	25.2	-42.0	714.4	0.031	0.000	14.7	57	1
03/17/19	2:39 p	-25.8	-25.8	-25.8	23.5	ESE	0.39	25.2	-42.3	714.4	0.031	0.000	14.7	57	1
03/17/19	2:40 p	-25.8	-25.8	-25.8	23.5	ESE	0.39	25.2	-42.3	714.4	0.031	0.000	14.7	57	1
03/17/19	2:41 p	-25.8	-25.8	-25.8	23.5	ESE	0.39	26.1	-42.3	714.3	0.031	0.000	14.7	57	1
03/17/19	2:42 p	-25.8	-25.8	-25.8	24.3	ESE	0.41	26.1	-42.5	714.4	0.031	0.000	14.7	57	1
03/17/19	2:43 p	-25.8	-25.8	-25.8	24.3	ESE	0.41	25.2	-42.6	714.4	0.031	0.000	14.7	57	1
03/17/19	2:44 p	-25.8	-25.8	-25.8	23.5	ESE	0.39	26.1	-42.4	714.4	0.031	0.000	14.7	57	1
03/17/19	2:45 p	-25.8	-25.8	-25.8	23.5	ESE	0.39	25.2	-42.4	714.4	0.031	0.000	14.7	57	1
03/17/19	2:46 p	-25.8	-25.8	-25.8	22.6	ESE	0.38	25.2	-42.1	714.4	0.031	0.000	14.7	57	1
03/17/19	2:47 p	-25.8	-25.8	-25.9	23.5	ESE	0.39	25.2	-42.4	714.5	0.031	0.000	14.7	57	1
03/17/19	2:48 p	-25.8	-25.8	-25.9	22.6	ESE	0.38	24.3	-42.1	714.4	0.031	0.000	14.7	57	1
03/17/19	2:49 p	-25.9	-25.9	-25.9	22.6	ESE	0.38	24.3	-42.2	714.4	0.031	0.000	14.7	57	1
03/17/19	2:50 p	-25.9	-25.9	-25.9	23.5	ESE	0.39	25.2	-42.4	714.5	0.031	0.000	14.7	57	1
03/17/19	2:51 p	-25.9	-25.9	-25.9	23.5	ESE	0.39	25.2	-42.4	714.4	0.031	0.000	14.7	57	1
03/17/19	2:52 p	-25.9	-25.9	-25.9	22.6	ESE	0.38	25.2	-42.2	714.4	0.031	0.000	14.7	57	1
03/17/19	2:53 p	-25.9	-25.9	-25.9	22.6	ESE	0.38	24.3	-42.2	714.4	0.031	0.000	14.7	57	1
03/17/19	2:54 p	-25.9	-25.9	-25.9	23.5	ESE	0.39	25.2	-42.5	714.4	0.031	0.000	14.7	57	1
03/17/19	2:55 p	-25.9	-25.9	-25.9	22.6	ESE	0.38	25.2	-42.3	714.4	0.031	0.000	14.7	57	1
03/17/19	2:56 p	-25.9	-25.9	-25.9	22.6	ESE	0.38	24.3	-42.3	714.4	0.031	0.000	14.7	57	1
03/17/19	2:57 p	-25.9	-25.9	-25.9	22.6	ESE	0.38	25.2	-42.3	714.4	0.031	0.000	14.7	57	1
03/17/19	2:58 p	-25.9	-25.9	-25.9	22.6	ESE	0.38	25.2	-42.3	714.5	0.031	0.000	14.7	57	1
03/17/19	2:59 p	-25.9	-25.9	-26.0	23.5	ESE	0.39	26.1	-42.5	714.5	0.031	0.000	14.7	57	1
03/17/19	3:00 p	-26.0	-25.9	-26.0	23.5	ESE	0.39	25.2	-42.6	714.4	0.031	0.000	14.7	57	1
03/17/19	3:01 p	-26.0	-25.9	-26.0	22.6	ESE	0.38	24.3	-42.3	714.5	0.031	0.000	14.7	57	1
03/17/19	3:02 p	-26.0	-25.9	-26.0	23.5	ESE	0.39	24.3	-42.6	714.4	0.031	0.000	14.7	57	1
03/17/19	3:03 p	-26.0	-25.9	-26.0	23.5	ESE	0.39	25.2	-42.6	714.4	0.031	0.000	14.7	57	1
03/17/19	3:04 p	-26.0	-26.0	-26.0	23.5	ESE	0.39	26.1	-42.6	714.5	0.031	0.000	14.7	57	1
03/17/19	3:05 p	-26.0	-26.0	-26.0	22.6	ESE	0.38	24.3	-42.3	714.5	0.031	0.000	14.7	57	1
03/17/19	3:06 p	-26.0	-26.0	-26.1	23.5	ESE	0.39	25.2	-42.6	714.5	0.031	0.000	14.7	57	1
03/17/19	3:07 p	-26.1	-26.0	-26.1	22.6	ESE	0.38	25.2	-42.4	714.4	0.031	0.000	14.7	57	1
03/17/19	3:08 p	-26.1	-26.1	-26.1	22.6	ESE	0.38	25.2	-42.4	714.5	0.031	0.000	14.7	57	1
03/17/19	3:09 p	-26.1	-26.1	-26.1	23.5	ESE	0.39	25.2	-42.7	714.4	0.031	0.000	14.7	57	1
03/17/19	3:10 p	-26.1	-26.1	-26.1	23.5	ESE	0.39	25.2	-42.7	714.5	0.031	0.000	14.7	57	1
03/17/19	3:11 p	-26.1	-26.1	-26.1	22.6	ESE	0.38	25.2	-42.4	714.5	0.031	0.000	14.8	57	1
03/17/19	3:12 p	-26.1	-26.1	-26.1	22.6	ESE	0.38	24.3	-42.4	714.5	0.031	0.000	14.8	57	1
03/17/19	3:13 p	-26.1	-26.1	-26.1	23.5	ESE	0.39	24.3	-42.7	714.5	0.031	0.000	14.8	57	1
03/17/19	3:14 p	-26.1	-26.1	-26.1	24.3	ESE	0.41	25.2	-42.9	714.4	0.031	0.000	14.8	57	1
03/17/19	3:15 p	-26.1	-26.1	-26.1	23.5	ESE	0.39	25.2	-42.7	714.5	0.031	0.000	14.8	57	1
03/17/19	3:16 p	-26.1	-26.1	-26.1	23.5	ESE	0.39	26.1	-42.7	714.5	0.031	0.000	14.8	57	1
03/17/19	3:17 p	-26.1	-26.1	-26.1	23.5	ESE	0.39	25.2	-42.7	714.5	0.031	0.000	14.8	57	1
03/17/19	3:18 p	-26.1	-26.1	-26.1	23.5	ESE	0.39	24.3	-42.7	714.5	0.031	0.000	14.8	57	1
03/17/19	3:19 p	-26.1	-26.1	-26.1	24.3	ESE	0.41	26.1	-42.9	714.5	0.031	0.000	14.8	57	1
03/17/19	3:20 p	-26.1	-26.1	-26.1	23.5	ESE	0.39	26.1	-42.7	714.6	0.031	0.000	14.8	57	1
03/17/19	3:21 p	-26.1	-26.1	-26.1	23.5	ESE	0.39	26.1	-42.7	714.6	0.031	0.000	14.8	57	1
03/17/19	3:22 p	-26.1	-26.1	-26.1	24.3	ESE	0.41	27.0	-42.9	714.5	0.031	0.000	14.8	57	1
03/17/19	3:23 p	-26.1	-26.1	-26.1	25.2	ESE	0.42	27.0	-43.1	714.6	0.031	0.000	14.8	57	1
03/17/19	3:24 p	-26.1	-26.1	-26.1	23.5	ESE	0.39	25.2	-42.7	714.5	0.031	0.000	14.8	57	1
03/17/19	3:25 p	-26.1	-26.1	-26.1	22.6	ESE	0.38	24.3	-42.4	714.6	0.031	0.000	14.8	57	1
03/17/19	3:26 p	-26.1	-26.1	-26.1	23.5	ESE	0.39	25.2	-42.7	714.6	0.031	0.000	14.8	57	1
03/17/19	3:27 p	-26.1	-26.1	-26.1	24.3	ESE	0.41	25.2	-42.9	714.6	0.031	0.000	14.8	57	1
03/17/19	3:28 p	-26.1	-26.1	-26.1	24.3	ESE	0.41	26.1	-42.9	714.6	0.031	0.000	14.8	57	1
03/17/19	3:29 p	-26.1	-26.0	-26.1	24.3	ESE	0.41	26.1	-42.9	714.6	0.031	0.000	14.8	57	1
03/17/19	3:30 p	-26.0	-26.0	-26.1	22.6	ESE	0.38	24.3	-42.3	714.6	0.031	0.000	14.8	57	1
03/17/19	3:31 p	-26.0	-26.0	-26.0	22.6	ESE	0.38	24.3	-42.3	714.7	0.031	0.000	14.8	57	1
03/17/19	3:32 p	-26.0	-26.0	-26.0	22.6	ESE	0.38	25.2	-42.3	714.6	0.031	0.000	14.8	57	1
03/17/19	3:33 p	-26.0	-25.9	-26.0	21.7	ESE	0.36	24.3	-42.1	714.6	0.031	0.000	14.8	57	1
03/17/19	3:34 p	-26.0	-26.0	-26.0	24.3	ESE	0.41	26.1	-42.8	714.6	0.031	0.000	14.8	57	1
03/17/19	3:35 p	-26.0	-25.9	-26.0	24.3	ESE	0.41	26.1	-42.8	714.6	0.031	0.000	14.8	57	1
03/17/19	3:36 p	-26.0	-25.9	-26.0	23.5	ESE	0.39	26.1	-42.6	714.6	0.031	0.000	14.8	57	1
03/17/19	3:37 p	-25.9	-25.9	-25.9	23.5	ESE	0.39	25.2	-42.5	714.7	0.031	0.000	14.8	57	1
03/17/19	3:38 p	-25.9	-25.9	-25.9	21.7	ESE	0.36	24.3	-42.0	714.7	0.031	0.000	14.8	57	1
03/17/19	3:39 p	-25.9	-25.9	-25.9	22.6	ESE	0.38	26.1	-42.3	714.7	0.031	0.000	14.8	57	1
03/17/19	3:40 p	-25.9	-25.9	-25.9	23.5	ESE	0.39	25.2	-42.5	714.7	0.031	0.000	14.8	57	1
03/17/19	3:41 p	-25.9	-25.9	-25.9	22.6	ESE	0.38	25.2	-42.3	714.7	0.031	0.000	14.8	57	1
03/17/19	3:42 p	-25.9	-25.9	-25.9	23.5	ESE	0.39	26.1	-42.5	714.7	0.031	0.000	14.8	57	1
03/17/19	3:43 p	-25.9	-25.9	-25.9	21.7	ESE	0.36	24.3	-41.9	714.7	0.031	0.000	14.8	57	1
03/17/19	3:44 p	-25.9	-25.9	-25.9	21.7	ESE	0.36	23.5	-41.9	714.7	0.031	0.000	14.8	57	1
03/17/19	3:45 p	-25.9	-25.9	-25.9	22.6	ESE	0.38	24.3	-42.2	714.7	0.031	0.000	14.8	57	1
03/17/19	3:46 p	-25.9	-25.8	-25.9	21.7	ESE	0.36	24.3	-41.9	714.8	0.031	0.000	14.8	57	1
03/17/19	3:47 p	-25.9	-25.8	-25.9	21.7	ESE	0.36	23.5	-41.9	714.7	0.031	0.000	14.8	57	1
03/17/19	3:48 p	-25.8	-25.8	-25.8	22.6	ESE	0.38	24.3	-42.1	714.7	0.031	0.000	14.9	57	1
03/17/19	3:49 p	-25.8	-25.8	-25.8	22.6	ESE	0.38	25.2	-42.1	714.7	0.031	0.000	14.9	57	1
03/17/19	3:50 p	-25.8	-25.8	-25.8	22.6	ESE	0.38	24.3	-42.1	714.7	0.031	0.000	14.9	57	1
03/17/19	3:51 p	-25.8	-25.8	-25.8	21.7	ESE	0.36	23.5	-41.9	714.8	0.031	0.000	14.9	57	1
03/17/19	3:52 p	-25.8	-25.7	-25.8	21.7	ESE	0.36	24.3	-41.8	714.8	0.031	0.000	14.9	57	1
03/17/19	3:53 p	-25.8	-25.7	-25.8	21.7	ESE	0.36	23.5	-41.8	714.8	0.031	0.000	14.9	57	1
03/17/19	3:54 p	-25.7	-25.7	-25.7	20.9	ESE	0.35	22.6	-41.5	714.8	0.031	0.000	14.9	57	1
03/17/19	3:55 p	-25.7	-25.7	-25.7	20.9	ESE	0.35	23.5	-41.5	714.8	0.031	0.000	14.9	57	1
03/17/19	3:56 p	-25.7	-25.7	-25.7	20.9	ESE	0.35	23.5	-41.4	714.8	0.031	0.000	14.9	57	1
03/17/19	3:57 p	-25.7	-25.7	-25.7	21.7	ESE	0.36	24.3	-41.7	714.8	0.031	0.000	14.9	57	1
03/17/19	3:58 p	-25.6	-25.6	-25.7	22.6	ESE	0.38	25.2	-41.8	714.8	0.031	0.000	14.9	57	1
03/17/19	3:59 p	-25.6	-25.6	-25.6	21.7	ESE	0.36	24.3	-41.6	714.8	0.031	0.000	14.9	57	1
03/17/19	4:00 p	-25.6	-25.6	-25.6	21.7	ESE	0.36	24.3	-41.6	714.8	0.031	0.000	14.9	57	1
03/17/19	4:01 p	-25.6	-25.6	-25.6	21.7	ESE	0.36	24.3	-41.5	714.8	0.030	0.000	14.9	57	1
03/17/19	4:02 p	-25.6	-25.6	-25.6	22.6	ESE	0.38	25.2	-41.8	714.8	0.030	0.000	14.9	57	1
03/17/19	4:03 p	-25.6	-25.5	-25.6	22.6	ESE	0.38	26.1	-41.8	714.8	0.030	0.000	14.9	57	1
03/17/19	4:04 p	-25.5	-25.5	-25.5	21.7	ESE	0.36	23.5	-41.4	714.8	0.030	0.000	14.9	57	1
03/17/19	4:05 p	-25.5	-25.4	-25.5	22.6	ESE	0.38	24.3	-41.7	714.8	0.030	0.000	14.9	57	1
03/17/19	4:06 p	-25.4	-25.4	-25.5	22.6	ESE	0.38	24.3	-41.6	714.8	0.030	0.000	14.9	57	1
03/17/19	4:07 p	-25.4	-25.4	-25.4	21.7	ESE	0.36	23.5	-41.3	714.8	0.030	0.000	14.9	57	1
03/17/19	4:08 p	-25.4	-25.4	-25.4	22.6	ESE	0.38	25.2	-41.6	714.8	0.030	0.000	14.9	57	1
03/17/19	4:09 p	-25.4	-25.4	-25.4	21.7	ESE	0.36	24.3	-41.3	714.8	0.030	0.000	14.9	57	1
03/17/19	4:10 p	-25.4	-25.4	-25.4	21.7	ESE	0.36	24.3	-41.3	714.9	0.030	0.000	14.9	57	1
03/17/19	4:11 p	-25.4	-25.4	-25.4	21.7	ESE	0.36	23.5	-41.3	714.8	0.030	0.000	14.9	57	1
03/17/19	4:12 p	-25.4	-25.4	-25.4	21.7	ESE	0.36	24.3	-41.3	714.9	0.030	0.000	14.9	57	1
03/17/19	4:13 p	-25.4	-25.4	-25.4	21.7	ESE	0.36	23.5	-41.3	714.9	0.030	0.000	14.9	57	1
03/17/19	4:14 p	-25.3	-25.3	-25.4	21.7	ESE	0.36	23.5	-41.2	714.9	0.030	0.000	14.9	57	1
03/17/19	4:15 p	-25.4	-25.4	-25.4	21.7	ESE	0.36	24.3	-41.3	714.8	0.030	0.000	14.9	57	1
03/17/19	4:16 p	-25.4	-25.4	-25.4	20.9	ESE	0.35	23.5	-41.1	714.9	0.030	0.000	14.9	57	1
03/17/19	4:17 p	-25.4	-25.4	-25.4	22.6	ESE	0.38	25.2	-41.5	714.9	0.030	0.000	14.9	57	1
03/17/19	4:18 p	-25.4	-25.3	-25.4	21.7	ESE	0.36	24.3	-41.3	714.9	0.030	0.000	14.9	57	1
03/17/19	4:19 p	-25.4	-25.4	-25.4	20.9	ESE	0.35	22.6	-41.1	714.9	0.030	0.000	14.9	57	1
03/17/19	4:20 p	-25.4	-25.4	-25.4	21.7	ESE	0.36	23.5	-41.3	714.9	0.030	0.000	14.9	57	1
03/17/19	4:21 p	-25.4	-25.4	-25.4	21.7	ESE	0.36	23.5	-41.3	714.9	0.030	0.000	15.0	57	1
03/17/19	4:22 p	-25.4	-25.4	-25.4	21.7	ESE	0.36	24.3	-41.3	714.9	0.030	0.000	14.9	57	1
03/17/19	4:23 p	-25.4	-25.4	-25.4	21.7	ESE	0.36	23.5	-41.3	714.9	0.030	0.000	14.9	57	1
03/17/19	4:24 p	-25.4	-25.3	-25.4	21.7	ESE	0.36	23.5	-41.3	715.0	0.030	0.000	15.0	57	1
03/17/19	4:25 p	-25.4	-25.3	-25.4	21.7	ESE	0.36	22.6	-41.3	714.9	0.030	0.000	15.0	57	1
03/17/19	4:26 p	-25.4	-25.4	-25.4	20.9	ESE	0.35	22.6	-41.1	714.9	0.030	0.000	15.0	57	1
03/17/19	4:27 p	-25.4	-25.4	-25.4	22.6	ESE	0.38	24.3	-41.5	714.9	0.030	0.000	15.0	57	1
03/17/19	4:28 p	-25.4	-25.4	-25.4	21.7	ESE	0.36	23.5	-41.3	714.9	0.030	0.000	15.0	57	1
03/17/19	4:29 p	-25.4	-25.4	-25.4	22.6	ESE	0.38	25.2	-41.5	714.8	0.030	0.000	15.0	57	1
03/17/19	4:30 p	-25.4	-25.4	-25.4	22.6	ESE	0.38	25.2	-41.5	714.8	0.030	0.000	15.0	57	1
03/17/19	4:31 p	-25.4	-25.4	-25.4	21.7	ESE	0.36	23.5	-41.3	714.8	0.030	0.000	15.0	57	1
03/17/19	4:32 p	-25.4	-25.4	-25.4	22.6	ESE	0.38	24.3	-41.5	714.8	0.030	0.000	15.0	57	1
03/17/19	4:33 p	-25.4	-25.4	-25.4	22.6	ESE	0.38	24.3	-41.5	714.8	0.030	0.000	15.0	57	1
03/17/19	4:34 p	-25.4	-25.4	-25.4	21.7	ESE	0.36	23.5	-41.3	714.9	0.030	0.000	15.0	57	1
03/17/19	4:35 p	-25.4	-25.4	-25.4	21.7	ESE	0.36	23.5	-41.3	714.9	0.030	0.000	15.0	57	1
03/17/19	4:36 p	-25.4	-25.3	-25.4	21.7	ESE	0.36	24.3	-41.3	714.9	0.030	0.000	15.1	57	1
03/17/19	4:37 p	-25.4	-25.4	-25.4	21.7	ESE	0.36	24.3	-41.3	714.8	0.030	0.000	15.1	57	1
03/17/19	4:38 p	-25.4	-25.4	-25.4	21.7	ESE	0.36	23.5	-41.3	714.9	0.030	0.000	15.1	57	1
03/17/19	4:39 p	-25.4	-25.4	-25.4	20.9	ESE	0.35	23.5	-41.1	714.8	0.030	0.000	15.1	57	1
03/17/19	4:40 p	-25.4	-25.4	-25.4	21.7	ESE	0.36	23.5	-41.3	714.9	0.030	0.000	15.1	57	1
03/17/19	4:41 p	-25.4	-25.4	-25.4	21.7	ESE	0.36	23.5	-41.3	715.0	0.030	0.000	15.1	57	1
03/17/19	4:42 p	-25.4	-25.4	-25.4	20.9	ESE	0.35	22.6	-41.1	714.8	0.030	0.000	15.1	57	1
03/17/19	4:43 p	-25.4	-25.3	-25.4	21.7	ESE	0.36	24.3	-41.3	714.9	0.030	0.000	15.1	57	1
03/17/19	4:44 p	-25.4	-25.4	-25.4	21.7	ESE	0.36	23.5	-41.3	715.0	0.030	0.000	15.1	57	1
03/17/19	4:45 p	-25.4	-25.4	-25.4	21.7	ESE	0.36	23.5	-41.3	714.9	0.030	0.000	15.1	57	1
03/17/19	4:46 p	-25.4	-25.4	-25.4	20.9	ESE	0.35	22.6	-41.1	714.9	0.030	0.000	15.1	57	1
03/17/19	4:47 p	-25.4	-25.4	-25.4	20.9	ESE	0.35	22.6	-41.1	714.9	0.030	0.000	15.1	57	1
03/17/19	4:48 p	-25.4	-25.4	-25.4	20.9	ESE	0.35	22.6	-41.1	714.9	0.030	0.000	15.1	57	1
03/17/19	4:49 p	-25.4	-25.4	-25.4	20.9	ESE	0.35	22.6	-41.1	715.0	0.030	0.000	15.1	57	1
03/17/19	4:50 p	-25.4	-25.4	-25.4	20.9	ESE	0.35	21.7	-41.1	714.9	0.030	0.000	15.1	57	1
03/17/19	4:51 p	-25.4	-25.4	-25.4	20.9	ESE	0.35	22.6	-41.1	714.9	0.030	0.000	15.1	57	1
03/17/19	4:52 p	-25.4	-25.4	-25.4	20.9	ESE	0.35	22.6	-41.1	715.0	0.030	0.000	15.1	57	1
03/17/19	4:53 p	-25.4	-25.4	-25.4	20.0	ESE	0.33	22.6	-40.8	715.0	0.030	0.000	15.1	57	1
03/17/19	4:54 p	-25.4	-25.4	-25.4	20.0	ESE	0.33	22.6	-40.8	715.0	0.030	0.000	15.1	57	1
03/17/19	4:55 p	-25.4	-25.4	-25.4	21.7	ESE	0.36	22.6	-41.3	715.0	0.030	0.000	15.2	57	1
03/17/19	4:56 p	-25.4	-25.4	-25.4	21.7	ESE	0.36	23.5	-41.3	715.0	0.030	0.000	15.1	57	1
03/17/19	4:57 p	-25.4	-25.4	-25.4	20.9	ESE	0.35	22.6	-41.1	714.9	0.030	0.000	15.1	57	1
03/17/19	4:58 p	-25.4	-25.4	-25.4	21.7	ESE	0.36	23.5	-41.3	714.9	0.030	0.000	15.1	57	1
03/17/19	4:59 p	-25.4	-25.4	-25.4	21.7	ESE	0.36	23.5	-41.3	714.9	0.030	0.000	15.2	57	1
03/17/19	5:00 p	-25.4	-25.4	-25.4	20.9	ESE	0.35	23.5	-41.1	714.9	0.030	0.000	15.2	57	1
03/17/19	5:01 p	-25.4	-25.4	-25.4	22.6	ESE	0.38	24.3	-41.5	715.0	0.030	0.000	15.1	57	1
03/17/19	5:02 p	-25.4	-25.4	-25.4	20.9	ESE	0.35	22.6	-41.1	715.1	0.030	0.000	15.1	57	1
03/17/19	5:03 p	-25.4	-25.4	-25.4	20.9	ESE	0.35	22.6	-41.1	715.0	0.030	0.000	15.2	57	1
03/17/19	5:04 p	-25.4	-25.4	-25.4	21.7	ESE	0.36	23.5	-41.3	714.9	0.030	0.000	15.2	57	1
03/17/19	5:05 p	-25.4	-25.4	-25.4	21.7	ESE	0.36	23.5	-41.3	715.0	0.030	0.000	15.1	57	1
03/17/19	5:06 p	-25.4	-25.4	-25.4	21.7	ESE	0.36	23.5	-41.3	714.9	0.030	0.000	15.2	57	1
03/17/19	5:07 p	-25.4	-25.4	-25.4	21.7	ESE	0.36	24.3	-41.3	714.9	0.030	0.000	15.2	57	1
03/17/19	5:08 p	-25.4	-25.4	-25.4	20.9	ESE	0.35	23.5	-41.1	714.9	0.030	0.000	15.2	57	1
03/17/19	5:09 p	-25.4	-25.4	-25.4	22.6	ESE	0.38	23.5	-41.5	715.0	0.030	0.000	15.2	57	1
03/17/19	5:10 p	-25.4	-25.4	-25.4	21.7	ESE	0.36	22.6	-41.3	715.0	0.030	0.000	15.2	57	1
03/17/19	5:11 p	-25.4	-25.4	-25.4	21.7	ESE	0.36	22.6	-41.3	714.9	0.030	0.000	15.2	57	1
03/17/19	5:12 p	-25.4	-25.4	-25.4	21.7	ESE	0.36	23.5	-41.3	715.0	0.030	0.000	15.2	57	1
03/17/19	5:13 p	-25.4	-25.4	-25.4	20.9	ESE	0.35	22.6	-41.1	715.0	0.030	0.000	15.2	57	1
03/17/19	5:14 p	-25.4	-25.4	-25.4	20.0	ESE	0.33	22.6	-40.8	715.0	0.030	0.000	15.2	57	1
03/17/19	5:15 p	-25.4	-25.4	-25.4	20.9	ESE	0.35	22.6	-41.1	714.9	0.030	0.000	15.2	57	1
03/17/19	5:16 p	-25.4	-25.4	-25.4	20.9	ESE	0.35	23.5	-41.1	715.0	0.030	0.000	15.2	57	1
03/17/19	5:17 p	-25.4	-25.4	-25.4	21.7	ESE	0.36	23.5	-41.3	715.0	0.030	0.000	15.2	57	1
03/17/19	5:18 p	-25.4	-25.4	-25.4	21.7	ESE	0.36	22.6	-41.3	715.0	0.030	0.000	15.2	57	1
03/17/19	5:19 p	-25.4	-25.4	-25.4	21.7	ESE	0.36	23.5	-41.3	715.0	0.030	0.000	15.2	57	1
03/17/19	5:20 p	-25.4	-25.4	-25.4	21.7	ESE	0.36	23.5	-41.3	715.0	0.030	0.000	15.2	57	1
03/17/19	5:21 p	-25.4	-25.4	-25.4	20.9	ESE	0.35	22.6	-41.1	715.0	0.030	0.000	15.2	57	1
03/17/19	5:22 p	-25.4	-25.4	-25.4	20.9	ESE	0.35	22.6	-41.1	715.0	0.030	0.000	15.2	57	1
03/17/19	5:23 p	-25.4	-25.4	-25.4	20.9	ESE	0.35	22.6	-41.1	715.0	0.030	0.000	15.2	57	1
03/17/19	5:24 p	-25.4	-25.4	-25.5	21.7	ESE	0.36	23.5	-41.3	715.0	0.030	0.000	15.2	57	1
03/17/19	5:25 p	-25.5	-25.4	-25.5	21.7	ESE	0.36	23.5	-41.4	715.1	0.030	0.000	15.2	57	1
03/17/19	5:26 p	-25.5	-25.4	-25.5	20.9	ESE	0.35	21.7	-41.2	715.0	0.030	0.000	15.2	57	1
03/17/19	5:27 p	-25.5	-25.5	-25.5	20.9	ESE	0.35	22.6	-41.2	715.0	0.030	0.000	15.2	57	1
03/17/19	5:28 p	-25.5	-25.5	-25.5	21.7	ESE	0.36	23.5	-41.4	715.0	0.030	0.000	15.2	57	1
03/17/19	5:29 p	-25.5	-25.5	-25.6	20.9	ESE	0.35	21.7	-41.2	715.0	0.030	0.000	15.2	57	1
03/17/19	5:30 p	-25.6	-25.5	-25.6	21.7	ESE	0.36	22.6	-41.5	715.0	0.030	0.000	15.2	57	1
03/17/19	5:31 p	-25.6	-25.5	-25.6	20.9	ESE	0.35	22.6	-41.3	715.0	0.030	0.000	15.2	57	1
03/17/19	5:32 p	-25.6	-25.5	-25.6	21.7	ESE	0.36	22.6	-41.5	715.0	0.030	0.000	15.2	57	1
03/17/19	5:33 p	-25.6	-25.5	-25.6	21.7	ESE	0.36	23.5	-41.5	715.1	0.030	0.000	15.3	57	1
03/17/19	5:34 p	-25.6	-25.6	-25.6	20.0	ESE	0.33	21.7	-41.0	715.1	0.030	0.000	15.3	57	1
03/17/19	5:35 p	-25.6	-25.6	-25.6	20.9	ESE	0.35	21.7	-41.3	715.0	0.030	0.000	15.3	57	1
03/17/19	5:36 p	-25.6	-25.6	-25.6	20.9	ESE	0.35	23.5	-41.3	715.1	0.031	0.000	15.3	57	1
03/17/19	5:37 p	-25.6	-25.6	-25.6	20.9	ESE	0.35	22.6	-41.3	715.1	0.031	0.000	15.3	57	1
03/17/19	5:38 p	-25.6	-25.6	-25.6	20.9	ESE	0.35	21.7	-41.3	715.1	0.031	0.000	15.3	57	1
03/17/19	5:39 p	-25.6	-25.6	-25.7	20.9	ESE	0.35	21.7	-41.3	715.1	0.031	0.000	15.3	57	1
03/17/19	5:40 p	-25.6	-25.6	-25.7	20.9	ESE	0.35	22.6	-41.3	715.1	0.031	0.000	15.3	57	1
03/17/19	5:41 p	-25.7	-25.6	-25.7	20.9	ESE	0.35	22.6	-41.4	715.1	0.031	0.000	15.3	57	1
03/17/19	5:42 p	-25.7	-25.6	-25.7	20.9	ESE	0.35	22.6	-41.4	715.1	0.031	0.000	15.3	57	1
03/17/19	5:43 p	-25.7	-25.6	-25.7	20.9	ESE	0.35	21.7	-41.4	715.1	0.031	0.000	15.3	57	1
03/17/19	5:44 p	-25.7	-25.7	-25.7	20.9	ESE	0.35	22.6	-41.4	715.2	0.031	0.000	15.3	57	1
03/17/19	5:45 p	-25.7	-25.7	-25.7	20.0	ESE	0.33	21.7	-41.2	715.1	0.031	0.000	15.3	57	1
03/17/19	5:46 p	-25.7	-25.7	-25.7	20.0	ESE	0.33	22.6	-41.2	715.1	0.031	0.000	15.3	57	1
03/17/19	5:47 p	-25.7	-25.7	-25.7	20.9	ESE	0.35	22.6	-41.4	715.1	0.031	0.000	15.3	57	1
03/17/19	5:48 p	-25.7	-25.7	-25.7	20.9	ESE	0.35	21.7	-41.4	715.1	0.031	0.000	15.3	57	1
03/17/19	5:49 p	-25.7	-25.7	-25.7	20.9	ESE	0.35	23.5	-41.4	715.1	0.031	0.000	15.3	57	1
03/17/19	5:50 p	-25.7	-25.7	-25.7	20.0	ESE	0.33	21.7	-41.2	715.1	0.031	0.000	15.3	57	1
03/17/19	5:51 p	-25.7	-25.7	-25.7	20.9	ESE	0.35	21.7	-41.4	715.1	0.031	0.000	15.3	57	1
03/17/19	5:52 p	-25.7	-25.7	-25.7	20.9	ESE	0.35	21.7	-41.4	715.1	0.031	0.000	15.3	57	1
03/17/19	5:53 p	-25.7	-25.7	-25.7	20.0	ESE	0.33	21.7	-41.2	715.1	0.031	0.000	15.3	57	1
03/17/19	5:54 p	-25.7	-25.7	-25.7	20.9	ESE	0.35	22.6	-41.4	715.1	0.031	0.000	15.3	57	1
03/17/19	5:55 p	-25.7	-25.7	-25.7	20.9	ESE	0.35	21.7	-41.4	715.1	0.031	0.000	15.3	57	1
03/17/19	5:56 p	-25.7	-25.7	-25.7	20.9	ESE	0.35	21.7	-41.5	715.1	0.031	0.000	15.3	57	1
03/17/19	5:57 p	-25.7	-25.7	-25.7	20.9	ESE	0.35	22.6	-41.5	715.1	0.031	0.000	15.3	57	1
03/17/19	5:58 p	-25.7	-25.7	-25.7	21.7	ESE	0.36	22.6	-41.7	715.1	0.031	0.000	15.3	57	1
03/17/19	5:59 p	-25.7	-25.7	-25.7	20.9	ESE	0.35	21.7	-41.5	715.1	0.031	0.000	15.3	57	1
03/17/19	6:00 p	-25.7	-25.7	-25.7	21.7	ESE	0.36	22.6	-41.7	715.1	0.031	0.000	15.3	57	1
03/17/19	6:01 p	-25.7	-25.7	-25.7	20.9	ESE	0.35	22.6	-41.5	715.1	0.031	0.000	15.3	57	1
03/17/19	6:02 p	-25.7	-25.7	-25.7	20.9	ESE	0.35	22.6	-41.5	715.1	0.031	0.000	15.3	57	1
03/17/19	6:03 p	-25.7	-25.7	-25.7	20.9	ESE	0.35	22.6	-41.5	715.1	0.031	0.000	15.3	57	1
03/17/19	6:04 p	-25.7	-25.7	-25.7	20.9	ESE	0.35	21.7	-41.5	715.1	0.031	0.000	15.4	57	1
03/17/19	6:05 p	-25.7	-25.7	-25.7	20.9	ESE	0.35	21.7	-41.5	715.1	0.031	0.000	15.4	57	1
03/17/19	6:06 p	-25.7	-25.7	-25.7	20.9	ESE	0.35	21.7	-41.5	715.1	0.031	0.000	15.4	57	1
03/17/19	6:07 p	-25.7	-25.7	-25.7	20.9	ESE	0.35	21.7	-41.5	715.1	0.031	0.000	15.4	57	1
03/17/19	6:08 p	-25.7	-25.7	-25.7	20.9	ESE	0.35	21.7	-41.5	715.1	0.031	0.000	15.4	58	1
03/17/19	6:09 p	-25.7	-25.7	-25.7	20.9	ESE	0.35	21.7	-41.4	715.1	0.031	0.000	15.4	57	1
03/17/19	6:10 p	-25.7	-25.7	-25.7	20.0	ESE	0.33	20.9	-41.2	715.1	0.031	0.000	15.4	57	1
03/17/19	6:11 p	-25.7	-25.7	-25.7	20.0	ESE	0.33	21.7	-41.2	715.2	0.031	0.000	15.4	57	1
03/17/19	6:12 p	-25.7	-25.7	-25.7	20.0	ESE	0.33	20.9	-41.2	715.1	0.031	0.000	15.4	57	1
03/17/19	6:13 p	-25.7	-25.7	-25.7	20.0	ESE	0.33	21.7	-41.2	715.2	0.031	0.000	15.4	57	1
03/17/19	6:14 p	-25.7	-25.7	-25.7	20.0	ESE	0.33	21.7	-41.2	715.2	0.031	0.000	15.4	57	1
03/17/19	6:15 p	-25.7	-25.7	-25.7	20.0	ESE	0.33	21.7	-41.2	715.2	0.031	0.000	15.4	57	1
03/17/19	6:16 p	-25.7	-25.7	-25.7	20.0	ESE	0.33	21.7	-41.2	715.2	0.031	0.000	15.4	57	1
03/17/19	6:17 p	-25.6	-25.6	-25.7	20.0	ESE	0.33	20.9	-41.1	715.2	0.031	0.000	15.4	57	1
03/17/19	6:18 p	-25.7	-25.6	-25.7	20.0	ESE	0.33	20.9	-41.2	715.2	0.031	0.000	15.4	57	1
03/17/19	6:19 p	-25.6	-25.6	-25.6	20.0	ESE	0.33	21.7	-41.1	715.2	0.031	0.000	15.4	57	1
03/17/19	6:20 p	-25.6	-25.6	-25.7	20.0	ESE	0.33	21.7	-41.1	715.2	0.031	0.000	15.4	57	1
03/17/19	6:21 p	-25.6	-25.6	-25.7	20.0	ESE	0.33	21.7	-41.1	715.2	0.031	0.000	15.4	57	1
03/17/19	6:22 p	-25.6	-25.6	-25.6	20.0	ESE	0.33	21.7	-41.1	715.2	0.031	0.000	15.4	57	1
03/17/19	6:23 p	-25.6	-25.6	-25.6	20.9	ESE	0.35	21.7	-41.3	715.2	0.031	0.000	15.4	57	1
03/17/19	6:24 p	-25.6	-25.6	-25.6	20.0	ESE	0.33	20.9	-41.1	715.2	0.031	0.000	15.5	57	1
03/17/19	6:25 p	-25.6	-25.6	-25.6	19.1	ESE	0.32	20.9	-40.8	715.2	0.031	0.000	15.5	57	1
03/17/19	6:26 p	-25.6	-25.6	-25.6	19.1	ESE	0.32	20.9	-40.8	715.2	0.031	0.000	15.5	57	1
03/17/19	6:27 p	-25.6	-25.6	-25.6	20.0	ESE	0.33	20.9	-41.1	715.1	0.031	0.000	15.5	57	1
03/17/19	6:28 p	-25.6	-25.6	-25.6	20.0	ESE	0.33	20.9	-41.1	715.2	0.031	0.000	15.5	57	1
03/17/19	6:29 p	-25.6	-25.6	-25.6	19.1	ESE	0.32	20.9	-40.8	715.2	0.031	0.000	15.5	57	1
03/17/19	6:30 p	-25.6	-25.6	-25.6	20.0	ESE	0.33	20.9	-41.1	715.2	0.031	0.000	15.5	57	1
03/17/19	6:31 p	-25.6	-25.6	-25.6	20.0	ESE	0.33	21.7	-41.1	715.1	0.031	0.000	15.5	57	1
03/17/19	6:32 p	-25.6	-25.6	-25.6	20.0	ESE	0.33	20.9	-41.1	715.2	0.031	0.000	15.5	57	1
03/17/19	6:33 p	-25.6	-25.6	-25.6	19.1	ESE	0.32	20.9	-40.8	715.1	0.031	0.000	15.5	57	1
03/17/19	6:34 p	-25.6	-25.6	-25.6	20.0	ESE	0.33	21.7	-41.0	715.2	0.030	0.000	15.5	57	1
03/17/19	6:35 p	-25.6	-25.6	-25.6	20.0	ESE	0.33	20.9	-41.0	715.1	0.030	0.000	15.5	58	1
03/17/19	6:36 p	-25.6	-25.6	-25.6	20.0	ESE	0.33	21.7	-41.0	715.1	0.030	0.000	15.5	57	1
03/17/19	6:37 p	-25.6	-25.6	-25.6	20.0	ESE	0.33	21.7	-41.0	715.2	0.030	0.000	15.5	58	1
03/17/19	6:38 p	-25.5	-25.5	-25.6	20.0	ESE	0.33	20.9	-40.9	715.1	0.030	0.000	15.5	57	1
03/17/19	6:39 p	-25.6	-25.6	-25.6	20.0	ESE	0.33	20.9	-41.0	715.1	0.030	0.000	15.5	57	1
03/17/19	6:40 p	-25.5	-25.5	-25.6	19.1	ESE	0.32	20.9	-40.7	715.2	0.030	0.000	15.6	57	1
03/17/19	6:41 p	-25.5	-25.5	-25.6	19.1	ESE	0.32	20.9	-40.7	715.1	0.030	0.000	15.6	57	1
03/17/19	6:42 p	-25.5	-25.5	-25.5	19.1	ESE	0.32	20.9	-40.7	715.2	0.030	0.000	15.6	57	1
03/17/19	6:43 p	-25.5	-25.5	-25.5	19.1	ESE	0.32	20.9	-40.7	715.1	0.030	0.000	15.6	57	1
03/17/19	6:44 p	-25.5	-25.5	-25.5	19.1	ESE	0.32	20.9	-40.7	715.2	0.030	0.000	15.6	57	1
03/17/19	6:45 p	-25.5	-25.5	-25.5	19.1	ESE	0.32	20.0	-40.7	715.3	0.030	0.000	15.6	57	1
03/17/19	6:46 p	-25.5	-25.4	-25.5	19.1	ESE	0.32	20.9	-40.7	715.1	0.030	0.000	15.6	57	1
03/17/19	6:47 p	-25.4	-25.4	-25.4	19.1	ESE	0.32	20.0	-40.6	715.2	0.030	0.000	15.6	57	1
03/17/19	6:48 p	-25.4	-25.4	-25.4	19.1	ESE	0.32	20.0	-40.6	715.2	0.030	0.000	15.6	57	1
03/17/19	6:49 p	-25.4	-25.4	-25.4	19.1	ESE	0.32	20.0	-40.6	715.2	0.030	0.000	15.6	57	1
03/17/19	6:50 p	-25.4	-25.4	-25.4	19.1	ESE	0.32	20.0	-40.6	715.2	0.030	0.000	15.6	57	1
03/17/19	6:51 p	-25.4	-25.4	-25.4	19.1	ESE	0.32	20.0	-40.6	715.2	0.030	0.000	15.6	57	1
03/17/19	6:52 p	-25.4	-25.4	-25.4	19.1	ESE	0.32	20.9	-40.6	715.2	0.030	0.000	15.6	57	1
03/17/19	6:53 p	-25.4	-25.4	-25.4	19.1	ESE	0.32	20.0	-40.6	715.2	0.030	0.000	15.6	57	1
03/17/19	6:54 p	-25.4	-25.4	-25.4	18.3	ESE	0.30	20.0	-40.3	715.2	0.030	0.000	15.6	57	1
03/17/19	6:55 p	-25.4	-25.4	-25.4	19.1	ESE	0.32	20.0	-40.5	715.2	0.030	0.000	15.6	57	1
03/17/19	6:56 p	-25.4	-25.4	-25.4	19.1	ESE	0.32	20.0	-40.6	715.2	0.030	0.000	15.6	57	1
03/17/19	6:57 p	-25.4	-25.4	-25.4	18.3	ESE	0.30	19.1	-40.3	715.3	0.030	0.000	15.6	57	1
03/17/19	6:58 p	-25.4	-25.4	-25.4	18.3	ESE	0.30	19.1	-40.3	715.2	0.030	0.000	15.6	57	1
03/17/19	6:59 p	-25.4	-25.4	-25.4	18.3	ESE	0.30	19.1	-40.3	715.3	0.030	0.000	15.6	57	1
03/17/19	7:00 p	-25.4	-25.4	-25.4	17.4	ESE	0.29	18.3	-40.0	715.2	0.030	0.000	15.6	57	1
03/17/19	7:01 p	-25.4	-25.4	-25.4	18.3	ESE	0.30	19.1	-40.3	715.2	0.030	0.000	15.6	57	1
03/17/19	7:02 p	-25.4	-25.4	-25.4	18.3	ESE	0.30	19.1	-40.3	715.2	0.030	0.000	15.6	57	1
03/17/19	7:03 p	-25.4	-25.4	-25.5	18.3	ESE	0.30	19.1	-40.3	715.3	0.030	0.000	15.6	58	1
03/17/19	7:04 p	-25.4	-25.4	-25.5	17.4	ESE	0.29	20.0	-40.0	715.3	0.030	0.000	15.6	57	1
03/17/19	7:05 p	-25.5	-25.5	-25.5	18.3	ESE	0.30	20.9	-40.4	715.3	0.030	0.000	15.6	57	1
03/17/19	7:06 p	-25.5	-25.4	-25.5	18.3	ESE	0.30	19.1	-40.4	715.3	0.030	0.000	15.6	57	1
03/17/19	7:07 p	-25.5	-25.5	-25.5	18.3	ESE	0.30	20.0	-40.4	715.3	0.030	0.000	15.6	57	1
03/17/19	7:08 p	-25.5	-25.5	-25.6	17.4	ESE	0.29	20.0	-40.1	715.3	0.030	0.000	15.6	57	1
03/17/19	7:09 p	-25.5	-25.5	-25.6	18.3	ESE	0.30	20.9	-40.4	715.3	0.030	0.000	15.6	57	1
03/17/19	7:10 p	-25.6	-25.5	-25.6	18.3	ESE	0.30	20.0	-40.4	715.3	0.030	0.000	15.6	57	1
03/17/19	7:11 p	-25.6	-25.6	-25.6	18.3	ESE	0.30	20.0	-40.4	715.2	0.030	0.000	15.6	57	1
03/17/19	7:12 p	-25.6	-25.5	-25.6	18.3	ESE	0.30	19.1	-40.4	715.3	0.030	0.000	15.6	58	1
03/17/19	7:13 p	-25.6	-25.6	-25.6	18.3	ESE	0.30	20.9	-40.5	715.3	0.031	0.000	15.7	57	1
03/17/19	7:14 p	-25.6	-25.6	-25.6	18.3	ESE	0.30	20.0	-40.5	715.4	0.031	0.000	15.7	57	1
03/17/19	7:15 p	-25.6	-25.6	-25.6	18.3	ESE	0.30	20.0	-40.5	715.3	0.031	0.000	15.7	57	1
03/17/19	7:16 p	-25.6	-25.6	-25.6	18.3	ESE	0.30	20.0	-40.5	715.3	0.031	0.000	15.6	57	1
03/17/19	7:17 p	-25.6	-25.6	-25.6	18.3	ESE	0.30	19.1	-40.5	715.4	0.031	0.000	15.7	57	1
03/17/19	7:18 p	-25.6	-25.6	-25.7	18.3	ESE	0.30	19.1	-40.5	715.4	0.031	0.000	15.7	57	1
03/17/19	7:19 p	-25.7	-25.7	-25.7	17.4	ESE	0.29	18.3	-40.3	715.3	0.031	0.000	15.7	57	1
03/17/19	7:20 p	-25.7	-25.7	-25.7	18.3	ESE	0.30	19.1	-40.6	715.4	0.031	0.000	15.7	57	1
03/17/19	7:21 p	-25.7	-25.7	-25.7	18.3	ESE	0.30	19.1	-40.6	715.3	0.031	0.000	15.7	57	1
03/17/19	7:22 p	-25.7	-25.7	-25.7	18.3	ESE	0.30	19.1	-40.7	715.3	0.031	0.000	15.7	57	1
03/17/19	7:23 p	-25.7	-25.7	-25.7	18.3	ESE	0.30	19.1	-40.7	715.3	0.031	0.000	15.7	57	1
03/17/19	7:24 p	-25.8	-25.7	-25.8	18.3	ESE	0.30	20.0	-40.7	715.3	0.031	0.000	15.7	57	1
03/17/19	7:25 p	-25.8	-25.7	-25.8	19.1	ESE	0.32	20.9	-41.0	715.3	0.031	0.000	15.7	57	1
03/17/19	7:26 p	-25.8	-25.8	-25.8	19.1	ESE	0.32	20.0	-41.0	715.2	0.031	0.000	15.7	57	1
03/17/19	7:27 p	-25.8	-25.8	-25.8	19.1	ESE	0.32	20.0	-41.1	715.2	0.031	0.000	15.7	57	1
03/17/19	7:28 p	-25.8	-25.8	-25.9	18.3	ESE	0.30	20.0	-40.8	715.3	0.031	0.000	15.7	57	1
03/17/19	7:29 p	-25.9	-25.9	-25.9	18.3	ESE	0.30	19.1	-40.9	715.3	0.031	0.000	15.7	57	1
03/17/19	7:30 p	-25.9	-25.9	-25.9	19.1	ESE	0.32	20.0	-41.2	715.2	0.031	0.000	15.7	57	1
03/17/19	7:31 p	-25.9	-25.9	-26.0	18.3	ESE	0.30	19.1	-40.9	715.3	0.031	0.000	15.7	57	1
03/17/19	7:32 p	-26.0	-25.9	-26.0	18.3	ESE	0.30	20.0	-41.0	715.2	0.031	0.000	15.7	57	1
03/17/19	7:33 p	-26.1	-26.0	-26.1	19.1	ESE	0.32	20.0	-41.4	715.3	0.031	0.000	15.7	57	1
03/17/19	7:34 p	-26.1	-26.1	-26.1	19.1	ESE	0.32	20.0	-41.4	715.2	0.031	0.000	15.7	57	1
03/17/19	7:35 p	-26.1	-26.1	-26.1	19.1	ESE	0.32	20.0	-41.4	715.2	0.031	0.000	15.7	57	1
03/17/19	7:36 p	-26.2	-26.1	-26.2	19.1	ESE	0.32	20.9	-41.6	715.3	0.031	0.000	15.7	57	1
03/17/19	7:37 p	-26.2	-26.2	-26.2	19.1	ESE	0.32	20.9	-41.6	715.3	0.031	0.000	15.7	57	1
03/17/19	7:38 p	-26.2	-26.2	-26.3	19.1	ESE	0.32	20.0	-41.6	715.2	0.031	0.000	15.7	57	1
03/17/19	7:39 p	-26.3	-26.3	-26.3	19.1	ESE	0.32	20.0	-41.7	715.3	0.031	0.000	15.7	57	1
03/17/19	7:40 p	-26.3	-26.3	-26.3	19.1	ESE	0.32	20.9	-41.7	715.2	0.031	0.000	15.7	57	1
03/17/19	7:41 p	-26.4	-26.3	-26.4	20.0	ESE	0.33	20.9	-42.1	715.2	0.031	0.000	15.7	57	1
03/17/19	7:42 p	-26.4	-26.4	-26.4	20.9	ESE	0.35	21.7	-42.4	715.2	0.031	0.000	15.7	57	1
03/17/19	7:43 p	-26.4	-26.4	-26.5	20.0	ESE	0.33	20.9	-42.2	715.2	0.031	0.000	15.7	57	1
03/17/19	7:44 p	-26.5	-26.5	-26.5	20.9	ESE	0.35	20.9	-42.5	715.2	0.031	0.000	15.7	57	1
03/17/19	7:45 p	-26.6	-26.5	-26.6	20.0	ESE	0.33	20.9	-42.3	715.3	0.031	0.000	15.7	57	1
03/17/19	7:46 p	-26.6	-26.6	-26.6	20.0	ESE	0.33	20.9	-42.3	715.3	0.031	0.000	15.7	57	1
03/17/19	7:47 p	-26.6	-26.6	-26.6	20.0	ESE	0.33	21.7	-42.4	715.2	0.031	0.000	15.7	57	1
03/17/19	7:48 p	-26.7	-26.7	-26.7	20.0	ESE	0.33	21.7	-42.4	715.2	0.031	0.000	15.7	57	1
03/17/19	7:49 p	-26.7	-26.7	-26.7	20.9	ESE	0.35	21.7	-42.7	715.2	0.031	0.000	15.8	57	1
03/17/19	7:50 p	-26.7	-26.7	-26.7	20.9	ESE	0.35	21.7	-42.8	715.2	0.031	0.000	15.8	57	1
03/17/19	7:51 p	-26.7	-26.7	-26.8	20.9	ESE	0.35	21.7	-42.8	715.2	0.031	0.000	15.8	57	1
03/17/19	7:52 p	-26.8	-26.8	-26.8	20.9	ESE	0.35	22.6	-42.9	715.2	0.031	0.000	15.8	57	1
03/17/19	7:53 p	-26.8	-26.8	-26.8	21.7	ESE	0.36	22.6	-43.2	715.1	0.031	0.000	15.8	57	1
03/17/19	7:54 p	-26.8	-26.8	-26.8	20.9	ESE	0.35	21.7	-42.9	715.2	0.031	0.000	15.8	57	1
03/17/19	7:55 p	-26.8	-26.8	-26.8	21.7	ESE	0.36	22.6	-43.2	715.1	0.031	0.000	15.8	57	1
03/17/19	7:56 p	-26.9	-26.8	-26.9	21.7	ESE	0.36	23.5	-43.3	715.1	0.031	0.000	15.8	57	1
03/17/19	7:57 p	-26.9	-26.9	-26.9	21.7	ESE	0.36	22.6	-43.3	715.1	0.031	0.000	15.8	57	1
03/17/19	7:58 p	-26.9	-26.9	-26.9	21.7	ESE	0.36	23.5	-43.3	715.1	0.031	0.000	15.8	57	1
03/17/19	7:59 p	-26.9	-26.9	-26.9	21.7	ESE	0.36	23.5	-43.4	715.0	0.031	0.000	15.8	57	1
03/17/19	8:00 p	-26.9	-26.9	-26.9	22.6	ESE	0.38	23.5	-43.6	715.1	0.031	0.000	15.8	57	1
03/17/19	8:01 p	-26.9	-26.9	-26.9	22.6	ESE	0.38	24.3	-43.6	715.1	0.031	0.000	15.8	57	1
03/17/19	8:02 p	-27.0	-26.9	-27.0	22.6	ESE	0.38	24.3	-43.7	715.1	0.031	0.000	15.8	57	1
03/17/19	8:03 p	-27.0	-27.0	-27.1	22.6	ESE	0.38	24.3	-43.7	715.1	0.031	0.000	15.8	57	1
03/17/19	8:04 p	-27.1	-27.0	-27.1	23.5	ESE	0.39	25.2	-44.0	715.1	0.032	0.000	15.8	57	1
03/17/19	8:05 p	-27.1	-27.1	-27.1	23.5	ESE	0.39	25.2	-44.0	715.0	0.032	0.000	15.8	57	1
03/17/19	8:06 p	-27.1	-27.1	-27.1	22.6	ESE	0.38	24.3	-43.8	715.0	0.032	0.000	15.8	57	1
03/17/19	8:07 p	-27.1	-27.1	-27.1	22.6	ESE	0.38	24.3	-43.8	715.1	0.032	0.000	15.8	57	1
03/17/19	8:08 p	-27.1	-27.1	-27.1	23.5	ESE	0.39	24.3	-44.1	715.1	0.032	0.000	15.8	57	1
03/17/19	8:09 p	-27.1	-27.1	-27.2	23.5	ESE	0.39	25.2	-44.1	715.1	0.032	0.000	15.8	57	1
03/17/19	8:10 p	-27.2	-27.1	-27.2	23.5	ESE	0.39	24.3	-44.2	715.1	0.032	0.000	15.8	57	1
03/17/19	8:11 p	-27.2	-27.2	-27.2	23.5	ESE	0.39	25.2	-44.2	715.1	0.032	0.000	15.8	57	1
03/17/19	8:12 p	-27.2	-27.2	-27.2	22.6	ESE	0.38	24.3	-43.9	715.0	0.032	0.000	15.8	57	1
03/17/19	8:13 p	-27.2	-27.2	-27.2	22.6	ESE	0.38	24.3	-44.0	715.0	0.032	0.000	15.8	57	1
03/17/19	8:14 p	-27.2	-27.2	-27.3	23.5	ESE	0.39	24.3	-44.2	715.1	0.032	0.000	15.8	57	1
03/17/19	8:15 p	-27.2	-27.2	-27.3	23.5	ESE	0.39	24.3	-44.2	715.1	0.032	0.000	15.8	57	1
03/17/19	8:16 p	-27.2	-27.2	-27.3	22.6	ESE	0.38	24.3	-44.0	715.1	0.032	0.000	15.8	57	1
03/17/19	8:17 p	-27.3	-27.3	-27.3	23.5	ESE	0.39	24.3	-44.3	715.0	0.032	0.000	15.8	57	1
03/17/19	8:18 p	-27.3	-27.3	-27.3	23.5	ESE	0.39	24.3	-44.3	715.1	0.032	0.000	15.8	57	1
03/17/19	8:19 p	-27.3	-27.3	-27.3	23.5	ESE	0.39	25.2	-44.3	715.1	0.032	0.000	15.8	57	1
03/17/19	8:20 p	-27.3	-27.3	-27.3	22.6	ESE	0.38	24.3	-44.1	715.1	0.032	0.000	15.8	57	1
03/17/19	8:21 p	-27.3	-27.3	-27.3	23.5	ESE	0.39	24.3	-44.3	715.0	0.032	0.000	15.8	57	1
03/17/19	8:22 p	-27.3	-27.3	-27.3	23.5	ESE	0.39	24.3	-44.3	715.0	0.032	0.000	15.8	57	1
03/17/19	8:23 p	-27.3	-27.3	-27.3	23.5	ESE	0.39	24.3	-44.3	715.1	0.032	0.000	15.9	57	1
03/17/19	8:24 p	-27.3	-27.3	-27.3	23.5	ESE	0.39	25.2	-44.3	715.1	0.032	0.000	15.9	57	1
03/17/19	8:25 p	-27.3	-27.3	-27.3	23.5	ESE	0.39	25.2	-44.3	715.1	0.032	0.000	15.9	57	1
03/17/19	8:26 p	-27.3	-27.3	-27.3	24.3	ESE	0.41	26.1	-44.6	715.1	0.032	0.000	15.9	57	1
03/17/19	8:27 p	-27.3	-27.3	-27.3	24.3	ESE	0.41	25.2	-44.6	715.1	0.032	0.000	15.9	57	1
03/17/19	8:28 p	-27.3	-27.2	-27.3	24.3	ESE	0.41	25.2	-44.6	715.0	0.032	0.000	15.9	57	1
03/17/19	8:29 p	-27.3	-27.2	-27.3	24.3	ESE	0.41	25.2	-44.6	715.0	0.032	0.000	15.9	57	1
03/17/19	8:30 p	-27.2	-27.2	-27.3	24.3	ESE	0.41	26.1	-44.4	715.0	0.032	0.000	15.9	57	1
03/17/19	8:31 p	-27.2	-27.2	-27.2	24.3	ESE	0.41	25.2	-44.4	715.0	0.032	0.000	15.9	57	1
03/17/19	8:32 p	-27.2	-27.2	-27.2	24.3	ESE	0.41	25.2	-44.4	715.0	0.032	0.000	15.9	57	1
03/17/19	8:33 p	-27.2	-27.2	-27.2	25.2	ESE	0.42	26.1	-44.6	715.0	0.032	0.000	15.9	57	1
03/17/19	8:34 p	-27.1	-27.1	-27.2	25.2	ESE	0.42	26.1	-44.6	715.0	0.032	0.000	15.9	57	1
03/17/19	8:35 p	-27.1	-27.1	-27.1	24.3	ESE	0.41	26.1	-44.3	715.0	0.032	0.000	15.9	57	1
03/17/19	8:36 p	-27.1	-27.1	-27.1	24.3	ESE	0.41	26.1	-44.2	715.0	0.032	0.000	15.9	57	1
03/17/19	8:37 p	-27.1	-27.0	-27.1	24.3	ESE	0.41	25.2	-44.2	715.0	0.032	0.000	15.9	57	1
03/17/19	8:38 p	-27.0	-27.0	-27.0	25.2	ESE	0.42	27.0	-44.4	715.1	0.031	0.000	15.9	57	1
03/17/19	8:39 p	-26.9	-26.9	-27.0	25.2	ESE	0.42	26.1	-44.3	715.0	0.031	0.000	15.9	57	1
03/17/19	8:40 p	-26.9	-26.9	-26.9	25.2	ESE	0.42	26.1	-44.3	715.0	0.031	0.000	15.9	57	1
03/17/19	8:41 p	-26.9	-26.9	-26.9	25.2	ESE	0.42	26.1	-44.2	715.1	0.031	0.000	15.9	57	1
03/17/19	8:42 p	-26.9	-26.8	-26.9	24.3	ESE	0.41	26.1	-44.0	715.1	0.031	0.000	15.9	57	1
03/17/19	8:43 p	-26.8	-26.8	-26.8	25.2	ESE	0.42	27.0	-44.2	715.0	0.031	0.000	15.9	57	1
03/17/19	8:44 p	-26.8	-26.8	-26.8	25.2	ESE	0.42	26.1	-44.1	715.0	0.031	0.000	15.9	57	1
03/17/19	8:45 p	-26.8	-26.7	-26.8	25.2	ESE	0.42	27.0	-44.1	715.0	0.031	0.000	15.9	57	1
03/17/19	8:46 p	-26.7	-26.7	-26.7	25.2	ESE	0.42	27.0	-44.0	715.1	0.031	0.000	15.9	57	1
03/17/19	8:47 p	-26.7	-26.7	-26.7	25.2	ESE	0.42	26.1	-43.9	715.1	0.031	0.000	15.9	57	1
03/17/19	8:48 p	-26.7	-26.6	-26.7	25.2	ESE	0.42	27.0	-43.9	715.0	0.031	0.000	15.9	57	1
03/17/19	8:49 p	-26.6	-26.6	-26.6	25.2	ESE	0.42	26.1	-43.9	715.0	0.031	0.000	15.9	57	1
03/17/19	8:50 p	-26.6	-26.6	-26.6	25.2	ESE	0.42	27.0	-43.8	715.0	0.031	0.000	15.9	57	1
03/17/19	8:51 p	-26.5	-26.5	-26.5	25.2	ESE	0.42	26.1	-43.7	715.0	0.031	0.000	15.9	57	1
03/17/19	8:52 p	-26.4	-26.4	-26.5	25.2	ESE	0.42	27.0	-43.7	715.0	0.031	0.000	15.9	57	1
03/17/19	8:53 p	-26.4	-26.4	-26.4	25.2	ESE	0.42	27.0	-43.7	715.0	0.031	0.000	15.9	57	1
03/17/19	8:54 p	-26.4	-26.3	-26.4	26.1	ESE	0.43	27.8	-43.8	715.0	0.031	0.000	15.9	57	1
03/17/19	8:55 p	-26.3	-26.3	-26.3	25.2	ESE	0.42	27.0	-43.5	715.0	0.031	0.000	15.9	57	1
03/17/19	8:56 p	-26.3	-26.3	-26.3	25.2	ESE	0.42	27.0	-43.5	715.0	0.031	0.000	15.9	57	1
03/17/19	8:57 p	-26.3	-26.2	-26.3	26.1	ESE	0.43	27.0	-43.6	715.0	0.031	0.000	15.9	57	1
03/17/19	8:58 p	-26.2	-26.2	-26.3	26.1	ESE	0.43	27.8	-43.6	715.0	0.031	0.000	15.9	57	1
03/17/19	8:59 p	-26.2	-26.2	-26.2	26.1	ESE	0.43	27.8	-43.6	715.0	0.031	0.000	15.9	57	1
03/17/19	9:00 p	-26.2	-26.1	-26.2	27.0	ESE	0.45	27.8	-43.7	715.0	0.031	0.000	15.9	57	1
03/17/19	9:01 p	-26.1	-26.1	-26.1	27.0	ESE	0.45	27.8	-43.6	715.0	0.031	0.000	15.9	57	1
03/17/19	9:02 p	-26.1	-26.1	-26.1	26.1	ESE	0.43	27.8	-43.4	715.1	0.031	0.000	15.9	57	1
03/17/19	9:03 p	-26.1	-26.1	-26.1	26.1	ESE	0.43	27.8	-43.3	715.0	0.031	0.000	15.9	57	1
03/17/19	9:04 p	-26.1	-26.0	-26.1	26.1	ESE	0.43	27.8	-43.3	715.0	0.031	0.000	15.9	57	1
03/17/19	9:05 p	-26.0	-25.9	-26.0	26.1	ESE	0.43	27.0	-43.3	715.0	0.031	0.000	15.9	57	1
03/17/19	9:06 p	-25.9	-25.9	-25.9	26.1	ESE	0.43	27.0	-43.2	715.0	0.031	0.000	15.9	57	1
03/17/19	9:07 p	-25.9	-25.9	-25.9	26.1	ESE	0.43	27.0	-43.1	715.1	0.031	0.000	15.9	57	1
03/17/19	9:08 p	-25.9	-25.9	-25.9	25.2	ESE	0.42	27.0	-42.9	715.1	0.031	0.000	15.9	57	1
03/17/19	9:09 p	-25.8	-25.8	-25.9	25.2	ESE	0.42	27.8	-42.8	715.0	0.031	0.000	15.9	57	1
03/17/19	9:10 p	-25.8	-25.8	-25.8	25.2	ESE	0.42	27.0	-42.8	715.1	0.031	0.000	15.9	57	1
03/17/19	9:11 p	-25.8	-25.8	-25.8	25.2	ESE	0.42	27.0	-42.7	715.1	0.031	0.000	15.9	57	1
03/17/19	9:12 p	-25.8	-25.7	-25.8	26.1	ESE	0.43	27.8	-42.9	715.0	0.031	0.000	15.9	57	1
03/17/19	9:13 p	-25.7	-25.7	-25.7	26.1	ESE	0.43	27.0	-42.9	715.1	0.031	0.000	15.9	57	1
03/17/19	9:14 p	-25.7	-25.7	-25.7	26.1	ESE	0.43	27.0	-42.8	715.0	0.031	0.000	15.9	57	1
03/17/19	9:15 p	-25.7	-25.7	-25.7	25.2	ESE	0.42	27.0	-42.6	715.0	0.031	0.000	15.9	57	1
03/17/19	9:16 p	-25.6	-25.6	-25.6	24.3	ESE	0.41	27.0	-42.3	715.1	0.031	0.000	15.9	57	1
03/17/19	9:17 p	-25.6	-25.6	-25.6	25.2	ESE	0.42	26.1	-42.5	715.1	0.031	0.000	15.9	57	1
03/17/19	9:18 p	-25.6	-25.6	-25.6	25.2	ESE	0.42	26.1	-42.4	715.1	0.030	0.000	15.9	57	1
03/17/19	9:19 p	-25.5	-25.5	-25.6	25.2	ESE	0.42	26.1	-42.4	715.0	0.030	0.000	15.9	57	1
03/17/19	9:20 p	-25.5	-25.5	-25.5	24.3	ESE	0.41	25.2	-42.2	715.1	0.030	0.000	15.9	57	1
03/17/19	9:21 p	-25.5	-25.4	-25.5	25.2	ESE	0.42	26.1	-42.4	715.1	0.030	0.000	15.9	57	1
03/17/19	9:22 p	-25.4	-25.4	-25.4	24.3	ESE	0.41	25.2	-42.1	715.1	0.030	0.000	15.9	57	1
03/17/19	9:23 p	-25.4	-25.4	-25.4	24.3	ESE	0.41	26.1	-42.1	715.1	0.030	0.000	15.9	57	1
03/17/19	9:24 p	-25.4	-25.4	-25.4	24.3	ESE	0.41	25.2	-42.0	715.1	0.030	0.000	16.0	57	1
03/17/19	9:25 p	-25.4	-25.4	-25.4	23.5	ESE	0.39	25.2	-41.8	715.1	0.030	0.000	16.0	57	1
03/17/19	9:26 p	-25.4	-25.3	-25.4	23.5	ESE	0.39	25.2	-41.8	715.1	0.030	0.000	16.0	57	1
03/17/19	9:27 p	-25.3	-25.3	-25.3	23.5	ESE	0.39	25.2	-41.7	715.1	0.030	0.000	16.0	57	1
03/17/19	9:28 p	-25.3	-25.3	-25.3	23.5	ESE	0.39	24.3	-41.7	715.2	0.030	0.000	16.0	57	1
03/17/19	9:29 p	-25.3	-25.3	-25.3	23.5	ESE	0.39	24.3	-41.6	715.2	0.030	0.000	16.0	57	1
03/17/19	9:30 p	-25.3	-25.2	-25.3	22.6	ESE	0.38	24.3	-41.4	715.2	0.030	0.000	16.0	57	1
03/17/19	9:31 p	-25.3	-25.2	-25.3	22.6	ESE	0.38	24.3	-41.4	715.2	0.030	0.000	16.0	57	1
03/17/19	9:32 p	-25.2	-25.2	-25.2	22.6	ESE	0.38	24.3	-41.3	715.1	0.030	0.000	16.0	57	1
03/17/19	9:33 p	-25.2	-25.2	-25.2	22.6	ESE	0.38	24.3	-41.3	715.1	0.030	0.000	16.0	57	1
03/17/19	9:34 p	-25.2	-25.2	-25.2	23.5	ESE	0.39	24.3	-41.6	715.3	0.030	0.000	16.0	57	1
03/17/19	9:35 p	-25.2	-25.2	-25.2	22.6	ESE	0.38	24.3	-41.2	715.2	0.030	0.000	16.0	57	1
03/17/19	9:36 p	-25.2	-25.2	-25.2	22.6	ESE	0.38	24.3	-41.2	715.2	0.030	0.000	16.0	57	1
03/17/19	9:37 p	-25.2	-25.1	-25.2	22.6	ESE	0.38	23.5	-41.2	715.2	0.030	0.000	16.0	57	1
03/17/19	9:38 p	-25.1	-25.1	-25.2	22.6	ESE	0.38	23.5	-41.2	715.3	0.030	0.000	16.0	57	1
03/17/19	9:39 p	-25.1	-25.1	-25.2	22.6	ESE	0.38	23.5	-41.2	715.2	0.030	0.000	16.0	57	1
03/17/19	9:40 p	-25.2	-25.1	-25.2	22.6	ESE	0.38	23.5	-41.2	715.2	0.030	0.000	16.0	57	1
03/17/19	9:41 p	-25.1	-25.1	-25.2	22.6	ESE	0.38	23.5	-41.2	715.3	0.030	0.000	16.0	57	1
03/17/19	9:42 p	-25.1	-25.1	-25.1	22.6	ESE	0.38	23.5	-41.2	715.3	0.030	0.000	16.0	57	1
03/17/19	9:43 p	-25.1	-25.1	-25.1	22.6	ESE	0.38	23.5	-41.1	715.3	0.030	0.000	16.0	57	1
03/17/19	9:44 p	-25.1	-25.1	-25.1	22.6	ESE	0.38	23.5	-41.1	715.3	0.030	0.000	16.1	57	1
03/17/19	9:45 p	-25.1	-25.1	-25.1	22.6	ESE	0.38	23.5	-41.1	715.3	0.030	0.000	16.0	57	1
03/17/19	9:46 p	-25.1	-25.1	-25.1	22.6	ESE	0.38	23.5	-41.1	715.3	0.030	0.000	16.0	57	1
03/17/19	9:47 p	-25.0	-25.0	-25.1	22.6	ESE	0.38	23.5	-41.0	715.2	0.030	0.000	16.1	57	1
03/17/19	9:48 p	-25.0	-25.0	-25.0	22.6	ESE	0.38	23.5	-41.0	715.3	0.030	0.000	16.1	57	1
03/17/19	9:49 p	-25.0	-25.0	-25.0	21.7	ESE	0.36	22.6	-40.8	715.3	0.030	0.000	16.1	57	1
03/17/19	9:50 p	-24.9	-24.9	-25.0	22.6	ESE	0.38	23.5	-40.9	715.3	0.030	0.000	16.1	57	1
03/17/19	9:51 p	-24.9	-24.9	-24.9	21.7	ESE	0.36	22.6	-40.7	715.3	0.030	0.000	16.1	57	1
03/17/19	9:52 p	-24.9	-24.9	-24.9	21.7	ESE	0.36	23.5	-40.7	715.3	0.030	0.000	16.1	57	1
03/17/19	9:53 p	-24.9	-24.9	-24.9	21.7	ESE	0.36	22.6	-40.6	715.3	0.030	0.000	16.1	57	1
03/17/19	9:54 p	-24.9	-24.9	-24.9	22.6	ESE	0.38	23.5	-40.8	715.3	0.030	0.000	16.1	57	1
03/17/19	9:55 p	-24.9	-24.9	-24.9	21.7	ESE	0.36	23.5	-40.6	715.3	0.030	0.000	16.1	57	1
03/17/19	9:56 p	-24.8	-24.8	-24.9	23.5	ESE	0.39	24.3	-41.0	715.3	0.030	0.000	16.1	57	1
03/17/19	9:57 p	-24.8	-24.8	-24.8	22.6	ESE	0.38	23.5	-40.8	715.3	0.030	0.000	16.1	57	1
03/17/19	9:58 p	-24.8	-24.8	-24.8	22.6	ESE	0.38	24.3	-40.7	715.3	0.030	0.000	16.1	57	1
03/17/19	9:59 p	-24.8	-24.8	-24.8	22.6	ESE	0.38	24.3	-40.7	715.3	0.030	0.000	16.1	57	1
03/17/19	10:00 p	-24.7	-24.7	-24.7	23.5	ESE	0.39	24.3	-40.9	715.2	0.030	0.000	16.1	57	1
03/17/19	10:01 p	-24.7	-24.7	-24.8	23.5	ESE	0.39	24.3	-40.9	715.3	0.030	0.000	16.1	57	1
03/17/19	10:02 p	-24.7	-24.7	-24.7	23.5	ESE	0.39	25.2	-40.9	715.2	0.030	0.000	16.1	57	1
03/17/19	10:03 p	-24.7	-24.7	-24.7	23.5	ESE	0.39	24.3	-40.9	715.2	0.030	0.000	16.1	57	1
03/17/19	10:04 p	-24.7	-24.6	-24.7	23.5	ESE	0.39	25.2	-40.8	715.3	0.030	0.000	16.1	57	1
03/17/19	10:05 p	-24.6	-24.6	-24.7	23.5	ESE	0.39	24.3	-40.7	715.2	0.030	0.000	16.1	57	1
03/17/19	10:06 p	-24.6	-24.6	-24.6	23.5	ESE	0.39	25.2	-40.7	715.2	0.030	0.000	16.1	57	1
03/17/19	10:07 p	-24.6	-24.6	-24.6	23.5	ESE	0.39	26.1	-40.7	715.2	0.030	0.000	16.1	57	1
03/17/19	10:08 p	-24.6	-24.6	-24.6	23.5	ESE	0.39	24.3	-40.7	715.2	0.030	0.000	16.1	57	1
03/17/19	10:09 p	-24.6	-24.6	-24.6	23.5	ESE	0.39	24.3	-40.7	715.2	0.030	0.000	16.1	57	1
03/17/19	10:10 p	-24.6	-24.6	-24.6	24.3	ESE	0.41	25.2	-40.9	715.2	0.030	0.000	16.2	57	1
03/17/19	10:11 p	-24.6	-24.5	-24.6	24.3	ESE	0.41	26.1	-40.9	715.2	0.030	0.000	16.2	57	1
03/17/19	10:12 p	-24.5	-24.5	-24.5	23.5	ESE	0.39	25.2	-40.6	715.2	0.030	0.000	16.2	57	1
03/17/19	10:13 p	-24.5	-24.4	-24.5	23.5	ESE	0.39	24.3	-40.6	715.4	0.030	0.000	16.2	57	1
03/17/19	10:14 p	-24.4	-24.4	-24.5	23.5	ESE	0.39	24.3	-40.5	715.3	0.030	0.000	16.2	57	1
03/17/19	10:15 p	-24.4	-24.4	-24.4	23.5	ESE	0.39	24.3	-40.5	715.3	0.030	0.000	16.2	57	1
03/17/19	10:16 p	-24.4	-24.4	-24.4	23.5	ESE	0.39	24.3	-40.5	715.3	0.030	0.000	16.2	57	1
03/17/19	10:17 p	-24.4	-24.4	-24.4	23.5	ESE	0.39	24.3	-40.5	715.2	0.030	0.000	16.2	57	1
03/17/19	10:18 p	-24.4	-24.4	-24.4	24.3	ESE	0.41	25.2	-40.7	715.3	0.030	0.000	16.2	57	1
03/17/19	10:19 p	-24.4	-24.4	-24.4	24.3	ESE	0.41	25.2	-40.7	715.2	0.030	0.000	16.2	57	1
03/17/19	10:20 p	-24.4	-24.4	-24.4	24.3	ESE	0.41	25.2	-40.7	715.3	0.030	0.000	16.2	57	1
03/17/19	10:21 p	-24.4	-24.4	-24.4	24.3	ESE	0.41	25.2	-40.7	715.2	0.030	0.000	16.2	57	1
03/17/19	10:22 p	-24.4	-24.4	-24.4	23.5	ESE	0.39	25.2	-40.4	715.2	0.030	0.000	16.2	57	1
03/17/19	10:23 p	-24.4	-24.4	-24.4	24.3	ESE	0.41	25.2	-40.7	715.3	0.030	0.000	16.2	57	1
03/17/19	10:24 p	-24.4	-24.4	-24.4	24.3	ESE	0.41	25.2	-40.7	715.3	0.030	0.000	16.2	57	1
03/17/19	10:25 p	-24.4	-24.4	-24.4	24.3	ESE	0.41	25.2	-40.7	715.3	0.030	0.000	16.2	57	1
03/17/19	10:26 p	-24.4	-24.4	-24.4	24.3	ESE	0.41	25.2	-40.7	715.3	0.030	0.000	16.2	57	1
03/17/19	10:27 p	-24.4	-24.4	-24.4	24.3	ESE	0.41	25.2	-40.7	715.3	0.030	0.000	16.2	57	1
03/17/19	10:28 p	-24.4	-24.4	-24.4	23.5	ESE	0.39	25.2	-40.4	715.3	0.030	0.000	16.2	57	1
03/17/19	10:29 p	-24.4	-24.4	-24.4	23.5	ESE	0.39	25.2	-40.4	715.3	0.030	0.000	16.2	57	1
03/17/19	10:30 p	-24.4	-24.4	-24.4	23.5	ESE	0.39	25.2	-40.4	715.3	0.030	0.000	16.2	57	1
03/17/19	10:31 p	-24.4	-24.4	-24.4	23.5	ESE	0.39	25.2	-40.4	715.3	0.030	0.000	16.2	57	1
03/17/19	10:32 p	-24.4	-24.4	-24.4	23.5	ESE	0.39	25.2	-40.4	715.3	0.030	0.000	16.2	57	1
03/17/19	10:33 p	-24.4	-24.4	-24.4	22.6	ESE	0.38	24.3	-40.2	715.4	0.030	0.000	16.3	57	1
03/17/19	10:34 p	-24.4	-24.3	-24.4	22.6	ESE	0.38	23.5	-40.2	715.4	0.030	0.000	16.3	57	1
03/17/19	10:35 p	-24.4	-24.3	-24.4	22.6	ESE	0.38	23.5	-40.2	715.4	0.030	0.000	16.3	57	1
03/17/19	10:36 p	-24.4	-24.4	-24.4	22.6	ESE	0.38	24.3	-40.2	715.4	0.030	0.000	16.3	57	1
03/17/19	10:37 p	-24.4	-24.3	-24.4	21.7	ESE	0.36	23.5	-39.9	715.4	0.030	0.000	16.3	57	1
03/17/19	10:38 p	-24.4	-24.3	-24.4	23.5	ESE	0.39	26.1	-40.4	715.4	0.030	0.000	16.3	57	1
03/17/19	10:39 p	-24.3	-24.3	-24.4	23.5	ESE	0.39	24.3	-40.3	715.4	0.030	0.000	16.3	57	1
03/17/19	10:40 p	-24.3	-24.3	-24.3	23.5	ESE	0.39	25.2	-40.3	715.3	0.030	0.000	16.3	57	1
03/17/19	10:41 p	-24.3	-24.3	-24.3	23.5	ESE	0.39	24.3	-40.3	715.4	0.030	0.000	16.3	57	1
03/17/19	10:42 p	-24.3	-24.3	-24.3	23.5	ESE	0.39	26.1	-40.3	715.4	0.030	0.000	16.3	57	1
03/17/19	10:43 p	-24.3	-24.3	-24.3	23.5	ESE	0.39	24.3	-40.3	715.4	0.030	0.000	16.3	57	1
03/17/19	10:44 p	-24.3	-24.3	-24.3	23.5	ESE	0.39	25.2	-40.3	715.4	0.030	0.000	16.3	57	1
03/17/19	10:45 p	-24.3	-24.3	-24.3	23.5	ESE	0.39	25.2	-40.3	715.4	0.030	0.000	16.3	57	1
03/17/19	10:46 p	-24.3	-24.2	-24.3	23.5	ESE	0.39	25.2	-40.3	715.4	0.030	0.000	16.3	57	1
03/17/19	10:47 p	-24.2	-24.2	-24.3	24.3	ESE	0.41	26.1	-40.4	715.3	0.030	0.000	16.3	57	1
03/17/19	10:48 p	-24.2	-24.2	-24.2	23.5	ESE	0.39	25.2	-40.2	715.4	0.030	0.000	16.3	57	1
03/17/19	10:49 p	-24.2	-24.2	-24.2	23.5	ESE	0.39	25.2	-40.2	715.4	0.030	0.000	16.3	57	1
03/17/19	10:50 p	-24.2	-24.2	-24.2	23.5	ESE	0.39	24.3	-40.2	715.4	0.030	0.000	16.3	57	1
03/17/19	10:51 p	-24.2	-24.2	-24.2	23.5	ESE	0.39	25.2	-40.1	715.3	0.030	0.000	16.3	57	1
03/17/19	10:52 p	-24.2	-24.1	-24.2	23.5	ESE	0.39	26.1	-40.1	715.4	0.030	0.000	16.3	57	1
03/17/19	10:53 p	-24.2	-24.1	-24.2	23.5	ESE	0.39	25.2	-40.1	715.4	0.030	0.000	16.3	57	1
03/17/19	10:54 p	-24.1	-24.1	-24.1	23.5	ESE	0.39	25.2	-40.1	715.4	0.029	0.000	16.3	57	1
03/17/19	10:55 p	-24.1	-24.1	-24.1	23.5	ESE	0.39	24.3	-40.1	715.4	0.029	0.000	16.3	57	1
03/17/19	10:56 p	-24.1	-24.1	-24.1	23.5	ESE	0.39	25.2	-39.9	715.3	0.029	0.000	16.3	57	1
03/17/19	10:57 p	-24.1	-24.0	-24.1	24.3	ESE	0.41	26.1	-40.2	715.3	0.029	0.000	16.4	57	1
03/17/19	10:58 p	-24.0	-24.0	-24.0	23.5	ESE	0.39	24.3	-39.9	715.4	0.029	0.000	16.4	57	1
03/17/19	10:59 p	-24.0	-24.0	-24.0	23.5	ESE	0.39	25.2	-39.9	715.3	0.029	0.000	16.4	57	1
03/17/19	11:00 p	-23.9	-23.9	-24.0	23.5	ESE	0.39	25.2	-39.8	715.4	0.029	0.000	16.4	57	1
03/17/19	11:01 p	-23.9	-23.9	-23.9	23.5	ESE	0.39	25.2	-39.8	715.4	0.029	0.000	16.4	57	1
03/17/19	11:02 p	-23.9	-23.9	-23.9	23.5	ESE	0.39	25.2	-39.7	715.3	0.029	0.000	16.4	57	1
03/17/19	11:03 p	-23.9	-23.9	-23.9	24.3	ESE	0.41	26.1	-39.9	715.4	0.029	0.000	16.4	57	1
03/17/19	11:04 p	-23.9	-23.9	-23.9	23.5	ESE	0.39	25.2	-39.7	715.4	0.029	0.000	16.4	57	1
03/17/19	11:05 p	-23.8	-23.8	-23.9	24.3	ESE	0.41	26.1	-39.9	715.4	0.029	0.000	16.4	57	1
03/17/19	11:06 p	-23.8	-23.8	-23.8	24.3	ESE	0.41	26.1	-39.9	715.3	0.029	0.000	16.4	57	1
03/17/19	11:07 p	-23.8	-23.8	-23.8	23.5	ESE	0.39	25.2	-39.7	715.3	0.029	0.000	16.4	57	1
03/17/19	11:08 p	-23.8	-23.8	-23.8	22.6	ESE	0.38	25.2	-39.4	715.4	0.029	0.000	16.4	57	1
03/17/19	11:09 p	-23.8	-23.8	-23.8	23.5	ESE	0.39	25.2	-39.6	715.4	0.029	0.000	16.4	57	1
03/17/19	11:10 p	-23.8	-23.7	-23.8	23.5	ESE	0.39	25.2	-39.6	715.4	0.029	0.000	16.4	57	1
03/17/19	11:11 p	-23.8	-23.7	-23.8	24.3	ESE	0.41	25.2	-39.8	715.3	0.029	0.000	16.4	57	1
03/17/19	11:12 p	-23.8	-23.7	-23.8	24.3	ESE	0.41	25.2	-39.8	715.3	0.029	0.000	16.4	57	1
03/17/19	11:13 p	-23.7	-23.7	-23.8	23.5	ESE	0.39	25.2	-39.5	715.3	0.029	0.000	16.4	57	1
03/17/19	11:14 p	-23.7	-23.7	-23.7	23.5	ESE	0.39	24.3	-39.5	715.4	0.029	0.000	16.4	57	1
03/17/19	11:15 p	-23.7	-23.7	-23.7	23.5	ESE	0.39	25.2	-39.5	715.3	0.029	0.000	16.4	57	1
03/17/19	11:16 p	-23.7	-23.7	-23.7	23.5	ESE	0.39	25.2	-39.5	715.3	0.029	0.000	16.4	57	1
03/17/19	11:17 p	-23.7	-23.7	-23.7	23.5	ESE	0.39	25.2	-39.4	715.3	0.029	0.000	16.4	57	1
03/17/19	11:18 p	-23.7	-23.7	-23.7	23.5	ESE	0.39	25.2	-39.4	715.3	0.029	0.000	16.4	57	1
03/17/19	11:19 p	-23.7	-23.6	-23.7	23.5	ESE	0.39	25.2	-39.4	715.3	0.029	0.000	16.4	57	1
03/17/19	11:20 p	-23.6	-23.6	-23.6	23.5	ESE	0.39	25.2	-39.4	715.3	0.029	0.000	16.4	57	1
03/17/19	11:21 p	-23.6	-23.6	-23.6	24.3	ESE	0.41	25.2	-39.6	715.4	0.029	0.000	16.4	57	1
03/17/19	11:22 p	-23.6	-23.6	-23.6	24.3	ESE	0.41	25.2	-39.6	715.3	0.029	0.000	16.4	57	1
03/17/19	11:23 p	-23.6	-23.6	-23.6	23.5	ESE	0.39	24.3	-39.3	715.3	0.029	0.000	16.4	57	1
03/17/19	11:24 p	-23.6	-23.6	-23.6	23.5	ESE	0.39	26.1	-39.3	715.3	0.029	0.000	16.4	57	1
03/17/19	11:25 p	-23.6	-23.6	-23.6	23.5	ESE	0.39	25.2	-39.3	715.4	0.029	0.000	16.4	57	1
03/17/19	11:26 p	-23.6	-23.5	-23.6	24.3	ESE	0.41	26.1	-39.5	715.3	0.029	0.000	16.5	57	1
03/17/19	11:27 p	-23.6	-23.5	-23.6	24.3	ESE	0.41	27.8	-39.5	715.3	0.029	0.000	16.4	57	1
03/17/19	11:28 p	-23.5	-23.5	-23.5	24.3	ESE	0.41	27.0	-39.4	715.4	0.029	0.000	16.4	57	1
03/17/19	11:29 p	-23.5	-23.5	-23.5	24.3	ESE	0.41	27.0	-39.4	715.3	0.029	0.000	16.4	57	1
03/17/19	11:30 p	-23.5	-23.4	-23.5	24.3	ESE	0.41	26.1	-39.4	715.3	0.029	0.000	16.4	57	1
03/17/19	11:31 p	-23.4	-23.4	-23.5	24.3	ESE	0.41	25.2	-39.4	715.2	0.029	0.000	16.4	57	1
03/17/19	11:32 p	-23.4	-23.4	-23.4	24.3	ESE	0.41	27.0	-39.4	715.2	0.029	0.000	16.5	57	1
03/17/19	11:33 p	-23.4	-23.4	-23.4	24.3	ESE	0.41	26.1	-39.4	715.3	0.029	0.000	16.5	57	1
03/17/19	11:34 p	-23.4	-23.4	-23.4	24.3	ESE	0.41	27.0	-39.3	715.3	0.029	0.000	16.5	57	1
03/17/19	11:35 p	-23.4	-23.4	-23.4	24.3	ESE	0.41	26.1	-39.3	715.2	0.029	0.000	16.5	57	1
03/17/19	11:36 p	-23.4	-23.3	-23.4	23.5	ESE	0.39	25.2	-39.1	715.3	0.029	0.000	16.5	57	1
03/17/19	11:37 p	-23.4	-23.3	-23.4	24.3	ESE	0.41	26.1	-39.3	715.3	0.029	0.000	16.5	57	1
03/17/19	11:38 p	-23.3	-23.3	-23.3	24.3	ESE	0.41	26.1	-39.2	715.3	0.029	0.000	16.5	57	1
03/17/19	11:39 p	-23.3	-23.3	-23.3	24.3	ESE	0.41	26.1	-39.2	715.2	0.029	0.000	16.5	57	1
03/17/19	11:40 p	-23.3	-23.3	-23.3	24.3	ESE	0.41	26.1	-39.2	715.3	0.029	0.000	16.5	57	1
03/17/19	11:41 p	-23.3	-23.3	-23.3	24.3	ESE	0.41	26.1	-39.2	715.3	0.029	0.000	16.5	57	1
03/17/19	11:42 p	-23.3	-23.2	-23.3	24.3	ESE	0.41	26.1	-39.2	715.4	0.029	0.000	16.5	57	1
03/17/19	11:43 p	-23.2	-23.2	-23.2	24.3	ESE	0.41	25.2	-39.1	715.3	0.029	0.000	16.5	57	1
03/17/19	11:44 p	-23.2	-23.2	-23.2	24.3	ESE	0.41	26.1	-39.1	715.3	0.029	0.000	16.5	57	1
03/17/19	11:45 p	-23.2	-23.2	-23.2	23.5	ESE	0.39	25.2	-38.8	715.3	0.029	0.000	16.5	57	1
03/17/19	11:46 p	-23.2	-23.2	-23.2	24.3	ESE	0.41	25.2	-39.0	715.3	0.029	0.000	16.5	57	1
03/17/19	11:47 p	-23.2	-23.2	-23.2	23.5	ESE	0.39	25.2	-38.8	715.3	0.029	0.000	16.5	57	1
03/17/19	11:48 p	-23.2	-23.1	-23.2	23.5	ESE	0.39	25.2	-38.8	715.3	0.029	0.000	16.6	57	1
03/17/19	11:49 p	-23.1	-23.1	-23.1	23.5	ESE	0.39	25.2	-38.7	715.3	0.029	0.000	16.6	57	1
03/17/19	11:50 p	-23.1	-23.1	-23.1	24.3	ESE	0.41	27.0	-38.9	715.3	0.029	0.000	16.6	57	1
03/17/19	11:51 p	-23.1	-23.1	-23.1	24.3	ESE	0.41	27.0	-38.9	715.3	0.029	0.000	16.6	57	1
03/17/19	11:52 p	-23.1	-23.1	-23.1	25.2	ESE	0.42	26.1	-39.1	715.3	0.029	0.000	16.6	57	1
03/17/19	11:53 p	-23.1	-23.1	-23.1	23.5	ESE	0.39	26.1	-38.7	715.3	0.029	0.000	16.6	57	1
03/17/19	11:54 p	-23.1	-23.1	-23.1	24.3	ESE	0.41	26.1	-38.8	715.2	0.029	0.000	16.6	57	1
03/17/19	11:55 p	-23.1	-23.1	-23.1	24.3	ESE	0.41	26.1	-38.8	715.3	0.029	0.000	16.6	57	1
03/17/19	11:56 p	-23.1	-23.1	-23.1	24.3	ESE	0.41	27.0	-38.8	715.2	0.029	0.000	16.6	57	1
03/17/19	11:57 p	-23.1	-23.0	-23.1	24.3	ESE	0.41	27.0	-38.8	715.2	0.029	0.000	16.6	57	1
03/17/19	11:58 p	-23.0	-23.0	-23.1	25.2	ESE	0.42	27.8	-39.0	715.3	0.029	0.000	16.6	57	1
03/17/19	11:59 p	-23.0	-23.0	-23.0	25.2	ESE	0.42	26.1	-39.0	715.3	0.029	0.000	16.6	57	1
03/18/19	12:00 a	-23.0	-23.0	-23.0	25.2	ESE	0.42	27.0	-39.0	715.3	0.029	0.000	16.6	57	1
03/18/19	12:01 a	-23.0	-22.9	-23.0	25.2	ESE	0.42	27.8	-39.0	715.2	0.029	0.000	16.6	57	1
03/18/19	12:02 a	-23.0	-22.9	-23.0	25.2	ESE	0.42	27.0	-39.0	715.3	0.029	0.000	16.6	57	1
03/18/19	12:03 a	-22.9	-22.9	-22.9	25.2	ESE	0.42	27.8	-38.9	715.3	0.029	0.000	16.6	57	1
03/18/19	12:04 a	-22.9	-22.9	-22.9	25.2	ESE	0.42	27.0	-38.9	715.3	0.029	0.000	16.6	57	1
03/18/19	12:05 a	-22.9	-22.9	-22.9	23.5	ESE	0.39	26.1	-38.5	715.3	0.029	0.000	16.6	57	1
03/18/19	12:06 a	-22.9	-22.9	-22.9	23.5	ESE	0.39	25.2	-38.4	715.2	0.029	0.000	16.6	57	1
03/18/19	12:07 a	-22.9	-22.9	-22.9	25.2	ESE	0.42	27.0	-38.8	715.2	0.029	0.000	16.6	57	1
03/18/19	12:08 a	-22.9	-22.9	-22.9	25.2	ESE	0.42	27.8	-38.8	715.2	0.029	0.000	16.6	57	1
03/18/19	12:09 a	-22.8	-22.8	-22.9	23.5	ESE	0.39	25.2	-38.3	715.3	0.029	0.000	16.6	57	1
03/18/19	12:10 a	-22.8	-22.8	-22.8	24.3	ESE	0.41	26.1	-38.6	715.3	0.029	0.000	16.6	57	1
03/18/19	12:11 a	-22.8	-22.8	-22.8	23.5	ESE	0.39	25.2	-38.3	715.4	0.029	0.000	16.6	57	1
03/18/19	12:12 a	-22.8	-22.8	-22.8	23.5	ESE	0.39	25.2	-38.3	715.3	0.029	0.000	16.6	57	1
03/18/19	12:13 a	-22.8	-22.8	-22.8	24.3	ESE	0.41	25.2	-38.4	715.3	0.029	0.000	16.6	57	1
03/18/19	12:14 a	-22.8	-22.8	-22.8	24.3	ESE	0.41	26.1	-38.4	715.3	0.029	0.000	16.6	57	1
03/18/19	12:15 a	-22.8	-22.7	-22.8	24.3	ESE	0.41	26.1	-38.4	715.3	0.029	0.000	16.6	57	1
03/18/19	12:16 a	-22.7	-22.7	-22.8	24.3	ESE	0.41	27.0	-38.4	715.3	0.029	0.000	16.6	57	1
03/18/19	12:17 a	-22.7	-22.7	-22.7	25.2	ESE	0.42	26.1	-38.6	715.3	0.029	0.000	16.6	57	1
03/18/19	12:18 a	-22.7	-22.7	-22.7	25.2	ESE	0.42	26.1	-38.6	715.2	0.029	0.000	16.6	57	1
03/18/19	12:19 a	-22.7	-22.7	-22.7	25.2	ESE	0.42	27.0	-38.6	715.3	0.029	0.000	16.6	57	1
03/18/19	12:20 a	-22.7	-22.7	-22.7	24.3	ESE	0.41	26.1	-38.3	715.3	0.028	0.000	16.6	57	1
03/18/19	12:21 a	-22.7	-22.7	-22.7	25.2	ESE	0.42	27.0	-38.5	715.3	0.028	0.000	16.6	57	1
03/18/19	12:22 a	-22.7	-22.7	-22.7	25.2	ESE	0.42	27.0	-38.5	715.2	0.028	0.000	16.6	57	1
03/18/19	12:23 a	-22.7	-22.7	-22.7	24.3	ESE	0.41	27.0	-38.3	715.2	0.028	0.000	16.6	57	1
03/18/19	12:24 a	-22.7	-22.7	-22.7	24.3	ESE	0.41	26.1	-38.3	715.2	0.028	0.000	16.6	57	1
03/18/19	12:25 a	-22.7	-22.7	-22.7	25.2	ESE	0.42	26.1	-38.5	715.3	0.028	0.000	16.6	57	1
03/18/19	12:26 a	-22.7	-22.7	-22.7	25.2	ESE	0.42	27.0	-38.5	715.2	0.028	0.000	16.6	57	1
03/18/19	12:27 a	-22.7	-22.7	-22.7	26.1	ESE	0.43	27.8	-38.7	715.2	0.028	0.000	16.6	57	1
03/18/19	12:28 a	-22.7	-22.7	-22.7	25.2	ESE	0.42	27.0	-38.5	715.1	0.028	0.000	16.6	57	1
03/18/19	12:29 a	-22.7	-22.7	-22.7	25.2	ESE	0.42	27.8	-38.5	715.2	0.028	0.000	16.6	57	1
03/18/19	12:30 a	-22.7	-22.7	-22.7	25.2	ESE	0.42	27.0	-38.5	715.2	0.028	0.000	16.6	57	1
03/18/19	12:31 a	-22.7	-22.7	-22.7	25.2	ESE	0.42	27.8	-38.5	715.2	0.028	0.000	16.6	57	1
03/18/19	12:32 a	-22.7	-22.7	-22.7	25.2	ESE	0.42	27.0	-38.6	715.2	0.029	0.000	16.6	57	1
03/18/19	12:33 a	-22.7	-22.7	-22.8	25.2	ESE	0.42	27.0	-38.6	715.2	0.029	0.000	16.6	57	1
03/18/19	12:34 a	-22.8	-22.8	-22.8	25.2	ESE	0.42	27.0	-38.7	715.2	0.029	0.000	16.6	57	1
03/18/19	12:35 a	-22.8	-22.8	-22.8	24.3	ESE	0.41	26.1	-38.6	715.2	0.029	0.000	16.6	57	1
03/18/19	12:36 a	-22.8	-22.8	-22.9	25.2	ESE	0.42	27.0	-38.8	715.1	0.029	0.000	16.6	57	1
03/18/19	12:37 a	-22.9	-22.9	-22.9	25.2	ESE	0.42	27.0	-38.8	715.2	0.029	0.000	16.6	57	1
03/18/19	12:38 a	-22.9	-22.9	-23.0	25.2	ESE	0.42	27.8	-38.9	715.1	0.029	0.000	16.6	57	1
03/18/19	12:39 a	-23.0	-23.0	-23.0	25.2	ESE	0.42	27.0	-39.0	715.1	0.029	0.000	16.6	57	1
03/18/19	12:40 a	-23.1	-23.0	-23.1	25.2	ESE	0.42	27.0	-39.1	715.2	0.029	0.000	16.6	57	1
03/18/19	12:41 a	-23.1	-23.1	-23.1	26.1	ESE	0.43	27.0	-39.3	715.1	0.029	0.000	16.6	57	1
03/18/19	12:42 a	-23.2	-23.1	-23.2	26.1	ESE	0.43	27.8	-39.4	715.2	0.029	0.000	16.6	57	1
03/18/19	12:43 a	-23.2	-23.2	-23.2	27.0	ESE	0.45	28.7	-39.7	715.2	0.029	0.000	16.6	57	1
03/18/19	12:44 a	-23.3	-23.3	-23.3	26.1	ESE	0.43	27.8	-39.6	715.2	0.029	0.000	16.6	57	1
03/18/19	12:45 a	-23.3	-23.3	-23.3	26.1	ESE	0.43	27.8	-39.6	715.2	0.029	0.000	16.6	57	1
03/18/19	12:46 a	-23.4	-23.4	-23.4	26.1	ESE	0.43	27.0	-39.7	715.1	0.029	0.000	16.6	57	1
03/18/19	12:47 a	-23.4	-23.4	-23.4	26.1	ESE	0.43	27.8	-39.8	715.2	0.029	0.000	16.6	57	1
03/18/19	12:48 a	-23.5	-23.4	-23.6	25.2	ESE	0.42	28.7	-39.7	715.1	0.029	0.000	16.6	57	1
03/18/19	12:49 a	-23.6	-23.6	-23.6	26.1	ESE	0.43	27.0	-39.9	715.2	0.029	0.000	16.6	57	1
03/18/19	12:50 a	-23.6	-23.6	-23.6	26.1	ESE	0.43	27.8	-39.9	715.2	0.029	0.000	16.6	57	1
03/18/19	12:51 a	-23.6	-23.6	-23.7	26.1	ESE	0.43	27.0	-40.0	715.2	0.029	0.000	16.6	57	1
03/18/19	12:52 a	-23.7	-23.6	-23.7	26.1	ESE	0.43	27.8	-40.1	715.1	0.029	0.000	16.6	57	1
03/18/19	12:53 a	-23.7	-23.7	-23.7	26.1	ESE	0.43	27.8	-40.2	715.2	0.029	0.000	16.6	57	1
03/18/19	12:54 a	-23.7	-23.7	-23.8	26.1	ESE	0.43	27.8	-40.2	715.2	0.029	0.000	16.6	57	1
03/18/19	12:55 a	-23.8	-23.7	-23.8	26.1	ESE	0.43	27.8	-40.2	715.2	0.029	0.000	16.6	57	1
03/18/19	12:56 a	-23.8	-23.8	-23.8	25.2	ESE	0.42	27.0	-40.1	715.2	0.029	0.000	16.6	57	1
03/18/19	12:57 a	-23.8	-23.8	-23.8	26.1	ESE	0.43	27.8	-40.2	715.2	0.029	0.000	16.6	57	1
03/18/19	12:58 a	-23.8	-23.8	-23.8	26.1	ESE	0.43	27.0	-40.2	715.3	0.029	0.000	16.6	57	1
03/18/19	12:59 a	-23.8	-23.8	-23.8	26.1	ESE	0.43	28.7	-40.2	715.2	0.029	0.000	16.6	57	1
03/18/19	1:00 a	-23.8	-23.8	-23.8	26.1	ESE	0.43	29.6	-40.2	715.2	0.029	0.000	16.6	57	1
03/18/19	1:01 a	-23.7	-23.7	-23.7	27.0	ESE	0.45	27.8	-40.4	715.1	0.029	0.000	16.6	57	1
03/18/19	1:02 a	-23.7	-23.7	-23.7	27.0	ESE	0.45	28.7	-40.4	715.2	0.029	0.000	16.6	57	1
03/18/19	1:03 a	-23.7	-23.7	-23.7	26.1	ESE	0.43	27.8	-40.1	715.2	0.029	0.000	16.6	57	1
03/18/19	1:04 a	-23.6	-23.6	-23.7	26.1	ESE	0.43	27.8	-40.0	715.2	0.029	0.000	16.6	57	1
03/18/19	1:05 a	-23.6	-23.6	-23.6	25.2	ESE	0.42	27.8	-39.8	715.2	0.029	0.000	16.6	57	1
03/18/19	1:06 a	-23.6	-23.6	-23.6	25.2	ESE	0.42	27.8	-39.7	715.2	0.029	0.000	16.6	57	1
03/18/19	1:07 a	-23.5	-23.5	-23.6	25.2	ESE	0.42	26.1	-39.7	715.2	0.029	0.000	16.6	57	1
03/18/19	1:08 a	-23.4	-23.4	-23.5	25.2	ESE	0.42	27.0	-39.6	715.3	0.029	0.000	16.6	57	1
03/18/19	1:09 a	-23.4	-23.4	-23.4	24.3	ESE	0.41	27.0	-39.4	715.2	0.029	0.000	16.6	57	1
03/18/19	1:10 a	-23.3	-23.3	-23.3	26.1	ESE	0.43	27.0	-39.6	715.2	0.029	0.000	16.7	57	1
03/18/19	1:11 a	-23.3	-23.3	-23.3	25.2	ESE	0.42	27.0	-39.3	715.2	0.029	0.000	16.6	57	1
03/18/19	1:12 a	-23.2	-23.2	-23.2	25.2	ESE	0.42	27.0	-39.3	715.3	0.029	0.000	16.6	57	1
03/18/19	1:13 a	-23.2	-23.1	-23.2	24.3	ESE	0.41	27.0	-39.0	715.2	0.029	0.000	16.7	57	1
03/18/19	1:14 a	-23.1	-23.1	-23.1	24.3	ESE	0.41	27.0	-38.9	715.2	0.029	0.000	16.7	57	1
03/18/19	1:15 a	-23.1	-23.0	-23.1	24.3	ESE	0.41	27.0	-38.8	715.2	0.029	0.000	16.7	57	1
03/18/19	1:16 a	-23.0	-22.9	-23.0	25.2	ESE	0.42	27.0	-39.0	715.2	0.029	0.000	16.7	57	1
03/18/19	1:17 a	-22.9	-22.9	-22.9	26.1	ESE	0.43	27.0	-39.1	715.2	0.029	0.000	16.7	57	1
03/18/19	1:18 a	-22.8	-22.8	-22.8	26.1	ESE	0.43	27.0	-38.9	715.2	0.029	0.000	16.7	57	1
03/18/19	1:19 a	-22.7	-22.7	-22.8	26.1	ESE	0.43	27.0	-38.8	715.2	0.029	0.000	16.7	57	1
03/18/19	1:20 a	-22.7	-22.6	-22.7	25.2	ESE	0.42	27.0	-38.5	715.2	0.028	0.000	16.7	57	1
03/18/19	1:21 a	-22.6	-22.6	-22.6	25.2	ESE	0.42	27.8	-38.4	715.2	0.028	0.000	16.7	57	1
03/18/19	1:22 a	-22.5	-22.5	-22.5	25.2	ESE	0.42	27.8	-38.3	715.2	0.028	0.000	16.7	57	1
03/18/19	1:23 a	-22.4	-22.4	-22.4	26.1	ESE	0.43	27.0	-38.4	715.1	0.028	0.000	16.7	57	1
03/18/19	1:24 a	-22.3	-22.3	-22.4	25.2	ESE	0.42	27.8	-38.1	715.2	0.028	0.000	16.7	57	1
03/18/19	1:25 a	-22.3	-22.3	-22.3	26.1	ESE	0.43	27.0	-38.2	715.2	0.028	0.000	16.7	57	1
03/18/19	1:26 a	-22.2	-22.2	-22.3	25.2	ESE	0.42	27.8	-37.9	715.2	0.028	0.000	16.7	57	1
03/18/19	1:27 a	-22.1	-22.1	-22.2	26.1	ESE	0.43	27.8	-38.0	715.2	0.028	0.000	16.7	57	1
03/18/19	1:28 a	-22.1	-22.0	-22.1	25.2	ESE	0.42	27.8	-37.7	715.3	0.028	0.000	16.8	57	1
03/18/19	1:29 a	-22.0	-21.9	-22.0	26.1	ESE	0.43	27.8	-37.8	715.2	0.028	0.000	16.8	57	1
03/18/19	1:30 a	-21.9	-21.8	-21.9	25.2	ESE	0.42	28.7	-37.5	715.2	0.028	0.000	16.8	57	1
03/18/19	1:31 a	-21.8	-21.8	-21.8	25.2	ESE	0.42	28.7	-37.3	715.2	0.028	0.000	16.8	57	1
03/18/19	1:32 a	-21.7	-21.7	-21.8	26.1	ESE	0.43	27.0	-37.4	715.3	0.028	0.000	16.9	57	1
03/18/19	1:33 a	-21.6	-21.6	-21.7	25.2	ESE	0.42	27.0	-37.1	715.2	0.028	0.000	16.9	58	1
03/18/19	1:34 a	-21.6	-21.5	-21.6	25.2	ESE	0.42	27.0	-37.0	715.2	0.028	0.000	16.9	58	1
03/18/19	1:36 a	-21.4	-21.3	-21.4	24.3	ESE	0.41	26.1	-36.6	715.3	0.028	0.000	17.1	58	1
03/18/19	1:37 a	-21.3	-21.3	-21.3	24.3	ESE	0.41	26.1	-36.5	715.2	0.028	0.000	17.1	58	1
03/18/19	1:38 a	-21.2	-21.2	-21.3	24.3	ESE	0.41	27.0	-36.4	715.3	0.027	0.000	17.2	58	1
03/18/19	1:39 a	-21.1	-21.1	-21.2	25.2	ESE	0.42	26.1	-36.4	715.2	0.027	0.000	17.2	58	1
03/18/19	1:40 a	-21.1	-21.1	-21.1	26.1	ESE	0.43	27.8	-36.6	715.2	0.027	0.000	17.2	58	1
03/18/19	1:41 a	-21.0	-20.9	-21.0	25.2	ESE	0.42	26.1	-36.3	715.2	0.027	0.000	17.3	58	1
03/18/19	1:42 a	-20.9	-20.9	-20.9	25.2	ESE	0.42	27.0	-36.1	715.3	0.027	0.000	17.3	58	1
03/18/19	1:43 a	-20.8	-20.8	-20.8	24.3	ESE	0.41	27.0	-35.8	715.2	0.027	0.000	17.2	58	1
03/18/19	1:44 a	-20.8	-20.7	-20.8	24.3	ESE	0.41	27.0	-35.8	715.2	0.027	0.000	17.2	58	1
03/18/19	1:45 a	-20.7	-20.7	-20.7	25.2	ESE	0.42	27.8	-35.9	715.2	0.027	0.000	17.2	58	1
03/18/19	1:46 a	-20.6	-20.6	-20.7	24.3	ESE	0.41	26.1	-35.6	715.3	0.027	0.000	17.1	58	1
03/18/19	1:47 a	-20.6	-20.6	-20.6	24.3	ESE	0.41	26.1	-35.4	715.3	0.027	0.000	17.1	58	1
03/18/19	1:48 a	-20.5	-20.4	-20.6	25.2	ESE	0.42	27.0	-35.6	715.2	0.027	0.000	17.1	58	1
03/18/19	1:49 a	-20.4	-20.4	-20.4	25.2	ESE	0.42	26.1	-35.5	715.2	0.027	0.000	17.1	58	1
03/18/19	1:50 a	-20.4	-20.3	-20.4	25.2	ESE	0.42	27.0	-35.4	715.3	0.027	0.000	17.1	58	1
03/18/19	1:51 a	-20.3	-20.3	-20.3	25.2	ESE	0.42	27.8	-35.4	715.2	0.027	0.000	17.1	58	1
03/18/19	1:52 a	-20.3	-20.2	-20.3	24.3	ESE	0.41	26.1	-35.1	715.3	0.027	0.000	17.1	58	1
03/18/19	1:53 a	-20.2	-20.2	-20.2	24.3	ESE	0.41	27.0	-35.0	715.2	0.027	0.000	17.1	58	1
03/18/19	1:54 a	-20.2	-20.1	-20.2	24.3	ESE	0.41	26.1	-34.9	715.2	0.027	0.000	17.0	58	1
03/18/19	1:55 a	-20.1	-20.1	-20.1	24.3	ESE	0.41	27.0	-34.9	715.2	0.027	0.000	17.1	58	1
03/18/19	1:56 a	-20.1	-20.1	-20.1	25.2	ESE	0.42	27.8	-35.0	715.3	0.027	0.000	17.1	58	1
03/18/19	1:57 a	-20.0	-20.0	-20.0	25.2	ESE	0.42	27.0	-34.9	715.2	0.027	0.000	17.1	58	1
03/18/19	1:58 a	-20.0	-19.9	-20.0	25.2	ESE	0.42	27.0	-34.9	715.3	0.027	0.000	17.1	58	1
03/18/19	1:59 a	-19.9	-19.9	-19.9	25.2	ESE	0.42	26.1	-34.8	715.3	0.027	0.000	17.1	58	1
03/18/19	2:00 a	-19.9	-19.8	-19.9	25.2	ESE	0.42	27.0	-34.8	715.3	0.027	0.000	17.1	58	1
03/18/19	2:01 a	-19.8	-19.8	-19.8	24.3	ESE	0.41	26.1	-34.5	715.3	0.027	0.000	17.1	58	1
03/18/19	2:02 a	-19.8	-19.8	-19.8	24.3	ESE	0.41	26.1	-34.4	715.3	0.026	0.000	17.1	58	1
03/18/19	2:03 a	-19.7	-19.7	-19.7	25.2	SE	0.42	27.0	-34.6	715.3	0.026	0.000	17.1	58	1
03/18/19	2:04 a	-19.7	-19.7	-19.7	25.2	ESE	0.42	27.0	-34.4	715.3	0.026	0.000	17.1	58	1
03/18/19	2:05 a	-19.7	-19.7	-19.7	25.2	SE	0.42	27.8	-34.4	715.2	0.026	0.000	17.1	58	1
03/18/19	2:06 a	-19.7	-19.6	-19.7	26.1	SE	0.43	27.0	-34.7	715.3	0.026	0.000	17.1	58	1
03/18/19	2:07 a	-19.6	-19.6	-19.6	24.3	ESE	0.41	26.1	-34.2	715.3	0.026	0.000	17.1	58	1
03/18/19	2:08 a	-19.6	-19.6	-19.6	25.2	ESE	0.42	27.8	-34.3	715.3	0.026	0.000	17.1	58	1
03/18/19	2:09 a	-19.6	-19.5	-19.6	26.1	ESE	0.43	27.8	-34.5	715.2	0.026	0.000	17.1	58	1
03/18/19	2:10 a	-19.5	-19.5	-19.5	26.1	ESE	0.43	27.8	-34.4	715.2	0.026	0.000	17.1	58	1
03/18/19	2:11 a	-19.5	-19.4	-19.5	25.2	ESE	0.42	27.0	-34.2	715.2	0.026	0.000	17.1	58	1
03/18/19	2:12 a	-19.4	-19.4	-19.4	25.2	ESE	0.42	27.8	-34.2	715.2	0.026	0.000	17.2	58	1
03/18/19	2:13 a	-19.4	-19.4	-19.4	25.2	ESE	0.42	27.0	-34.2	715.2	0.026	0.000	17.2	57	1
03/18/19	2:14 a	-19.4	-19.4	-19.4	27.0	ESE	0.45	28.7	-34.6	715.2	0.026	0.000	17.2	58	1
03/18/19	2:15 a	-19.4	-19.4	-19.4	26.1	ESE	0.43	27.8	-34.3	715.3	0.026	0.000	17.2	57	1
03/18/19	2:16 a	-19.4	-19.4	-19.4	25.2	ESE	0.42	27.0	-34.1	715.3	0.026	0.000	17.2	57	1
03/18/19	2:17 a	-19.3	-19.3	-19.4	26.1	ESE	0.43	27.8	-34.2	715.2	0.026	0.000	17.2	57	1
03/18/19	2:18 a	-19.3	-19.3	-19.3	25.2	ESE	0.42	26.1	-34.0	715.3	0.026	0.000	17.2	57	1
03/18/19	2:19 a	-19.3	-19.3	-19.3	25.2	ESE	0.42	27.0	-34.0	715.3	0.026	0.000	17.2	58	1
03/18/19	2:20 a	-19.3	-19.3	-19.3	25.2	ESE	0.42	27.8	-34.0	715.3	0.026	0.000	17.2	57	1
03/18/19	2:21 a	-19.3	-19.3	-19.3	25.2	ESE	0.42	27.0	-33.9	715.3	0.026	0.000	17.2	57	1
03/18/19	2:22 a	-19.3	-19.3	-19.3	25.2	ESE	0.42	27.0	-33.9	715.4	0.026	0.000	17.2	57	1
03/18/19	2:23 a	-19.3	-19.3	-19.3	24.3	ESE	0.41	26.1	-33.7	715.3	0.026	0.000	17.2	58	1
03/18/19	2:24 a	-19.3	-19.3	-19.3	25.2	ESE	0.42	27.0	-33.9	715.4	0.026	0.000	17.2	57	1
03/18/19	2:25 a	-19.3	-19.2	-19.3	24.3	ESE	0.41	27.0	-33.7	715.3	0.026	0.000	17.2	57	1
03/18/19	2:26 a	-19.2	-19.2	-19.2	25.2	ESE	0.42	26.1	-33.9	715.4	0.026	0.000	17.2	58	1
03/18/19	2:27 a	-19.2	-19.2	-19.2	24.3	ESE	0.41	27.0	-33.7	715.4	0.026	0.000	17.2	57	1
03/18/19	2:28 a	-19.2	-19.2	-19.2	25.2	ESE	0.42	26.1	-33.9	715.4	0.026	0.000	17.2	57	1
03/18/19	2:29 a	-19.2	-19.2	-19.2	25.2	ESE	0.42	27.0	-33.9	715.4	0.026	0.000	17.2	57	1
03/18/19	2:30 a	-19.2	-19.2	-19.2	25.2	ESE	0.42	26.1	-33.9	715.4	0.026	0.000	17.2	57	1
03/18/19	2:31 a	-19.2	-19.2	-19.2	24.3	ESE	0.41	26.1	-33.7	715.3	0.026	0.000	17.3	57	1
03/18/19	2:32 a	-19.2	-19.2	-19.2	24.3	ESE	0.41	27.0	-33.7	715.3	0.026	0.000	17.3	57	1
03/18/19	2:33 a	-19.2	-19.2	-19.2	24.3	ESE	0.41	26.1	-33.7	715.4	0.026	0.000	17.3	57	1
03/18/19	2:34 a	-19.2	-19.2	-19.2	24.3	ESE	0.41	26.1	-33.7	715.3	0.026	0.000	17.3	57	1
03/18/19	2:35 a	-19.2	-19.2	-19.2	24.3	ESE	0.41	27.0	-33.7	715.3	0.026	0.000	17.3	57	1
03/18/19	2:36 a	-19.2	-19.2	-19.2	24.3	ESE	0.41	26.1	-33.6	715.4	0.026	0.000	17.3	57	1
03/18/19	2:37 a	-19.2	-19.2	-19.2	23.5	ESE	0.39	26.1	-33.4	715.4	0.026	0.000	17.3	57	1
03/18/19	2:38 a	-19.2	-19.2	-19.2	24.3	ESE	0.41	25.2	-33.6	715.3	0.026	0.000	17.3	57	1
03/18/19	2:39 a	-19.2	-19.1	-19.2	25.2	ESE	0.42	26.1	-33.8	715.4	0.026	0.000	17.3	57	1
03/18/19	2:40 a	-19.2	-19.1	-19.2	24.3	ESE	0.41	26.1	-33.6	715.4	0.026	0.000	17.3	57	1
03/18/19	2:41 a	-19.2	-19.1	-19.2	24.3	ESE	0.41	26.1	-33.6	715.4	0.026	0.000	17.3	57	1
03/18/19	2:42 a	-19.1	-19.1	-19.1	24.3	ESE	0.41	26.1	-33.5	715.4	0.026	0.000	17.3	57	1
03/18/19	2:43 a	-19.1	-19.1	-19.1	24.3	ESE	0.41	26.1	-33.4	715.4	0.026	0.000	17.3	57	1
03/18/19	2:44 a	-19.1	-19.1	-19.1	24.3	ESE	0.41	25.2	-33.4	715.5	0.026	0.000	17.3	57	1
03/18/19	2:45 a	-19.1	-19.0	-19.1	24.3	ESE	0.41	26.1	-33.4	715.4	0.026	0.000	17.3	57	1
03/18/19	2:46 a	-19.1	-19.0	-19.1	23.5	ESE	0.39	25.2	-33.2	715.5	0.026	0.000	17.3	57	1
03/18/19	2:47 a	-19.1	-19.0	-19.1	23.5	ESE	0.39	25.2	-33.2	715.4	0.026	0.000	17.3	57	1
03/18/19	2:48 a	-19.0	-19.0	-19.0	24.3	ESE	0.41	25.2	-33.4	715.4	0.026	0.000	17.3	57	1
03/18/19	2:49 a	-19.0	-19.0	-19.0	24.3	ESE	0.41	25.2	-33.4	715.4	0.026	0.000	17.3	57	1
03/18/19	2:50 a	-18.9	-18.9	-19.0	24.3	ESE	0.41	26.1	-33.3	715.5	0.026	0.000	17.3	57	1
03/18/19	2:51 a	-18.9	-18.9	-18.9	23.5	ESE	0.39	25.2	-33.1	715.4	0.026	0.000	17.3	57	1
03/18/19	2:52 a	-18.9	-18.9	-18.9	23.5	ESE	0.39	25.2	-33.1	715.4	0.026	0.000	17.3	57	1
03/18/19	2:53 a	-18.9	-18.9	-18.9	23.5	ESE	0.39	25.2	-33.0	715.5	0.026	0.000	17.3	57	1
03/18/19	2:54 a	-18.9	-18.9	-18.9	24.3	ESE	0.41	26.1	-33.2	715.4	0.026	0.000	17.3	57	1
03/18/19	2:55 a	-18.9	-18.8	-18.9	23.5	ESE	0.39	24.3	-33.0	715.4	0.026	0.000	17.3	57	1
03/18/19	2:56 a	-18.8	-18.8	-18.8	23.5	ESE	0.39	25.2	-32.9	715.4	0.026	0.000	17.3	57	1
03/18/19	2:57 a	-18.8	-18.8	-18.8	23.5	ESE	0.39	24.3	-32.9	715.4	0.026	0.000	17.3	57	1
03/18/19	2:58 a	-18.8	-18.8	-18.8	24.3	ESE	0.41	25.2	-33.2	715.4	0.026	0.000	17.3	57	1
03/18/19	2:59 a	-18.8	-18.8	-18.8	23.5	ESE	0.39	25.2	-32.9	715.4	0.026	0.000	17.3	57	1
03/18/19	3:00 a	-18.8	-18.8	-18.8	22.6	SE	0.38	24.3	-32.7	715.4	0.026	0.000	17.3	57	1
03/18/19	3:01 a	-18.8	-18.8	-18.8	21.7	SE	0.36	24.3	-32.5	715.5	0.026	0.000	17.3	57	1
03/18/19	3:02 a	-18.8	-18.8	-18.8	22.6	SE	0.38	24.3	-32.7	715.5	0.026	0.000	17.3	57	1
03/18/19	3:03 a	-18.8	-18.8	-18.8	22.6	ESE	0.38	23.5	-32.7	715.5	0.026	0.000	17.3	57	1
03/18/19	3:04 a	-18.8	-18.8	-18.8	21.7	SE	0.36	23.5	-32.5	715.5	0.026	0.000	17.3	57	1
03/18/19	3:05 a	-18.8	-18.8	-18.8	22.6	SE	0.38	23.5	-32.7	715.5	0.026	0.000	17.3	57	1
03/18/19	3:06 a	-18.8	-18.8	-18.8	22.6	SE	0.38	23.5	-32.7	715.5	0.026	0.000	17.3	57	1
03/18/19	3:07 a	-18.8	-18.8	-18.8	22.6	SE	0.38	24.3	-32.7	715.5	0.026	0.000	17.3	57	1
03/18/19	3:08 a	-18.9	-18.8	-18.9	22.6	SE	0.38	23.5	-32.8	715.5	0.026	0.000	17.3	57	1
03/18/19	3:09 a	-18.9	-18.9	-18.9	21.7	SE	0.36	23.5	-32.6	715.5	0.026	0.000	17.3	57	1
03/18/19	3:10 a	-18.9	-18.9	-18.9	22.6	SE	0.38	24.3	-32.8	715.5	0.026	0.000	17.3	57	1
03/18/19	3:11 a	-18.9	-18.9	-18.9	22.6	SE	0.38	24.3	-32.9	715.6	0.026	0.000	17.3	57	1
03/18/19	3:12 a	-19.0	-18.9	-19.0	21.7	ESE	0.36	23.5	-32.7	715.6	0.026	0.000	17.3	57	1
03/18/19	3:13 a	-19.0	-19.0	-19.0	21.7	ESE	0.36	22.6	-32.7	715.6	0.026	0.000	17.3	57	1
03/18/19	3:14 a	-19.1	-19.0	-19.1	21.7	ESE	0.36	23.5	-32.8	715.5	0.026	0.000	17.3	57	1
03/18/19	3:15 a	-19.1	-19.1	-19.1	21.7	ESE	0.36	23.5	-32.8	715.6	0.026	0.000	17.3	57	1
03/18/19	3:16 a	-19.1	-19.1	-19.2	21.7	ESE	0.36	24.3	-32.9	715.6	0.026	0.000	17.3	57	1
03/18/19	3:17 a	-19.2	-19.2	-19.2	22.6	ESE	0.38	23.5	-33.2	715.6	0.026	0.000	17.3	57	1
03/18/19	3:18 a	-19.2	-19.2	-19.2	21.7	ESE	0.36	23.5	-33.1	715.7	0.026	0.000	17.3	57	1
03/18/19	3:19 a	-19.3	-19.2	-19.3	21.7	ESE	0.36	23.5	-33.1	715.6	0.026	0.000	17.3	57	1
03/18/19	3:20 a	-19.3	-19.3	-19.4	21.7	ESE	0.36	24.3	-33.2	715.7	0.026	0.000	17.3	57	1
03/18/19	3:21 a	-19.4	-19.4	-19.4	22.6	ESE	0.38	24.3	-33.5	715.6	0.026	0.000	17.3	57	1
03/18/19	3:22 a	-19.4	-19.4	-19.4	21.7	ESE	0.36	23.5	-33.3	715.6	0.026	0.000	17.3	57	1
03/18/19	3:23 a	-19.5	-19.5	-19.6	21.7	ESE	0.36	23.5	-33.4	715.6	0.026	0.000	17.3	57	1
03/18/19	3:24 a	-19.6	-19.6	-19.6	21.7	ESE	0.36	23.5	-33.5	715.6	0.026	0.000	17.3	57	1
03/18/19	3:25 a	-19.7	-19.6	-19.7	22.6	ESE	0.38	24.3	-33.8	715.6	0.026	0.000	17.3	57	1
03/18/19	3:26 a	-19.7	-19.7	-19.8	22.6	ESE	0.38	24.3	-33.9	715.6	0.026	0.000	17.3	57	1
03/18/19	3:27 a	-19.8	-19.8	-19.8	22.6	ESE	0.38	24.3	-34.0	715.6	0.026	0.000	17.3	57	1
03/18/19	3:28 a	-19.8	-19.8	-19.9	23.5	ESE	0.39	24.3	-34.3	715.6	0.027	0.000	17.3	57	1
03/18/19	3:29 a	-19.9	-19.9	-20.0	22.6	ESE	0.38	23.5	-34.2	715.6	0.027	0.000	17.3	57	1
03/18/19	3:30 a	-20.0	-20.0	-20.1	23.5	ESE	0.39	24.3	-34.5	715.6	0.027	0.000	17.3	58	1
03/18/19	3:31 a	-20.1	-20.1	-20.1	23.5	SE	0.39	24.3	-34.6	715.7	0.027	0.000	17.3	57	1
03/18/19	3:32 a	-20.2	-20.1	-20.2	23.5	SE	0.39	24.3	-34.7	715.6	0.027	0.000	17.3	57	1
03/18/19	3:33 a	-20.2	-20.2	-20.2	22.6	ESE	0.38	24.3	-34.6	715.6	0.027	0.000	17.3	57	1
03/18/19	3:34 a	-20.3	-20.3	-20.3	22.6	ESE	0.38	24.3	-34.7	715.6	0.027	0.000	17.3	57	1
03/18/19	3:35 a	-20.3	-20.3	-20.4	23.5	ESE	0.39	24.3	-34.9	715.6	0.027	0.000	17.3	57	1
03/18/19	3:36 a	-20.4	-20.4	-20.4	23.5	SE	0.39	25.2	-35.1	715.6	0.027	0.000	17.3	57	1
03/18/19	3:37 a	-20.4	-20.4	-20.4	23.5	ESE	0.39	24.3	-35.1	715.6	0.027	0.000	17.3	57	1
03/18/19	3:38 a	-20.5	-20.4	-20.5	22.6	SE	0.38	25.2	-34.9	715.6	0.027	0.000	17.3	57	1
03/18/19	3:39 a	-20.6	-20.5	-20.6	22.6	SE	0.38	24.3	-35.1	715.6	0.027	0.000	17.3	57	1
03/18/19	3:40 a	-20.6	-20.6	-20.6	23.5	ESE	0.39	25.2	-35.3	715.5	0.027	0.000	17.3	57	1
03/18/19	3:41 a	-20.6	-20.6	-20.6	24.3	ESE	0.41	24.3	-35.6	715.6	0.027	0.000	17.3	57	1
03/18/19	3:42 a	-20.6	-20.6	-20.7	23.5	ESE	0.39	24.3	-35.3	715.6	0.027	0.000	17.3	57	1
03/18/19	3:43 a	-20.7	-20.7	-20.7	23.5	ESE	0.39	25.2	-35.4	715.6	0.027	0.000	17.3	57	1
03/18/19	3:44 a	-20.7	-20.7	-20.7	22.6	ESE	0.38	25.2	-35.2	715.6	0.027	0.000	17.3	57	1
03/18/19	3:45 a	-20.7	-20.7	-20.7	23.5	ESE	0.39	25.2	-35.5	715.6	0.027	0.000	17.3	57	1
03/18/19	3:46 a	-20.7	-20.7	-20.7	23.5	ESE	0.39	26.1	-35.5	715.6	0.027	0.000	17.3	57	1
03/18/19	3:47 a	-20.7	-20.7	-20.7	23.5	ESE	0.39	25.2	-35.5	715.6	0.027	0.000	17.3	57	1
03/18/19	3:48 a	-20.8	-20.7	-20.8	24.3	ESE	0.41	26.1	-35.8	715.6	0.027	0.000	17.3	57	1
03/18/19	3:49 a	-20.8	-20.8	-20.8	24.3	ESE	0.41	26.1	-35.8	715.6	0.027	0.000	17.3	58	1
03/18/19	3:50 a	-20.8	-20.8	-20.8	25.2	ESE	0.42	26.1	-35.9	715.6	0.027	0.000	17.3	57	1
03/18/19	3:51 a	-20.8	-20.8	-20.8	23.5	ESE	0.39	25.2	-35.6	715.5	0.027	0.000	17.3	57	1
03/18/19	3:52 a	-20.8	-20.8	-20.8	24.3	ESE	0.41	27.0	-35.8	715.5	0.027	0.000	17.3	57	1
03/18/19	3:53 a	-20.8	-20.8	-20.8	24.3	ESE	0.41	26.1	-35.8	715.5	0.027	0.000	17.4	57	1
03/18/19	3:54 a	-20.8	-20.8	-20.8	25.2	ESE	0.42	26.1	-35.9	715.5	0.027	0.000	17.4	57	1
03/18/19	3:55 a	-20.8	-20.8	-20.8	24.3	ESE	0.41	27.0	-35.8	715.5	0.027	0.000	17.4	57	1
03/18/19	3:56 a	-20.8	-20.8	-20.8	24.3	ESE	0.41	26.1	-35.8	715.5	0.027	0.000	17.4	57	1
03/18/19	3:57 a	-20.8	-20.8	-20.8	24.3	ESE	0.41	26.1	-35.8	715.4	0.027	0.000	17.4	57	1
03/18/19	3:58 a	-20.8	-20.8	-20.8	24.3	ESE	0.41	26.1	-35.8	715.6	0.027	0.000	17.4	57	1
03/18/19	3:59 a	-20.8	-20.8	-20.8	24.3	ESE	0.41	26.1	-35.8	715.5	0.027	0.000	17.4	57	1
03/18/19	4:00 a	-20.8	-20.8	-20.8	24.3	ESE	0.41	25.2	-35.8	715.5	0.027	0.000	17.4	57	1
03/18/19	4:01 a	-20.8	-20.8	-20.8	23.5	ESE	0.39	25.2	-35.6	715.5	0.027	0.000	17.4	57	1
03/18/19	4:02 a	-20.8	-20.8	-20.8	23.5	ESE	0.39	25.2	-35.6	715.5	0.027	0.000	17.4	57	1
03/18/19	4:03 a	-20.8	-20.8	-20.8	24.3	ESE	0.41	26.1	-35.8	715.5	0.027	0.000	17.4	57	1
03/18/19	4:04 a	-20.8	-20.8	-20.8	24.3	ESE	0.41	25.2	-35.8	715.5	0.027	0.000	17.4	57	1
03/18/19	4:05 a	-20.8	-20.8	-20.8	24.3	ESE	0.41	25.2	-35.8	715.5	0.027	0.000	17.4	57	1
03/18/19	4:06 a	-20.8	-20.8	-20.8	24.3	ESE	0.41	25.2	-35.8	715.5	0.027	0.000	17.4	57	1
03/18/19	4:07 a	-20.8	-20.8	-20.8	23.5	ESE	0.39	25.2	-35.6	715.5	0.027	0.000	17.4	57	1
03/18/19	4:08 a	-20.8	-20.8	-20.8	23.5	ESE	0.39	25.2	-35.6	715.5	0.027	0.000	17.4	57	1
03/18/19	4:09 a	-20.8	-20.8	-20.8	23.5	ESE	0.39	25.2	-35.6	715.6	0.027	0.000	17.4	57	1
03/18/19	4:10 a	-20.8	-20.8	-20.8	23.5	ESE	0.39	25.2	-35.6	715.6	0.027	0.000	17.4	57	1
03/18/19	4:11 a	-20.8	-20.8	-20.8	22.6	ESE	0.38	24.3	-35.4	715.6	0.027	0.000	17.4	57	1
03/18/19	4:12 a	-20.8	-20.8	-20.8	22.6	ESE	0.38	24.3	-35.4	715.6	0.027	0.000	17.4	57	1
03/18/19	4:13 a	-20.8	-20.8	-20.8	22.6	ESE	0.38	24.3	-35.4	715.6	0.027	0.000	17.4	57	1
03/18/19	4:14 a	-20.8	-20.8	-20.8	22.6	ESE	0.38	24.3	-35.4	715.6	0.027	0.000	17.4	57	1
03/18/19	4:15 a	-20.8	-20.8	-20.8	22.6	ESE	0.38	23.5	-35.4	715.6	0.027	0.000	17.4	57	1
03/18/19	4:16 a	-20.8	-20.8	-20.8	22.6	ESE	0.38	24.3	-35.4	715.6	0.027	0.000	17.4	57	1
03/18/19	4:17 a	-20.9	-20.8	-20.9	21.7	ESE	0.36	24.3	-35.3	715.7	0.027	0.000	17.4	57	1
03/18/19	4:18 a	-20.9	-20.9	-20.9	22.6	ESE	0.38	24.3	-35.5	715.7	0.027	0.000	17.4	57	1
03/18/19	4:19 a	-20.9	-20.9	-20.9	23.5	ESE	0.39	24.3	-35.7	715.6	0.027	0.000	17.4	57	1
03/18/19	4:20 a	-20.9	-20.9	-20.9	22.6	ESE	0.38	24.3	-35.5	715.6	0.027	0.000	17.4	57	1
03/18/19	4:21 a	-20.9	-20.9	-20.9	22.6	ESE	0.38	24.3	-35.5	715.7	0.027	0.000	17.4	57	1
03/18/19	4:22 a	-20.9	-20.9	-20.9	22.6	ESE	0.38	24.3	-35.5	715.6	0.027	0.000	17.4	57	1
03/18/19	4:23 a	-20.9	-20.9	-20.9	22.6	ESE	0.38	23.5	-35.6	715.6	0.027	0.000	17.4	57	1
03/18/19	4:24 a	-20.9	-20.9	-20.9	22.6	ESE	0.38	24.3	-35.6	715.6	0.027	0.000	17.4	57	1
03/18/19	4:25 a	-20.9	-20.9	-21.0	22.6	ESE	0.38	24.3	-35.6	715.7	0.027	0.000	17.4	57	1
03/18/19	4:26 a	-21.0	-20.9	-21.0	21.7	ESE	0.36	23.5	-35.4	715.6	0.027	0.000	17.4	57	1
03/18/19	4:27 a	-21.0	-21.0	-21.0	22.6	ESE	0.38	23.5	-35.7	715.7	0.027	0.000	17.4	57	1
03/18/19	4:28 a	-21.0	-21.0	-21.1	21.7	ESE	0.36	23.5	-35.4	715.6	0.027	0.000	17.4	57	1
03/18/19	4:29 a	-21.1	-21.1	-21.1	22.6	ESE	0.38	23.5	-35.7	715.7	0.027	0.000	17.4	57	1
03/18/19	4:30 a	-21.1	-21.1	-21.1	21.7	ESE	0.36	22.6	-35.5	715.7	0.027	0.000	17.4	57	1
03/18/19	4:31 a	-21.1	-21.1	-21.1	21.7	ESE	0.36	22.6	-35.6	715.6	0.027	0.000	17.4	57	1
03/18/19	4:32 a	-21.1	-21.1	-21.1	22.6	ESE	0.38	23.5	-35.8	715.7	0.027	0.000	17.4	57	1
03/18/19	4:33 a	-21.1	-21.1	-21.2	22.6	ESE	0.38	23.5	-35.8	715.6	0.027	0.000	17.4	57	1
03/18/19	4:34 a	-21.2	-21.2	-21.2	22.6	ESE	0.38	23.5	-35.9	715.6	0.027	0.000	17.4	57	1
03/18/19	4:35 a	-21.2	-21.2	-21.2	22.6	ESE	0.38	23.5	-35.9	715.7	0.027	0.000	17.4	57	1
03/18/19	4:36 a	-21.2	-21.2	-21.2	21.7	ESE	0.36	23.5	-35.6	715.6	0.027	0.000	17.4	57	1
03/18/19	4:37 a	-21.2	-21.2	-21.2	22.6	ESE	0.38	23.5	-35.9	715.6	0.027	0.000	17.4	57	1
03/18/19	4:38 a	-21.2	-21.2	-21.2	21.7	ESE	0.36	23.5	-35.6	715.6	0.027	0.000	17.4	57	1
03/18/19	4:39 a	-21.2	-21.1	-21.2	21.7	ESE	0.36	23.5	-35.6	715.6	0.027	0.000	17.4	57	1
03/18/19	4:40 a	-21.1	-21.1	-21.2	21.7	ESE	0.36	23.5	-35.6	715.6	0.027	0.000	17.5	57	1
03/18/19	4:41 a	-21.1	-21.1	-21.1	22.6	ESE	0.38	23.5	-35.8	715.6	0.027	0.000	17.5	57	1
03/18/19	4:42 a	-21.1	-21.1	-21.1	21.7	ESE	0.36	24.3	-35.6	715.6	0.027	0.000	17.5	57	1
03/18/19	4:43 a	-21.1	-21.1	-21.1	21.7	ESE	0.36	23.5	-35.5	715.6	0.027	0.000	17.5	57	1
03/18/19	4:44 a	-21.1	-21.1	-21.1	20.9	ESE	0.35	23.5	-35.3	715.6	0.027	0.000	17.5	57	1
03/18/19	4:45 a	-21.1	-21.0	-21.1	21.7	ESE	0.36	23.5	-35.5	715.6	0.027	0.000	17.5	57	1
03/18/19	4:46 a	-21.0	-21.0	-21.0	21.7	ESE	0.36	23.5	-35.4	715.6	0.027	0.000	17.6	57	1
03/18/19	4:47 a	-20.9	-20.9	-21.0	20.9	ESE	0.35	23.5	-35.1	715.6	0.027	0.000	17.6	57	1
03/18/19	4:48 a	-20.9	-20.9	-20.9	21.7	ESE	0.36	23.5	-35.3	715.7	0.027	0.000	17.6	57	1
03/18/19	4:49 a	-20.9	-20.9	-20.9	21.7	ESE	0.36	22.6	-35.3	715.6	0.027	0.000	17.6	57	1
03/18/19	4:50 a	-20.8	-20.8	-20.8	21.7	ESE	0.36	23.5	-35.2	715.6	0.027	0.000	17.6	57	1
03/18/19	4:51 a	-20.8	-20.8	-20.8	21.7	ESE	0.36	23.5	-35.2	715.7	0.027	0.000	17.6	57	1
03/18/19	4:52 a	-20.8	-20.7	-20.8	21.7	ESE	0.36	22.6	-35.1	715.7	0.027	0.000	17.6	57	1
03/18/19	4:53 a	-20.7	-20.7	-20.7	21.7	ESE	0.36	23.5	-35.1	715.6	0.027	0.000	17.6	57	1
03/18/19	4:54 a	-20.7	-20.6	-20.7	22.6	ESE	0.38	24.3	-35.2	715.6	0.027	0.000	17.7	57	1
03/18/19	4:55 a	-20.6	-20.6	-20.6	21.7	ESE	0.36	23.5	-34.9	715.7	0.027	0.000	17.7	57	1
03/18/19	4:56 a	-20.6	-20.6	-20.6	21.7	ESE	0.36	23.5	-34.8	715.7	0.027	0.000	17.7	57	1
03/18/19	4:57 a	-20.5	-20.5	-20.6	21.7	ESE	0.36	23.5	-34.7	715.7	0.027	0.000	17.7	57	1
03/18/19	4:58 a	-20.4	-20.4	-20.5	22.6	ESE	0.38	23.5	-34.9	715.7	0.027	0.000	17.7	57	1
03/18/19	4:59 a	-20.4	-20.4	-20.4	22.6	ESE	0.38	24.3	-34.8	715.7	0.027	0.000	17.7	57	1
03/18/19	5:00 a	-20.3	-20.3	-20.4	22.6	ESE	0.38	23.5	-34.7	715.7	0.027	0.000	17.7	57	1
03/18/19	5:01 a	-20.3	-20.3	-20.3	21.7	ESE	0.36	23.5	-34.5	715.6	0.027	0.000	17.7	57	1
03/18/19	5:02 a	-20.3	-20.2	-20.3	21.7	ESE	0.36	23.5	-34.4	715.7	0.027	0.000	17.7	57	1
03/18/19	5:03 a	-20.2	-20.2	-20.2	21.7	ESE	0.36	23.5	-34.4	715.7	0.027	0.000	17.7	57	1
03/18/19	5:04 a	-20.2	-20.2	-20.2	22.6	ESE	0.38	24.3	-34.5	715.7	0.027	0.000	17.7	57	1
03/18/19	5:05 a	-20.1	-20.1	-20.2	22.6	ESE	0.38	24.3	-34.4	715.7	0.027	0.000	17.7	57	1
03/18/19	5:06 a	-20.1	-20.1	-20.1	23.5	ESE	0.39	24.3	-34.6	715.7	0.027	0.000	17.7	57	1
03/18/19	5:07 a	-20.1	-20.1	-20.1	22.6	ESE	0.38	24.3	-34.4	715.6	0.027	0.000	17.7	57	1
03/18/19	5:08 a	-20.0	-20.0	-20.0	22.6	ESE	0.38	25.2	-34.3	715.7	0.027	0.000	17.7	57	1
03/18/19	5:09 a	-20.0	-19.9	-20.0	22.6	ESE	0.38	24.3	-34.3	715.7	0.027	0.000	17.7	57	1
03/18/19	5:10 a	-19.9	-19.9	-19.9	23.5	ESE	0.39	24.3	-34.4	715.6	0.027	0.000	17.7	57	1
03/18/19	5:11 a	-19.9	-19.9	-19.9	22.6	ESE	0.38	24.3	-34.2	715.6	0.027	0.000	17.8	57	1
03/18/19	5:12 a	-19.9	-19.9	-19.9	23.5	ESE	0.39	24.3	-34.3	715.6	0.027	0.000	17.8	57	1
03/18/19	5:13 a	-19.8	-19.8	-19.8	22.6	ESE	0.38	24.3	-34.1	715.7	0.027	0.000	17.8	57	1
03/18/19	5:14 a	-19.8	-19.8	-19.8	22.6	ESE	0.38	24.3	-34.1	715.7	0.027	0.000	17.8	57	1
03/18/19	5:15 a	-19.8	-19.8	-19.8	22.6	ESE	0.38	24.3	-34.1	715.7	0.027	0.000	17.7	57	1
03/18/19	5:16 a	-19.8	-19.8	-19.8	22.6	ESE	0.38	24.3	-34.0	715.7	0.026	0.000	17.7	57	1
03/18/19	5:17 a	-19.8	-19.8	-19.8	23.5	ESE	0.39	25.2	-34.2	715.7	0.026	0.000	17.7	57	1
03/18/19	5:18 a	-19.8	-19.7	-19.8	22.6	ESE	0.38	24.3	-34.0	715.7	0.026	0.000	17.8	57	1
03/18/19	5:19 a	-19.7	-19.7	-19.7	23.5	ESE	0.39	24.3	-34.1	715.7	0.026	0.000	17.8	57	1
03/18/19	5:20 a	-19.7	-19.7	-19.7	22.6	ESE	0.38	25.2	-33.9	715.7	0.026	0.000	17.8	57	1
03/18/19	5:21 a	-19.7	-19.7	-19.7	23.5	ESE	0.39	25.2	-34.1	715.7	0.026	0.000	17.8	57	1
03/18/19	5:22 a	-19.7	-19.7	-19.7	22.6	ESE	0.38	24.3	-33.8	715.6	0.026	0.000	17.8	57	1
03/18/19	5:23 a	-19.7	-19.7	-19.7	21.7	ESE	0.36	24.3	-33.6	715.7	0.026	0.000	17.8	57	1
03/18/19	5:24 a	-19.7	-19.7	-19.7	22.6	ESE	0.38	24.3	-33.8	715.7	0.026	0.000	17.8	57	1
03/18/19	5:25 a	-19.7	-19.6	-19.7	22.6	ESE	0.38	23.5	-33.8	715.7	0.026	0.000	17.8	57	1
03/18/19	5:26 a	-19.6	-19.6	-19.7	21.7	ESE	0.36	23.5	-33.6	715.7	0.026	0.000	17.8	57	1
03/18/19	5:27 a	-19.6	-19.6	-19.7	21.7	ESE	0.36	23.5	-33.6	715.8	0.026	0.000	17.8	57	1
03/18/19	5:28 a	-19.6	-19.6	-19.6	22.6	ESE	0.38	23.5	-33.8	715.7	0.026	0.000	17.8	57	1
03/18/19	5:29 a	-19.6	-19.6	-19.6	21.7	ESE	0.36	23.5	-33.6	715.7	0.026	0.000	17.8	57	1
03/18/19	5:30 a	-19.6	-19.6	-19.6	22.6	ESE	0.38	24.3	-33.8	715.7	0.026	0.000	17.8	57	1
03/18/19	5:31 a	-19.6	-19.6	-19.6	21.7	ESE	0.36	23.5	-33.6	715.7	0.026	0.000	17.8	57	1
03/18/19	5:32 a	-19.6	-19.6	-19.6	21.7	ESE	0.36	23.5	-33.6	715.7	0.026	0.000	17.8	57	1
03/18/19	5:33 a	-19.6	-19.6	-19.6	22.6	ESE	0.38	24.3	-33.8	715.7	0.026	0.000	17.8	57	1
03/18/19	5:34 a	-19.6	-19.6	-19.6	21.7	ESE	0.36	23.5	-33.6	715.7	0.026	0.000	17.8	57	1
03/18/19	5:35 a	-19.6	-19.6	-19.6	21.7	ESE	0.36	23.5	-33.6	715.7	0.026	0.000	17.8	57	1
03/18/19	5:36 a	-19.6	-19.6	-19.6	21.7	ESE	0.36	22.6	-33.6	715.8	0.026	0.000	17.8	57	1
03/18/19	5:37 a	-19.6	-19.6	-19.6	21.7	ESE	0.36	23.5	-33.5	715.8	0.026	0.000	17.8	57	1
03/18/19	5:38 a	-19.6	-19.6	-19.6	20.9	ESE	0.35	22.6	-33.3	715.8	0.026	0.000	17.8	57	1
03/18/19	5:39 a	-19.6	-19.6	-19.6	20.9	ESE	0.35	22.6	-33.3	715.7	0.026	0.000	17.8	57	1
03/18/19	5:40 a	-19.6	-19.6	-19.6	20.9	ESE	0.35	22.6	-33.3	715.8	0.026	0.000	17.8	57	1
03/18/19	5:41 a	-19.6	-19.6	-19.6	21.7	ESE	0.36	22.6	-33.6	715.8	0.026	0.000	17.8	57	1
03/18/19	5:42 a	-19.6	-19.6	-19.6	21.7	ESE	0.36	23.5	-33.6	715.8	0.026	0.000	17.8	57	1
03/18/19	5:43 a	-19.6	-19.6	-19.6	20.9	ESE	0.35	22.6	-33.3	715.8	0.026	0.000	17.8	57	1
03/18/19	5:44 a	-19.6	-19.6	-19.6	20.9	ESE	0.35	21.7	-33.3	715.7	0.026	0.000	17.8	57	1
03/18/19	5:45 a	-19.6	-19.6	-19.6	20.9	ESE	0.35	22.6	-33.3	715.8	0.026	0.000	17.8	57	1
03/18/19	5:46 a	-19.6	-19.6	-19.6	20.9	ESE	0.35	23.5	-33.3	715.8	0.026	0.000	17.8	57	1
03/18/19	5:47 a	-19.6	-19.6	-19.6	20.9	ESE	0.35	21.7	-33.3	715.8	0.026	0.000	17.8	57	1
03/18/19	5:48 a	-19.6	-19.6	-19.6	20.9	ESE	0.35	21.7	-33.3	715.8	0.026	0.000	17.9	57	1
03/18/19	5:49 a	-19.6	-19.6	-19.6	20.0	ESE	0.33	21.7	-33.0	715.8	0.026	0.000	17.9	57	1
03/18/19	5:50 a	-19.6	-19.6	-19.6	20.0	ESE	0.33	21.7	-33.1	715.9	0.026	0.000	17.9	57	1
03/18/19	5:51 a	-19.6	-19.6	-19.6	20.9	ESE	0.35	22.6	-33.3	715.8	0.026	0.000	17.9	57	1
03/18/19	5:52 a	-19.6	-19.6	-19.6	20.0	ESE	0.33	21.7	-33.0	715.9	0.026	0.000	17.9	57	1
03/18/19	5:53 a	-19.6	-19.6	-19.6	20.0	ESE	0.33	21.7	-33.0	715.8	0.026	0.000	17.9	57	1
03/18/19	5:54 a	-19.6	-19.6	-19.6	20.0	ESE	0.33	21.7	-33.0	715.9	0.026	0.000	17.9	57	1
03/18/19	5:55 a	-19.6	-19.6	-19.6	20.0	ESE	0.33	21.7	-33.1	715.9	0.026	0.000	17.9	57	1
03/18/19	5:56 a	-19.6	-19.6	-19.6	20.0	ESE	0.33	20.9	-33.1	715.8	0.026	0.000	17.9	57	1
03/18/19	5:57 a	-19.6	-19.6	-19.6	19.1	ESE	0.32	20.0	-32.8	715.9	0.026	0.000	17.9	57	1
03/18/19	5:58 a	-19.7	-19.6	-19.7	20.0	ESE	0.33	21.7	-33.2	715.9	0.026	0.000	17.9	57	1
03/18/19	5:59 a	-19.7	-19.7	-19.7	20.9	ESE	0.35	20.9	-33.4	715.9	0.026	0.000	17.9	57	1
03/18/19	6:00 a	-19.7	-19.7	-19.7	20.0	ESE	0.33	20.9	-33.2	715.9	0.026	0.000	17.9	57	1
03/18/19	6:01 a	-19.7	-19.7	-19.8	20.0	ESE	0.33	21.7	-33.2	715.8	0.026	0.000	17.9	57	1
03/18/19	6:02 a	-19.8	-19.8	-19.8	20.0	ESE	0.33	21.7	-33.3	715.9	0.026	0.000	17.9	57	1
03/18/19	6:03 a	-19.8	-19.8	-19.8	20.0	ESE	0.33	21.7	-33.3	715.9	0.026	0.000	17.9	57	1
03/18/19	6:04 a	-19.8	-19.8	-19.9	19.1	ESE	0.32	20.9	-33.2	715.9	0.027	0.000	17.9	57	1
03/18/19	6:05 a	-19.9	-19.8	-19.9	20.0	ESE	0.33	21.7	-33.4	715.8	0.027	0.000	17.9	57	1
03/18/19	6:06 a	-19.9	-19.9	-20.0	20.9	ESE	0.35	21.7	-33.8	715.9	0.027	0.000	17.9	57	1
03/18/19	6:07 a	-20.0	-20.0	-20.0	20.0	ESE	0.33	22.6	-33.6	715.8	0.027	0.000	17.9	57	1
03/18/19	6:08 a	-20.1	-20.0	-20.1	20.0	ESE	0.33	22.6	-33.7	715.9	0.027	0.000	17.9	57	1
03/18/19	6:09 a	-20.1	-20.1	-20.1	20.0	ESE	0.33	21.7	-33.8	715.8	0.027	0.000	17.9	57	1
03/18/19	6:10 a	-20.2	-20.1	-20.2	20.0	ESE	0.33	21.7	-33.8	715.8	0.027	0.000	17.9	57	1
03/18/19	6:11 a	-20.2	-20.2	-20.2	20.9	ESE	0.35	22.6	-34.2	715.8	0.027	0.000	17.9	57	1
03/18/19	6:12 a	-20.3	-20.2	-20.3	21.7	ESE	0.36	23.5	-34.4	715.8	0.027	0.000	17.9	57	1
03/18/19	6:13 a	-20.3	-20.3	-20.4	21.7	ESE	0.36	22.6	-34.5	715.8	0.027	0.000	17.9	57	1
03/18/19	6:14 a	-20.4	-20.4	-20.4	20.9	ESE	0.35	22.6	-34.4	715.8	0.027	0.000	17.9	57	1
03/18/19	6:15 a	-20.4	-20.4	-20.5	20.0	ESE	0.33	21.7	-34.2	715.8	0.027	0.000	17.9	57	1
03/18/19	6:16 a	-20.5	-20.5	-20.6	20.9	ESE	0.35	22.6	-34.5	715.8	0.027	0.000	17.9	57	1
03/18/19	6:17 a	-20.6	-20.6	-20.6	20.9	ESE	0.35	22.6	-34.6	715.8	0.027	0.000	17.9	58	1
03/18/19	6:18 a	-20.6	-20.6	-20.7	20.9	ESE	0.35	21.7	-34.7	715.8	0.027	0.000	17.9	57	1
03/18/19	6:19 a	-20.7	-20.7	-20.7	20.9	ESE	0.35	22.6	-34.7	715.7	0.027	0.000	17.9	58	1
03/18/19	6:20 a	-20.7	-20.7	-20.8	20.9	ESE	0.35	23.5	-34.8	715.8	0.027	0.000	17.9	58	1
03/18/19	6:21 a	-20.8	-20.8	-20.8	20.9	ESE	0.35	22.6	-34.9	715.8	0.027	0.000	17.9	58	1
03/18/19	6:22 a	-20.8	-20.8	-20.8	20.9	ESE	0.35	21.7	-34.9	715.8	0.027	0.000	18.0	58	1
03/18/19	6:23 a	-20.9	-20.9	-20.9	20.9	ESE	0.35	21.7	-35.1	715.8	0.027	0.000	17.9	57	1
03/18/19	6:24 a	-20.9	-20.9	-20.9	20.0	ESE	0.33	21.7	-34.9	715.8	0.027	0.000	17.9	57	1
03/18/19	6:25 a	-21.0	-20.9	-21.1	20.9	ESE	0.35	23.5	-35.2	715.8	0.027	0.000	17.9	57	1
03/18/19	6:26 a	-21.1	-21.1	-21.1	20.9	ESE	0.35	23.5	-35.3	715.7	0.027	0.000	17.9	57	1
03/18/19	6:27 a	-21.1	-21.1	-21.1	20.9	ESE	0.35	23.5	-35.3	715.8	0.027	0.000	17.9	57	1
03/18/19	6:28 a	-21.2	-21.1	-21.2	20.0	ESE	0.33	21.7	-35.2	715.8	0.027	0.000	17.9	57	1
03/18/19	6:29 a	-21.2	-21.2	-21.2	20.9	ESE	0.35	22.6	-35.4	715.8	0.027	0.000	17.9	57	1
03/18/19	6:30 a	-21.3	-21.3	-21.3	20.9	ESE	0.35	22.6	-35.6	715.8	0.028	0.000	17.9	57	1
03/18/19	6:31 a	-21.3	-21.3	-21.3	21.7	ESE	0.36	23.5	-35.9	715.8	0.028	0.000	17.9	57	1
03/18/19	6:32 a	-21.3	-21.3	-21.3	20.9	ESE	0.35	21.7	-35.6	715.8	0.028	0.000	17.9	57	1
03/18/19	6:33 a	-21.4	-21.4	-21.4	20.0	ESE	0.33	21.7	-35.4	715.8	0.028	0.000	17.9	57	1
03/18/19	6:34 a	-21.4	-21.4	-21.4	20.9	ESE	0.35	23.5	-35.7	715.8	0.028	0.000	18.0	58	1
03/18/19	6:35 a	-21.4	-21.4	-21.5	21.7	ESE	0.36	23.5	-36.0	715.8	0.028	0.000	18.0	57	1
03/18/19	6:36 a	-21.5	-21.4	-21.5	21.7	ESE	0.36	22.6	-36.1	715.8	0.028	0.000	18.0	57	1
03/18/19	6:37 a	-21.5	-21.5	-21.5	20.9	ESE	0.35	22.6	-35.8	715.8	0.028	0.000	18.0	57	1
03/18/19	6:38 a	-21.6	-21.6	-21.6	21.7	ESE	0.36	23.5	-36.2	715.8	0.028	0.000	18.0	57	1
03/18/19	6:39 a	-21.6	-21.6	-21.6	21.7	ESE	0.36	22.6	-36.2	715.8	0.028	0.000	18.0	57	1
03/18/19	6:40 a	-21.6	-21.6	-21.6	21.7	ESE	0.36	24.3	-36.2	715.8	0.028	0.000	17.9	57	1
03/18/19	6:41 a	-21.6	-21.6	-21.7	21.7	ESE	0.36	23.5	-36.2	715.8	0.028	0.000	17.9	57	1
03/18/19	6:42 a	-21.7	-21.6	-21.7	21.7	ESE	0.36	23.5	-36.3	715.8	0.028	0.000	17.9	57	1
03/18/19	6:43 a	-21.7	-21.6	-21.7	22.6	ESE	0.38	23.5	-36.6	715.8	0.028	0.000	17.9	57	1
03/18/19	6:44 a	-21.7	-21.7	-21.7	21.7	ESE	0.36	22.6	-36.4	715.9	0.028	0.000	17.9	57	1
03/18/19	6:45 a	-21.7	-21.7	-21.7	21.7	ESE	0.36	23.5	-36.4	715.8	0.028	0.000	17.9	57	1
03/18/19	6:46 a	-21.7	-21.7	-21.8	22.6	ESE	0.38	24.3	-36.6	715.8	0.028	0.000	17.9	57	1
03/18/19	6:47 a	-21.8	-21.7	-21.8	22.6	ESE	0.38	24.3	-36.7	715.8	0.028	0.000	17.9	57	1
03/18/19	6:48 a	-21.8	-21.8	-21.8	23.5	ESE	0.39	25.2	-36.9	715.8	0.028	0.000	17.9	57	1
03/18/19	6:49 a	-21.8	-21.8	-21.8	22.6	ESE	0.38	24.3	-36.7	715.8	0.028	0.000	17.9	57	1
03/18/19	6:50 a	-21.8	-21.8	-21.8	22.6	ESE	0.38	24.3	-36.8	715.8	0.028	0.000	18.0	57	1
03/18/19	6:51 a	-21.8	-21.8	-21.8	22.6	ESE	0.38	24.3	-36.8	715.8	0.028	0.000	18.0	57	1
03/18/19	6:52 a	-21.8	-21.8	-21.9	22.6	ESE	0.38	23.5	-36.8	715.7	0.028	0.000	17.9	57	1
03/18/19	6:53 a	-21.9	-21.8	-21.9	22.6	ESE	0.38	24.3	-36.8	715.7	0.028	0.000	17.9	57	1
03/18/19	6:54 a	-21.9	-21.9	-21.9	23.5	ESE	0.39	24.3	-37.1	715.7	0.028	0.000	17.9	57	1
03/18/19	6:55 a	-21.9	-21.9	-21.9	23.5	ESE	0.39	25.2	-37.1	715.7	0.028	0.000	17.9	57	1
03/18/19	6:56 a	-21.9	-21.9	-22.0	23.5	ESE	0.39	24.3	-37.1	715.7	0.028	0.000	18.0	57	1
03/18/19	6:57 a	-22.0	-22.0	-22.0	23.5	ESE	0.39	25.2	-37.2	715.7	0.028	0.000	18.0	57	1
03/18/19	6:58 a	-22.0	-22.0	-22.0	23.5	ESE	0.39	26.1	-37.2	715.7	0.028	0.000	18.0	57	1
03/18/19	6:59 a	-22.0	-22.0	-22.1	24.3	ESE	0.41	25.2	-37.4	715.6	0.028	0.000	18.0	57	1
03/18/19	7:00 a	-22.1	-22.1	-22.1	23.5	ESE	0.39	25.2	-37.3	715.7	0.028	0.000	18.0	57	1
03/18/19	7:01 a	-22.1	-22.1	-22.1	23.5	ESE	0.39	25.2	-37.3	715.7	0.028	0.000	18.0	57	1
03/18/19	7:02 a	-22.1	-22.1	-22.1	23.5	ESE	0.39	26.1	-37.3	715.7	0.028	0.000	18.0	57	1
03/18/19	7:03 a	-22.1	-22.1	-22.2	24.3	ESE	0.41	26.1	-37.6	715.6	0.028	0.000	18.0	57	1
03/18/19	7:04 a	-22.2	-22.1	-22.2	24.3	ESE	0.41	26.1	-37.7	715.7	0.028	0.000	18.0	57	1
03/18/19	7:05 a	-22.2	-22.2	-22.2	23.5	ESE	0.39	26.1	-37.4	715.7	0.028	0.000	18.0	57	1
03/18/19	7:06 a	-22.2	-22.2	-22.2	25.2	ESE	0.42	26.1	-37.9	715.6	0.028	0.000	18.0	57	1
03/18/19	7:07 a	-22.3	-22.3	-22.3	24.3	ESE	0.41	27.0	-37.8	715.7	0.028	0.000	18.0	57	1
03/18/19	7:08 a	-22.3	-22.3	-22.3	23.5	ESE	0.39	25.2	-37.7	715.7	0.028	0.000	18.0	57	1
03/18/19	7:09 a	-22.4	-22.3	-22.4	23.5	ESE	0.39	26.1	-37.7	715.6	0.028	0.000	18.0	57	1
03/18/19	7:10 a	-22.4	-22.4	-22.4	24.3	ESE	0.41	26.1	-38.0	715.6	0.028	0.000	18.0	57	1
03/18/19	7:11 a	-22.5	-22.4	-22.5	23.5	ESE	0.39	25.2	-37.9	715.7	0.028	0.000	18.0	57	1
03/18/19	7:12 a	-22.6	-22.5	-22.6	23.5	ESE	0.39	24.3	-37.9	715.7	0.028	0.000	18.0	57	1
03/18/19	7:13 a	-22.6	-22.6	-22.7	22.6	ESE	0.38	25.2	-37.8	715.6	0.028	0.000	18.0	57	1
03/18/19	7:14 a	-22.7	-22.6	-22.7	24.3	ESE	0.41	26.1	-38.3	715.7	0.028	0.000	18.0	57	1
03/18/19	7:15 a	-22.7	-22.7	-22.8	24.3	ESE	0.41	26.1	-38.4	715.6	0.029	0.000	18.0	57	1
03/18/19	7:16 a	-22.8	-22.8	-22.8	25.2	ESE	0.42	27.0	-38.7	715.6	0.029	0.000	18.0	57	1
03/18/19	7:17 a	-22.9	-22.8	-22.9	24.3	ESE	0.41	26.1	-38.6	715.6	0.029	0.000	18.0	57	1
03/18/19	7:18 a	-22.9	-22.9	-22.9	24.3	ESE	0.41	26.1	-38.6	715.6	0.029	0.000	18.0	57	1
03/18/19	7:19 a	-23.0	-22.9	-23.0	25.2	ESE	0.42	27.8	-39.0	715.5	0.029	0.000	18.0	57	1
03/18/19	7:20 a	-23.1	-23.1	-23.1	25.2	ESE	0.42	26.1	-39.1	715.5	0.029	0.000	18.0	57	1
03/18/19	7:21 a	-23.1	-23.1	-23.2	26.1	ESE	0.43	27.8	-39.3	715.6	0.029	0.000	18.0	57	1
03/18/19	7:22 a	-23.2	-23.2	-23.2	25.2	ESE	0.42	27.8	-39.3	715.6	0.029	0.000	18.0	57	1
03/18/19	7:23 a	-23.3	-23.2	-23.3	25.2	ESE	0.42	27.0	-39.3	715.5	0.029	0.000	18.0	57	1
03/18/19	7:24 a	-23.3	-23.3	-23.3	26.1	ESE	0.43	27.8	-39.6	715.5	0.029	0.000	18.0	57	1
03/18/19	7:25 a	-23.4	-23.3	-23.4	25.2	ESE	0.42	27.8	-39.5	715.6	0.029	0.000	18.0	57	1
03/18/19	7:26 a	-23.4	-23.4	-23.4	25.2	ESE	0.42	27.8	-39.6	715.5	0.029	0.000	18.0	57	1
03/18/19	7:27 a	-23.5	-23.4	-23.6	25.2	ESE	0.42	27.0	-39.7	715.5	0.029	0.000	18.0	57	1
03/18/19	7:28 a	-23.6	-23.6	-23.6	24.3	ESE	0.41	26.1	-39.5	715.5	0.029	0.000	18.0	57	1
03/18/19	7:29 a	-23.6	-23.6	-23.7	26.1	ESE	0.43	27.8	-40.0	715.5	0.029	0.000	18.0	57	1
03/18/19	7:30 a	-23.7	-23.7	-23.7	25.2	ESE	0.42	27.0	-39.9	715.6	0.029	0.000	18.0	57	1
03/18/19	7:31 a	-23.7	-23.7	-23.8	25.2	ESE	0.42	27.0	-39.9	715.5	0.029	0.000	18.0	57	1
03/18/19	7:32 a	-23.8	-23.8	-23.8	25.2	ESE	0.42	27.0	-40.1	715.5	0.029	0.000	18.0	57	1
03/18/19	7:33 a	-23.8	-23.8	-23.9	25.2	ESE	0.42	27.0	-40.1	715.5	0.029	0.000	18.0	57	1
03/18/19	7:34 a	-23.9	-23.9	-23.9	25.2	ESE	0.42	27.0	-40.2	715.5	0.029	0.000	18.0	57	1
03/18/19	7:35 a	-23.9	-23.9	-23.9	25.2	ESE	0.42	27.0	-40.3	715.5	0.029	0.000	18.0	57	1
03/18/19	7:36 a	-24.0	-24.0	-24.0	25.2	ESE	0.42	27.0	-40.3	715.6	0.029	0.000	18.0	57	1
03/18/19	7:37 a	-24.1	-24.1	-24.1	24.3	ESE	0.41	27.0	-40.2	715.6	0.029	0.000	18.0	57	1
03/18/19	7:38 a	-24.1	-24.1	-24.1	25.2	ESE	0.42	27.0	-40.5	715.5	0.029	0.000	18.0	57	1
03/18/19	7:39 a	-24.2	-24.1	-24.2	25.2	ESE	0.42	27.8	-40.6	715.6	0.030	0.000	18.0	57	1
03/18/19	7:40 a	-24.2	-24.2	-24.2	26.1	ESE	0.43	27.8	-40.8	715.6	0.030	0.000	18.0	57	1
03/18/19	7:41 a	-24.2	-24.2	-24.2	26.1	ESE	0.43	27.8	-40.8	715.6	0.030	0.000	18.0	57	1
03/18/19	7:42 a	-24.3	-24.3	-24.3	25.2	ESE	0.42	26.1	-40.7	715.6	0.030	0.000	18.0	57	1
03/18/19	7:43 a	-24.3	-24.3	-24.3	25.2	ESE	0.42	27.0	-40.8	715.5	0.030	0.000	18.1	57	1
03/18/19	7:44 a	-24.3	-24.3	-24.3	26.1	ESE	0.43	27.8	-41.0	715.6	0.030	0.000	18.1	57	1
03/18/19	7:45 a	-24.4	-24.4	-24.4	24.3	ESE	0.41	27.0	-40.7	715.6	0.030	0.000	18.1	57	1
03/18/19	7:46 a	-24.4	-24.4	-24.4	25.2	ESE	0.42	27.8	-40.8	715.6	0.030	0.000	18.1	57	1
03/18/19	7:47 a	-24.4	-24.4	-24.4	25.2	ESE	0.42	26.1	-40.9	715.6	0.030	0.000	18.1	57	1
03/18/19	7:48 a	-24.4	-24.4	-24.5	26.1	ESE	0.43	27.8	-41.2	715.6	0.030	0.000	18.1	57	1
03/18/19	7:49 a	-24.5	-24.5	-24.5	24.3	ESE	0.41	26.1	-40.8	715.6	0.030	0.000	18.1	57	1
03/18/19	7:50 a	-24.5	-24.5	-24.5	25.2	ESE	0.42	27.0	-41.0	715.6	0.030	0.000	18.1	57	1
03/18/19	7:51 a	-24.5	-24.5	-24.6	24.3	ESE	0.41	26.1	-40.8	715.7	0.030	0.000	18.1	57	1
03/18/19	7:52 a	-24.6	-24.6	-24.6	24.3	ESE	0.41	27.0	-40.9	715.6	0.030	0.000	18.1	57	1
03/18/19	7:53 a	-24.6	-24.6	-24.6	25.2	ESE	0.42	27.0	-41.1	715.6	0.030	0.000	18.1	57	1
03/18/19	7:54 a	-24.6	-24.6	-24.6	25.2	ESE	0.42	26.1	-41.2	715.6	0.030	0.000	18.1	57	1
03/18/19	7:55 a	-24.6	-24.6	-24.6	25.2	ESE	0.42	27.0	-41.2	715.6	0.030	0.000	18.1	58	1
03/18/19	7:56 a	-24.6	-24.6	-24.7	26.1	ESE	0.43	27.8	-41.4	715.6	0.030	0.000	18.1	57	1
03/18/19	7:57 a	-24.7	-24.6	-24.7	24.3	ESE	0.41	27.0	-41.0	715.6	0.030	0.000	18.1	57	1
03/18/19	7:58 a	-24.7	-24.6	-24.7	24.3	ESE	0.41	27.0	-41.0	715.6	0.030	0.000	18.1	58	1
03/18/19	7:59 a	-24.7	-24.7	-24.7	24.3	ESE	0.41	26.1	-41.0	715.6	0.030	0.000	18.1	57	1
03/18/19	8:00 a	-24.7	-24.7	-24.7	24.3	ESE	0.41	27.0	-41.0	715.6	0.030	0.000	18.1	57	1
03/18/19	8:01 a	-24.7	-24.7	-24.7	24.3	ESE	0.41	27.0	-41.1	715.6	0.030	0.000	18.1	57	1
03/18/19	8:02 a	-24.7	-24.7	-24.7	24.3	ESE	0.41	26.1	-41.1	715.6	0.030	0.000	18.1	58	1
03/18/19	8:03 a	-24.7	-24.7	-24.7	24.3	ESE	0.41	27.0	-41.1	715.6	0.030	0.000	18.1	57	1
03/18/19	8:04 a	-24.7	-24.7	-24.7	25.2	ESE	0.42	27.0	-41.3	715.6	0.030	0.000	18.1	57	1
03/18/19	8:05 a	-24.7	-24.7	-24.8	25.2	ESE	0.42	26.1	-41.3	715.7	0.030	0.000	18.1	57	1
03/18/19	8:06 a	-24.8	-24.7	-24.8	24.3	ESE	0.41	26.1	-41.2	715.6	0.030	0.000	18.1	57	1
03/18/19	8:07 a	-24.7	-24.7	-24.8	24.3	ESE	0.41	26.1	-41.1	715.7	0.030	0.000	18.1	57	1
03/18/19	8:08 a	-24.8	-24.7	-24.8	24.3	ESE	0.41	26.1	-41.2	715.6	0.030	0.000	18.1	57	1
03/18/19	8:09 a	-24.8	-24.7	-24.8	24.3	ESE	0.41	26.1	-41.2	715.6	0.030	0.000	18.1	58	1
03/18/19	8:10 a	-24.8	-24.8	-24.8	25.2	ESE	0.42	27.0	-41.4	715.6	0.030	0.000	18.1	57	1
03/18/19	8:11 a	-24.8	-24.8	-24.8	25.2	ESE	0.42	27.0	-41.4	715.7	0.030	0.000	18.1	58	1
03/18/19	8:12 a	-24.8	-24.8	-24.8	25.2	ESE	0.42	27.0	-41.4	715.7	0.030	0.000	18.1	57	1
03/18/19	8:13 a	-24.8	-24.8	-24.8	24.3	ESE	0.41	27.0	-41.2	715.6	0.030	0.000	18.1	58	1
03/18/19	8:14 a	-24.8	-24.8	-24.8	24.3	ESE	0.41	26.1	-41.2	715.7	0.030	0.000	18.1	58	1
03/18/19	8:15 a	-24.8	-24.8	-24.8	24.3	ESE	0.41	26.1	-41.2	715.7	0.030	0.000	18.1	58	1
03/18/19	8:16 a	-24.8	-24.8	-24.8	23.5	ESE	0.39	25.2	-40.9	715.7	0.030	0.000	18.1	57	1
03/18/19	8:17 a	-24.8	-24.8	-24.8	24.3	ESE	0.41	25.2	-41.2	715.6	0.030	0.000	18.1	57	1
03/18/19	8:18 a	-24.8	-24.8	-24.8	24.3	ESE	0.41	27.8	-41.2	715.7	0.030	0.000	18.1	58	1
03/18/19	8:19 a	-24.8	-24.8	-24.8	25.2	ESE	0.42	27.0	-41.4	715.6	0.030	0.000	18.1	57	1
03/18/19	8:20 a	-24.8	-24.8	-24.8	24.3	ESE	0.41	25.2	-41.2	715.7	0.030	0.000	18.1	57	1
03/18/19	8:21 a	-24.8	-24.8	-24.8	23.5	ESE	0.39	26.1	-41.0	715.6	0.030	0.000	18.1	57	1
03/18/19	8:22 a	-24.8	-24.8	-24.8	25.2	ESE	0.42	26.1	-41.4	715.7	0.030	0.000	18.1	58	1
03/18/19	8:23 a	-24.8	-24.8	-24.8	24.3	ESE	0.41	26.1	-41.2	715.6	0.030	0.000	18.2	58	1
03/18/19	8:24 a	-24.8	-24.8	-24.9	25.2	ESE	0.42	27.0	-41.4	715.6	0.030	0.000	18.2	57	1
03/18/19	8:25 a	-24.8	-24.8	-24.8	23.5	ESE	0.39	26.1	-41.0	715.5	0.030	0.000	18.2	57	1
03/18/19	8:26 a	-24.8	-24.8	-24.9	25.2	ESE	0.42	27.8	-41.4	715.6	0.030	0.000	18.2	57	1
03/18/19	8:27 a	-24.8	-24.8	-24.9	25.2	ESE	0.42	27.0	-41.4	715.6	0.030	0.000	18.2	57	1
03/18/19	8:28 a	-24.8	-24.8	-24.9	24.3	ESE	0.41	27.0	-41.2	715.5	0.030	0.000	18.2	58	1
03/18/19	8:29 a	-24.9	-24.8	-24.9	24.3	ESE	0.41	27.0	-41.3	715.6	0.030	0.000	18.2	58	1
03/18/19	8:30 a	-24.9	-24.8	-24.9	24.3	ESE	0.41	27.0	-41.3	715.6	0.030	0.000	18.2	57	1
03/18/19	8:31 a	-24.9	-24.9	-24.9	25.2	ESE	0.42	27.0	-41.6	715.5	0.030	0.000	18.2	58	1
03/18/19	8:32 a	-24.9	-24.9	-24.9	24.3	ESE	0.41	26.1	-41.3	715.6	0.030	0.000	18.2	57	1
03/18/19	8:33 a	-24.9	-24.9	-24.9	23.5	ESE	0.39	25.2	-41.1	715.6	0.030	0.000	18.2	57	1
03/18/19	8:34 a	-24.9	-24.9	-24.9	24.3	ESE	0.41	26.1	-41.3	715.6	0.030	0.000	18.2	58	1
03/18/19	8:35 a	-24.9	-24.9	-24.9	23.5	ESE	0.39	25.2	-41.1	715.7	0.030	0.000	18.2	57	1
03/18/19	8:36 a	-24.9	-24.9	-24.9	23.5	ESE	0.39	25.2	-41.1	715.7	0.030	0.000	18.2	57	1
03/18/19	8:37 a	-24.9	-24.9	-24.9	23.5	ESE	0.39	24.3	-41.1	715.6	0.030	0.000	18.2	57	1
03/18/19	8:38 a	-24.9	-24.9	-24.9	23.5	ESE	0.39	25.2	-41.1	715.6	0.030	0.000	18.2	58	1
03/18/19	8:39 a	-24.9	-24.9	-24.9	23.5	ESE	0.39	25.2	-41.1	715.6	0.030	0.000	18.2	57	1
03/18/19	8:40 a	-24.9	-24.9	-24.9	23.5	ESE	0.39	25.2	-41.2	715.7	0.030	0.000	18.2	58	1
03/18/19	8:41 a	-24.9	-24.9	-24.9	22.6	ESE	0.38	24.3	-40.9	715.7	0.030	0.000	18.2	58	1
03/18/19	8:42 a	-24.9	-24.9	-24.9	22.6	ESE	0.38	24.3	-40.9	715.7	0.030	0.000	18.2	57	1
03/18/19	8:43 a	-24.9	-24.9	-24.9	22.6	ESE	0.38	24.3	-40.9	715.8	0.030	0.000	18.2	57	1
03/18/19	8:44 a	-24.9	-24.9	-24.9	21.7	ESE	0.36	23.5	-40.7	715.8	0.030	0.000	18.2	57	1
03/18/19	8:45 a	-24.9	-24.9	-24.9	22.6	ESE	0.38	24.3	-40.9	715.8	0.030	0.000	18.2	57	1
03/18/19	8:46 a	-24.9	-24.9	-24.9	21.7	ESE	0.36	23.5	-40.7	715.8	0.030	0.000	18.2	57	1
03/18/19	8:47 a	-24.9	-24.9	-24.9	21.7	ESE	0.36	23.5	-40.7	715.8	0.030	0.000	18.2	57	1
03/18/19	8:48 a	-24.9	-24.9	-24.9	21.7	ESE	0.36	23.5	-40.7	715.8	0.030	0.000	18.2	57	1
03/18/19	8:49 a	-24.9	-24.9	-24.9	20.9	ESE	0.35	22.6	-40.4	715.9	0.030	0.000	18.2	58	1
03/18/19	8:50 a	-24.9	-24.9	-24.9	20.9	ESE	0.35	23.5	-40.4	715.8	0.030	0.000	18.2	57	1
03/18/19	8:51 a	-24.9	-24.9	-24.9	20.9	ESE	0.35	22.6	-40.4	715.8	0.030	0.000	18.2	58	1
03/18/19	8:52 a	-24.9	-24.9	-24.9	20.0	ESE	0.33	21.7	-40.2	715.9	0.030	0.000	18.2	57	1
03/18/19	8:53 a	-24.9	-24.9	-24.9	21.7	ESE	0.36	23.5	-40.7	715.9	0.030	0.000	18.2	57	1
03/18/19	8:54 a	-24.9	-24.9	-24.9	21.7	ESE	0.36	23.5	-40.7	715.9	0.030	0.000	18.2	57	1
03/18/19	8:55 a	-24.9	-24.9	-24.9	20.9	ESE	0.35	22.6	-40.4	715.8	0.030	0.000	18.2	58	1
03/18/19	8:56 a	-24.9	-24.9	-24.9	20.9	ESE	0.35	22.6	-40.4	716.0	0.030	0.000	18.2	57	1
03/18/19	8:57 a	-24.9	-24.9	-24.9	20.9	ESE	0.35	21.7	-40.4	715.9	0.030	0.000	18.1	57	1
03/18/19	8:58 a	-24.9	-24.9	-24.9	20.9	ESE	0.35	22.6	-40.4	715.9	0.030	0.000	18.1	58	1
03/18/19	8:59 a	-24.9	-24.9	-24.9	20.9	ESE	0.35	21.7	-40.4	715.9	0.030	0.000	18.1	58	1
03/18/19	9:00 a	-24.9	-24.9	-24.9	20.0	ESE	0.33	21.7	-40.2	716.0	0.030	0.000	18.1	57	1
03/18/19	9:01 a	-24.9	-24.9	-24.9	20.9	ESE	0.35	22.6	-40.4	715.9	0.030	0.000	18.1	57	1
03/18/19	9:02 a	-24.9	-24.9	-24.9	19.1	ESE	0.32	21.7	-39.9	716.0	0.030	0.000	18.1	57	1
03/18/19	9:03 a	-24.9	-24.9	-24.9	20.9	ESE	0.35	21.7	-40.4	716.0	0.030	0.000	18.1	57	1
03/18/19	9:04 a	-24.9	-24.9	-24.9	20.9	ESE	0.35	21.7	-40.4	716.0	0.030	0.000	18.1	57	1
03/18/19	9:05 a	-24.9	-24.9	-24.9	20.0	ESE	0.33	21.7	-40.1	716.0	0.030	0.000	18.1	57	1
03/18/19	9:06 a	-24.9	-24.9	-24.9	20.0	ESE	0.33	20.9	-40.1	716.0	0.030	0.000	18.2	57	1
03/18/19	9:07 a	-24.9	-24.9	-24.9	19.1	ESE	0.32	20.0	-39.8	716.1	0.030	0.000	18.2	57	1
03/18/19	9:08 a	-24.9	-24.9	-24.9	19.1	ESE	0.32	20.9	-39.8	716.0	0.030	0.000	18.2	57	1
03/18/19	9:09 a	-24.9	-24.9	-24.9	19.1	ESE	0.32	20.0	-39.8	716.1	0.030	0.000	18.2	57	1
03/18/19	9:10 a	-24.9	-24.9	-24.9	18.3	ESE	0.30	19.1	-39.6	716.1	0.030	0.000	18.2	57	1
03/18/19	9:11 a	-24.9	-24.9	-24.9	18.3	ESE	0.30	20.0	-39.6	716.1	0.030	0.000	18.2	57	1
03/18/19	9:12 a	-24.9	-24.9	-24.9	18.3	ESE	0.30	20.0	-39.6	716.0	0.030	0.000	18.2	57	1
03/18/19	9:13 a	-24.9	-24.9	-24.9	19.1	ESE	0.32	20.9	-39.8	716.1	0.030	0.000	18.2	57	1
03/18/19	9:14 a	-24.9	-24.9	-24.9	18.3	ESE	0.30	20.0	-39.6	716.1	0.030	0.000	18.2	57	1
03/18/19	9:15 a	-24.9	-24.9	-24.9	18.3	ESE	0.30	20.9	-39.6	716.1	0.030	0.000	18.2	57	1
03/18/19	9:16 a	-24.9	-24.9	-24.9	19.1	ESE	0.32	20.0	-39.8	716.0	0.030	0.000	18.2	57	1
03/18/19	9:17 a	-24.9	-24.9	-24.9	19.1	ESE	0.32	20.9	-39.8	716.0	0.030	0.000	18.2	57	1
03/18/19	9:18 a	-24.9	-24.9	-24.9	19.1	ESE	0.32	20.9	-39.8	716.0	0.030	0.000	18.2	57	1
03/18/19	9:19 a	-24.9	-24.9	-24.9	18.3	ESE	0.30	20.0	-39.6	716.0	0.030	0.000	18.2	57	1
03/18/19	9:20 a	-24.9	-24.9	-24.9	19.1	ESE	0.32	20.9	-39.8	716.0	0.030	0.000	18.2	57	1
03/18/19	9:21 a	-24.9	-24.9	-24.9	19.1	ESE	0.32	20.9	-39.8	716.0	0.030	0.000	18.2	57	1
03/18/19	9:22 a	-24.9	-24.9	-24.9	19.1	ESE	0.32	20.9	-39.8	716.0	0.030	0.000	18.2	57	1
03/18/19	9:23 a	-24.9	-24.9	-24.9	20.0	ESE	0.33	21.7	-40.1	716.0	0.030	0.000	18.2	57	1
03/18/19	9:24 a	-24.9	-24.9	-24.9	20.0	ESE	0.33	20.9	-40.1	716.0	0.030	0.000	18.2	57	1
03/18/19	9:25 a	-24.9	-24.9	-24.9	19.1	ESE	0.32	20.0	-39.8	716.0	0.030	0.000	18.2	57	1
03/18/19	9:26 a	-24.9	-24.9	-24.9	19.1	ESE	0.32	20.9	-39.8	716.0	0.030	0.000	18.2	57	1
03/18/19	9:27 a	-24.9	-24.9	-24.9	19.1	ESE	0.32	20.9	-39.8	716.0	0.030	0.000	18.2	57	1
03/18/19	9:28 a	-24.9	-24.9	-24.9	19.1	ESE	0.32	20.9	-39.8	716.0	0.030	0.000	18.2	57	1
03/18/19	9:29 a	-24.9	-24.9	-24.9	19.1	ESE	0.32	20.0	-39.8	716.1	0.030	0.000	18.2	57	1
03/18/19	9:30 a	-24.9	-24.9	-24.9	19.1	ESE	0.32	20.0	-39.8	716.0	0.030	0.000	18.2	57	1
03/18/19	9:31 a	-24.9	-24.9	-24.9	17.4	ESE	0.29	20.9	-39.3	716.0	0.030	0.000	18.2	57	1
03/18/19	9:32 a	-24.9	-24.9	-24.9	19.1	ESE	0.32	20.0	-39.8	716.1	0.030	0.000	18.2	57	1
03/18/19	9:33 a	-24.9	-24.9	-24.9	18.3	ESE	0.30	20.0	-39.6	716.1	0.030	0.000	18.2	57	1
03/18/19	9:34 a	-24.9	-24.9	-24.9	18.3	ESE	0.30	20.9	-39.6	716.1	0.030	0.000	18.2	57	1
03/18/19	9:35 a	-24.9	-24.9	-24.9	18.3	ESE	0.30	19.1	-39.6	716.1	0.030	0.000	18.2	57	1
03/18/19	9:36 a	-24.9	-24.9	-24.9	18.3	ESE	0.30	19.1	-39.6	716.1	0.030	0.000	18.2	57	1
03/18/19	9:37 a	-24.9	-24.9	-24.9	17.4	ESE	0.29	19.1	-39.3	716.1	0.030	0.000	18.2	57	1
03/18/19	9:38 a	-24.9	-24.9	-24.9	18.3	ESE	0.30	20.0	-39.6	716.1	0.030	0.000	18.2	57	1
03/18/19	9:39 a	-24.9	-24.9	-24.9	18.3	ESE	0.30	19.1	-39.6	716.1	0.030	0.000	18.2	57	1
03/18/19	9:40 a	-24.9	-24.9	-24.9	18.3	ESE	0.30	19.1	-39.6	716.1	0.030	0.000	18.2	57	1
03/18/19	9:41 a	-24.9	-24.9	-24.9	17.4	ESE	0.29	19.1	-39.3	716.1	0.030	0.000	18.2	57	1
03/18/19	9:42 a	-24.9	-24.9	-24.9	18.3	ESE	0.30	19.1	-39.6	716.2	0.030	0.000	18.2	57	1
03/18/19	9:43 a	-24.9	-24.9	-24.9	16.5	ESE	0.28	18.3	-39.1	716.2	0.030	0.000	18.2	57	1
03/18/19	9:44 a	-24.9	-24.9	-24.9	17.4	ESE	0.29	18.3	-39.3	716.2	0.030	0.000	18.2	57	1
03/18/19	9:45 a	-24.9	-24.9	-24.9	17.4	ESE	0.29	19.1	-39.3	716.2	0.030	0.000	18.2	57	1
03/18/19	9:46 a	-24.9	-24.9	-24.9	17.4	ESE	0.29	19.1	-39.3	716.2	0.030	0.000	18.2	57	1
03/18/19	9:47 a	-24.9	-24.9	-24.9	18.3	ESE	0.30	19.1	-39.6	716.2	0.030	0.000	18.2	57	1
03/18/19	9:48 a	-24.9	-24.9	-24.9	17.4	ESE	0.29	18.3	-39.3	716.2	0.030	0.000	18.2	57	1
03/18/19	9:49 a	-24.9	-24.9	-24.9	16.5	ESE	0.28	17.4	-38.9	716.2	0.030	0.000	18.2	57	1
03/18/19	9:50 a	-24.9	-24.9	-24.9	17.4	ESE	0.29	18.3	-39.3	716.2	0.030	0.000	18.2	57	1
03/18/19	9:51 a	-24.9	-24.8	-24.9	16.5	ESE	0.28	18.3	-38.9	716.2	0.030	0.000	18.2	57	1
03/18/19	9:52 a	-24.9	-24.8	-24.9	16.5	ESE	0.28	18.3	-38.9	716.2	0.030	0.000	18.2	57	1
03/18/19	9:53 a	-24.8	-24.8	-24.9	16.5	ESE	0.28	17.4	-38.9	716.2	0.030	0.000	18.2	57	1
03/18/19	9:54 a	-24.8	-24.8	-24.8	17.4	ESE	0.29	18.3	-39.2	716.2	0.030	0.000	18.2	57	1
03/18/19	9:55 a	-24.8	-24.8	-24.9	17.4	ESE	0.29	18.3	-39.2	716.2	0.030	0.000	18.2	57	1
03/18/19	9:56 a	-24.8	-24.8	-24.8	16.5	ESE	0.28	18.3	-38.9	716.2	0.030	0.000	18.2	57	1
03/18/19	9:57 a	-24.8	-24.8	-24.8	16.5	ESE	0.28	18.3	-38.9	716.2	0.030	0.000	18.2	57	1
03/18/19	9:58 a	-24.8	-24.8	-24.8	16.5	ESE	0.28	18.3	-38.9	716.2	0.030	0.000	18.2	57	1
03/18/19	9:59 a	-24.8	-24.8	-24.8	16.5	ESE	0.28	18.3	-38.9	716.2	0.030	0.000	18.2	57	1
03/18/19	10:00 a	-24.8	-24.8	-24.8	16.5	ESE	0.28	18.3	-38.8	716.2	0.030	0.000	18.2	57	1
03/18/19	10:01 a	-24.8	-24.8	-24.8	17.4	ESE	0.29	18.3	-39.1	716.2	0.030	0.000	18.2	57	1
03/18/19	10:02 a	-24.8	-24.8	-24.8	16.5	ESE	0.28	18.3	-38.8	716.1	0.030	0.000	18.2	57	1
03/18/19	10:03 a	-24.8	-24.8	-24.8	16.5	ESE	0.28	18.3	-38.8	716.2	0.030	0.000	18.2	57	1
03/18/19	10:04 a	-24.8	-24.8	-24.8	16.5	ESE	0.28	18.3	-38.8	716.3	0.030	0.000	18.2	57	1
03/18/19	10:05 a	-24.8	-24.7	-24.8	16.5	ESE	0.28	18.3	-38.8	716.2	0.030	0.000	18.2	57	1
03/18/19	10:06 a	-24.8	-24.8	-24.8	16.5	ESE	0.28	18.3	-38.8	716.2	0.030	0.000	18.2	57	1
03/18/19	10:07 a	-24.8	-24.8	-24.8	16.5	ESE	0.28	18.3	-38.8	716.3	0.030	0.000	18.2	57	1
03/18/19	10:08 a	-24.8	-24.7	-24.8	16.5	ESE	0.28	18.3	-38.8	716.2	0.030	0.000	18.2	57	1
03/18/19	10:09 a	-24.7	-24.7	-24.8	16.5	ESE	0.28	17.4	-38.8	716.3	0.030	0.000	18.2	57	1
03/18/19	10:10 a	-24.7	-24.7	-24.7	16.5	ESE	0.28	18.3	-38.8	716.3	0.030	0.000	18.2	57	1
03/18/19	10:11 a	-24.7	-24.7	-24.7	15.7	ESE	0.26	17.4	-38.4	716.3	0.030	0.000	18.2	57	1
03/18/19	10:12 a	-24.7	-24.7	-24.7	16.5	ESE	0.28	17.4	-38.8	716.2	0.030	0.000	18.2	57	1
03/18/19	10:13 a	-24.7	-24.7	-24.7	16.5	ESE	0.28	17.4	-38.8	716.2	0.030	0.000	18.2	57	1
03/18/19	10:14 a	-24.7	-24.7	-24.7	16.5	ESE	0.28	17.4	-38.8	716.2	0.030	0.000	18.2	57	1
03/18/19	10:15 a	-24.7	-24.7	-24.7	16.5	ESE	0.28	18.3	-38.8	716.2	0.030	0.000	18.2	57	1
03/18/19	10:16 a	-24.7	-24.7	-24.7	17.4	ESE	0.29	18.3	-39.0	716.2	0.030	0.000	18.2	57	1
03/18/19	10:17 a	-24.7	-24.7	-24.7	16.5	ESE	0.28	18.3	-38.7	716.2	0.030	0.000	18.2	57	1
03/18/19	10:18 a	-24.7	-24.7	-24.7	16.5	ESE	0.28	18.3	-38.7	716.2	0.030	0.000	18.2	57	1
03/18/19	10:19 a	-24.7	-24.6	-24.7	17.4	ESE	0.29	18.3	-39.0	716.2	0.030	0.000	18.2	57	1
03/18/19	10:20 a	-24.7	-24.6	-24.7	16.5	ESE	0.28	17.4	-38.7	716.2	0.030	0.000	18.2	57	1
03/18/19	10:21 a	-24.7	-24.6	-24.7	16.5	ESE	0.28	18.3	-38.7	716.2	0.030	0.000	18.2	57	1
03/18/19	10:22 a	-24.6	-24.6	-24.7	16.5	ESE	0.28	18.3	-38.6	716.2	0.030	0.000	18.2	57	1
03/18/19	10:23 a	-24.6	-24.6	-24.6	16.5	ESE	0.28	17.4	-38.6	716.2	0.030	0.000	18.2	57	1
03/18/19	10:24 a	-24.6	-24.6	-24.6	16.5	ESE	0.28	17.4	-38.6	716.3	0.030	0.000	18.2	57	1
03/18/19	10:25 a	-24.6	-24.6	-24.6	15.7	ESE	0.26	17.4	-38.3	716.2	0.030	0.000	18.2	57	1
03/18/19	10:26 a	-24.6	-24.6	-24.6	15.7	ESE	0.26	17.4	-38.3	716.2	0.030	0.000	18.2	57	1
03/18/19	10:27 a	-24.6	-24.6	-24.6	15.7	ESE	0.26	17.4	-38.3	716.2	0.030	0.000	18.2	57	1
03/18/19	10:28 a	-24.6	-24.6	-24.6	16.5	ESE	0.28	17.4	-38.6	716.2	0.030	0.000	18.2	57	1
03/18/19	10:29 a	-24.6	-24.6	-24.6	16.5	ESE	0.28	17.4	-38.6	716.2	0.030	0.000	18.2	57	1
03/18/19	10:30 a	-24.6	-24.6	-24.6	16.5	ESE	0.28	18.3	-38.6	716.2	0.030	0.000	18.2	57	1
03/18/19	10:31 a	-24.6	-24.6	-24.6	16.5	ESE	0.28	17.4	-38.6	716.2	0.030	0.000	18.2	57	1
03/18/19	10:32 a	-24.6	-24.6	-24.6	16.5	ESE	0.28	18.3	-38.6	716.2	0.030	0.000	18.2	57	1
03/18/19	10:33 a	-24.6	-24.6	-24.6	17.4	ESE	0.29	19.1	-38.8	716.3	0.030	0.000	18.2	57	1
03/18/19	10:34 a	-24.6	-24.6	-24.6	17.4	ESE	0.29	19.1	-38.8	716.3	0.030	0.000	18.2	57	1
03/18/19	10:35 a	-24.6	-24.6	-24.6	18.3	ESE	0.30	19.1	-39.1	716.2	0.030	0.000	18.2	57	1
03/18/19	10:36 a	-24.6	-24.6	-24.6	16.5	ESE	0.28	18.3	-38.6	716.2	0.030	0.000	18.2	57	1
03/18/19	10:37 a	-24.6	-24.6	-24.6	16.5	ESE	0.28	18.3	-38.6	716.3	0.030	0.000	18.2	57	1
03/18/19	10:38 a	-24.6	-24.6	-24.6	18.3	ESE	0.30	20.0	-39.1	716.2	0.030	0.000	18.2	57	1
03/18/19	10:39 a	-24.6	-24.6	-24.6	18.3	ESE	0.30	20.0	-39.1	716.2	0.030	0.000	18.2	57	1
03/18/19	10:40 a	-24.6	-24.5	-24.6	17.4	ESE	0.29	19.1	-38.8	716.2	0.030	0.000	18.2	57	1
03/18/19	10:41 a	-24.6	-24.5	-24.6	18.3	ESE	0.30	19.1	-39.1	716.3	0.030	0.000	18.2	57	1
03/18/19	10:42 a	-24.6	-24.5	-24.6	17.4	ESE	0.29	19.1	-38.8	716.3	0.030	0.000	18.2	57	1
03/18/19	10:43 a	-24.5	-24.5	-24.6	16.5	ESE	0.28	19.1	-38.4	716.3	0.030	0.000	18.2	57	1
03/18/19	10:44 a	-24.6	-24.6	-24.6	17.4	ESE	0.29	18.3	-38.8	716.3	0.030	0.000	18.2	57	1
03/18/19	10:45 a	-24.5	-24.5	-24.6	17.4	ESE	0.29	18.3	-38.8	716.3	0.030	0.000	18.2	57	1
03/18/19	10:46 a	-24.6	-24.5	-24.6	18.3	ESE	0.30	20.0	-39.1	716.2	0.030	0.000	18.2	57	1
03/18/19	10:47 a	-24.6	-24.5	-24.6	19.1	ESE	0.32	20.9	-39.4	716.3	0.030	0.000	18.2	57	1
03/18/19	10:48 a	-24.5	-24.5	-24.6	18.3	ESE	0.30	19.1	-39.1	716.2	0.030	0.000	18.3	57	1
03/18/19	10:49 a	-24.5	-24.5	-24.5	18.3	ESE	0.30	20.0	-39.1	716.2	0.030	0.000	18.3	57	1
03/18/19	10:50 a	-24.5	-24.5	-24.5	18.3	ESE	0.30	20.0	-39.1	716.3	0.030	0.000	18.3	57	1
03/18/19	10:51 a	-24.5	-24.5	-24.6	17.4	ESE	0.29	19.1	-38.8	716.2	0.030	0.000	18.2	57	1
03/18/19	10:52 a	-24.5	-24.5	-24.5	17.4	ESE	0.29	19.1	-38.8	716.2	0.030	0.000	18.2	57	1
03/18/19	10:53 a	-24.5	-24.4	-24.5	18.3	ESE	0.30	20.0	-39.1	716.2	0.030	0.000	18.2	57	1
03/18/19	10:54 a	-24.5	-24.5	-24.5	17.4	ESE	0.29	20.0	-38.8	716.2	0.030	0.000	18.2	57	1
03/18/19	10:55 a	-24.5	-24.5	-24.6	17.4	ESE	0.29	19.1	-38.8	716.3	0.030	0.000	18.3	57	1
03/18/19	10:56 a	-24.5	-24.5	-24.5	17.4	ESE	0.29	19.1	-38.8	716.3	0.030	0.000	18.3	57	1
03/18/19	10:57 a	-24.5	-24.5	-24.5	17.4	ESE	0.29	18.3	-38.8	716.3	0.030	0.000	18.3	57	1
03/18/19	10:58 a	-24.5	-24.5	-24.6	17.4	ESE	0.29	19.1	-38.8	716.3	0.030	0.000	18.3	57	1
03/18/19	10:59 a	-24.5	-24.5	-24.5	17.4	ESE	0.29	19.1	-38.8	716.3	0.030	0.000	18.3	57	1
03/18/19	11:00 a	-24.6	-24.5	-24.6	17.4	ESE	0.29	19.1	-38.8	716.3	0.030	0.000	18.3	57	1
03/18/19	11:01 a	-24.5	-24.5	-24.6	18.3	ESE	0.30	19.1	-39.1	716.3	0.030	0.000	18.3	57	1
03/18/19	11:02 a	-24.6	-24.5	-24.6	18.3	ESE	0.30	19.1	-39.1	716.3	0.030	0.000	18.3	57	1
03/18/19	11:03 a	-24.6	-24.5	-24.6	18.3	ESE	0.30	20.0	-39.1	716.3	0.030	0.000	18.3	57	1
03/18/19	11:04 a	-24.5	-24.5	-24.6	18.3	ESE	0.30	20.0	-39.1	716.3	0.030	0.000	18.3	57	1
03/18/19	11:05 a	-24.6	-24.5	-24.6	18.3	ESE	0.30	20.0	-39.1	716.3	0.030	0.000	18.3	57	1
03/18/19	11:06 a	-24.6	-24.5	-24.6	17.4	ESE	0.29	19.1	-38.8	716.3	0.030	0.000	18.3	57	1
03/18/19	11:07 a	-24.6	-24.5	-24.6	17.4	ESE	0.29	19.1	-38.8	716.3	0.030	0.000	18.3	57	1
03/18/19	11:08 a	-24.6	-24.6	-24.6	17.4	ESE	0.29	19.1	-38.8	716.4	0.030	0.000	18.3	57	1
03/18/19	11:09 a	-24.6	-24.6	-24.6	17.4	ESE	0.29	19.1	-38.8	716.4	0.030	0.000	18.3	57	1
03/18/19	11:10 a	-24.6	-24.6	-24.6	18.3	ESE	0.30	20.0	-39.1	716.3	0.030	0.000	18.3	57	1
03/18/19	11:11 a	-24.6	-24.6	-24.6	18.3	ESE	0.30	19.1	-39.1	716.3	0.030	0.000	18.3	57	1
03/18/19	11:12 a	-24.6	-24.6	-24.6	17.4	ESE	0.29	19.1	-38.8	716.3	0.030	0.000	18.3	57	1
03/18/19	11:13 a	-24.6	-24.6	-24.6	17.4	ESE	0.29	18.3	-38.8	716.3	0.030	0.000	18.3	57	1
03/18/19	11:14 a	-24.6	-24.6	-24.6	18.3	ESE	0.30	19.1	-39.1	716.3	0.030	0.000	18.3	57	1
03/18/19	11:15 a	-24.6	-24.6	-24.6	17.4	ESE	0.29	18.3	-38.8	716.4	0.030	0.000	18.3	57	1
03/18/19	11:16 a	-24.6	-24.6	-24.6	16.5	ESE	0.28	19.1	-38.6	716.4	0.030	0.000	18.3	57	1
03/18/19	11:17 a	-24.6	-24.6	-24.6	17.4	ESE	0.29	19.1	-38.8	716.4	0.030	0.000	18.3	57	1
03/18/19	11:18 a	-24.6	-24.6	-24.6	18.3	ESE	0.30	20.9	-39.1	716.2	0.030	0.000	18.3	57	1
03/18/19	11:19 a	-24.6	-24.6	-24.6	19.1	ESE	0.32	20.0	-39.4	716.3	0.030	0.000	18.3	57	1
03/18/19	11:20 a	-24.6	-24.6	-24.6	18.3	ESE	0.30	19.1	-39.1	716.2	0.030	0.000	18.3	57	1
03/18/19	11:21 a	-24.6	-24.6	-24.6	18.3	ESE	0.30	19.1	-39.1	716.3	0.030	0.000	18.3	57	1
03/18/19	11:22 a	-24.6	-24.6	-24.6	17.4	ESE	0.29	19.1	-38.9	716.3	0.030	0.000	18.3	57	1
03/18/19	11:23 a	-24.6	-24.6	-24.6	18.3	ESE	0.30	20.0	-39.2	716.2	0.030	0.000	18.3	57	1
03/18/19	11:24 a	-24.6	-24.6	-24.6	18.3	ESE	0.30	20.0	-39.2	716.3	0.030	0.000	18.3	57	1
03/18/19	11:25 a	-24.6	-24.6	-24.6	18.3	ESE	0.30	20.0	-39.1	716.2	0.030	0.000	18.3	57	1
03/18/19	11:26 a	-24.6	-24.6	-24.6	17.4	ESE	0.29	20.0	-38.9	716.2	0.030	0.000	18.3	57	1
03/18/19	11:27 a	-24.6	-24.6	-24.6	19.1	ESE	0.32	20.0	-39.4	716.2	0.030	0.000	18.3	57	1
03/18/19	11:28 a	-24.6	-24.6	-24.6	19.1	ESE	0.32	20.9	-39.4	716.2	0.030	0.000	18.3	57	1
03/18/19	11:29 a	-24.6	-24.6	-24.6	19.1	ESE	0.32	20.9	-39.4	716.2	0.030	0.000	18.3	57	1
03/18/19	11:30 a	-24.6	-24.6	-24.6	18.3	ESE	0.30	20.0	-39.2	716.2	0.030	0.000	18.3	57	1
03/18/19	11:31 a	-24.6	-24.6	-24.6	20.0	ESE	0.33	20.9	-39.7	716.2	0.030	0.000	18.3	57	1
03/18/19	11:32 a	-24.6	-24.6	-24.6	19.1	ESE	0.32	20.9	-39.4	716.2	0.030	0.000	18.3	57	1
03/18/19	11:33 a	-24.6	-24.6	-24.6	19.1	ESE	0.32	20.0	-39.4	716.2	0.030	0.000	18.3	57	1
03/18/19	11:34 a	-24.6	-24.6	-24.6	19.1	ESE	0.32	20.9	-39.4	716.2	0.030	0.000	18.3	57	1
03/18/19	11:35 a	-24.6	-24.6	-24.6	19.1	ESE	0.32	20.9	-39.4	716.2	0.030	0.000	18.3	57	1
03/18/19	11:36 a	-24.6	-24.6	-24.6	19.1	ESE	0.32	20.9	-39.4	716.2	0.030	0.000	18.3	57	1
03/18/19	11:37 a	-24.6	-24.6	-24.6	18.3	ESE	0.30	20.0	-39.2	716.2	0.030	0.000	18.3	57	1
03/18/19	11:38 a	-24.6	-24.6	-24.7	19.1	ESE	0.32	20.9	-39.4	716.2	0.030	0.000	18.3	57	1
03/18/19	11:39 a	-24.7	-24.6	-24.7	19.1	ESE	0.32	20.9	-39.6	716.2	0.030	0.000	18.3	57	1
03/18/19	11:40 a	-24.7	-24.6	-24.7	19.1	ESE	0.32	20.0	-39.6	716.2	0.030	0.000	18.3	57	1
03/18/19	11:41 a	-24.7	-24.7	-24.7	18.3	ESE	0.30	20.9	-39.3	716.2	0.030	0.000	18.3	57	1
03/18/19	11:42 a	-24.7	-24.6	-24.7	19.1	ESE	0.32	20.9	-39.6	716.2	0.030	0.000	18.3	57	1
03/18/19	11:43 a	-24.7	-24.7	-24.7	19.1	ESE	0.32	20.9	-39.6	716.2	0.030	0.000	18.3	57	1
03/18/19	11:44 a	-24.7	-24.7	-24.7	19.1	ESE	0.32	20.9	-39.6	716.2	0.030	0.000	18.3	58	1
03/18/19	11:45 a	-24.7	-24.7	-24.7	18.3	ESE	0.30	20.0	-39.3	716.2	0.030	0.000	18.3	57	1
03/18/19	11:46 a	-24.7	-24.7	-24.7	20.0	ESE	0.33	21.7	-39.9	716.2	0.030	0.000	18.3	57	1
03/18/19	11:47 a	-24.7	-24.7	-24.7	20.0	ESE	0.33	20.9	-39.9	716.2	0.030	0.000	18.3	57	1
03/18/19	11:48 a	-24.7	-24.7	-24.7	20.0	ESE	0.33	21.7	-39.9	716.2	0.030	0.000	18.3	57	1
03/18/19	11:49 a	-24.7	-24.7	-24.7	20.0	ESE	0.33	20.9	-39.9	716.3	0.030	0.000	18.3	57	1
03/18/19	11:50 a	-24.7	-24.7	-24.7	19.1	ESE	0.32	20.9	-39.6	716.2	0.030	0.000	18.3	57	1
03/18/19	11:51 a	-24.8	-24.7	-24.8	18.3	ESE	0.30	19.1	-39.4	716.3	0.030	0.000	18.3	57	1
03/18/19	11:52 a	-24.8	-24.8	-24.8	19.1	ESE	0.32	20.9	-39.7	716.2	0.030	0.000	18.3	57	1
03/18/19	11:53 a	-24.8	-24.8	-24.8	19.1	ESE	0.32	20.0	-39.7	716.2	0.030	0.000	18.3	57	1
03/18/19	11:54 a	-24.8	-24.8	-24.8	19.1	ESE	0.32	20.0	-39.7	716.2	0.030	0.000	18.3	57	1
03/18/19	11:55 a	-24.8	-24.8	-24.8	19.1	ESE	0.32	20.0	-39.7	716.2	0.030	0.000	18.4	57	1
03/18/19	11:56 a	-24.8	-24.8	-24.8	18.3	ESE	0.30	19.1	-39.4	716.3	0.030	0.000	18.4	57	1
03/18/19	11:57 a	-24.8	-24.8	-24.8	19.1	ESE	0.32	20.9	-39.8	716.3	0.030	0.000	18.4	57	1
03/18/19	11:58 a	-24.8	-24.8	-24.8	19.1	ESE	0.32	20.9	-39.8	716.3	0.030	0.000	18.4	57	1
03/18/19	11:59 a	-24.8	-24.8	-24.8	20.0	ESE	0.33	22.6	-40.1	716.2	0.030	0.000	18.4	57	1
03/18/19	12:00 p	-24.8	-24.8	-24.8	20.0	ESE	0.33	21.7	-40.1	716.3	0.030	0.000	18.4	57	1
03/18/19	12:01 p	-24.8	-24.8	-24.8	20.0	E	0.33	21.7	-40.1	716.2	0.030	0.000	18.4	57	1
03/18/19	12:02 p	-24.8	-24.8	-24.8	20.0	E	0.33	20.9	-40.1	716.3	0.030	0.000	18.4	57	1
03/18/19	12:03 p	-24.8	-24.8	-24.8	20.0	E	0.33	20.9	-40.1	716.3	0.030	0.000	18.4	57	1
03/18/19	12:04 p	-24.8	-24.8	-24.9	20.9	E	0.35	21.7	-40.3	716.3	0.030	0.000	18.4	57	1
03/18/19	12:05 p	-24.9	-24.8	-24.9	20.9	E	0.35	21.7	-40.4	716.3	0.030	0.000	18.4	57	1
03/18/19	12:06 p	-24.9	-24.9	-24.9	20.0	E	0.33	21.7	-40.1	716.3	0.030	0.000	18.3	57	1
03/18/19	12:07 p	-24.9	-24.9	-24.9	18.3	E	0.30	19.1	-39.6	716.3	0.030	0.000	18.3	57	1
03/18/19	12:08 p	-24.9	-24.8	-24.9	16.5	E	0.28	18.3	-38.9	716.3	0.030	0.000	18.3	57	1
03/18/19	12:09 p	-24.9	-24.9	-24.9	19.1	E	0.32	20.9	-39.8	716.3	0.030	0.000	18.3	57	1
03/18/19	12:10 p	-24.9	-24.9	-24.9	18.3	E	0.30	20.0	-39.6	716.4	0.030	0.000	18.2	57	1
03/18/19	12:11 p	-24.9	-24.9	-24.9	17.4	ESE	0.29	18.3	-39.3	716.4	0.030	0.000	18.2	57	1
03/18/19	12:12 p	-24.9	-24.9	-24.9	16.5	ESE	0.28	18.3	-39.1	716.5	0.030	0.000	18.2	57	1
03/18/19	12:13 p	-24.9	-24.9	-24.9	20.0	SE	0.33	20.9	-40.2	716.4	0.030	0.000	18.2	57	1
03/18/19	12:14 p	-24.9	-24.9	-25.0	20.0	SE	0.33	20.9	-40.2	716.4	0.030	0.000	18.1	57	1
03/18/19	12:15 p	-24.9	-24.9	-25.0	17.4	SE	0.29	21.7	-39.3	716.4	0.030	0.000	18.1	57	1
03/18/19	12:16 p	-24.9	-24.9	-24.9	20.0	SE	0.33	22.6	-40.2	716.3	0.030	0.000	18.1	57	1
03/18/19	12:17 p	-24.9	-24.9	-25.0	20.0	ESE	0.33	21.7	-40.2	716.4	0.030	0.000	18.1	57	1
03/18/19	12:18 p	-24.9	-24.9	-25.0	19.1	ESE	0.32	20.9	-39.9	716.4	0.030	0.000	18.1	57	1
03/18/19	12:19 p	-25.0	-24.9	-25.0	18.3	ESE	0.30	20.0	-39.7	716.5	0.030	0.000	18.1	57	1
03/18/19	12:20 p	-24.9	-24.9	-25.0	17.4	ESE	0.29	20.0	-39.3	716.5	0.030	0.000	18.1	57	1
03/18/19	12:21 p	-24.9	-24.9	-25.0	18.3	ESE	0.30	20.0	-39.6	716.4	0.030	0.000	18.1	57	1
03/18/19	12:22 p	-24.9	-24.9	-25.0	19.1	E	0.32	20.9	-39.9	716.4	0.030	0.000	18.1	57	1
03/18/19	12:23 p	-24.9	-24.9	-24.9	15.7	E	0.26	18.3	-38.7	716.5	0.030	0.000	18.1	57	1
03/18/19	12:24 p	-24.9	-24.9	-25.0	18.3	E	0.30	19.1	-39.6	716.5	0.030	0.000	18.1	57	1
03/18/19	12:25 p	-24.9	-24.9	-24.9	19.1	ESE	0.32	20.0	-39.9	716.4	0.030	0.000	18.1	57	1
03/18/19	12:26 p	-25.0	-24.9	-25.0	20.0	ESE	0.33	20.9	-40.3	716.4	0.030	0.000	18.1	57	1
03/18/19	12:27 p	-25.0	-24.9	-25.0	17.4	ESE	0.29	18.3	-39.4	716.5	0.030	0.000	18.1	57	1
03/18/19	12:28 p	-24.9	-24.9	-25.0	15.7	ESE	0.26	17.4	-38.7	716.5	0.030	0.000	18.1	57	1
03/18/19	12:29 p	-24.9	-24.9	-25.0	16.5	ESE	0.28	17.4	-39.1	716.5	0.030	0.000	18.1	57	1
03/18/19	12:30 p	-24.9	-24.9	-24.9	16.5	ESE	0.28	17.4	-39.1	716.5	0.030	0.000	18.1	57	1
03/18/19	12:31 p	-25.0	-24.9	-25.0	15.7	ESE	0.26	20.0	-38.8	716.4	0.030	0.000	18.1	57	1
03/18/19	12:32 p	-25.0	-24.9	-25.0	19.1	ESE	0.32	20.9	-40.0	716.4	0.030	0.000	18.1	57	1
03/18/19	12:33 p	-25.0	-24.9	-25.0	16.5	ESE	0.28	20.0	-39.1	716.5	0.030	0.000	18.1	57	1
03/18/19	12:34 p	-25.0	-24.9	-25.0	16.5	ESE	0.28	18.3	-39.1	716.4	0.030	0.000	18.2	57	1
03/18/19	12:35 p	-25.0	-24.9	-25.0	19.1	ESE	0.32	20.9	-40.0	716.4	0.030	0.000	18.2	57	1
03/18/19	12:36 p	-25.0	-24.9	-25.0	17.4	ESE	0.29	19.1	-39.4	716.5	0.030	0.000	18.2	57	1
03/18/19	12:37 p	-25.0	-24.9	-25.0	18.3	ESE	0.30	20.0	-39.7	716.4	0.030	0.000	18.2	57	1
03/18/19	12:38 p	-25.0	-25.0	-25.0	16.5	ESE	0.28	18.3	-39.1	716.5	0.030	0.000	18.2	57	1
03/18/19	12:39 p	-25.0	-24.9	-25.0	16.5	ESE	0.28	19.1	-39.1	716.4	0.030	0.000	18.2	57	1
03/18/19	12:40 p	-25.0	-25.0	-25.0	18.3	ESE	0.30	19.1	-39.7	716.3	0.030	0.000	18.2	57	1
03/18/19	12:41 p	-25.0	-24.9	-25.0	17.4	ESE	0.29	19.1	-39.4	716.3	0.030	0.000	18.2	57	1
03/18/19	12:42 p	-25.0	-24.9	-25.0	19.1	ESE	0.32	22.6	-40.0	716.4	0.030	0.000	18.2	57	1
03/18/19	12:43 p	-25.0	-24.9	-25.0	18.3	ESE	0.30	23.5	-39.7	716.4	0.030	0.000	18.2	57	1
03/18/19	12:44 p	-25.0	-24.9	-25.0	20.9	ESE	0.35	21.7	-40.5	716.3	0.030	0.000	18.2	57	1
03/18/19	12:45 p	-25.0	-24.9	-25.0	19.1	ESE	0.32	20.9	-40.0	716.3	0.030	0.000	18.2	57	1
03/18/19	12:46 p	-25.0	-24.9	-25.0	20.0	ESE	0.33	21.7	-40.3	716.2	0.030	0.000	18.2	57	1
03/18/19	12:47 p	-25.0	-25.0	-25.0	20.0	ESE	0.33	20.9	-40.3	716.3	0.030	0.000	18.2	57	1
03/18/19	12:48 p	-25.0	-25.0	-25.0	19.1	ESE	0.32	20.9	-40.0	716.2	0.030	0.000	18.2	57	1
03/18/19	12:49 p	-25.0	-25.0	-25.0	18.3	ESE	0.30	20.0	-39.7	716.3	0.030	0.000	18.2	57	1
03/18/19	12:50 p	-25.0	-25.0	-25.0	18.3	ESE	0.30	20.0	-39.7	716.2	0.030	0.000	18.2	57	1
03/18/19	12:51 p	-25.0	-25.0	-25.0	18.3	ESE	0.30	20.0	-39.7	716.2	0.030	0.000	18.2	57	1
03/18/19	12:52 p	-25.0	-25.0	-25.0	19.1	ESE	0.32	20.0	-40.0	716.3	0.030	0.000	18.3	57	1
03/18/19	12:53 p	-25.0	-25.0	-25.0	19.1	ESE	0.32	20.9	-40.0	716.2	0.030	0.000	18.3	57	1
03/18/19	12:54 p	-25.0	-25.0	-25.1	20.0	ESE	0.33	20.9	-40.3	716.3	0.030	0.000	18.3	57	1
03/18/19	12:55 p	-25.0	-25.0	-25.1	19.1	ESE	0.32	20.9	-40.0	716.2	0.030	0.000	18.3	57	1
03/18/19	12:56 p	-25.1	-25.0	-25.1	20.9	ESE	0.35	22.6	-40.6	716.2	0.030	0.000	18.3	57	1
03/18/19	12:57 p	-25.1	-25.1	-25.1	20.0	ESE	0.33	20.9	-40.3	716.3	0.030	0.000	18.3	57	1
03/18/19	12:58 p	-25.1	-25.1	-25.1	19.1	ESE	0.32	20.0	-40.1	716.2	0.030	0.000	18.3	57	1
03/18/19	12:59 p	-25.1	-25.0	-25.1	18.3	ESE	0.30	20.0	-39.8	716.3	0.030	0.000	18.3	57	1
03/18/19	1:00 p	-25.1	-25.0	-25.1	19.1	ESE	0.32	20.9	-40.1	716.2	0.030	0.000	18.3	57	1
03/18/19	1:01 p	-25.1	-25.1	-25.1	20.0	ESE	0.33	21.7	-40.4	716.2	0.030	0.000	18.3	57	1
03/18/19	1:02 p	-25.1	-25.1	-25.2	20.9	ESE	0.35	21.7	-40.7	716.2	0.030	0.000	18.3	57	1
03/18/19	1:03 p	-25.2	-25.2	-25.2	20.0	ESE	0.33	21.7	-40.5	716.2	0.030	0.000	18.3	57	1
03/18/19	1:04 p	-25.2	-25.2	-25.2	19.1	ESE	0.32	20.0	-40.2	716.2	0.030	0.000	18.3	57	1
03/18/19	1:05 p	-25.2	-25.2	-25.2	18.3	ESE	0.30	20.0	-39.9	716.2	0.030	0.000	18.3	57	1
03/18/19	1:06 p	-25.2	-25.2	-25.2	18.3	ESE	0.30	19.1	-40.0	716.2	0.030	0.000	18.3	57	1
03/18/19	1:07 p	-25.2	-25.2	-25.2	18.3	ESE	0.30	19.1	-40.0	716.2	0.030	0.000	18.3	57	1
03/18/19	1:08 p	-25.2	-25.2	-25.3	16.5	ESE	0.28	18.3	-39.4	716.3	0.030	0.000	18.3	57	1
03/18/19	1:09 p	-25.3	-25.3	-25.3	17.4	ESE	0.29	19.1	-39.8	716.3	0.030	0.000	18.3	57	1
03/18/19	1:10 p	-25.3	-25.3	-25.3	18.3	ESE	0.30	20.0	-40.1	716.2	0.030	0.000	18.4	57	1
03/18/19	1:11 p	-25.3	-25.3	-25.3	20.0	ESE	0.33	20.9	-40.7	716.2	0.030	0.000	18.4	57	1
03/18/19	1:12 p	-25.3	-25.3	-25.4	19.1	ESE	0.32	20.0	-40.4	716.2	0.030	0.000	18.4	57	1
03/18/19	1:13 p	-25.3	-25.3	-25.4	19.1	ESE	0.32	20.0	-40.4	716.2	0.030	0.000	18.4	57	1
03/18/19	1:14 p	-25.4	-25.3	-25.4	20.0	ESE	0.33	21.7	-40.8	716.2	0.030	0.000	18.4	57	1
03/18/19	1:15 p	-25.4	-25.4	-25.4	20.0	ESE	0.33	20.9	-40.8	716.2	0.030	0.000	18.4	57	1
03/18/19	1:16 p	-25.4	-25.4	-25.4	19.1	ESE	0.32	20.9	-40.6	716.2	0.030	0.000	18.4	57	1
03/18/19	1:17 p	-25.4	-25.4	-25.4	18.3	ESE	0.30	20.0	-40.3	716.2	0.030	0.000	18.4	58	1
03/18/19	1:18 p	-25.4	-25.4	-25.4	18.3	ESE	0.30	19.1	-40.3	716.3	0.030	0.000	18.4	57	1
03/18/19	1:19 p	-25.4	-25.4	-25.5	18.3	ESE	0.30	20.0	-40.3	716.2	0.030	0.000	18.5	58	1
03/18/19	1:20 p	-25.5	-25.5	-25.5	18.3	ESE	0.30	20.0	-40.4	716.3	0.030	0.000	18.5	58	1
03/18/19	1:21 p	-25.5	-25.5	-25.5	18.3	ESE	0.30	20.0	-40.4	716.3	0.030	0.000	18.5	57	1
03/18/19	1:22 p	-25.5	-25.5	-25.5	18.3	ESE	0.30	19.1	-40.4	716.2	0.030	0.000	18.5	57	1
03/18/19	1:23 p	-25.5	-25.5	-25.6	20.0	ESE	0.33	20.9	-40.9	716.3	0.030	0.000	18.5	57	1
03/18/19	1:24 p	-25.6	-25.5	-25.6	18.3	ESE	0.30	19.1	-40.4	716.3	0.030	0.000	18.5	57	1
03/18/19	1:25 p	-25.6	-25.5	-25.6	19.1	ESE	0.32	20.0	-40.7	716.3	0.030	0.000	18.6	57	1
03/18/19	1:26 p	-25.6	-25.6	-25.6	19.1	ESE	0.32	20.0	-40.7	716.3	0.030	0.000	18.6	57	1
03/18/19	1:27 p	-25.6	-25.6	-25.6	19.1	ESE	0.32	20.0	-40.7	716.2	0.030	0.000	18.6	57	1
03/18/19	1:28 p	-25.6	-25.6	-25.6	19.1	ESE	0.32	20.0	-40.7	716.3	0.030	0.000	18.6	57	1
03/18/19	1:29 p	-25.6	-25.6	-25.6	19.1	ESE	0.32	20.9	-40.8	716.2	0.031	0.000	18.6	57	1
03/18/19	1:30 p	-25.6	-25.6	-25.6	20.0	ESE	0.33	20.9	-41.0	716.3	0.030	0.000	18.6	57	1
03/18/19	1:31 p	-25.6	-25.6	-25.6	20.0	ESE	0.33	20.9	-41.1	716.2	0.031	0.000	18.6	57	1
03/18/19	1:32 p	-25.6	-25.6	-25.6	18.3	ESE	0.30	20.0	-40.5	716.3	0.031	0.000	18.6	57	1
03/18/19	1:33 p	-25.6	-25.6	-25.6	18.3	ESE	0.30	20.0	-40.5	716.3	0.031	0.000	18.6	58	1
03/18/19	1:34 p	-25.6	-25.6	-25.6	18.3	ESE	0.30	19.1	-40.5	716.3	0.031	0.000	18.7	57	1
03/18/19	1:35 p	-25.6	-25.6	-25.6	18.3	ESE	0.30	19.1	-40.5	716.3	0.031	0.000	18.7	57	1
03/18/19	1:36 p	-25.6	-25.6	-25.7	18.3	ESE	0.30	19.1	-40.5	716.3	0.031	0.000	18.7	57	1
03/18/19	1:37 p	-25.6	-25.6	-25.6	19.1	ESE	0.32	20.0	-40.8	716.2	0.031	0.000	18.7	57	1
03/18/19	1:38 p	-25.6	-25.6	-25.7	19.1	ESE	0.32	20.0	-40.8	716.3	0.031	0.000	18.7	57	1
03/18/19	1:39 p	-25.6	-25.6	-25.7	20.0	ESE	0.33	20.9	-41.1	716.2	0.031	0.000	18.7	58	1
03/18/19	1:40 p	-25.7	-25.6	-25.7	20.0	ESE	0.33	21.7	-41.2	716.3	0.031	0.000	18.7	58	1
03/18/19	1:41 p	-25.7	-25.6	-25.7	19.1	ESE	0.32	21.7	-40.9	716.3	0.031	0.000	18.7	58	1
03/18/19	1:42 p	-25.7	-25.7	-25.7	20.0	ESE	0.33	22.6	-41.2	716.2	0.031	0.000	18.7	58	1
03/18/19	1:43 p	-25.7	-25.6	-25.7	20.9	ESE	0.35	22.6	-41.4	716.2	0.031	0.000	18.7	57	1
03/18/19	1:44 p	-25.7	-25.7	-25.7	20.9	ESE	0.35	22.6	-41.4	716.1	0.031	0.000	18.7	57	1
03/18/19	1:45 p	-25.7	-25.6	-25.7	20.9	ESE	0.35	22.6	-41.4	716.2	0.031	0.000	18.7	57	1
03/18/19	1:46 p	-25.7	-25.7	-25.7	20.9	ESE	0.35	20.9	-41.4	716.2	0.031	0.000	18.7	57	1
03/18/19	1:47 p	-25.7	-25.7	-25.7	21.7	ESE	0.36	24.3	-41.7	716.1	0.031	0.000	18.7	57	1
03/18/19	1:48 p	-25.7	-25.7	-25.7	21.7	ESE	0.36	23.5	-41.7	716.1	0.031	0.000	18.7	57	1
03/18/19	1:49 p	-25.7	-25.7	-25.7	20.9	ESE	0.35	22.6	-41.4	716.2	0.031	0.000	18.7	57	1
03/18/19	1:50 p	-25.7	-25.7	-25.7	20.0	ESE	0.33	21.7	-41.2	716.2	0.031	0.000	18.7	57	1
03/18/19	1:51 p	-25.7	-25.7	-25.7	20.9	ESE	0.35	21.7	-41.4	716.1	0.031	0.000	18.7	57	1
03/18/19	1:52 p	-25.7	-25.7	-25.7	21.7	ESE	0.36	22.6	-41.7	716.1	0.031	0.000	18.7	57	1
03/18/19	1:53 p	-25.7	-25.7	-25.7	20.9	ESE	0.35	22.6	-41.4	716.1	0.031	0.000	18.7	57	1
03/18/19	1:54 p	-25.7	-25.7	-25.7	20.9	ESE	0.35	22.6	-41.4	716.1	0.031	0.000	18.7	57	1
03/18/19	1:55 p	-25.7	-25.7	-25.7	21.7	ESE	0.36	22.6	-41.7	716.1	0.031	0.000	18.7	57	1
03/18/19	1:56 p	-25.7	-25.7	-25.7	20.9	ESE	0.35	21.7	-41.4	716.2	0.031	0.000	18.7	57	1
03/18/19	1:57 p	-25.7	-25.7	-25.7	20.9	ESE	0.35	22.6	-41.4	716.1	0.031	0.000	18.7	57	1
03/18/19	1:58 p	-25.7	-25.7	-25.7	19.1	ESE	0.32	20.9	-40.9	716.2	0.031	0.000	18.7	57	1
03/18/19	1:59 p	-25.7	-25.7	-25.7	19.1	ESE	0.32	20.9	-40.9	716.2	0.031	0.000	18.7	57	1
03/18/19	2:00 p	-25.7	-25.7	-25.7	20.0	ESE	0.33	20.9	-41.2	716.2	0.031	0.000	18.7	58	1
03/18/19	2:01 p	-25.7	-25.7	-25.7	19.1	ESE	0.32	20.9	-40.9	716.2	0.031	0.000	18.7	57	1
03/18/19	2:02 p	-25.7	-25.7	-25.7	20.0	ESE	0.33	20.9	-41.2	716.1	0.031	0.000	18.7	57	1
03/18/19	2:03 p	-25.7	-25.7	-25.7	19.1	ESE	0.32	20.9	-40.9	716.2	0.031	0.000	18.7	57	1
03/18/19	2:04 p	-25.7	-25.7	-25.7	20.0	ESE	0.33	20.9	-41.2	716.2	0.031	0.000	18.7	57	1
03/18/19	2:05 p	-25.7	-25.7	-25.7	20.0	ESE	0.33	20.9	-41.2	716.2	0.031	0.000	18.7	57	1
03/18/19	2:06 p	-25.7	-25.7	-25.7	19.1	ESE	0.32	20.0	-40.9	716.2	0.031	0.000	18.7	57	1
03/18/19	2:07 p	-25.7	-25.6	-25.7	19.1	ESE	0.32	20.0	-40.9	716.1	0.031	0.000	18.7	57	1
03/18/19	2:08 p	-25.7	-25.7	-25.7	18.3	ESE	0.30	20.0	-40.6	716.2	0.031	0.000	18.7	58	1
03/18/19	2:09 p	-25.7	-25.7	-25.7	19.1	ESE	0.32	20.0	-40.9	716.2	0.031	0.000	18.7	57	1
03/18/19	2:10 p	-25.7	-25.7	-25.7	18.3	ESE	0.30	20.0	-40.6	716.2	0.031	0.000	18.7	57	1
03/18/19	2:11 p	-25.7	-25.7	-25.7	19.1	ESE	0.32	20.0	-40.9	716.2	0.031	0.000	18.7	57	1
03/18/19	2:12 p	-25.7	-25.7	-25.7	18.3	ESE	0.30	20.0	-40.6	716.2	0.031	0.000	18.7	57	1
03/18/19	2:13 p	-25.7	-25.7	-25.7	18.3	ESE	0.30	20.9	-40.6	716.2	0.031	0.000	18.7	57	1
03/18/19	2:14 p	-25.7	-25.7	-25.7	19.1	ESE	0.32	20.0	-40.9	716.2	0.031	0.000	18.7	57	1
03/18/19	2:15 p	-25.7	-25.7	-25.7	18.3	ESE	0.30	20.0	-40.6	716.2	0.031	0.000	18.7	57	1
03/18/19	2:16 p	-25.7	-25.7	-25.7	18.3	ESE	0.30	19.1	-40.6	716.2	0.031	0.000	18.7	57	1
03/18/19	2:17 p	-25.7	-25.7	-25.7	17.4	ESE	0.29	19.1	-40.3	716.2	0.031	0.000	18.7	57	1
03/18/19	2:18 p	-25.7	-25.7	-25.7	18.3	ESE	0.30	19.1	-40.6	716.2	0.031	0.000	18.7	57	1
03/18/19	2:19 p	-25.7	-25.7	-25.7	18.3	ESE	0.30	20.0	-40.6	716.2	0.031	0.000	18.7	57	1
03/18/19	2:20 p	-25.7	-25.7	-25.7	18.3	ESE	0.30	19.1	-40.6	716.1	0.031	0.000	18.7	57	1
03/18/19	2:21 p	-25.7	-25.7	-25.7	17.4	ESE	0.29	19.1	-40.3	716.2	0.031	0.000	18.7	57	1
03/18/19	2:22 p	-25.7	-25.7	-25.7	18.3	ESE	0.30	20.0	-40.6	716.3	0.031	0.000	18.7	57	1
03/18/19	2:23 p	-25.7	-25.7	-25.7	20.0	ESE	0.33	20.0	-41.2	716.2	0.031	0.000	18.7	57	1
03/18/19	2:24 p	-25.7	-25.7	-25.7	18.3	ESE	0.30	19.1	-40.6	716.2	0.031	0.000	18.7	58	1
03/18/19	2:25 p	-25.7	-25.7	-25.7	19.1	ESE	0.32	20.9	-40.9	716.1	0.031	0.000	18.7	57	1
03/18/19	2:26 p	-25.7	-25.7	-25.7	19.1	ESE	0.32	20.9	-40.9	716.2	0.031	0.000	18.7	57	1
03/18/19	2:27 p	-25.7	-25.7	-25.7	19.1	ESE	0.32	20.9	-40.9	716.2	0.031	0.000	18.7	57	1
03/18/19	2:28 p	-25.7	-25.7	-25.7	18.3	ESE	0.30	19.1	-40.6	716.2	0.031	0.000	18.7	57	1
03/18/19	2:29 p	-25.7	-25.7	-25.7	16.5	ESE	0.28	18.3	-40.0	716.3	0.031	0.000	18.7	57	1
03/18/19	2:30 p	-25.7	-25.7	-25.7	16.5	ESE	0.28	18.3	-40.0	716.2	0.031	0.000	18.7	57	1
03/18/19	2:31 p	-25.7	-25.7	-25.7	18.3	ESE	0.30	19.1	-40.7	716.2	0.031	0.000	18.7	57	1
03/18/19	2:32 p	-25.7	-25.7	-25.7	18.3	ESE	0.30	20.0	-40.7	716.2	0.031	0.000	18.7	58	1
03/18/19	2:33 p	-25.7	-25.7	-25.7	17.4	ESE	0.29	19.1	-40.4	716.2	0.031	0.000	18.7	58	1
03/18/19	2:34 p	-25.7	-25.7	-25.7	17.4	ESE	0.29	19.1	-40.3	716.3	0.031	0.000	18.7	58	1
03/18/19	2:35 p	-25.7	-25.7	-25.7	17.4	ESE	0.29	19.1	-40.4	716.2	0.031	0.000	18.7	58	1
03/18/19	2:36 p	-25.7	-25.7	-25.7	17.4	ESE	0.29	18.3	-40.3	716.3	0.031	0.000	18.7	57	1
03/18/19	2:37 p	-25.7	-25.7	-25.7	16.5	ESE	0.28	18.3	-40.0	716.2	0.031	0.000	18.6	58	1
03/18/19	2:38 p	-25.7	-25.7	-25.7	18.3	ESE	0.30	19.1	-40.6	716.3	0.031	0.000	18.6	57	1
03/18/19	2:39 p	-25.7	-25.7	-25.7	17.4	ESE	0.29	18.3	-40.4	716.3	0.031	0.000	18.6	57	1
03/18/19	2:40 p	-25.7	-25.7	-25.7	16.5	ESE	0.28	17.4	-40.1	716.3	0.031	0.000	18.5	57	1
03/18/19	2:41 p	-25.7	-25.7	-25.7	16.5	ESE	0.28	17.4	-40.0	716.3	0.031	0.000	18.5	57	1
03/18/19	2:42 p	-25.7	-25.7	-25.7	15.7	ESE	0.26	17.4	-39.7	716.2	0.031	0.000	18.4	57	1
03/18/19	2:43 p	-25.7	-25.7	-25.7	16.5	ESE	0.28	17.4	-40.0	716.3	0.031	0.000	18.4	57	1
03/18/19	2:44 p	-25.7	-25.7	-25.7	16.5	ESE	0.28	17.4	-40.1	716.3	0.031	0.000	18.3	57	1
03/18/19	2:45 p	-25.7	-25.7	-25.7	17.4	ESE	0.29	19.1	-40.4	716.2	0.031	0.000	18.3	57	1
03/18/19	2:46 p	-25.7	-25.7	-25.7	18.3	ESE	0.30	19.1	-40.7	716.2	0.031	0.000	18.3	57	1
03/18/19	2:47 p	-25.7	-25.7	-25.7	18.3	ESE	0.30	20.0	-40.7	716.3	0.031	0.000	18.3	57	1
03/18/19	2:48 p	-25.7	-25.7	-25.7	18.3	ESE	0.30	20.0	-40.6	716.2	0.031	0.000	18.3	57	1
03/18/19	2:49 p	-25.7	-25.7	-25.7	18.3	ESE	0.30	19.1	-40.7	716.2	0.031	0.000	18.3	57	1
03/18/19	2:50 p	-25.7	-25.7	-25.7	18.3	ESE	0.30	19.1	-40.7	716.3	0.031	0.000	18.3	57	1
03/18/19	2:51 p	-25.7	-25.7	-25.7	19.1	ESE	0.32	20.0	-40.9	716.2	0.031	0.000	18.3	57	1
03/18/19	2:52 p	-25.7	-25.7	-25.7	18.3	ESE	0.30	19.1	-40.7	716.2	0.031	0.000	18.3	57	1
03/18/19	2:53 p	-25.7	-25.7	-25.7	18.3	ESE	0.30	19.1	-40.7	716.2	0.031	0.000	18.3	57	1
03/18/19	2:54 p	-25.7	-25.7	-25.7	18.3	ESE	0.30	19.1	-40.7	716.2	0.031	0.000	18.3	57	1
03/18/19	2:55 p	-25.7	-25.7	-25.7	18.3	ESE	0.30	19.1	-40.7	716.3	0.031	0.000	18.3	57	1
03/18/19	2:56 p	-25.7	-25.7	-25.7	18.3	ESE	0.30	19.1	-40.7	716.3	0.031	0.000	18.3	57	1
03/18/19	2:57 p	-25.7	-25.7	-25.7	18.3	ESE	0.30	19.1	-40.6	716.2	0.031	0.000	18.3	57	1
03/18/19	2:58 p	-25.7	-25.7	-25.7	18.3	ESE	0.30	20.0	-40.6	716.2	0.031	0.000	18.3	57	1
03/18/19	2:59 p	-25.7	-25.7	-25.7	18.3	ESE	0.30	20.0	-40.6	716.2	0.031	0.000	18.3	57	1
03/18/19	3:00 p	-25.7	-25.7	-25.7	19.1	ESE	0.32	20.0	-40.9	716.2	0.031	0.000	18.3	57	1
03/18/19	3:01 p	-25.7	-25.7	-25.7	19.1	ESE	0.32	20.9	-40.9	716.2	0.031	0.000	18.4	57	1
03/18/19	3:02 p	-25.7	-25.7	-25.7	20.0	ESE	0.33	20.9	-41.2	716.2	0.031	0.000	18.4	57	1
03/18/19	3:03 p	-25.7	-25.7	-25.7	20.0	ESE	0.33	20.9	-41.2	716.2	0.031	0.000	18.4	57	1
03/18/19	3:04 p	-25.7	-25.6	-25.7	19.1	ESE	0.32	20.0	-40.9	716.3	0.031	0.000	18.4	57	1
03/18/19	3:05 p	-25.6	-25.6	-25.7	20.0	ESE	0.33	20.9	-41.1	716.3	0.031	0.000	18.4	57	1
03/18/19	3:06 p	-25.6	-25.6	-25.7	19.1	ESE	0.32	20.0	-40.8	716.3	0.031	0.000	18.4	57	1
03/18/19	3:07 p	-25.6	-25.6	-25.7	19.1	ESE	0.32	20.9	-40.8	716.2	0.031	0.000	18.4	57	1
03/18/19	3:08 p	-25.6	-25.6	-25.6	19.1	ESE	0.32	20.0	-40.8	716.2	0.031	0.000	18.4	57	1
03/18/19	3:09 p	-25.6	-25.6	-25.6	19.1	ESE	0.32	20.9	-40.8	716.3	0.031	0.000	18.4	57	1
03/18/19	3:10 p	-25.6	-25.6	-25.6	18.3	ESE	0.30	20.0	-40.5	716.2	0.031	0.000	18.4	57	1
03/18/19	3:11 p	-25.6	-25.6	-25.6	19.1	ESE	0.32	20.0	-40.8	716.3	0.031	0.000	18.4	57	1
03/18/19	3:12 p	-25.6	-25.6	-25.6	19.1	ESE	0.32	20.0	-40.8	716.3	0.031	0.000	18.4	57	1
03/18/19	3:13 p	-25.6	-25.6	-25.6	19.1	ESE	0.32	20.0	-40.7	716.3	0.030	0.000	18.4	57	1
03/18/19	3:14 p	-25.6	-25.6	-25.6	19.1	ESE	0.32	20.0	-40.7	716.3	0.030	0.000	18.4	57	1
03/18/19	3:15 p	-25.6	-25.6	-25.6	19.1	ESE	0.32	20.9	-40.7	716.2	0.030	0.000	18.4	57	1
03/18/19	3:16 p	-25.6	-25.6	-25.6	18.3	ESE	0.30	20.0	-40.4	716.2	0.030	0.000	18.4	57	1
03/18/19	3:17 p	-25.5	-25.5	-25.6	18.3	ESE	0.30	20.9	-40.4	716.2	0.030	0.000	18.4	57	1
03/18/19	3:18 p	-25.5	-25.5	-25.6	20.0	ESE	0.33	20.9	-40.9	716.2	0.030	0.000	18.4	57	1
03/18/19	3:19 p	-25.5	-25.5	-25.5	20.9	ESE	0.35	22.6	-41.2	716.2	0.030	0.000	18.4	57	1
03/18/19	3:20 p	-25.5	-25.5	-25.5	20.0	ESE	0.33	21.7	-40.9	716.2	0.030	0.000	18.4	57	1
03/18/19	3:21 p	-25.5	-25.4	-25.5	20.0	ESE	0.33	21.7	-40.9	716.2	0.030	0.000	18.4	57	1
03/18/19	3:22 p	-25.5	-25.4	-25.5	20.0	ESE	0.33	20.9	-40.9	716.2	0.030	0.000	18.4	57	1
03/18/19	3:23 p	-25.4	-25.4	-25.5	18.3	ESE	0.30	20.0	-40.3	716.3	0.030	0.000	18.4	57	1
03/18/19	3:24 p	-25.4	-25.4	-25.4	20.0	ESE	0.33	21.7	-40.8	716.3	0.030	0.000	18.4	57	1
03/18/19	3:25 p	-25.4	-25.4	-25.4	20.0	ESE	0.33	20.9	-40.8	716.3	0.030	0.000	18.4	57	1
03/18/19	3:26 p	-25.4	-25.4	-25.4	20.0	ESE	0.33	20.9	-40.8	716.3	0.030	0.000	18.4	57	1
03/18/19	3:27 p	-25.4	-25.4	-25.4	19.1	ESE	0.32	20.0	-40.5	716.3	0.030	0.000	18.4	57	1
03/18/19	3:28 p	-25.4	-25.4	-25.4	19.1	ESE	0.32	20.0	-40.5	716.3	0.030	0.000	18.4	57	1
03/18/19	3:29 p	-25.4	-25.4	-25.4	20.0	ESE	0.33	20.9	-40.8	716.3	0.030	0.000	18.4	57	1
03/18/19	3:30 p	-25.4	-25.3	-25.4	18.3	ESE	0.30	20.0	-40.2	716.3	0.030	0.000	18.4	57	1
03/18/19	3:31 p	-25.3	-25.3	-25.3	19.1	ESE	0.32	20.0	-40.4	716.3	0.030	0.000	18.4	57	1
03/18/19	3:32 p	-25.3	-25.3	-25.3	19.1	ESE	0.32	20.9	-40.4	716.4	0.030	0.000	18.4	57	1
03/18/19	3:33 p	-25.3	-25.3	-25.3	19.1	ESE	0.32	20.0	-40.4	716.3	0.030	0.000	18.4	57	1
03/18/19	3:34 p	-25.3	-25.3	-25.3	19.1	ESE	0.32	20.9	-40.3	716.3	0.030	0.000	18.4	57	1
03/18/19	3:35 p	-25.3	-25.3	-25.3	20.0	ESE	0.33	20.9	-40.6	716.2	0.030	0.000	18.4	57	1
03/18/19	3:36 p	-25.3	-25.3	-25.3	19.1	ESE	0.32	20.0	-40.3	716.2	0.030	0.000	18.4	57	1
03/18/19	3:37 p	-25.3	-25.2	-25.3	19.1	ESE	0.32	20.0	-40.3	716.3	0.030	0.000	18.4	57	1
03/18/19	3:38 p	-25.2	-25.2	-25.3	18.3	ESE	0.30	19.1	-40.0	716.3	0.030	0.000	18.4	57	1
03/18/19	3:39 p	-25.2	-25.2	-25.3	18.3	ESE	0.30	20.0	-40.0	716.3	0.030	0.000	18.4	57	1
03/18/19	3:40 p	-25.2	-25.2	-25.2	19.1	ESE	0.32	20.0	-40.3	716.4	0.030	0.000	18.4	57	1
03/18/19	3:41 p	-25.2	-25.2	-25.2	17.4	ESE	0.29	19.1	-39.7	716.3	0.030	0.000	18.4	57	1
03/18/19	3:42 p	-25.2	-25.2	-25.2	17.4	ESE	0.29	18.3	-39.7	716.4	0.030	0.000	18.4	57	1
03/18/19	3:43 p	-25.2	-25.2	-25.2	18.3	ESE	0.30	20.0	-39.9	716.4	0.030	0.000	18.4	57	1
03/18/19	3:44 p	-25.2	-25.2	-25.2	17.4	ESE	0.29	20.0	-39.6	716.3	0.030	0.000	18.4	57	1
03/18/19	3:45 p	-25.2	-25.2	-25.2	20.9	SE	0.35	21.7	-40.7	716.4	0.030	0.000	18.4	57	1
03/18/19	3:46 p	-25.2	-25.2	-25.2	19.1	SE	0.32	20.9	-40.2	716.4	0.030	0.000	18.4	57	1
03/18/19	3:47 p	-25.2	-25.2	-25.2	18.3	ESE	0.30	20.0	-39.9	716.4	0.030	0.000	18.4	57	1
03/18/19	3:48 p	-25.2	-25.2	-25.2	18.3	ESE	0.30	19.1	-39.9	716.4	0.030	0.000	18.4	57	1
03/18/19	3:49 p	-25.2	-25.2	-25.2	17.4	ESE	0.29	18.3	-39.6	716.4	0.030	0.000	18.4	57	1
03/18/19	3:50 p	-25.2	-25.2	-25.2	17.4	ESE	0.29	19.1	-39.6	716.4	0.030	0.000	18.4	57	1
03/18/19	3:51 p	-25.2	-25.2	-25.2	19.1	ESE	0.32	21.7	-40.2	716.4	0.030	0.000	18.4	57	1
03/18/19	3:52 p	-25.2	-25.2	-25.2	18.3	ESE	0.30	20.0	-39.9	716.4	0.030	0.000	18.4	57	1
03/18/19	3:53 p	-25.2	-25.2	-25.2	17.4	ESE	0.29	19.1	-39.6	716.4	0.030	0.000	18.4	57	1
03/18/19	3:54 p	-25.2	-25.1	-25.2	19.1	ESE	0.32	20.9	-40.2	716.4	0.030	0.000	18.4	57	1
03/18/19	3:55 p	-25.2	-25.1	-25.2	19.1	ESE	0.32	20.0	-40.2	716.4	0.030	0.000	18.4	57	1
03/18/19	3:56 p	-25.1	-25.1	-25.1	18.3	ESE	0.30	20.0	-39.8	716.4	0.030	0.000	18.5	57	1
03/18/19	3:57 p	-25.2	-25.1	-25.2	18.3	ESE	0.30	19.1	-39.9	716.5	0.030	0.000	18.4	57	1
03/18/19	3:58 p	-25.2	-25.1	-25.2	18.3	ESE	0.30	20.9	-39.9	716.4	0.030	0.000	18.4	57	1
03/18/19	3:59 p	-25.2	-25.2	-25.2	19.1	ESE	0.32	20.0	-40.2	716.4	0.030	0.000	18.4	57	1
03/18/19	4:00 p	-25.2	-25.2	-25.2	20.0	ESE	0.33	20.9	-40.5	716.4	0.030	0.000	18.4	57	1
03/18/19	4:01 p	-25.2	-25.2	-25.2	19.1	ESE	0.32	20.9	-40.2	716.4	0.030	0.000	18.4	57	1
03/18/19	4:02 p	-25.2	-25.2	-25.2	20.0	ESE	0.33	20.9	-40.5	716.5	0.030	0.000	18.4	57	1
03/18/19	4:03 p	-25.2	-25.2	-25.2	19.1	ESE	0.32	20.9	-40.2	716.4	0.030	0.000	18.4	57	1
03/18/19	4:04 p	-25.2	-25.2	-25.2	19.1	ESE	0.32	21.7	-40.2	716.5	0.030	0.000	18.4	57	1
03/18/19	4:05 p	-25.2	-25.2	-25.2	18.3	ESE	0.30	20.9	-39.9	716.4	0.030	0.000	18.4	57	1
03/18/19	4:06 p	-25.2	-25.2	-25.2	18.3	ESE	0.30	20.9	-39.9	716.5	0.030	0.000	18.4	57	1
03/18/19	4:07 p	-25.2	-25.2	-25.2	20.0	ESE	0.33	21.7	-40.6	716.5	0.030	0.000	18.4	57	1
03/18/19	4:08 p	-25.2	-25.2	-25.2	20.9	SE	0.35	22.6	-40.8	716.5	0.030	0.000	18.4	57	1
03/18/19	4:09 p	-25.2	-25.2	-25.2	20.0	ESE	0.33	21.7	-40.6	716.5	0.030	0.000	18.4	57	1
03/18/19	4:10 p	-25.2	-25.2	-25.3	20.9	ESE	0.35	22.6	-40.8	716.4	0.030	0.000	18.4	57	1
03/18/19	4:11 p	-25.3	-25.2	-25.3	20.9	ESE	0.35	22.6	-40.9	716.4	0.030	0.000	18.4	57	1
03/18/19	4:12 p	-25.3	-25.3	-25.3	19.1	ESE	0.32	21.7	-40.3	716.5	0.030	0.000	18.4	57	1
03/18/19	4:13 p	-25.3	-25.3	-25.3	18.3	ESE	0.30	19.1	-40.1	716.6	0.030	0.000	18.4	57	1
03/18/19	4:14 p	-25.3	-25.3	-25.3	18.3	ESE	0.30	23.5	-40.2	716.4	0.030	0.000	18.4	57	1
03/18/19	4:15 p	-25.3	-25.3	-25.3	21.7	ESE	0.36	24.3	-41.2	716.5	0.030	0.000	18.4	57	1
03/18/19	4:16 p	-25.3	-25.3	-25.3	20.0	ESE	0.33	21.7	-40.7	716.5	0.030	0.000	18.4	57	1
03/18/19	4:17 p	-25.3	-25.3	-25.4	19.1	ESE	0.32	20.9	-40.4	716.5	0.030	0.000	18.4	57	1
03/18/19	4:18 p	-25.4	-25.4	-25.4	19.1	ESE	0.32	20.0	-40.5	716.5	0.030	0.000	18.4	57	1
03/18/19	4:19 p	-25.4	-25.3	-25.4	19.1	ESE	0.32	24.3	-40.5	716.6	0.030	0.000	18.4	57	1
03/18/19	4:20 p	-25.4	-25.4	-25.4	17.4	ESE	0.29	20.9	-39.9	716.5	0.030	0.000	18.4	57	1
03/18/19	4:21 p	-25.4	-25.4	-25.4	21.7	SE	0.36	23.5	-41.3	716.5	0.030	0.000	18.4	57	1
03/18/19	4:22 p	-25.4	-25.4	-25.4	21.7	ESE	0.36	24.3	-41.3	716.4	0.030	0.000	18.4	57	1
03/18/19	4:23 p	-25.4	-25.4	-25.4	21.7	ESE	0.36	23.5	-41.3	716.5	0.030	0.000	18.4	57	1
03/18/19	4:24 p	-25.4	-25.4	-25.4	19.1	ESE	0.32	20.9	-40.6	716.5	0.030	0.000	18.4	57	1
03/18/19	4:25 p	-25.4	-25.4	-25.5	17.4	ESE	0.29	20.0	-40.0	716.6	0.030	0.000	18.4	57	1
03/18/19	4:26 p	-25.4	-25.4	-25.4	17.4	ESE	0.29	20.0	-40.0	716.5	0.030	0.000	18.4	57	1
03/18/19	4:27 p	-25.5	-25.4	-25.5	21.7	ESE	0.36	25.2	-41.4	716.6	0.030	0.000	18.4	57	1
03/18/19	4:28 p	-25.5	-25.4	-25.5	20.9	SE	0.35	22.6	-41.2	716.6	0.030	0.000	18.4	57	1
03/18/19	4:29 p	-25.5	-25.5	-25.5	20.9	ESE	0.35	22.6	-41.2	716.5	0.030	0.000	18.5	57	1
03/18/19	4:30 p	-25.5	-25.4	-25.5	20.0	ESE	0.33	21.7	-40.9	716.6	0.030	0.000	18.5	57	1
03/18/19	4:31 p	-25.5	-25.5	-25.5	18.3	ESE	0.30	21.7	-40.4	716.6	0.030	0.000	18.5	57	1
03/18/19	4:32 p	-25.5	-25.5	-25.5	14.8	ESE	0.25	19.1	-39.1	716.6	0.030	0.000	18.5	57	1
03/18/19	4:33 p	-25.5	-25.5	-25.5	15.7	ESE	0.26	18.3	-39.4	716.6	0.030	0.000	18.5	57	1
03/18/19	4:34 p	-25.4	-25.4	-25.5	21.7	SE	0.36	24.3	-41.3	716.7	0.030	0.000	18.5	57	1
03/18/19	4:35 p	-25.5	-25.4	-25.5	23.5	SE	0.39	25.2	-41.9	716.7	0.030	0.000	18.5	57	1
03/18/19	4:36 p	-25.5	-25.4	-25.5	17.4	ESE	0.29	19.1	-40.1	716.7	0.030	0.000	18.5	57	1
03/18/19	4:37 p	-25.5	-25.4	-25.5	18.3	SE	0.30	20.0	-40.4	716.7	0.030	0.000	18.5	57	1
03/18/19	4:38 p	-25.4	-25.4	-25.4	21.7	SE	0.36	24.3	-41.3	716.6	0.030	0.000	18.5	57	1
03/18/19	4:39 p	-25.4	-25.4	-25.5	22.6	ESE	0.38	25.2	-41.6	716.6	0.030	0.000	18.5	57	1
03/18/19	4:40 p	-25.4	-25.4	-25.4	19.1	ESE	0.32	20.9	-40.6	716.6	0.030	0.000	18.5	57	1
03/18/19	4:41 p	-25.4	-25.4	-25.4	19.1	ESE	0.32	20.9	-40.6	716.6	0.030	0.000	18.5	57	1
03/18/19	4:42 p	-25.4	-25.4	-25.4	19.1	ESE	0.32	20.0	-40.6	716.6	0.030	0.000	18.5	57	1
03/18/19	4:43 p	-25.4	-25.4	-25.4	18.3	ESE	0.30	20.0	-40.3	716.6	0.030	0.000	18.5	57	1
03/18/19	4:44 p	-25.4	-25.4	-25.4	18.3	ESE	0.30	20.0	-40.3	716.6	0.030	0.000	18.5	57	1
03/18/19	4:45 p	-25.4	-25.3	-25.4	20.0	ESE	0.33	21.7	-40.8	716.5	0.030	0.000	18.5	57	1
03/18/19	4:46 p	-25.4	-25.4	-25.4	18.3	ESE	0.30	20.0	-40.2	716.6	0.030	0.000	18.5	57	1
03/18/19	4:47 p	-25.4	-25.4	-25.4	18.3	ESE	0.30	20.0	-40.2	716.7	0.030	0.000	18.5	57	1
03/18/19	4:48 p	-25.4	-25.4	-25.4	15.7	ESE	0.26	18.3	-39.3	716.7	0.030	0.000	18.5	57	1
03/18/19	4:49 p	-25.3	-25.3	-25.4	20.0	ESE	0.33	22.6	-40.7	716.8	0.030	0.000	18.5	57	1
03/18/19	4:50 p	-25.3	-25.3	-25.3	19.1	ESE	0.32	21.7	-40.4	716.7	0.030	0.000	18.5	57	1
03/18/19	4:51 p	-25.3	-25.3	-25.3	20.9	ESE	0.35	24.3	-40.9	716.6	0.030	0.000	18.5	57	1
03/18/19	4:52 p	-25.3	-25.3	-25.3	20.9	ESE	0.35	22.6	-40.9	716.6	0.030	0.000	18.5	57	1
03/18/19	4:53 p	-25.3	-25.3	-25.3	20.9	ESE	0.35	22.6	-40.9	716.6	0.030	0.000	18.5	57	1
03/18/19	4:54 p	-25.3	-25.3	-25.3	16.5	ESE	0.28	20.0	-39.6	716.7	0.030	0.000	18.5	57	1
03/18/19	4:55 p	-25.3	-25.3	-25.3	17.4	ESE	0.29	20.0	-39.8	716.7	0.030	0.000	18.5	57	1
03/18/19	4:56 p	-25.3	-25.3	-25.3	19.1	ESE	0.32	20.9	-40.3	716.7	0.030	0.000	18.5	57	1
03/18/19	4:57 p	-25.3	-25.3	-25.3	19.1	ESE	0.32	20.0	-40.3	716.7	0.030	0.000	18.5	57	1
03/18/19	4:58 p	-25.3	-25.3	-25.3	17.4	ESE	0.29	18.3	-39.8	716.8	0.030	0.000	18.5	57	1
03/18/19	4:59 p	-25.3	-25.3	-25.3	17.4	ESE	0.29	20.0	-39.8	716.7	0.030	0.000	18.5	57	1
03/18/19	5:00 p	-25.3	-25.2	-25.3	18.3	ESE	0.30	20.9	-40.1	716.7	0.030	0.000	18.5	57	1
03/18/19	5:01 p	-25.3	-25.2	-25.3	19.1	ESE	0.32	21.7	-40.3	716.7	0.030	0.000	18.5	57	1
03/18/19	5:02 p	-25.2	-25.2	-25.3	17.4	ESE	0.29	19.1	-39.7	716.8	0.030	0.000	18.5	57	1
03/18/19	5:03 p	-25.2	-25.2	-25.3	17.4	ESE	0.29	19.1	-39.7	716.8	0.030	0.000	18.5	57	1
03/18/19	5:04 p	-25.2	-25.2	-25.3	19.1	ESE	0.32	23.5	-40.3	716.7	0.030	0.000	18.5	57	1
03/18/19	5:05 p	-25.2	-25.2	-25.3	19.1	ESE	0.32	22.6	-40.3	716.8	0.030	0.000	18.5	57	1
03/18/19	5:06 p	-25.2	-25.2	-25.2	20.0	ESE	0.33	21.7	-40.6	716.8	0.030	0.000	18.5	57	1
03/18/19	5:07 p	-25.2	-25.2	-25.2	16.5	ESE	0.28	20.0	-39.4	716.9	0.030	0.000	18.5	57	1
03/18/19	5:08 p	-25.2	-25.2	-25.2	17.4	ESE	0.29	20.0	-39.7	716.8	0.030	0.000	18.5	57	1
03/18/19	5:09 p	-25.2	-25.2	-25.2	18.3	ESE	0.30	19.1	-40.0	716.8	0.030	0.000	18.5	57	1
03/18/19	5:10 p	-25.2	-25.2	-25.2	16.5	ESE	0.28	18.3	-39.4	716.8	0.030	0.000	18.5	57	1
03/18/19	5:11 p	-25.2	-25.2	-25.2	18.3	ESE	0.30	20.0	-40.0	716.8	0.030	0.000	18.5	57	1
03/18/19	5:12 p	-25.2	-25.2	-25.2	17.4	ESE	0.29	19.1	-39.7	716.8	0.030	0.000	18.5	57	1
03/18/19	5:13 p	-25.2	-25.2	-25.2	16.5	ESE	0.28	19.1	-39.4	716.9	0.030	0.000	18.5	57	1
03/18/19	5:14 p	-25.2	-25.2	-25.2	15.7	ESE	0.26	19.1	-39.1	716.8	0.030	0.000	18.5	57	1
03/18/19	5:15 p	-25.2	-25.2	-25.2	17.4	ESE	0.29	20.0	-39.7	716.8	0.030	0.000	18.5	57	1
03/18/19	5:16 p	-25.2	-25.2	-25.2	16.5	ESE	0.28	18.3	-39.4	716.8	0.030	0.000	18.5	57	1
03/18/19	5:17 p	-25.2	-25.2	-25.2	18.3	ESE	0.30	20.0	-40.0	716.8	0.030	0.000	18.5	57	1
03/18/19	5:18 p	-25.2	-25.2	-25.2	16.5	ESE	0.28	18.3	-39.4	716.8	0.030	0.000	18.5	57	1
03/18/19	5:19 p	-25.2	-25.2	-25.2	16.5	ESE	0.28	20.0	-39.4	716.9	0.030	0.000	18.5	57	1
03/18/19	5:20 p	-25.2	-25.2	-25.3	16.5	ESE	0.28	18.3	-39.4	716.9	0.030	0.000	18.5	57	1
03/18/19	5:21 p	-25.2	-25.2	-25.2	14.8	ESE	0.25	15.7	-38.8	716.9	0.030	0.000	18.5	57	1
03/18/19	5:22 p	-25.2	-25.2	-25.3	17.4	ESE	0.29	20.9	-39.7	716.8	0.030	0.000	18.5	57	1
03/18/19	5:23 p	-25.3	-25.2	-25.3	16.5	ESE	0.28	19.1	-39.5	716.8	0.030	0.000	18.5	57	1
03/18/19	5:24 p	-25.2	-25.2	-25.3	18.3	ESE	0.30	21.7	-40.0	716.8	0.030	0.000	18.5	57	1
03/18/19	5:25 p	-25.3	-25.3	-25.3	18.3	ESE	0.30	20.0	-40.1	716.8	0.030	0.000	18.5	57	1
03/18/19	5:26 p	-25.3	-25.3	-25.3	20.0	ESE	0.33	20.9	-40.6	716.8	0.030	0.000	18.5	57	1
03/18/19	5:27 p	-25.3	-25.3	-25.3	16.5	ESE	0.28	19.1	-39.5	716.9	0.030	0.000	18.6	57	1
03/18/19	5:28 p	-25.2	-25.2	-25.3	15.7	E	0.26	18.3	-39.1	716.9	0.030	0.000	18.6	57	1
03/18/19	5:29 p	-25.3	-25.3	-25.3	16.5	ESE	0.28	19.1	-39.5	717.0	0.030	0.000	18.6	57	1
03/18/19	5:30 p	-25.3	-25.3	-25.3	16.5	ESE	0.28	19.1	-39.5	716.9	0.030	0.000	18.6	57	1
03/18/19	5:31 p	-25.3	-25.3	-25.3	18.3	ESE	0.30	20.9	-40.2	716.9	0.030	0.000	18.5	57	1
03/18/19	5:32 p	-25.3	-25.3	-25.3	16.5	ESE	0.28	18.3	-39.6	717.0	0.030	0.000	18.5	57	1
03/18/19	5:33 p	-25.3	-25.3	-25.4	14.8	ESE	0.25	18.3	-38.9	716.9	0.030	0.000	18.5	57	1
03/18/19	5:34 p	-25.3	-25.3	-25.3	16.5	ESE	0.28	18.3	-39.6	717.0	0.030	0.000	18.6	57	1
03/18/19	5:35 p	-25.4	-25.4	-25.4	13.9	ESE	0.23	16.5	-38.6	717.0	0.030	0.000	18.6	57	1
03/18/19	5:36 p	-25.4	-25.4	-25.4	16.5	ESE	0.28	17.4	-39.6	717.1	0.030	0.000	18.5	57	1
03/18/19	5:37 p	-25.4	-25.4	-25.4	15.7	ESE	0.26	18.3	-39.3	717.0	0.030	0.000	18.5	57	1
03/18/19	5:38 p	-25.4	-25.4	-25.4	16.5	ESE	0.28	19.1	-39.6	716.9	0.030	0.000	18.5	57	1
03/18/19	5:39 p	-25.4	-25.4	-25.4	15.7	ESE	0.26	18.3	-39.3	717.0	0.030	0.000	18.6	57	1
03/18/19	5:40 p	-25.4	-25.4	-25.4	17.4	ESE	0.29	18.3	-39.9	716.9	0.030	0.000	18.6	57	1
03/18/19	5:41 p	-25.4	-25.4	-25.4	15.7	ESE	0.26	17.4	-39.4	717.0	0.030	0.000	18.6	57	1
03/18/19	5:42 p	-25.4	-25.4	-25.4	15.7	ESE	0.26	18.3	-39.4	717.0	0.030	0.000	18.6	57	1
03/18/19	5:43 p	-25.4	-25.4	-25.5	18.3	ESE	0.30	20.9	-40.3	716.9	0.030	0.000	18.6	57	1
03/18/19	5:44 p	-25.5	-25.5	-25.5	14.8	ESE	0.25	17.4	-39.1	717.0	0.030	0.000	18.6	57	1
03/18/19	5:45 p	-25.5	-25.5	-25.5	15.7	ESE	0.26	18.3	-39.4	716.9	0.030	0.000	18.6	57	1
03/18/19	5:46 p	-25.5	-25.5	-25.5	16.5	ESE	0.28	18.3	-39.8	716.9	0.030	0.000	18.6	57	1
03/18/19	5:47 p	-25.5	-25.5	-25.6	17.4	ESE	0.29	19.1	-40.1	717.0	0.030	0.000	18.6	57	1
03/18/19	5:48 p	-25.6	-25.5	-25.6	17.4	ESE	0.29	24.3	-40.2	716.9	0.030	0.000	18.6	57	1
03/18/19	5:49 p	-25.6	-25.5	-25.6	16.5	ESE	0.28	22.6	-39.8	717.0	0.030	0.000	18.6	57	1
03/18/19	5:50 p	-25.6	-25.5	-25.6	15.7	ESE	0.26	19.1	-39.5	717.0	0.030	0.000	18.6	57	1
03/18/19	5:51 p	-25.6	-25.6	-25.6	17.4	ESE	0.29	19.1	-40.2	716.9	0.030	0.000	18.6	57	1
03/18/19	5:52 p	-25.6	-25.6	-25.6	17.4	ESE	0.29	20.9	-40.2	717.0	0.030	0.000	18.6	57	1
03/18/19	5:53 p	-25.6	-25.5	-25.6	18.3	ESE	0.30	20.0	-40.4	716.9	0.030	0.000	18.6	57	1
03/18/19	5:54 p	-25.6	-25.6	-25.6	16.5	ESE	0.28	18.3	-39.8	716.9	0.030	0.000	18.6	57	1
03/18/19	5:55 p	-25.6	-25.5	-25.6	17.4	ESE	0.29	19.1	-40.2	716.9	0.030	0.000	18.6	57	1
03/18/19	5:56 p	-25.6	-25.5	-25.6	17.4	ESE	0.29	19.1	-40.2	716.9	0.030	0.000	18.6	57	1
03/18/19	5:57 p	-25.6	-25.6	-25.6	17.4	ESE	0.29	19.1	-40.2	716.9	0.031	0.000	18.6	57	1
03/18/19	5:58 p	-25.6	-25.6	-25.6	16.5	ESE	0.28	18.3	-39.8	716.9	0.030	0.000	18.6	57	1
03/18/19	5:59 p	-25.6	-25.6	-25.6	17.4	ESE	0.29	20.0	-40.2	717.0	0.031	0.000	18.6	57	1
03/18/19	6:00 p	-25.6	-25.6	-25.6	17.4	ESE	0.29	23.5	-40.2	716.9	0.031	0.000	18.6	57	1
03/18/19	6:01 p	-25.6	-25.6	-25.6	16.5	ESE	0.28	19.1	-39.9	717.0	0.031	0.000	18.6	57	1
03/18/19	6:02 p	-25.6	-25.6	-25.6	17.4	ESE	0.29	18.3	-40.2	716.9	0.031	0.000	18.6	57	1
03/18/19	6:03 p	-25.6	-25.6	-25.6	15.7	ESE	0.26	18.3	-39.5	717.0	0.030	0.000	18.6	57	1
03/18/19	6:04 p	-25.6	-25.6	-25.6	15.7	ESE	0.26	17.4	-39.5	717.1	0.030	0.000	18.6	57	1
03/18/19	6:05 p	-25.6	-25.5	-25.6	16.5	ESE	0.28	19.1	-39.8	717.0	0.030	0.000	18.6	57	1
03/18/19	6:06 p	-25.6	-25.6	-25.6	17.4	ESE	0.29	20.0	-40.2	717.0	0.030	0.000	18.6	57	1
03/18/19	6:07 p	-25.6	-25.5	-25.6	17.4	ESE	0.29	20.0	-40.2	716.9	0.030	0.000	18.6	57	1
03/18/19	6:08 p	-25.6	-25.5	-25.6	17.4	ESE	0.29	18.3	-40.2	716.9	0.030	0.000	18.6	57	1
03/18/19	6:09 p	-25.6	-25.5	-25.6	18.3	ESE	0.30	20.9	-40.4	716.8	0.030	0.000	18.6	57	1
03/18/19	6:10 p	-25.6	-25.5	-25.6	17.4	ESE	0.29	20.0	-40.2	716.9	0.030	0.000	18.6	57	1
03/18/19	6:11 p	-25.5	-25.5	-25.6	17.4	ESE	0.29	20.0	-40.1	717.0	0.030	0.000	18.6	57	1
03/18/19	6:12 p	-25.5	-25.4	-25.5	16.5	ESE	0.28	19.1	-39.8	717.1	0.030	0.000	18.6	57	1
03/18/19	6:13 p	-25.5	-25.4	-25.5	15.7	ESE	0.26	17.4	-39.4	716.9	0.030	0.000	18.6	57	1
03/18/19	6:14 p	-25.5	-25.5	-25.5	17.4	ESE	0.29	21.7	-40.1	716.9	0.030	0.000	18.6	57	1
03/18/19	6:15 p	-25.5	-25.4	-25.5	17.4	ESE	0.29	18.3	-40.1	716.9	0.030	0.000	18.6	57	1
03/18/19	6:16 p	-25.4	-25.4	-25.5	16.5	ESE	0.28	19.1	-39.7	716.9	0.030	0.000	18.6	57	1
03/18/19	6:17 p	-25.4	-25.4	-25.5	17.4	ESE	0.29	22.6	-40.0	717.0	0.030	0.000	18.6	57	1
03/18/19	6:18 p	-25.4	-25.4	-25.4	15.7	ESE	0.26	16.5	-39.4	717.0	0.030	0.000	18.6	57	1
03/18/19	6:19 p	-25.4	-25.4	-25.4	15.7	ESE	0.26	17.4	-39.3	717.0	0.030	0.000	18.6	57	1
03/18/19	6:20 p	-25.4	-25.4	-25.4	14.8	ESE	0.25	17.4	-38.9	717.0	0.030	0.000	18.6	57	1
03/18/19	6:21 p	-25.4	-25.3	-25.4	16.5	ESE	0.28	19.1	-39.6	716.9	0.030	0.000	18.6	57	1
03/18/19	6:22 p	-25.4	-25.3	-25.4	17.4	ESE	0.29	19.1	-39.9	717.0	0.030	0.000	18.6	57	1
03/18/19	6:23 p	-25.3	-25.3	-25.4	18.3	ESE	0.30	20.0	-40.2	716.9	0.030	0.000	18.6	57	1
03/18/19	6:24 p	-25.3	-25.3	-25.3	17.4	ESE	0.29	20.0	-39.8	717.0	0.030	0.000	18.6	57	1
03/18/19	6:25 p	-25.3	-25.3	-25.3	15.7	ESE	0.26	16.5	-39.2	717.1	0.030	0.000	18.7	57	1
03/18/19	6:26 p	-25.3	-25.3	-25.3	16.5	ESE	0.28	17.4	-39.5	717.0	0.030	0.000	18.6	57	1
03/18/19	6:27 p	-25.3	-25.2	-25.3	16.5	ESE	0.28	17.4	-39.5	717.1	0.030	0.000	18.7	57	1
03/18/19	6:28 p	-25.2	-25.2	-25.2	16.5	ESE	0.28	18.3	-39.4	717.0	0.030	0.000	18.7	57	1
03/18/19	6:29 p	-25.2	-25.2	-25.2	17.4	ESE	0.29	20.0	-39.7	717.0	0.030	0.000	18.7	57	1
03/18/19	6:30 p	-25.2	-25.2	-25.2	16.5	ESE	0.28	18.3	-39.4	717.0	0.030	0.000	18.7	57	1
03/18/19	6:31 p	-25.2	-25.2	-25.2	16.5	ESE	0.28	20.9	-39.3	717.0	0.030	0.000	18.7	57	1
03/18/19	6:32 p	-25.2	-25.1	-25.2	15.7	ESE	0.26	19.1	-39.0	717.0	0.030	0.000	18.7	57	1
03/18/19	6:33 p	-25.1	-25.1	-25.1	16.5	ESE	0.28	19.1	-39.3	717.0	0.030	0.000	18.7	57	1
03/18/19	6:34 p	-25.1	-25.1	-25.1	17.4	ESE	0.29	18.3	-39.6	716.9	0.030	0.000	18.7	57	1
03/18/19	6:35 p	-25.1	-25.0	-25.1	16.5	ESE	0.28	18.3	-39.2	716.9	0.030	0.000	18.7	57	1
03/18/19	6:36 p	-25.1	-25.1	-25.1	17.4	ESE	0.29	19.1	-39.5	717.0	0.030	0.000	18.7	57	1
03/18/19	6:37 p	-25.1	-25.0	-25.1	16.5	ESE	0.28	18.3	-39.2	717.0	0.030	0.000	18.7	57	1
03/18/19	6:38 p	-25.0	-25.0	-25.0	16.5	ESE	0.28	18.3	-39.1	717.1	0.030	0.000	18.7	57	1
03/18/19	6:39 p	-25.0	-24.9	-25.0	17.4	ESE	0.29	20.9	-39.4	716.9	0.030	0.000	18.7	57	1
03/18/19	6:40 p	-24.9	-24.9	-24.9	17.4	ESE	0.29	19.1	-39.3	717.0	0.030	0.000	18.7	57	1
03/18/19	6:41 p	-24.9	-24.9	-24.9	15.7	ESE	0.26	17.4	-38.7	717.1	0.030	0.000	18.7	57	1
03/18/19	6:42 p	-24.9	-24.9	-24.9	14.8	ESE	0.25	16.5	-38.3	716.9	0.030	0.000	18.7	57	1
03/18/19	6:43 p	-24.9	-24.8	-24.9	16.5	ESE	0.28	18.3	-38.9	717.0	0.030	0.000	18.7	57	1
03/18/19	6:44 p	-24.9	-24.8	-24.9	16.5	ESE	0.28	17.4	-38.9	717.0	0.030	0.000	18.7	57	1
03/18/19	6:45 p	-24.8	-24.8	-24.8	15.7	ESE	0.26	18.3	-38.6	717.0	0.030	0.000	18.7	57	1
03/18/19	6:46 p	-24.8	-24.8	-24.8	16.5	ESE	0.28	19.1	-38.9	716.9	0.030	0.000	18.7	57	1
03/18/19	6:47 p	-24.8	-24.8	-24.8	16.5	ESE	0.28	18.3	-38.8	717.0	0.030	0.000	18.7	57	1
03/18/19	6:48 p	-24.8	-24.7	-24.8	14.8	ESE	0.25	16.5	-38.2	716.9	0.030	0.000	18.7	57	1
03/18/19	6:49 p	-24.7	-24.7	-24.7	15.7	ESE	0.26	16.5	-38.4	717.0	0.030	0.000	18.7	57	1
03/18/19	6:50 p	-24.7	-24.7	-24.7	17.4	ESE	0.29	19.1	-39.1	716.9	0.030	0.000	18.7	57	1
03/18/19	6:51 p	-24.7	-24.7	-24.7	17.4	ESE	0.29	22.6	-39.0	716.9	0.030	0.000	18.7	57	1
03/18/19	6:52 p	-24.7	-24.6	-24.7	17.4	ESE	0.29	20.0	-39.0	716.9	0.030	0.000	18.7	57	1
03/18/19	6:53 p	-24.6	-24.6	-24.6	16.5	ESE	0.28	18.3	-38.6	716.9	0.030	0.000	18.7	57	1
03/18/19	6:54 p	-24.6	-24.6	-24.6	15.7	ESE	0.26	16.5	-38.3	716.9	0.030	0.000	18.7	57	1
03/18/19	6:55 p	-24.6	-24.6	-24.6	16.5	ESE	0.28	17.4	-38.6	716.9	0.030	0.000	18.7	57	1
03/18/19	6:56 p	-24.5	-24.5	-24.6	16.5	SE	0.28	18.3	-38.4	717.0	0.030	0.000	18.7	57	1
03/18/19	6:57 p	-24.5	-24.5	-24.5	15.7	SE	0.26	18.3	-38.2	716.9	0.030	0.000	18.7	57	1
03/18/19	6:58 p	-24.4	-24.4	-24.5	14.8	SE	0.25	16.5	-37.7	716.9	0.030	0.000	18.7	57	1
03/18/19	6:59 p	-24.4	-24.4	-24.4	14.8	ESE	0.25	20.9	-37.7	716.8	0.030	0.000	18.7	57	1
03/18/19	7:00 p	-24.4	-24.4	-24.4	16.5	ESE	0.28	19.1	-38.3	716.9	0.030	0.000	18.7	57	1
03/18/19	7:01 p	-24.3	-24.3	-24.4	16.5	SE	0.28	20.9	-38.2	717.0	0.030	0.000	18.7	57	1
03/18/19	7:02 p	-24.3	-24.3	-24.3	14.8	ESE	0.25	16.5	-37.6	717.0	0.030	0.000	18.7	57	1
03/18/19	7:03 p	-24.3	-24.3	-24.3	14.8	SE	0.25	18.3	-37.6	716.9	0.030	0.000	18.7	57	1
03/18/19	7:04 p	-24.2	-24.2	-24.2	15.7	ESE	0.26	17.4	-37.8	717.0	0.030	0.000	18.7	57	1
03/18/19	7:05 p	-24.2	-24.2	-24.2	16.5	ESE	0.28	20.0	-38.1	716.9	0.030	0.000	18.7	57	1
03/18/19	7:06 p	-24.2	-24.1	-24.2	17.4	ESE	0.29	20.9	-38.3	716.9	0.030	0.000	18.7	57	1
03/18/19	7:07 p	-24.1	-24.1	-24.2	14.8	SE	0.25	17.4	-37.3	717.0	0.029	0.000	18.7	57	1
03/18/19	7:08 p	-24.1	-24.1	-24.1	14.8	ESE	0.25	15.7	-37.3	717.0	0.029	0.000	18.7	57	1
03/18/19	7:09 p	-24.1	-24.0	-24.1	13.9	ESE	0.23	16.5	-36.9	717.0	0.029	0.000	18.7	57	1
03/18/19	7:10 p	-24.0	-23.9	-24.0	14.8	ESE	0.25	15.7	-37.2	717.0	0.029	0.000	18.7	57	1
03/18/19	7:11 p	-24.0	-23.9	-24.0	15.7	SE	0.26	17.4	-37.5	716.9	0.029	0.000	18.7	57	1
03/18/19	7:12 p	-23.9	-23.9	-23.9	17.4	SE	0.29	20.0	-37.9	716.9	0.029	0.000	18.7	57	1
03/18/19	7:13 p	-23.9	-23.8	-23.9	14.8	ESE	0.25	16.5	-37.0	717.0	0.029	0.000	18.7	57	1
03/18/19	7:14 p	-23.8	-23.8	-23.9	15.7	SE	0.26	19.1	-37.3	716.9	0.029	0.000	18.7	57	1
03/18/19	7:15 p	-23.8	-23.8	-23.8	14.8	SE	0.25	16.5	-36.9	717.0	0.029	0.000	18.7	57	1
03/18/19	7:16 p	-23.8	-23.8	-23.8	15.7	ESE	0.26	17.4	-37.2	716.9	0.029	0.000	18.7	57	1
03/18/19	7:17 p	-23.7	-23.7	-23.8	15.7	ESE	0.26	19.1	-37.1	717.0	0.029	0.000	18.7	57	1
03/18/19	7:18 p	-23.7	-23.7	-23.7	14.8	SE	0.25	16.5	-36.8	717.0	0.029	0.000	18.7	57	1
03/18/19	7:19 p	-23.7	-23.6	-23.7	13.9	SE	0.23	16.5	-36.4	717.1	0.029	0.000	18.7	57	1
03/18/19	7:20 p	-23.7	-23.6	-23.7	13.9	SE	0.23	15.7	-36.4	717.1	0.029	0.000	18.7	57	1
03/18/19	7:21 p	-23.6	-23.6	-23.7	13.9	SE	0.23	15.7	-36.3	717.1	0.029	0.000	18.7	57	1
03/18/19	7:22 p	-23.6	-23.6	-23.6	13.0	SE	0.22	14.8	-35.9	717.1	0.029	0.000	18.7	57	1
03/18/19	7:23 p	-23.6	-23.6	-23.6	13.9	SE	0.23	15.7	-36.3	717.0	0.029	0.000	18.7	57	1
03/18/19	7:24 p	-23.6	-23.6	-23.6	15.7	ESE	0.26	17.4	-36.9	717.1	0.029	0.000	18.7	57	1
03/18/19	7:25 p	-23.6	-23.5	-23.6	14.8	ESE	0.25	17.4	-36.6	717.1	0.029	0.000	18.7	57	1
03/18/19	7:26 p	-23.5	-23.5	-23.5	15.7	ESE	0.26	16.5	-36.8	717.0	0.029	0.000	18.7	57	1
03/18/19	7:27 p	-23.5	-23.5	-23.5	16.5	ESE	0.28	17.4	-37.2	717.1	0.029	0.000	18.7	57	1
03/18/19	7:28 p	-23.5	-23.4	-23.5	17.4	ESE	0.29	19.1	-37.4	717.0	0.029	0.000	18.7	57	1
03/18/19	7:29 p	-23.4	-23.4	-23.5	15.7	SE	0.26	17.4	-36.8	717.1	0.029	0.000	18.7	57	1
03/18/19	7:30 p	-23.4	-23.4	-23.4	14.8	SE	0.25	17.4	-36.4	717.0	0.029	0.000	18.7	57	1
03/18/19	7:31 p	-23.4	-23.4	-23.4	15.7	SE	0.26	17.4	-36.8	717.1	0.029	0.000	18.7	57	1
03/18/19	7:32 p	-23.4	-23.4	-23.4	15.7	ESE	0.26	18.3	-36.7	717.0	0.029	0.000	18.7	57	1
03/18/19	7:33 p	-23.4	-23.4	-23.4	15.7	ESE	0.26	17.4	-36.7	717.0	0.029	0.000	18.7	57	1
03/18/19	7:34 p	-23.4	-23.3	-23.4	16.5	SE	0.28	19.1	-37.0	717.0	0.029	0.000	18.7	57	1
03/18/19	7:35 p	-23.4	-23.4	-23.4	15.7	ESE	0.26	16.5	-36.7	717.0	0.029	0.000	18.7	57	1
03/18/19	7:36 p	-23.3	-23.3	-23.4	17.4	ESE	0.29	20.9	-37.2	717.0	0.029	0.000	18.7	57	1
03/18/19	7:37 p	-23.3	-23.3	-23.3	18.3	ESE	0.30	20.0	-37.5	717.0	0.029	0.000	18.7	57	1
03/18/19	7:38 p	-23.3	-23.3	-23.3	17.4	ESE	0.29	20.0	-37.2	717.0	0.029	0.000	18.7	57	1
03/18/19	7:39 p	-23.3	-23.3	-23.3	15.7	ESE	0.26	20.0	-36.6	717.1	0.029	0.000	18.7	57	1
03/18/19	7:40 p	-23.3	-23.3	-23.3	15.7	ESE	0.26	19.1	-36.6	717.1	0.029	0.000	18.7	57	1
03/18/19	7:41 p	-23.3	-23.3	-23.3	14.8	SE	0.25	17.4	-36.3	717.0	0.029	0.000	18.7	57	1
03/18/19	7:42 p	-23.3	-23.3	-23.3	15.7	ESE	0.26	18.3	-36.6	717.0	0.029	0.000	18.7	57	1
03/18/19	7:43 p	-23.3	-23.3	-23.3	15.7	ESE	0.26	16.5	-36.6	717.0	0.029	0.000	18.7	57	1
03/18/19	7:44 p	-23.3	-23.3	-23.3	16.5	ESE	0.28	20.0	-36.9	717.1	0.029	0.000	18.7	57	1
03/18/19	7:45 p	-23.3	-23.3	-23.3	15.7	ESE	0.26	17.4	-36.6	717.1	0.029	0.000	18.7	57	1
03/18/19	7:46 p	-23.3	-23.2	-23.3	14.8	ESE	0.25	17.4	-36.2	717.1	0.029	0.000	18.7	57	1
03/18/19	7:47 p	-23.3	-23.2	-23.3	13.9	ESE	0.23	15.7	-35.9	717.1	0.029	0.000	18.7	57	1
03/18/19	7:48 p	-23.2	-23.2	-23.3	16.5	SE	0.28	20.0	-36.8	717.0	0.029	0.000	18.7	57	1
03/18/19	7:49 p	-23.2	-23.2	-23.2	13.9	ESE	0.23	15.7	-35.8	717.1	0.029	0.000	18.7	57	1
03/18/19	7:50 p	-23.2	-23.2	-23.2	14.8	ESE	0.25	17.4	-36.2	717.0	0.029	0.000	18.7	57	1
03/18/19	7:51 p	-23.2	-23.2	-23.2	15.7	SE	0.26	18.3	-36.5	717.0	0.029	0.000	18.7	57	1
03/18/19	7:52 p	-23.2	-23.2	-23.2	15.7	SE	0.26	17.4	-36.4	717.1	0.029	0.000	18.7	57	1
03/18/19	7:53 p	-23.2	-23.2	-23.2	15.7	SE	0.26	16.5	-36.4	717.1	0.029	0.000	18.7	57	1
03/18/19	7:54 p	-23.2	-23.1	-23.2	14.8	SE	0.25	15.7	-36.1	717.2	0.029	0.000	18.7	57	1
03/18/19	7:55 p	-23.2	-23.1	-23.2	14.8	SE	0.25	16.5	-36.1	717.1	0.029	0.000	18.7	57	1
03/18/19	7:56 p	-23.2	-23.1	-23.2	13.0	SE	0.22	14.8	-35.4	717.2	0.029	0.000	18.7	57	1
03/18/19	7:57 p	-23.1	-23.1	-23.2	14.8	SE	0.25	16.5	-36.0	717.1	0.029	0.000	18.7	57	1
03/18/19	7:58 p	-23.1	-23.1	-23.1	13.9	SE	0.23	14.8	-35.7	717.1	0.029	0.000	18.7	57	1
03/18/19	7:59 p	-23.1	-23.1	-23.1	14.8	SE	0.25	16.5	-35.9	717.1	0.029	0.000	18.6	57	1
03/18/19	8:00 p	-23.1	-23.0	-23.1	14.8	SE	0.25	16.5	-36.0	717.2	0.029	0.000	18.6	57	1
03/18/19	8:01 p	-23.1	-23.0	-23.1	15.7	ESE	0.26	17.4	-36.3	717.0	0.029	0.000	18.6	57	1
03/18/19	8:02 p	-23.1	-23.1	-23.1	14.8	SE	0.25	16.5	-35.9	717.1	0.029	0.000	18.5	57	1
03/18/19	8:03 p	-23.1	-23.1	-23.1	16.5	SE	0.28	16.5	-36.6	717.1	0.029	0.000	18.5	57	1
03/18/19	8:04 p	-23.1	-23.1	-23.1	15.7	ESE	0.26	17.4	-36.3	717.1	0.029	0.000	18.4	57	1
03/18/19	8:05 p	-23.0	-23.0	-23.1	14.8	ESE	0.25	15.7	-35.9	717.1	0.029	0.000	18.4	57	1
03/18/19	8:06 p	-23.0	-23.0	-23.0	14.8	ESE	0.25	16.5	-35.9	717.2	0.029	0.000	18.4	57	1
03/18/19	8:07 p	-23.0	-23.0	-23.0	13.9	ESE	0.23	16.5	-35.6	717.2	0.029	0.000	18.4	57	1
03/18/19	8:08 p	-23.0	-22.9	-23.0	14.8	SE	0.25	16.5	-35.9	717.2	0.029	0.000	18.4	57	1
03/18/19	8:09 p	-22.9	-22.9	-23.0	13.0	SE	0.22	14.8	-35.1	717.2	0.029	0.000	18.4	57	1
03/18/19	8:10 p	-22.9	-22.9	-22.9	13.9	ESE	0.23	15.7	-35.4	717.2	0.029	0.000	18.4	57	1
03/18/19	8:11 p	-22.9	-22.9	-22.9	13.9	ESE	0.23	14.8	-35.4	717.1	0.029	0.000	18.4	57	1
03/18/19	8:12 p	-22.9	-22.9	-22.9	13.9	ESE	0.23	14.8	-35.4	717.1	0.029	0.000	18.4	57	1
03/18/19	8:13 p	-22.9	-22.9	-22.9	13.9	ESE	0.23	14.8	-35.4	717.2	0.029	0.000	18.4	57	1
03/18/19	8:14 p	-22.9	-22.9	-22.9	13.0	ESE	0.22	13.9	-35.1	717.2	0.029	0.000	18.4	57	1
03/18/19	8:15 p	-22.9	-22.9	-22.9	12.2	ESE	0.20	13.0	-34.7	717.3	0.029	0.000	18.4	57	1
03/18/19	8:16 p	-22.9	-22.9	-22.9	12.2	ESE	0.20	13.9	-34.7	717.2	0.029	0.000	18.4	57	1
03/18/19	8:17 p	-22.9	-22.9	-22.9	12.2	ESE	0.20	13.0	-34.7	717.2	0.029	0.000	18.4	57	1
03/18/19	8:18 p	-22.9	-22.9	-22.9	13.0	ESE	0.22	13.9	-35.1	717.2	0.029	0.000	18.4	57	1
03/18/19	8:19 p	-22.9	-22.9	-22.9	13.9	ESE	0.23	15.7	-35.4	717.2	0.029	0.000	18.4	57	1
03/18/19	8:20 p	-22.9	-22.8	-22.9	13.9	ESE	0.23	15.7	-35.4	717.2	0.029	0.000	18.4	57	1
03/18/19	8:21 p	-22.9	-22.8	-22.9	14.8	ESE	0.25	15.7	-35.7	717.3	0.029	0.000	18.4	57	1
03/18/19	8:22 p	-22.8	-22.8	-22.9	14.8	ESE	0.25	17.4	-35.7	717.2	0.029	0.000	18.4	57	1
03/18/19	8:23 p	-22.8	-22.8	-22.9	13.0	ESE	0.22	14.8	-35.0	717.3	0.029	0.000	18.5	57	1
03/18/19	8:24 p	-22.8	-22.8	-22.9	12.2	ESE	0.20	13.0	-34.6	717.3	0.029	0.000	18.5	57	1
03/18/19	8:25 p	-22.8	-22.8	-22.8	13.0	ESE	0.22	13.9	-35.0	717.2	0.029	0.000	18.5	57	1
03/18/19	8:26 p	-22.8	-22.8	-22.8	13.9	ESE	0.23	15.7	-35.3	717.2	0.029	0.000	18.5	57	1
03/18/19	8:27 p	-22.8	-22.8	-22.9	14.8	ESE	0.25	15.7	-35.7	717.2	0.029	0.000	18.5	57	1
03/18/19	8:28 p	-22.8	-22.8	-22.9	13.9	ESE	0.23	15.7	-35.3	717.3	0.029	0.000	18.5	57	1
03/18/19	8:29 p	-22.8	-22.8	-22.9	13.9	ESE	0.23	15.7	-35.3	717.3	0.029	0.000	18.5	57	1
03/18/19	8:30 p	-22.8	-22.8	-22.8	13.0	ESE	0.22	13.9	-35.0	717.3	0.029	0.000	18.5	57	1
03/18/19	8:31 p	-22.8	-22.8	-22.8	13.0	ESE	0.22	13.9	-35.0	717.3	0.029	0.000	18.5	57	1
03/18/19	8:32 p	-22.8	-22.8	-22.8	12.2	ESE	0.20	13.9	-34.6	717.4	0.029	0.000	18.6	57	1
03/18/19	8:33 p	-22.8	-22.8	-22.8	12.2	ESE	0.20	13.9	-34.6	717.4	0.029	0.000	18.6	57	1
03/18/19	8:34 p	-22.8	-22.8	-22.8	13.0	ESE	0.22	13.9	-35.0	717.4	0.029	0.000	18.6	57	1
03/18/19	8:35 p	-22.8	-22.8	-22.8	13.0	ESE	0.22	13.9	-35.0	717.3	0.029	0.000	18.6	57	1
03/18/19	8:36 p	-22.8	-22.8	-22.9	13.9	ESE	0.23	14.8	-35.3	717.3	0.029	0.000	18.6	57	1
03/18/19	8:37 p	-22.8	-22.8	-22.8	13.0	ESE	0.22	13.0	-35.0	717.4	0.029	0.000	18.6	57	1
03/18/19	8:38 p	-22.8	-22.8	-22.9	12.2	ESE	0.20	13.9	-34.6	717.4	0.029	0.000	18.6	57	1
03/18/19	8:39 p	-22.8	-22.8	-22.9	13.0	ESE	0.22	13.9	-35.0	717.3	0.029	0.000	18.6	57	1
03/18/19	8:40 p	-22.8	-22.8	-22.8	12.2	ESE	0.20	13.9	-34.6	717.4	0.029	0.000	18.6	57	1
03/18/19	8:41 p	-22.8	-22.8	-22.8	12.2	ESE	0.20	14.8	-34.6	717.4	0.029	0.000	18.6	57	1
03/18/19	8:42 p	-22.8	-22.8	-22.8	13.9	ESE	0.23	16.5	-35.3	717.4	0.029	0.000	18.6	57	1
03/18/19	8:43 p	-22.8	-22.8	-22.8	13.0	ESE	0.22	13.9	-35.0	717.4	0.029	0.000	18.6	57	1
03/18/19	8:44 p	-22.8	-22.8	-22.8	12.2	ESE	0.20	13.0	-34.6	717.4	0.029	0.000	18.6	57	1
03/18/19	8:45 p	-22.8	-22.8	-22.8	13.0	ESE	0.22	13.9	-35.0	717.4	0.029	0.000	18.6	57	1
03/18/19	8:46 p	-22.8	-22.8	-22.8	12.2	ESE	0.20	13.0	-34.6	717.5	0.029	0.000	18.6	57	1
03/18/19	8:47 p	-22.8	-22.8	-22.8	12.2	ESE	0.20	13.0	-34.6	717.4	0.029	0.000	18.6	57	1
03/18/19	8:48 p	-22.8	-22.8	-22.8	11.3	ESE	0.19	12.2	-34.2	717.5	0.029	0.000	18.6	57	1
03/18/19	8:49 p	-22.8	-22.8	-22.8	12.2	ESE	0.20	13.0	-34.6	717.5	0.029	0.000	18.6	57	1
03/18/19	8:50 p	-22.8	-22.8	-22.8	12.2	SE	0.20	13.9	-34.6	717.5	0.029	0.000	18.6	57	1
03/18/19	8:51 p	-22.8	-22.8	-22.8	13.0	ESE	0.22	13.9	-35.0	717.4	0.029	0.000	18.6	57	1
03/18/19	8:52 p	-22.8	-22.8	-22.8	12.2	ESE	0.20	13.9	-34.6	717.4	0.029	0.000	18.6	57	1
03/18/19	8:53 p	-22.8	-22.8	-22.8	11.3	ESE	0.19	13.0	-34.1	717.4	0.029	0.000	18.6	57	1
03/18/19	8:54 p	-22.8	-22.8	-22.8	11.3	ESE	0.19	13.0	-34.1	717.4	0.029	0.000	18.6	57	1
03/18/19	8:55 p	-22.8	-22.8	-22.8	12.2	ESE	0.20	13.0	-34.6	717.4	0.029	0.000	18.6	57	1
03/18/19	8:56 p	-22.8	-22.8	-22.8	12.2	ESE	0.20	13.0	-34.6	717.4	0.029	0.000	18.6	57	1
03/18/19	8:57 p	-22.8	-22.7	-22.8	11.3	ESE	0.19	13.0	-34.1	717.4	0.029	0.000	18.7	57	1
03/18/19	8:58 p	-22.8	-22.7	-22.8	11.3	ESE	0.19	11.3	-34.1	717.4	0.029	0.000	18.7	57	1
03/18/19	8:59 p	-22.7	-22.7	-22.8	11.3	SE	0.19	12.2	-34.1	717.4	0.029	0.000	18.7	57	1
03/18/19	9:00 p	-22.7	-22.7	-22.7	11.3	SE	0.19	12.2	-34.1	717.4	0.029	0.000	18.7	57	1
03/18/19	9:01 p	-22.7	-22.7	-22.7	11.3	SE	0.19	12.2	-34.1	717.3	0.029	0.000	18.7	57	1
03/18/19	9:02 p	-22.7	-22.7	-22.7	11.3	SE	0.19	12.2	-34.1	717.4	0.029	0.000	18.7	57	1
03/18/19	9:03 p	-22.7	-22.7	-22.7	13.0	SE	0.22	13.9	-34.8	717.3	0.028	0.000	18.7	57	1
03/18/19	9:04 p	-22.7	-22.7	-22.7	11.3	SE	0.19	13.0	-34.1	717.4	0.029	0.000	18.7	57	1
03/18/19	9:05 p	-22.7	-22.7	-22.7	10.4	SE	0.17	12.2	-33.6	717.4	0.028	0.000	18.7	57	1
03/18/19	9:06 p	-22.7	-22.7	-22.7	12.2	SE	0.20	13.0	-34.4	717.4	0.028	0.000	18.7	57	1
03/18/19	9:07 p	-22.7	-22.6	-22.7	11.3	SE	0.19	12.2	-34.0	717.4	0.028	0.000	18.7	57	1
03/18/19	9:08 p	-22.7	-22.7	-22.7	10.4	SE	0.17	11.3	-33.6	717.4	0.028	0.000	18.7	57	1
03/18/19	9:09 p	-22.7	-22.7	-22.7	10.4	SE	0.17	12.2	-33.6	717.3	0.028	0.000	18.7	57	1
03/18/19	9:10 p	-22.7	-22.7	-22.7	10.4	SE	0.17	11.3	-33.6	717.3	0.028	0.000	18.7	57	1
03/18/19	9:11 p	-22.7	-22.6	-22.7	9.6	SE	0.16	10.4	-33.1	717.4	0.028	0.000	18.7	57	1
03/18/19	9:12 p	-22.7	-22.7	-22.7	10.4	ESE	0.17	10.4	-33.6	717.3	0.028	0.000	18.7	58	1
03/18/19	9:13 p	-22.6	-22.6	-22.7	9.6	ESE	0.16	10.4	-33.1	717.4	0.028	0.000	18.7	57	1
03/18/19	9:14 p	-22.6	-22.6	-22.6	9.6	ESE	0.16	11.3	-33.1	717.4	0.028	0.000	18.7	57	1
03/18/19	9:15 p	-22.6	-22.6	-22.6	9.6	ESE	0.16	10.4	-33.1	717.4	0.028	0.000	18.7	57	1
03/18/19	9:16 p	-22.6	-22.6	-22.6	9.6	ESE	0.16	10.4	-33.1	717.3	0.028	0.000	18.7	57	1
03/18/19	9:17 p	-22.6	-22.6	-22.6	10.4	SE	0.17	11.3	-33.5	717.3	0.028	0.000	18.7	57	1
03/18/19	9:18 p	-22.6	-22.6	-22.6	9.6	SE	0.16	11.3	-33.1	717.4	0.028	0.000	18.7	57	1
03/18/19	9:19 p	-22.6	-22.6	-22.6	9.6	SE	0.16	10.4	-33.0	717.4	0.028	0.000	18.7	57	1
03/18/19	9:20 p	-22.6	-22.6	-22.6	9.6	ESE	0.16	10.4	-33.0	717.4	0.028	0.000	18.7	57	1
03/18/19	9:21 p	-22.6	-22.6	-22.6	9.6	ESE	0.16	10.4	-33.0	717.4	0.028	0.000	18.7	57	1
03/18/19	9:22 p	-22.6	-22.6	-22.6	8.7	ESE	0.14	8.7	-32.5	717.4	0.028	0.000	18.7	57	1
03/18/19	9:23 p	-22.6	-22.5	-22.6	8.7	ESE	0.14	9.6	-32.5	717.4	0.028	0.000	18.7	57	1
03/18/19	9:24 p	-22.6	-22.5	-22.6	9.6	ESE	0.16	10.4	-33.0	717.4	0.028	0.000	18.7	57	1
03/18/19	9:25 p	-22.6	-22.5	-22.6	9.6	ESE	0.16	10.4	-33.0	717.4	0.028	0.000	18.7	57	1
03/18/19	9:26 p	-22.6	-22.5	-22.6	10.4	ESE	0.17	11.3	-33.4	717.4	0.028	0.000	18.8	57	1
03/18/19	9:27 p	-22.5	-22.5	-22.6	10.4	ESE	0.17	10.4	-33.4	717.3	0.028	0.000	18.7	57	1
03/18/19	9:28 p	-22.5	-22.5	-22.6	9.6	ESE	0.16	9.6	-32.9	717.3	0.028	0.000	18.8	57	1
03/18/19	9:29 p	-22.5	-22.5	-22.5	9.6	ESE	0.16	9.6	-32.9	717.4	0.028	0.000	18.8	57	1
03/18/19	9:30 p	-22.5	-22.5	-22.5	8.7	ESE	0.14	9.6	-32.4	717.3	0.028	0.000	18.8	57	1
03/18/19	9:31 p	-22.5	-22.4	-22.5	9.6	ESE	0.16	9.6	-32.9	717.3	0.028	0.000	18.8	57	1
03/18/19	9:32 p	-22.4	-22.4	-22.5	9.6	ESE	0.16	10.4	-32.8	717.4	0.028	0.000	18.8	58	1
03/18/19	9:33 p	-22.4	-22.4	-22.4	9.6	ESE	0.16	10.4	-32.8	717.4	0.028	0.000	18.8	57	1
03/18/19	9:34 p	-22.4	-22.4	-22.4	9.6	ESE	0.16	10.4	-32.8	717.3	0.028	0.000	18.8	58	1
03/18/19	9:35 p	-22.4	-22.4	-22.4	8.7	ESE	0.14	9.6	-32.3	717.4	0.028	0.000	18.8	57	1
03/18/19	9:36 p	-22.4	-22.4	-22.4	8.7	ESE	0.14	9.6	-32.3	717.3	0.028	0.000	18.8	57	1
03/18/19	9:37 p	-22.4	-22.4	-22.4	8.7	ESE	0.14	9.6	-32.3	717.3	0.028	0.000	18.8	57	1
03/18/19	9:38 p	-22.4	-22.4	-22.4	8.7	ESE	0.14	9.6	-32.3	717.3	0.028	0.000	18.8	57	1
03/18/19	9:39 p	-22.4	-22.4	-22.4	8.7	ESE	0.14	9.6	-32.3	717.3	0.028	0.000	18.8	57	1
03/18/19	9:40 p	-22.4	-22.4	-22.4	8.7	ESE	0.14	9.6	-32.3	717.4	0.028	0.000	18.8	57	1
03/18/19	9:41 p	-22.4	-22.4	-22.4	8.7	ESE	0.14	8.7	-32.3	717.4	0.028	0.000	18.8	57	1
03/18/19	9:42 p	-22.4	-22.3	-22.4	8.7	ESE	0.14	8.7	-32.3	717.4	0.028	0.000	18.8	57	1
03/18/19	9:43 p	-22.3	-22.3	-22.4	7.8	ESE	0.13	8.7	-31.7	717.3	0.028	0.000	18.8	57	1
03/18/19	9:44 p	-22.3	-22.3	-22.3	8.7	ESE	0.14	9.6	-32.2	717.3	0.028	0.000	18.8	57	1
03/18/19	9:45 p	-22.3	-22.3	-22.3	8.7	ESE	0.14	9.6	-32.2	717.4	0.028	0.000	18.8	58	1
03/18/19	9:46 p	-22.3	-22.3	-22.3	8.7	ESE	0.14	9.6	-32.2	717.4	0.028	0.000	18.8	58	1
03/18/19	9:47 p	-22.3	-22.3	-22.3	8.7	ESE	0.14	9.6	-32.2	717.3	0.028	0.000	18.9	58	1
03/18/19	9:48 p	-22.3	-22.2	-22.3	7.8	ESE	0.13	8.7	-31.6	717.4	0.028	0.000	18.9	57	1
03/18/19	9:49 p	-22.2	-22.2	-22.2	7.8	ESE	0.13	7.8	-31.6	717.3	0.028	0.000	18.9	57	1
03/18/19	9:50 p	-22.2	-22.1	-22.2	7.8	ESE	0.13	8.7	-31.6	717.4	0.028	0.000	18.9	58	1
03/18/19	9:51 p	-22.2	-22.2	-22.2	7.8	ESE	0.13	8.7	-31.5	717.3	0.028	0.000	18.9	57	1
03/18/19	9:52 p	-22.2	-22.2	-22.2	7.0	ESE	0.12	7.8	-30.9	717.3	0.028	0.000	18.9	58	1
03/18/19	9:53 p	-22.1	-22.1	-22.2	7.0	ESE	0.12	7.8	-30.8	717.4	0.028	0.000	18.9	58	1
03/18/19	9:54 p	-22.1	-22.1	-22.1	7.0	ESE	0.12	7.8	-30.8	717.4	0.028	0.000	18.9	57	1
03/18/19	9:55 p	-22.1	-22.0	-22.1	7.0	ESE	0.12	7.0	-30.8	717.4	0.028	0.000	18.9	58	1
03/18/19	9:56 p	-22.1	-22.0	-22.1	7.0	ESE	0.12	7.8	-30.8	717.4	0.028	0.000	18.9	57	1
03/18/19	9:57 p	-22.0	-22.0	-22.1	6.1	ESE	0.10	7.0	-30.1	717.4	0.028	0.000	18.9	57	1
03/18/19	9:58 p	-22.0	-22.0	-22.0	6.1	ESE	0.10	7.0	-30.1	717.4	0.028	0.000	18.9	57	1
03/18/19	9:59 p	-22.0	-22.0	-22.0	6.1	ESE	0.10	7.0	-30.1	717.4	0.028	0.000	18.9	58	1
03/18/19	10:00 p	-21.9	-21.9	-22.0	6.1	ESE	0.10	7.0	-30.0	717.5	0.028	0.000	18.9	58	1
03/18/19	10:01 p	-21.9	-21.8	-21.9	6.1	ESE	0.10	7.8	-29.9	717.4	0.028	0.000	18.8	57	1
03/18/19	10:02 p	-21.9	-21.8	-21.9	7.0	ESE	0.12	7.8	-30.6	717.5	0.028	0.000	18.8	58	1
03/18/19	10:03 p	-21.8	-21.8	-21.9	7.0	ESE	0.12	7.8	-30.5	717.4	0.028	0.000	18.8	58	1
03/18/19	10:04 p	-21.8	-21.8	-21.9	7.8	ESE	0.13	8.7	-31.1	717.4	0.028	0.000	18.7	58	1
03/18/19	10:05 p	-21.8	-21.7	-21.8	7.8	ESE	0.13	8.7	-31.0	717.4	0.028	0.000	18.7	58	1
03/18/19	10:06 p	-21.8	-21.7	-21.8	7.0	ESE	0.12	7.8	-30.4	717.4	0.028	0.000	18.7	58	1
03/18/19	10:07 p	-21.8	-21.7	-21.8	6.1	ESE	0.10	7.0	-29.8	717.4	0.028	0.000	18.7	57	1
03/18/19	10:08 p	-21.7	-21.7	-21.8	6.1	ESE	0.10	7.8	-29.7	717.4	0.028	0.000	18.7	58	1
03/18/19	10:09 p	-21.7	-21.7	-21.7	7.8	ESE	0.13	7.8	-30.9	717.4	0.028	0.000	18.7	58	1
03/18/19	10:10 p	-21.7	-21.7	-21.7	7.0	ESE	0.12	7.8	-30.4	717.3	0.028	0.000	18.7	58	1
03/18/19	10:11 p	-21.7	-21.7	-21.7	7.8	ESE	0.13	8.7	-30.9	717.4	0.028	0.000	18.6	58	1
03/18/19	10:12 p	-21.7	-21.7	-21.7	7.0	ESE	0.12	8.7	-30.3	717.4	0.028	0.000	18.7	57	1
03/18/19	10:13 p	-21.6	-21.6	-21.7	6.1	ESE	0.10	7.0	-29.6	717.4	0.028	0.000	18.7	58	1
03/18/19	10:14 p	-21.6	-21.6	-21.6	7.0	ESE	0.12	8.7	-30.2	717.4	0.028	0.000	18.7	58	1
03/18/19	10:15 p	-21.6	-21.6	-21.6	7.8	ESE	0.13	8.7	-30.7	717.4	0.028	0.000	18.7	57	1
03/18/19	10:16 p	-21.6	-21.5	-21.6	7.8	ESE	0.13	8.7	-30.7	717.4	0.028	0.000	18.7	57	1
03/18/19	10:17 p	-21.6	-21.6	-21.6	8.7	ESE	0.14	9.6	-31.3	717.3	0.028	0.000	18.7	58	1
03/18/19	10:18 p	-21.6	-21.5	-21.6	8.7	ESE	0.14	9.6	-31.3	717.3	0.028	0.000	18.7	58	1
03/18/19	10:19 p	-21.5	-21.5	-21.6	8.7	ESE	0.14	8.7	-31.2	717.3	0.028	0.000	18.7	57	1
03/18/19	10:20 p	-21.5	-21.4	-21.5	8.7	ESE	0.14	8.7	-31.2	717.3	0.028	0.000	18.7	58	1
03/18/19	10:21 p	-21.5	-21.4	-21.5	7.8	ESE	0.13	8.7	-30.7	717.4	0.028	0.000	18.7	58	1
03/18/19	10:22 p	-21.4	-21.4	-21.4	8.7	ESE	0.14	9.6	-31.1	717.4	0.028	0.000	18.8	58	1
03/18/19	10:23 p	-21.4	-21.4	-21.4	8.7	ESE	0.14	9.6	-31.1	717.4	0.028	0.000	18.8	58	1
03/18/19	10:24 p	-21.4	-21.4	-21.4	8.7	ESE	0.14	9.6	-31.1	717.4	0.028	0.000	18.8	58	1
03/18/19	10:25 p	-21.4	-21.4	-21.4	9.6	ESE	0.16	9.6	-31.5	717.4	0.028	0.000	18.8	58	1
03/18/19	10:26 p	-21.4	-21.4	-21.4	8.7	ESE	0.14	10.4	-31.1	717.4	0.028	0.000	18.8	58	1
03/18/19	10:27 p	-21.4	-21.3	-21.4	8.7	ESE	0.14	9.6	-31.1	717.4	0.028	0.000	18.8	58	1
03/18/19	10:28 p	-21.4	-21.4	-21.4	9.6	ESE	0.16	10.4	-31.5	717.4	0.028	0.000	18.8	58	1
03/18/19	10:29 p	-21.4	-21.3	-21.4	9.6	ESE	0.16	9.6	-31.5	717.3	0.028	0.000	18.8	58	1
03/18/19	10:30 p	-21.3	-21.3	-21.4	9.6	ESE	0.16	9.6	-31.4	717.3	0.028	0.000	18.8	58	1
03/18/19	10:31 p	-21.3	-21.3	-21.4	9.6	ESE	0.16	10.4	-31.4	717.3	0.028	0.000	18.8	58	1
03/18/19	10:32 p	-21.3	-21.3	-21.3	10.4	ESE	0.17	10.4	-31.9	717.3	0.028	0.000	18.8	58	1
03/18/19	10:33 p	-21.3	-21.3	-21.3	10.4	ESE	0.17	11.3	-31.9	717.3	0.028	0.000	18.8	58	1
03/18/19	10:34 p	-21.3	-21.3	-21.3	10.4	ESE	0.17	10.4	-31.9	717.4	0.028	0.000	18.8	58	1
03/18/19	10:35 p	-21.3	-21.3	-21.3	10.4	ESE	0.17	10.4	-31.9	717.4	0.028	0.000	18.8	58	1
03/18/19	10:36 p	-21.3	-21.3	-21.3	10.4	ESE	0.17	11.3	-31.9	717.4	0.028	0.000	18.8	58	1
03/18/19	10:37 p	-21.3	-21.3	-21.3	9.6	ESE	0.16	10.4	-31.4	717.4	0.028	0.000	18.9	58	1
03/18/19	10:38 p	-21.3	-21.3	-21.3	9.6	ESE	0.16	10.4	-31.4	717.3	0.028	0.000	18.9	58	1
03/18/19	10:39 p	-21.3	-21.3	-21.3	9.6	ESE	0.16	10.4	-31.4	717.3	0.028	0.000	18.9	58	1
03/18/19	10:40 p	-21.3	-21.3	-21.3	10.4	ESE	0.17	10.4	-31.9	717.3	0.028	0.000	18.9	58	1
03/18/19	10:41 p	-21.3	-21.3	-21.3	10.4	ESE	0.17	11.3	-31.9	717.3	0.028	0.000	18.9	58	1
03/18/19	10:42 p	-21.3	-21.3	-21.3	10.4	ESE	0.17	11.3	-31.9	717.3	0.028	0.000	18.9	58	1
03/18/19	10:43 p	-21.3	-21.3	-21.3	9.6	ESE	0.16	10.4	-31.4	717.4	0.028	0.000	18.9	58	1
03/18/19	10:44 p	-21.3	-21.3	-21.3	9.6	ESE	0.16	10.4	-31.4	717.3	0.028	0.000	18.9	58	1
03/18/19	10:45 p	-21.3	-21.3	-21.3	9.6	ESE	0.16	11.3	-31.4	717.4	0.028	0.000	18.9	58	1
03/18/19	10:46 p	-21.3	-21.3	-21.3	9.6	ESE	0.16	11.3	-31.4	717.4	0.028	0.000	18.9	58	1
03/18/19	10:47 p	-21.3	-21.3	-21.3	10.4	ESE	0.17	11.3	-31.8	717.4	0.028	0.000	18.9	58	1
03/18/19	10:48 p	-21.3	-21.3	-21.3	9.6	ESE	0.16	11.3	-31.4	717.4	0.028	0.000	18.9	58	1
03/18/19	10:49 p	-21.3	-21.2	-21.3	11.3	ESE	0.19	12.2	-32.2	717.4	0.028	0.000	18.9	58	1
03/18/19	10:50 p	-21.3	-21.3	-21.3	10.4	ESE	0.17	11.3	-31.8	717.4	0.028	0.000	18.9	58	1
03/18/19	10:51 p	-21.3	-21.2	-21.3	11.3	ESE	0.19	12.2	-32.2	717.4	0.028	0.000	19.0	58	1
03/18/19	10:52 p	-21.3	-21.3	-21.3	11.3	ESE	0.19	12.2	-32.2	717.3	0.028	0.000	19.0	58	1
03/18/19	10:53 p	-21.3	-21.3	-21.3	11.3	ESE	0.19	12.2	-32.2	717.4	0.028	0.000	19.0	58	1
03/18/19	10:54 p	-21.3	-21.3	-21.3	9.6	ESE	0.16	10.4	-31.4	717.4	0.028	0.000	19.0	58	1
03/18/19	10:55 p	-21.3	-21.3	-21.3	9.6	ESE	0.16	10.4	-31.4	717.4	0.028	0.000	19.0	58	1
03/18/19	10:56 p	-21.3	-21.3	-21.3	9.6	ESE	0.16	10.4	-31.4	717.5	0.028	0.000	19.0	58	1
03/18/19	10:57 p	-21.3	-21.3	-21.3	8.7	ESE	0.14	9.6	-30.9	717.4	0.028	0.000	19.0	58	1
03/18/19	10:58 p	-21.3	-21.3	-21.3	8.7	ESE	0.14	9.6	-30.9	717.4	0.028	0.000	19.0	58	1
03/18/19	10:59 p	-21.3	-21.3	-21.3	8.7	ESE	0.14	9.6	-30.9	717.4	0.028	0.000	19.0	58	1
03/18/19	11:00 p	-21.3	-21.3	-21.3	9.6	ESE	0.16	11.3	-31.4	717.4	0.028	0.000	19.1	58	1
03/18/19	11:01 p	-21.3	-21.3	-21.3	10.4	ESE	0.17	11.3	-31.8	717.4	0.028	0.000	19.1	58	1
03/18/19	11:02 p	-21.3	-21.3	-21.3	10.4	ESE	0.17	11.3	-31.8	717.3	0.028	0.000	19.1	58	1
03/18/19	11:03 p	-21.3	-21.3	-21.3	10.4	ESE	0.17	12.2	-31.8	717.3	0.028	0.000	19.1	58	1
03/18/19	11:04 p	-21.3	-21.2	-21.3	10.4	ESE	0.17	11.3	-31.8	717.3	0.028	0.000	19.1	58	1
03/18/19	11:05 p	-21.2	-21.2	-21.3	11.3	ESE	0.19	11.3	-32.2	717.3	0.027	0.000	19.1	58	1
03/18/19	11:06 p	-21.2	-21.2	-21.2	11.3	ESE	0.19	12.2	-32.2	717.4	0.027	0.000	19.1	58	1
03/18/19	11:07 p	-21.2	-21.2	-21.3	11.3	ESE	0.19	11.3	-32.2	717.4	0.027	0.000	19.1	58	1
03/18/19	11:08 p	-21.2	-21.2	-21.2	11.3	ESE	0.19	12.2	-32.2	717.3	0.027	0.000	19.1	58	1
03/18/19	11:09 p	-21.2	-21.2	-21.2	12.2	ESE	0.20	13.0	-32.6	717.4	0.027	0.000	19.1	58	1
03/18/19	11:10 p	-21.2	-21.2	-21.2	11.3	ESE	0.19	12.2	-32.2	717.3	0.027	0.000	19.1	58	1
03/18/19	11:11 p	-21.2	-21.2	-21.2	10.4	ESE	0.17	12.2	-31.8	717.4	0.027	0.000	19.1	58	1
03/18/19	11:12 p	-21.2	-21.2	-21.2	11.3	ESE	0.19	12.2	-32.2	717.3	0.027	0.000	19.1	58	1
03/18/19	11:13 p	-21.2	-21.2	-21.2	11.3	ESE	0.19	12.2	-32.2	717.3	0.027	0.000	19.1	58	1
03/18/19	11:14 p	-21.2	-21.2	-21.2	11.3	ESE	0.19	12.2	-32.2	717.3	0.027	0.000	19.0	58	1
03/18/19	11:15 p	-21.2	-21.2	-21.2	10.4	ESE	0.17	12.2	-31.8	717.3	0.027	0.000	18.9	58	1
03/18/19	11:16 p	-21.2	-21.2	-21.2	12.2	ESE	0.20	13.0	-32.6	717.3	0.027	0.000	18.9	58	1
03/18/19	11:17 p	-21.2	-21.2	-21.2	11.3	ESE	0.19	12.2	-32.2	717.4	0.027	0.000	18.9	58	1
03/18/19	11:18 p	-21.2	-21.2	-21.2	11.3	ESE	0.19	12.2	-32.2	717.3	0.027	0.000	18.9	58	1
03/18/19	11:19 p	-21.2	-21.1	-21.2	11.3	ESE	0.19	12.2	-32.1	717.3	0.027	0.000	18.9	58	1
03/18/19	11:20 p	-21.2	-21.2	-21.2	11.3	ESE	0.19	12.2	-32.1	717.3	0.027	0.000	18.8	58	1
03/18/19	11:21 p	-21.2	-21.2	-21.2	11.3	ESE	0.19	12.2	-32.1	717.4	0.027	0.000	18.8	58	1
03/18/19	11:22 p	-21.2	-21.2	-21.2	11.3	ESE	0.19	12.2	-32.1	717.3	0.027	0.000	18.8	58	1
03/18/19	11:23 p	-21.2	-21.2	-21.2	12.2	ESE	0.20	13.0	-32.5	717.3	0.027	0.000	18.8	58	1
03/18/19	11:24 p	-21.2	-21.2	-21.2	12.2	ESE	0.20	12.2	-32.5	717.3	0.027	0.000	18.8	58	1
03/18/19	11:25 p	-21.2	-21.1	-21.2	11.3	ESE	0.19	12.2	-32.1	717.4	0.027	0.000	18.8	58	1
03/18/19	11:26 p	-21.2	-21.2	-21.2	11.3	ESE	0.19	12.2	-32.1	717.3	0.027	0.000	18.8	58	1
03/18/19	11:27 p	-21.2	-21.2	-21.2	11.3	ESE	0.19	11.3	-32.1	717.3	0.027	0.000	18.8	58	1
03/18/19	11:28 p	-21.2	-21.1	-21.2	11.3	ESE	0.19	12.2	-32.1	717.3	0.027	0.000	18.8	58	1
03/18/19	11:29 p	-21.2	-21.1	-21.2	11.3	ESE	0.19	12.2	-32.1	717.4	0.027	0.000	18.8	58	1
03/18/19	11:30 p	-21.1	-21.1	-21.2	11.3	ESE	0.19	12.2	-32.0	717.3	0.027	0.000	18.9	58	1
03/18/19	11:31 p	-21.1	-21.1	-21.1	10.4	ESE	0.17	12.2	-31.6	717.4	0.027	0.000	18.9	58	1
03/18/19	11:32 p	-21.1	-21.1	-21.1	10.4	ESE	0.17	11.3	-31.6	717.3	0.027	0.000	18.9	58	1
03/18/19	11:33 p	-21.1	-21.1	-21.1	10.4	ESE	0.17	11.3	-31.6	717.3	0.027	0.000	18.9	58	1
03/18/19	11:34 p	-21.1	-21.1	-21.1	10.4	ESE	0.17	11.3	-31.6	717.3	0.027	0.000	18.9	58	1
03/18/19	11:35 p	-21.1	-21.1	-21.1	10.4	ESE	0.17	11.3	-31.6	717.3	0.027	0.000	18.9	58	1
03/18/19	11:36 p	-21.1	-21.1	-21.1	10.4	ESE	0.17	11.3	-31.6	717.3	0.027	0.000	18.9	58	1
03/18/19	11:37 p	-21.1	-21.1	-21.1	10.4	ESE	0.17	11.3	-31.6	717.3	0.027	0.000	18.9	58	1
03/18/19	11:38 p	-21.1	-21.1	-21.1	10.4	ESE	0.17	11.3	-31.6	717.4	0.027	0.000	18.9	58	1
03/18/19	11:39 p	-21.1	-21.1	-21.1	11.3	ESE	0.19	11.3	-31.9	717.3	0.027	0.000	18.9	58	1
03/18/19	11:40 p	-21.1	-21.1	-21.1	10.4	ESE	0.17	11.3	-31.6	717.3	0.027	0.000	18.9	58	1
03/18/19	11:41 p	-21.1	-21.1	-21.1	10.4	ESE	0.17	11.3	-31.6	717.3	0.027	0.000	18.9	58	1
03/18/19	11:42 p	-21.1	-21.1	-21.1	11.3	ESE	0.19	12.2	-31.9	717.3	0.027	0.000	19.0	58	1
03/18/19	11:43 p	-21.1	-21.1	-21.1	11.3	ESE	0.19	12.2	-31.9	717.3	0.027	0.000	19.0	58	1
03/18/19	11:44 p	-21.1	-21.1	-21.1	11.3	ESE	0.19	12.2	-31.9	717.3	0.027	0.000	19.0	58	1
03/18/19	11:45 p	-21.1	-21.0	-21.1	11.3	ESE	0.19	12.2	-31.9	717.3	0.027	0.000	19.0	58	1
03/18/19	11:46 p	-21.1	-21.0	-21.1	11.3	ESE	0.19	12.2	-31.9	717.3	0.027	0.000	19.0	58	1
03/18/19	11:47 p	-21.1	-21.0	-21.1	11.3	ESE	0.19	12.2	-31.9	717.3	0.027	0.000	19.0	58	1
03/18/19	11:48 p	-21.0	-21.0	-21.0	11.3	ESE	0.19	12.2	-31.9	717.3	0.027	0.000	19.1	58	1
03/18/19	11:49 p	-21.0	-21.0	-21.0	12.2	ESE	0.20	12.2	-32.3	717.3	0.027	0.000	19.0	58	1
03/18/19	11:50 p	-21.0	-21.0	-21.0	12.2	ESE	0.20	12.2	-32.3	717.3	0.027	0.000	19.0	58	1
03/18/19	11:51 p	-21.0	-20.9	-21.0	11.3	ESE	0.19	12.2	-31.9	717.3	0.027	0.000	19.1	58	1
03/18/19	11:52 p	-21.0	-20.9	-21.0	12.2	ESE	0.20	12.2	-32.3	717.4	0.027	0.000	19.1	58	1
03/18/19	11:53 p	-21.0	-20.9	-21.0	11.3	ESE	0.19	12.2	-31.9	717.3	0.027	0.000	19.1	58	1
03/18/19	11:54 p	-20.9	-20.9	-21.0	11.3	ESE	0.19	13.0	-31.8	717.3	0.027	0.000	19.1	58	1
03/18/19	11:55 p	-20.9	-20.9	-20.9	12.2	ESE	0.20	12.2	-32.2	717.3	0.027	0.000	19.1	58	1
03/18/19	11:56 p	-20.9	-20.9	-20.9	11.3	ESE	0.19	12.2	-31.8	717.3	0.027	0.000	19.1	58	1
03/18/19	11:57 p	-20.9	-20.9	-20.9	11.3	ESE	0.19	12.2	-31.8	717.3	0.027	0.000	19.1	58	1
03/18/19	11:58 p	-20.9	-20.9	-20.9	11.3	ESE	0.19	12.2	-31.8	717.3	0.027	0.000	19.1	58	1
03/18/19	11:59 p	-20.9	-20.9	-20.9	12.2	ESE	0.20	13.0	-32.2	717.3	0.027	0.000	19.1	58	1
03/19/19	12:00 a	-20.9	-20.9	-20.9	12.2	ESE	0.20	13.0	-32.1	717.3	0.027	0.000	19.1	58	1